<?xml version="1.0" encoding="UTF-8" standalone="no" ?>
<gpx xmlns="http://www.topografix.com/GPX/1/1" xmlns:xsi="http://www.w3.org/2001/XMLSchema-instance" xsi:schemaLocation="http://www.topografix.com/GPX/1/1 http://www.topografix.com/GPX/1/1/gpx.xsd" version="1.1" creator="VisuGPX - https://www.visugpx.com">
  <metadata>
    <name>VTT-tourette-col de vence-la mine-courmes</name>
    <desc><![CDATA[8 autour du col de vence,
magnifiques descentes, montée bien raid...]]></desc>
  </metadata>
  <trk>
    <name><![CDATA[VTT_Tourette-col de vence-la mine-courmes]]></name>
    <trkseg>
      <trkpt lat="43.71831" lon="7.06386">
        <ele>403.39999389648</ele>
        <time>2011-12-17T08:07:18.000Z</time>
      </trkpt>
      <trkpt lat="43.71832" lon="7.06386">
        <ele>403.39999389648</ele>
        <time>2011-12-17T08:07:25.000Z</time>
      </trkpt>
      <trkpt lat="43.7183" lon="7.06387">
        <ele>403.39999389648</ele>
        <time>2011-12-17T08:07:31.000Z</time>
      </trkpt>
      <trkpt lat="43.7183" lon="7.06386">
        <ele>403.39999389648</ele>
        <time>2011-12-17T08:07:37.000Z</time>
      </trkpt>
      <trkpt lat="43.7183" lon="7.06386">
        <ele>403.39999389648</ele>
        <time>2011-12-17T08:07:51.000Z</time>
      </trkpt>
      <trkpt lat="43.7183" lon="7.06386">
        <ele>403.39999389648</ele>
        <time>2011-12-17T08:07:59.000Z</time>
      </trkpt>
      <trkpt lat="43.71829" lon="7.06386">
        <ele>403.39999389648</ele>
        <time>2011-12-17T08:08:10.000Z</time>
      </trkpt>
      <trkpt lat="43.71828" lon="7.06386">
        <ele>403.39999389648</ele>
        <time>2011-12-17T08:08:21.000Z</time>
      </trkpt>
      <trkpt lat="43.71827" lon="7.06385">
        <ele>403.39999389648</ele>
        <time>2011-12-17T08:08:29.000Z</time>
      </trkpt>
      <trkpt lat="43.71827" lon="7.06385">
        <ele>403.20001220703</ele>
        <time>2011-12-17T08:08:36.000Z</time>
      </trkpt>
      <trkpt lat="43.71829" lon="7.06385">
        <ele>403.39999389648</ele>
        <time>2011-12-17T08:09:17.000Z</time>
      </trkpt>
      <trkpt lat="43.71829" lon="7.06383">
        <ele>403.20001220703</ele>
        <time>2011-12-17T08:09:39.000Z</time>
      </trkpt>
      <trkpt lat="43.71829" lon="7.06383">
        <ele>403.20001220703</ele>
        <time>2011-12-17T08:09:44.000Z</time>
      </trkpt>
      <trkpt lat="43.71829" lon="7.06379">
        <ele>403</ele>
        <time>2011-12-17T08:09:50.000Z</time>
      </trkpt>
      <trkpt lat="43.71827" lon="7.06383">
        <ele>403.20001220703</ele>
        <time>2011-12-17T08:09:52.000Z</time>
      </trkpt>
      <trkpt lat="43.7183" lon="7.06384">
        <ele>403.39999389648</ele>
        <time>2011-12-17T08:09:57.000Z</time>
      </trkpt>
      <trkpt lat="43.71838" lon="7.06363">
        <ele>402.60000610352</ele>
        <time>2011-12-17T08:10:03.000Z</time>
      </trkpt>
      <trkpt lat="43.71845" lon="7.0635">
        <ele>402.39999389648</ele>
        <time>2011-12-17T08:10:06.000Z</time>
      </trkpt>
      <trkpt lat="43.7184" lon="7.06332">
        <ele>401.39999389648</ele>
        <time>2011-12-17T08:10:10.000Z</time>
      </trkpt>
      <trkpt lat="43.71832" lon="7.06314">
        <ele>401.79998779297</ele>
        <time>2011-12-17T08:10:14.000Z</time>
      </trkpt>
      <trkpt lat="43.71839" lon="7.06288">
        <ele>403.39999389648</ele>
        <time>2011-12-17T08:10:19.000Z</time>
      </trkpt>
      <trkpt lat="43.71838" lon="7.06267">
        <ele>404.20001220703</ele>
        <time>2011-12-17T08:10:23.000Z</time>
      </trkpt>
      <trkpt lat="43.71821" lon="7.0623">
        <ele>405.79998779297</ele>
        <time>2011-12-17T08:10:31.000Z</time>
      </trkpt>
      <trkpt lat="43.71804" lon="7.06193">
        <ele>406.20001220703</ele>
        <time>2011-12-17T08:10:39.000Z</time>
      </trkpt>
      <trkpt lat="43.71777" lon="7.06133">
        <ele>406.39999389648</ele>
        <time>2011-12-17T08:10:52.000Z</time>
      </trkpt>
      <trkpt lat="43.71756" lon="7.06082">
        <ele>408.20001220703</ele>
        <time>2011-12-17T08:11:03.000Z</time>
      </trkpt>
      <trkpt lat="43.71736" lon="7.06046">
        <ele>406.79998779297</ele>
        <time>2011-12-17T08:11:12.000Z</time>
      </trkpt>
      <trkpt lat="43.7172" lon="7.06008">
        <ele>407</ele>
        <time>2011-12-17T08:11:21.000Z</time>
      </trkpt>
      <trkpt lat="43.71708" lon="7.0597">
        <ele>408.60000610352</ele>
        <time>2011-12-17T08:11:30.000Z</time>
      </trkpt>
      <trkpt lat="43.71701" lon="7.05926">
        <ele>412.79998779297</ele>
        <time>2011-12-17T08:11:40.000Z</time>
      </trkpt>
      <trkpt lat="43.71691" lon="7.05889">
        <ele>413.20001220703</ele>
        <time>2011-12-17T08:11:48.000Z</time>
      </trkpt>
      <trkpt lat="43.71688" lon="7.05851">
        <ele>413.79998779297</ele>
        <time>2011-12-17T08:11:55.000Z</time>
      </trkpt>
      <trkpt lat="43.71686" lon="7.05818">
        <ele>412.79998779297</ele>
        <time>2011-12-17T08:12:02.000Z</time>
      </trkpt>
      <trkpt lat="43.71683" lon="7.05787">
        <ele>409.79998779297</ele>
        <time>2011-12-17T08:12:08.000Z</time>
      </trkpt>
      <trkpt lat="43.71685" lon="7.05753">
        <ele>407.20001220703</ele>
        <time>2011-12-17T08:12:15.000Z</time>
      </trkpt>
      <trkpt lat="43.71686" lon="7.05745">
        <ele>406.60000610352</ele>
        <time>2011-12-17T08:12:17.000Z</time>
      </trkpt>
      <trkpt lat="43.71681" lon="7.05741">
        <ele>405.20001220703</ele>
        <time>2011-12-17T08:12:21.000Z</time>
      </trkpt>
      <trkpt lat="43.7168" lon="7.05747">
        <ele>405.79998779297</ele>
        <time>2011-12-17T08:12:23.000Z</time>
      </trkpt>
      <trkpt lat="43.71682" lon="7.05774">
        <ele>408.60000610352</ele>
        <time>2011-12-17T08:12:29.000Z</time>
      </trkpt>
      <trkpt lat="43.71687" lon="7.05808">
        <ele>412.20001220703</ele>
        <time>2011-12-17T08:12:36.000Z</time>
      </trkpt>
      <trkpt lat="43.71689" lon="7.05812">
        <ele>412.60000610352</ele>
        <time>2011-12-17T08:12:37.000Z</time>
      </trkpt>
      <trkpt lat="43.71697" lon="7.05811">
        <ele>413.60000610352</ele>
        <time>2011-12-17T08:12:41.000Z</time>
      </trkpt>
      <trkpt lat="43.71698" lon="7.05805">
        <ele>413.39999389648</ele>
        <time>2011-12-17T08:12:43.000Z</time>
      </trkpt>
      <trkpt lat="43.71706" lon="7.05783">
        <ele>412.79998779297</ele>
        <time>2011-12-17T08:12:51.000Z</time>
      </trkpt>
      <trkpt lat="43.71713" lon="7.05761">
        <ele>412.60000610352</ele>
        <time>2011-12-17T08:12:59.000Z</time>
      </trkpt>
      <trkpt lat="43.71722" lon="7.05744">
        <ele>412.79998779297</ele>
        <time>2011-12-17T08:13:06.000Z</time>
      </trkpt>
      <trkpt lat="43.71736" lon="7.0572">
        <ele>414</ele>
        <time>2011-12-17T08:13:16.000Z</time>
      </trkpt>
      <trkpt lat="43.71744" lon="7.05701">
        <ele>414.79998779297</ele>
        <time>2011-12-17T08:13:23.000Z</time>
      </trkpt>
      <trkpt lat="43.71746" lon="7.05677">
        <ele>414.20001220703</ele>
        <time>2011-12-17T08:13:30.000Z</time>
      </trkpt>
      <trkpt lat="43.71749" lon="7.05665">
        <ele>414.39999389648</ele>
        <time>2011-12-17T08:13:35.000Z</time>
      </trkpt>
      <trkpt lat="43.71749" lon="7.05664">
        <ele>414.39999389648</ele>
        <time>2011-12-17T08:13:36.000Z</time>
      </trkpt>
      <trkpt lat="43.71754" lon="7.05665">
        <ele>415.60000610352</ele>
        <time>2011-12-17T08:13:41.000Z</time>
      </trkpt>
      <trkpt lat="43.71761" lon="7.0567">
        <ele>417</ele>
        <time>2011-12-17T08:13:45.000Z</time>
      </trkpt>
      <trkpt lat="43.71769" lon="7.05673">
        <ele>418.60000610352</ele>
        <time>2011-12-17T08:13:52.000Z</time>
      </trkpt>
      <trkpt lat="43.71783" lon="7.05677">
        <ele>421.20001220703</ele>
        <time>2011-12-17T08:13:59.000Z</time>
      </trkpt>
      <trkpt lat="43.71797" lon="7.05687">
        <ele>424</ele>
        <time>2011-12-17T08:14:07.000Z</time>
      </trkpt>
      <trkpt lat="43.71806" lon="7.05703">
        <ele>425.79998779297</ele>
        <time>2011-12-17T08:14:15.000Z</time>
      </trkpt>
      <trkpt lat="43.71817" lon="7.05726">
        <ele>428</ele>
        <time>2011-12-17T08:14:24.000Z</time>
      </trkpt>
      <trkpt lat="43.71828" lon="7.05736">
        <ele>430</ele>
        <time>2011-12-17T08:14:30.000Z</time>
      </trkpt>
      <trkpt lat="43.71843" lon="7.05736">
        <ele>432.60000610352</ele>
        <time>2011-12-17T08:14:37.000Z</time>
      </trkpt>
      <trkpt lat="43.71853" lon="7.05736">
        <ele>434.39999389648</ele>
        <time>2011-12-17T08:14:43.000Z</time>
      </trkpt>
      <trkpt lat="43.71871" lon="7.05736">
        <ele>437.60000610352</ele>
        <time>2011-12-17T08:14:53.000Z</time>
      </trkpt>
      <trkpt lat="43.71884" lon="7.05737">
        <ele>439.79998779297</ele>
        <time>2011-12-17T08:15:01.000Z</time>
      </trkpt>
      <trkpt lat="43.719" lon="7.05739">
        <ele>442.60000610352</ele>
        <time>2011-12-17T08:15:11.000Z</time>
      </trkpt>
      <trkpt lat="43.71911" lon="7.05733">
        <ele>444.79998779297</ele>
        <time>2011-12-17T08:15:20.000Z</time>
      </trkpt>
      <trkpt lat="43.71923" lon="7.0573">
        <ele>447.39999389648</ele>
        <time>2011-12-17T08:15:29.000Z</time>
      </trkpt>
      <trkpt lat="43.71935" lon="7.05733">
        <ele>450.20001220703</ele>
        <time>2011-12-17T08:15:39.000Z</time>
      </trkpt>
      <trkpt lat="43.71945" lon="7.05736">
        <ele>452.39999389648</ele>
        <time>2011-12-17T08:15:47.000Z</time>
      </trkpt>
      <trkpt lat="43.71959" lon="7.05739">
        <ele>455.39999389648</ele>
        <time>2011-12-17T08:15:58.000Z</time>
      </trkpt>
      <trkpt lat="43.71967" lon="7.05745">
        <ele>456.79998779297</ele>
        <time>2011-12-17T08:16:05.000Z</time>
      </trkpt>
      <trkpt lat="43.71974" lon="7.05745">
        <ele>458.39999389648</ele>
        <time>2011-12-17T08:16:12.000Z</time>
      </trkpt>
      <trkpt lat="43.71982" lon="7.0575">
        <ele>460</ele>
        <time>2011-12-17T08:16:19.000Z</time>
      </trkpt>
      <trkpt lat="43.71989" lon="7.05754">
        <ele>461.20001220703</ele>
        <time>2011-12-17T08:16:27.000Z</time>
      </trkpt>
      <trkpt lat="43.71996" lon="7.05753">
        <ele>462.79998779297</ele>
        <time>2011-12-17T08:16:33.000Z</time>
      </trkpt>
      <trkpt lat="43.72006" lon="7.05753">
        <ele>465</ele>
        <time>2011-12-17T08:16:43.000Z</time>
      </trkpt>
      <trkpt lat="43.72014" lon="7.05756">
        <ele>466.60000610352</ele>
        <time>2011-12-17T08:16:51.000Z</time>
      </trkpt>
      <trkpt lat="43.72022" lon="7.0576">
        <ele>467.79998779297</ele>
        <time>2011-12-17T08:16:59.000Z</time>
      </trkpt>
      <trkpt lat="43.72033" lon="7.05763">
        <ele>469.79998779297</ele>
        <time>2011-12-17T08:17:08.000Z</time>
      </trkpt>
      <trkpt lat="43.72036" lon="7.05768">
        <ele>470</ele>
        <time>2011-12-17T08:17:11.000Z</time>
      </trkpt>
      <trkpt lat="43.72045" lon="7.05769">
        <ele>471.60000610352</ele>
        <time>2011-12-17T08:17:18.000Z</time>
      </trkpt>
      <trkpt lat="43.72058" lon="7.05774">
        <ele>473.60000610352</ele>
        <time>2011-12-17T08:17:28.000Z</time>
      </trkpt>
      <trkpt lat="43.72067" lon="7.05774">
        <ele>475.39999389648</ele>
        <time>2011-12-17T08:17:35.000Z</time>
      </trkpt>
      <trkpt lat="43.7208" lon="7.05774">
        <ele>478</ele>
        <time>2011-12-17T08:17:46.000Z</time>
      </trkpt>
      <trkpt lat="43.72091" lon="7.05775">
        <ele>480.79998779297</ele>
        <time>2011-12-17T08:17:55.000Z</time>
      </trkpt>
      <trkpt lat="43.72102" lon="7.05769">
        <ele>485</ele>
        <time>2011-12-17T08:18:04.000Z</time>
      </trkpt>
      <trkpt lat="43.72109" lon="7.05764">
        <ele>488.20001220703</ele>
        <time>2011-12-17T08:18:11.000Z</time>
      </trkpt>
      <trkpt lat="43.72117" lon="7.05765">
        <ele>490.39999389648</ele>
        <time>2011-12-17T08:18:18.000Z</time>
      </trkpt>
      <trkpt lat="43.72126" lon="7.05766">
        <ele>492.79998779297</ele>
        <time>2011-12-17T08:18:25.000Z</time>
      </trkpt>
      <trkpt lat="43.72137" lon="7.05765">
        <ele>496.39999389648</ele>
        <time>2011-12-17T08:18:34.000Z</time>
      </trkpt>
      <trkpt lat="43.72145" lon="7.05762">
        <ele>499.39999389648</ele>
        <time>2011-12-17T08:18:41.000Z</time>
      </trkpt>
      <trkpt lat="43.72155" lon="7.05762">
        <ele>502.20001220703</ele>
        <time>2011-12-17T08:18:49.000Z</time>
      </trkpt>
      <trkpt lat="43.72165" lon="7.05766">
        <ele>504.39999389648</ele>
        <time>2011-12-17T08:18:58.000Z</time>
      </trkpt>
      <trkpt lat="43.72174" lon="7.05769">
        <ele>506.79998779297</ele>
        <time>2011-12-17T08:19:06.000Z</time>
      </trkpt>
      <trkpt lat="43.72183" lon="7.05771">
        <ele>509</ele>
        <time>2011-12-17T08:19:14.000Z</time>
      </trkpt>
      <trkpt lat="43.72192" lon="7.05775">
        <ele>511.20001220703</ele>
        <time>2011-12-17T08:19:22.000Z</time>
      </trkpt>
      <trkpt lat="43.72194" lon="7.05776">
        <ele>511.79998779297</ele>
        <time>2011-12-17T08:19:24.000Z</time>
      </trkpt>
      <trkpt lat="43.72194" lon="7.05776">
        <ele>511.60000610352</ele>
        <time>2011-12-17T08:19:34.000Z</time>
      </trkpt>
      <trkpt lat="43.72194" lon="7.05776">
        <ele>511.79998779297</ele>
        <time>2011-12-17T08:19:51.000Z</time>
      </trkpt>
      <trkpt lat="43.72194" lon="7.05772">
        <ele>512.79998779297</ele>
        <time>2011-12-17T08:20:05.000Z</time>
      </trkpt>
      <trkpt lat="43.722" lon="7.05772">
        <ele>515</ele>
        <time>2011-12-17T08:20:09.000Z</time>
      </trkpt>
      <trkpt lat="43.7221" lon="7.05776">
        <ele>517.40002441406</ele>
        <time>2011-12-17T08:20:16.000Z</time>
      </trkpt>
      <trkpt lat="43.7222" lon="7.05779">
        <ele>520</ele>
        <time>2011-12-17T08:20:23.000Z</time>
      </trkpt>
      <trkpt lat="43.72233" lon="7.05785">
        <ele>522.79998779297</ele>
        <time>2011-12-17T08:20:32.000Z</time>
      </trkpt>
      <trkpt lat="43.72249" lon="7.05792">
        <ele>526</ele>
        <time>2011-12-17T08:20:42.000Z</time>
      </trkpt>
      <trkpt lat="43.72257" lon="7.05796">
        <ele>526.59997558594</ele>
        <time>2011-12-17T08:20:48.000Z</time>
      </trkpt>
      <trkpt lat="43.72267" lon="7.05803">
        <ele>526.79998779297</ele>
        <time>2011-12-17T08:20:56.000Z</time>
      </trkpt>
      <trkpt lat="43.72278" lon="7.05806">
        <ele>528</ele>
        <time>2011-12-17T08:21:04.000Z</time>
      </trkpt>
      <trkpt lat="43.72287" lon="7.05807">
        <ele>529.59997558594</ele>
        <time>2011-12-17T08:21:10.000Z</time>
      </trkpt>
      <trkpt lat="43.72288" lon="7.0581">
        <ele>529.20001220703</ele>
        <time>2011-12-17T08:21:16.000Z</time>
      </trkpt>
      <trkpt lat="43.72292" lon="7.05813">
        <ele>528.40002441406</ele>
        <time>2011-12-17T08:21:36.000Z</time>
      </trkpt>
      <trkpt lat="43.72306" lon="7.05817">
        <ele>530.40002441406</ele>
        <time>2011-12-17T08:21:46.000Z</time>
      </trkpt>
      <trkpt lat="43.72319" lon="7.05817">
        <ele>533.20001220703</ele>
        <time>2011-12-17T08:21:56.000Z</time>
      </trkpt>
      <trkpt lat="43.72333" lon="7.05821">
        <ele>534.40002441406</ele>
        <time>2011-12-17T08:22:07.000Z</time>
      </trkpt>
      <trkpt lat="43.72347" lon="7.05821">
        <ele>534.40002441406</ele>
        <time>2011-12-17T08:22:18.000Z</time>
      </trkpt>
      <trkpt lat="43.72363" lon="7.05819">
        <ele>535.59997558594</ele>
        <time>2011-12-17T08:22:30.000Z</time>
      </trkpt>
      <trkpt lat="43.72377" lon="7.05811">
        <ele>539.20001220703</ele>
        <time>2011-12-17T08:22:41.000Z</time>
      </trkpt>
      <trkpt lat="43.72389" lon="7.05803">
        <ele>543</ele>
        <time>2011-12-17T08:22:51.000Z</time>
      </trkpt>
      <trkpt lat="43.72401" lon="7.05796">
        <ele>546.59997558594</ele>
        <time>2011-12-17T08:23:01.000Z</time>
      </trkpt>
      <trkpt lat="43.7241" lon="7.05788">
        <ele>550.79998779297</ele>
        <time>2011-12-17T08:23:10.000Z</time>
      </trkpt>
      <trkpt lat="43.7242" lon="7.0578">
        <ele>554.59997558594</ele>
        <time>2011-12-17T08:23:19.000Z</time>
      </trkpt>
      <trkpt lat="43.72427" lon="7.05772">
        <ele>558</ele>
        <time>2011-12-17T08:23:27.000Z</time>
      </trkpt>
      <trkpt lat="43.72437" lon="7.05763">
        <ele>561.79998779297</ele>
        <time>2011-12-17T08:23:37.000Z</time>
      </trkpt>
      <trkpt lat="43.7244" lon="7.05755">
        <ele>565.20001220703</ele>
        <time>2011-12-17T08:23:43.000Z</time>
      </trkpt>
      <trkpt lat="43.72438" lon="7.05751">
        <ele>566.79998779297</ele>
        <time>2011-12-17T08:23:49.000Z</time>
      </trkpt>
      <trkpt lat="43.72439" lon="7.05751">
        <ele>567.20001220703</ele>
        <time>2011-12-17T08:24:18.000Z</time>
      </trkpt>
      <trkpt lat="43.72435" lon="7.05749">
        <ele>568.20001220703</ele>
        <time>2011-12-17T08:24:40.000Z</time>
      </trkpt>
      <trkpt lat="43.72421" lon="7.05756">
        <ele>565.59997558594</ele>
        <time>2011-12-17T08:24:50.000Z</time>
      </trkpt>
      <trkpt lat="43.72409" lon="7.05757">
        <ele>565.20001220703</ele>
        <time>2011-12-17T08:24:58.000Z</time>
      </trkpt>
      <trkpt lat="43.72405" lon="7.05754">
        <ele>566.59997558594</ele>
        <time>2011-12-17T08:25:01.000Z</time>
      </trkpt>
      <trkpt lat="43.7241" lon="7.05747">
        <ele>570</ele>
        <time>2011-12-17T08:25:07.000Z</time>
      </trkpt>
      <trkpt lat="43.72414" lon="7.05743">
        <ele>571.59997558594</ele>
        <time>2011-12-17T08:25:11.000Z</time>
      </trkpt>
      <trkpt lat="43.72423" lon="7.05736">
        <ele>574.20001220703</ele>
        <time>2011-12-17T08:25:21.000Z</time>
      </trkpt>
      <trkpt lat="43.72433" lon="7.05724">
        <ele>577.79998779297</ele>
        <time>2011-12-17T08:25:31.000Z</time>
      </trkpt>
      <trkpt lat="43.72442" lon="7.05714">
        <ele>581</ele>
        <time>2011-12-17T08:25:39.000Z</time>
      </trkpt>
      <trkpt lat="43.72454" lon="7.05699">
        <ele>585.79998779297</ele>
        <time>2011-12-17T08:25:50.000Z</time>
      </trkpt>
      <trkpt lat="43.72463" lon="7.05688">
        <ele>589</ele>
        <time>2011-12-17T08:25:59.000Z</time>
      </trkpt>
      <trkpt lat="43.7247" lon="7.0568">
        <ele>591.40002441406</ele>
        <time>2011-12-17T08:26:07.000Z</time>
      </trkpt>
      <trkpt lat="43.72477" lon="7.05673">
        <ele>593.20001220703</ele>
        <time>2011-12-17T08:26:14.000Z</time>
      </trkpt>
      <trkpt lat="43.72483" lon="7.05664">
        <ele>595.59997558594</ele>
        <time>2011-12-17T08:26:21.000Z</time>
      </trkpt>
      <trkpt lat="43.72489" lon="7.05656">
        <ele>597</ele>
        <time>2011-12-17T08:26:28.000Z</time>
      </trkpt>
      <trkpt lat="43.72495" lon="7.05651">
        <ele>597.79998779297</ele>
        <time>2011-12-17T08:26:33.000Z</time>
      </trkpt>
      <trkpt lat="43.72503" lon="7.05641">
        <ele>600.20001220703</ele>
        <time>2011-12-17T08:26:41.000Z</time>
      </trkpt>
      <trkpt lat="43.72505" lon="7.05639">
        <ele>600.79998779297</ele>
        <time>2011-12-17T08:26:43.000Z</time>
      </trkpt>
      <trkpt lat="43.72514" lon="7.05632">
        <ele>603</ele>
        <time>2011-12-17T08:26:51.000Z</time>
      </trkpt>
      <trkpt lat="43.72516" lon="7.0563">
        <ele>603.40002441406</ele>
        <time>2011-12-17T08:26:53.000Z</time>
      </trkpt>
      <trkpt lat="43.72523" lon="7.05626">
        <ele>604.59997558594</ele>
        <time>2011-12-17T08:26:59.000Z</time>
      </trkpt>
      <trkpt lat="43.72533" lon="7.05626">
        <ele>604.59997558594</ele>
        <time>2011-12-17T08:27:06.000Z</time>
      </trkpt>
      <trkpt lat="43.72539" lon="7.05636">
        <ele>603</ele>
        <time>2011-12-17T08:27:13.000Z</time>
      </trkpt>
      <trkpt lat="43.72543" lon="7.05641">
        <ele>602.20001220703</ele>
        <time>2011-12-17T08:27:21.000Z</time>
      </trkpt>
      <trkpt lat="43.72547" lon="7.0564">
        <ele>602.59997558594</ele>
        <time>2011-12-17T08:27:37.000Z</time>
      </trkpt>
      <trkpt lat="43.72548" lon="7.0564">
        <ele>602.59997558594</ele>
        <time>2011-12-17T08:27:43.000Z</time>
      </trkpt>
      <trkpt lat="43.72549" lon="7.05638">
        <ele>603</ele>
        <time>2011-12-17T08:27:50.000Z</time>
      </trkpt>
      <trkpt lat="43.72556" lon="7.05629">
        <ele>604.59997558594</ele>
        <time>2011-12-17T08:27:57.000Z</time>
      </trkpt>
      <trkpt lat="43.72563" lon="7.05618">
        <ele>606.20001220703</ele>
        <time>2011-12-17T08:28:04.000Z</time>
      </trkpt>
      <trkpt lat="43.72572" lon="7.05609">
        <ele>607.20001220703</ele>
        <time>2011-12-17T08:28:11.000Z</time>
      </trkpt>
      <trkpt lat="43.72581" lon="7.05605">
        <ele>607.20001220703</ele>
        <time>2011-12-17T08:28:17.000Z</time>
      </trkpt>
      <trkpt lat="43.72595" lon="7.05598">
        <ele>608.20001220703</ele>
        <time>2011-12-17T08:28:27.000Z</time>
      </trkpt>
      <trkpt lat="43.72606" lon="7.0559">
        <ele>609.40002441406</ele>
        <time>2011-12-17T08:28:36.000Z</time>
      </trkpt>
      <trkpt lat="43.72618" lon="7.05582">
        <ele>610.40002441406</ele>
        <time>2011-12-17T08:28:45.000Z</time>
      </trkpt>
      <trkpt lat="43.72622" lon="7.05577">
        <ele>611.40002441406</ele>
        <time>2011-12-17T08:28:50.000Z</time>
      </trkpt>
      <trkpt lat="43.7263" lon="7.05572">
        <ele>612.59997558594</ele>
        <time>2011-12-17T08:28:57.000Z</time>
      </trkpt>
      <trkpt lat="43.72639" lon="7.05566">
        <ele>613.59997558594</ele>
        <time>2011-12-17T08:29:04.000Z</time>
      </trkpt>
      <trkpt lat="43.72651" lon="7.05559">
        <ele>614.59997558594</ele>
        <time>2011-12-17T08:29:13.000Z</time>
      </trkpt>
      <trkpt lat="43.72664" lon="7.05553">
        <ele>615.59997558594</ele>
        <time>2011-12-17T08:29:23.000Z</time>
      </trkpt>
      <trkpt lat="43.72676" lon="7.05549">
        <ele>616.59997558594</ele>
        <time>2011-12-17T08:29:32.000Z</time>
      </trkpt>
      <trkpt lat="43.72687" lon="7.05543">
        <ele>617.79998779297</ele>
        <time>2011-12-17T08:29:39.000Z</time>
      </trkpt>
      <trkpt lat="43.72704" lon="7.05533">
        <ele>619.20001220703</ele>
        <time>2011-12-17T08:29:49.000Z</time>
      </trkpt>
      <trkpt lat="43.72721" lon="7.05522">
        <ele>620.20001220703</ele>
        <time>2011-12-17T08:29:59.000Z</time>
      </trkpt>
      <trkpt lat="43.72731" lon="7.05521">
        <ele>620.40002441406</ele>
        <time>2011-12-17T08:30:05.000Z</time>
      </trkpt>
      <trkpt lat="43.72738" lon="7.05533">
        <ele>620.20001220703</ele>
        <time>2011-12-17T08:30:12.000Z</time>
      </trkpt>
      <trkpt lat="43.72746" lon="7.05532">
        <ele>620.40002441406</ele>
        <time>2011-12-17T08:30:17.000Z</time>
      </trkpt>
      <trkpt lat="43.72758" lon="7.05525">
        <ele>622</ele>
        <time>2011-12-17T08:30:25.000Z</time>
      </trkpt>
      <trkpt lat="43.72768" lon="7.05519">
        <ele>623.59997558594</ele>
        <time>2011-12-17T08:30:33.000Z</time>
      </trkpt>
      <trkpt lat="43.72779" lon="7.05515">
        <ele>625.20001220703</ele>
        <time>2011-12-17T08:30:41.000Z</time>
      </trkpt>
      <trkpt lat="43.72793" lon="7.05508">
        <ele>627.20001220703</ele>
        <time>2011-12-17T08:30:51.000Z</time>
      </trkpt>
      <trkpt lat="43.72805" lon="7.05505">
        <ele>629</ele>
        <time>2011-12-17T08:30:59.000Z</time>
      </trkpt>
      <trkpt lat="43.72814" lon="7.05508">
        <ele>630.40002441406</ele>
        <time>2011-12-17T08:31:06.000Z</time>
      </trkpt>
      <trkpt lat="43.72814" lon="7.05524">
        <ele>630.59997558594</ele>
        <time>2011-12-17T08:31:15.000Z</time>
      </trkpt>
      <trkpt lat="43.72814" lon="7.05541">
        <ele>630.79998779297</ele>
        <time>2011-12-17T08:31:23.000Z</time>
      </trkpt>
      <trkpt lat="43.72812" lon="7.05554">
        <ele>630.79998779297</ele>
        <time>2011-12-17T08:31:30.000Z</time>
      </trkpt>
      <trkpt lat="43.7281" lon="7.0557">
        <ele>630.79998779297</ele>
        <time>2011-12-17T08:31:38.000Z</time>
      </trkpt>
      <trkpt lat="43.72811" lon="7.05574">
        <ele>630.79998779297</ele>
        <time>2011-12-17T08:31:40.000Z</time>
      </trkpt>
      <trkpt lat="43.72816" lon="7.05575">
        <ele>631.79998779297</ele>
        <time>2011-12-17T08:31:46.000Z</time>
      </trkpt>
      <trkpt lat="43.72819" lon="7.05569">
        <ele>632.20001220703</ele>
        <time>2011-12-17T08:31:50.000Z</time>
      </trkpt>
      <trkpt lat="43.7283" lon="7.05553">
        <ele>633.79998779297</ele>
        <time>2011-12-17T08:32:03.000Z</time>
      </trkpt>
      <trkpt lat="43.72841" lon="7.05544">
        <ele>635.79998779297</ele>
        <time>2011-12-17T08:32:12.000Z</time>
      </trkpt>
      <trkpt lat="43.7285" lon="7.05532">
        <ele>637.20001220703</ele>
        <time>2011-12-17T08:32:21.000Z</time>
      </trkpt>
      <trkpt lat="43.7286" lon="7.05523">
        <ele>639</ele>
        <time>2011-12-17T08:32:30.000Z</time>
      </trkpt>
      <trkpt lat="43.72872" lon="7.05512">
        <ele>640.40002441406</ele>
        <time>2011-12-17T08:32:40.000Z</time>
      </trkpt>
      <trkpt lat="43.72882" lon="7.05509">
        <ele>642</ele>
        <time>2011-12-17T08:32:48.000Z</time>
      </trkpt>
      <trkpt lat="43.72895" lon="7.05506">
        <ele>644</ele>
        <time>2011-12-17T08:32:58.000Z</time>
      </trkpt>
      <trkpt lat="43.72905" lon="7.05503">
        <ele>645.40002441406</ele>
        <time>2011-12-17T08:33:06.000Z</time>
      </trkpt>
      <trkpt lat="43.72916" lon="7.05501">
        <ele>647</ele>
        <time>2011-12-17T08:33:15.000Z</time>
      </trkpt>
      <trkpt lat="43.72926" lon="7.05499">
        <ele>649</ele>
        <time>2011-12-17T08:33:23.000Z</time>
      </trkpt>
      <trkpt lat="43.72938" lon="7.05497">
        <ele>651.79998779297</ele>
        <time>2011-12-17T08:33:33.000Z</time>
      </trkpt>
      <trkpt lat="43.72951" lon="7.05492">
        <ele>654.40002441406</ele>
        <time>2011-12-17T08:33:43.000Z</time>
      </trkpt>
      <trkpt lat="43.72966" lon="7.05485">
        <ele>657.20001220703</ele>
        <time>2011-12-17T08:33:55.000Z</time>
      </trkpt>
      <trkpt lat="43.72977" lon="7.0548">
        <ele>659</ele>
        <time>2011-12-17T08:34:04.000Z</time>
      </trkpt>
      <trkpt lat="43.72988" lon="7.05473">
        <ele>660.59997558594</ele>
        <time>2011-12-17T08:34:13.000Z</time>
      </trkpt>
      <trkpt lat="43.72999" lon="7.05466">
        <ele>662.20001220703</ele>
        <time>2011-12-17T08:34:22.000Z</time>
      </trkpt>
      <trkpt lat="43.73007" lon="7.05469">
        <ele>664.59997558594</ele>
        <time>2011-12-17T08:34:28.000Z</time>
      </trkpt>
      <trkpt lat="43.73008" lon="7.05471">
        <ele>665</ele>
        <time>2011-12-17T08:34:29.000Z</time>
      </trkpt>
      <trkpt lat="43.73004" lon="7.05488">
        <ele>665.79998779297</ele>
        <time>2011-12-17T08:34:38.000Z</time>
      </trkpt>
      <trkpt lat="43.73" lon="7.05499">
        <ele>666</ele>
        <time>2011-12-17T08:34:44.000Z</time>
      </trkpt>
      <trkpt lat="43.73006" lon="7.05504">
        <ele>668.40002441406</ele>
        <time>2011-12-17T08:34:50.000Z</time>
      </trkpt>
      <trkpt lat="43.73012" lon="7.05498">
        <ele>669.59997558594</ele>
        <time>2011-12-17T08:34:56.000Z</time>
      </trkpt>
      <trkpt lat="43.73024" lon="7.05489">
        <ele>671.59997558594</ele>
        <time>2011-12-17T08:35:06.000Z</time>
      </trkpt>
      <trkpt lat="43.73037" lon="7.05477">
        <ele>674</ele>
        <time>2011-12-17T08:35:17.000Z</time>
      </trkpt>
      <trkpt lat="43.73048" lon="7.05468">
        <ele>675.79998779297</ele>
        <time>2011-12-17T08:35:27.000Z</time>
      </trkpt>
      <trkpt lat="43.73059" lon="7.05464">
        <ele>677.79998779297</ele>
        <time>2011-12-17T08:35:36.000Z</time>
      </trkpt>
      <trkpt lat="43.73061" lon="7.05463">
        <ele>678.40002441406</ele>
        <time>2011-12-17T08:35:38.000Z</time>
      </trkpt>
      <trkpt lat="43.73071" lon="7.05458">
        <ele>680.20001220703</ele>
        <time>2011-12-17T08:35:47.000Z</time>
      </trkpt>
      <trkpt lat="43.73081" lon="7.05451">
        <ele>681.59997558594</ele>
        <time>2011-12-17T08:35:56.000Z</time>
      </trkpt>
      <trkpt lat="43.7309" lon="7.05444">
        <ele>683.79998779297</ele>
        <time>2011-12-17T08:36:05.000Z</time>
      </trkpt>
      <trkpt lat="43.73102" lon="7.05429">
        <ele>686</ele>
        <time>2011-12-17T08:36:18.000Z</time>
      </trkpt>
      <trkpt lat="43.73104" lon="7.05425">
        <ele>686</ele>
        <time>2011-12-17T08:36:21.000Z</time>
      </trkpt>
      <trkpt lat="43.73111" lon="7.05421">
        <ele>687.79998779297</ele>
        <time>2011-12-17T08:36:27.000Z</time>
      </trkpt>
      <trkpt lat="43.73117" lon="7.05417">
        <ele>689.40002441406</ele>
        <time>2011-12-17T08:36:32.000Z</time>
      </trkpt>
      <trkpt lat="43.73118" lon="7.05425">
        <ele>691.40002441406</ele>
        <time>2011-12-17T08:36:37.000Z</time>
      </trkpt>
      <trkpt lat="43.73114" lon="7.05445">
        <ele>693.59997558594</ele>
        <time>2011-12-17T08:36:48.000Z</time>
      </trkpt>
      <trkpt lat="43.73108" lon="7.05463">
        <ele>694.79998779297</ele>
        <time>2011-12-17T08:36:58.000Z</time>
      </trkpt>
      <trkpt lat="43.73102" lon="7.05486">
        <ele>696.79998779297</ele>
        <time>2011-12-17T08:37:10.000Z</time>
      </trkpt>
      <trkpt lat="43.73098" lon="7.055">
        <ele>697.79998779297</ele>
        <time>2011-12-17T08:37:18.000Z</time>
      </trkpt>
      <trkpt lat="43.73094" lon="7.05516">
        <ele>699</ele>
        <time>2011-12-17T08:37:26.000Z</time>
      </trkpt>
      <trkpt lat="43.73091" lon="7.05529">
        <ele>700.59997558594</ele>
        <time>2011-12-17T08:37:33.000Z</time>
      </trkpt>
      <trkpt lat="43.73097" lon="7.0553">
        <ele>703.40002441406</ele>
        <time>2011-12-17T08:37:39.000Z</time>
      </trkpt>
      <trkpt lat="43.73098" lon="7.05528">
        <ele>703.40002441406</ele>
        <time>2011-12-17T08:37:40.000Z</time>
      </trkpt>
      <trkpt lat="43.73108" lon="7.05516">
        <ele>705.59997558594</ele>
        <time>2011-12-17T08:37:51.000Z</time>
      </trkpt>
      <trkpt lat="43.73117" lon="7.05507">
        <ele>707.20001220703</ele>
        <time>2011-12-17T08:37:59.000Z</time>
      </trkpt>
      <trkpt lat="43.73125" lon="7.05497">
        <ele>709</ele>
        <time>2011-12-17T08:38:07.000Z</time>
      </trkpt>
      <trkpt lat="43.73129" lon="7.05495">
        <ele>710</ele>
        <time>2011-12-17T08:38:10.000Z</time>
      </trkpt>
      <trkpt lat="43.73137" lon="7.05484">
        <ele>711.20001220703</ele>
        <time>2011-12-17T08:38:18.000Z</time>
      </trkpt>
      <trkpt lat="43.73141" lon="7.05479">
        <ele>712.20001220703</ele>
        <time>2011-12-17T08:38:22.000Z</time>
      </trkpt>
      <trkpt lat="43.73146" lon="7.05484">
        <ele>715.40002441406</ele>
        <time>2011-12-17T08:38:28.000Z</time>
      </trkpt>
      <trkpt lat="43.73141" lon="7.055">
        <ele>716.79998779297</ele>
        <time>2011-12-17T08:38:38.000Z</time>
      </trkpt>
      <trkpt lat="43.73138" lon="7.05517">
        <ele>719.20001220703</ele>
        <time>2011-12-17T08:38:48.000Z</time>
      </trkpt>
      <trkpt lat="43.73135" lon="7.05527">
        <ele>719.79998779297</ele>
        <time>2011-12-17T08:38:54.000Z</time>
      </trkpt>
      <trkpt lat="43.73133" lon="7.0554">
        <ele>721.59997558594</ele>
        <time>2011-12-17T08:39:02.000Z</time>
      </trkpt>
      <trkpt lat="43.73129" lon="7.05557">
        <ele>723.59997558594</ele>
        <time>2011-12-17T08:39:12.000Z</time>
      </trkpt>
      <trkpt lat="43.73121" lon="7.05572">
        <ele>723.40002441406</ele>
        <time>2011-12-17T08:39:21.000Z</time>
      </trkpt>
      <trkpt lat="43.73111" lon="7.05586">
        <ele>722</ele>
        <time>2011-12-17T08:39:30.000Z</time>
      </trkpt>
      <trkpt lat="43.73105" lon="7.05594">
        <ele>721.79998779297</ele>
        <time>2011-12-17T08:39:36.000Z</time>
      </trkpt>
      <trkpt lat="43.73098" lon="7.05608">
        <ele>722.20001220703</ele>
        <time>2011-12-17T08:39:45.000Z</time>
      </trkpt>
      <trkpt lat="43.73088" lon="7.05622">
        <ele>722</ele>
        <time>2011-12-17T08:39:55.000Z</time>
      </trkpt>
      <trkpt lat="43.73077" lon="7.05635">
        <ele>721.59997558594</ele>
        <time>2011-12-17T08:40:05.000Z</time>
      </trkpt>
      <trkpt lat="43.73063" lon="7.05645">
        <ele>719.20001220703</ele>
        <time>2011-12-17T08:40:15.000Z</time>
      </trkpt>
      <trkpt lat="43.73051" lon="7.05654">
        <ele>717.20001220703</ele>
        <time>2011-12-17T08:40:24.000Z</time>
      </trkpt>
      <trkpt lat="43.73043" lon="7.05669">
        <ele>718</ele>
        <time>2011-12-17T08:40:33.000Z</time>
      </trkpt>
      <trkpt lat="43.73041" lon="7.05691">
        <ele>721</ele>
        <time>2011-12-17T08:40:43.000Z</time>
      </trkpt>
      <trkpt lat="43.73036" lon="7.0571">
        <ele>722.40002441406</ele>
        <time>2011-12-17T08:40:52.000Z</time>
      </trkpt>
      <trkpt lat="43.73031" lon="7.05725">
        <ele>722.79998779297</ele>
        <time>2011-12-17T08:41:00.000Z</time>
      </trkpt>
      <trkpt lat="43.73028" lon="7.05734">
        <ele>723.20001220703</ele>
        <time>2011-12-17T08:41:05.000Z</time>
      </trkpt>
      <trkpt lat="43.73028" lon="7.05735">
        <ele>723.40002441406</ele>
        <time>2011-12-17T08:41:12.000Z</time>
      </trkpt>
      <trkpt lat="43.73027" lon="7.05735">
        <ele>723.20001220703</ele>
        <time>2011-12-17T08:41:28.000Z</time>
      </trkpt>
      <trkpt lat="43.73026" lon="7.05741">
        <ele>723.79998779297</ele>
        <time>2011-12-17T08:41:34.000Z</time>
      </trkpt>
      <trkpt lat="43.73028" lon="7.05755">
        <ele>725.79998779297</ele>
        <time>2011-12-17T08:41:44.000Z</time>
      </trkpt>
      <trkpt lat="43.73028" lon="7.05757">
        <ele>726.20001220703</ele>
        <time>2011-12-17T08:41:50.000Z</time>
      </trkpt>
      <trkpt lat="43.73026" lon="7.05758">
        <ele>725.20001220703</ele>
        <time>2011-12-17T08:41:55.000Z</time>
      </trkpt>
      <trkpt lat="43.73026" lon="7.0576">
        <ele>725.20001220703</ele>
        <time>2011-12-17T08:41:59.000Z</time>
      </trkpt>
      <trkpt lat="43.73026" lon="7.05761">
        <ele>724.79998779297</ele>
        <time>2011-12-17T08:42:18.000Z</time>
      </trkpt>
      <trkpt lat="43.73027" lon="7.05759">
        <ele>725.40002441406</ele>
        <time>2011-12-17T08:42:37.000Z</time>
      </trkpt>
      <trkpt lat="43.73028" lon="7.05757">
        <ele>725.79998779297</ele>
        <time>2011-12-17T08:42:43.000Z</time>
      </trkpt>
      <trkpt lat="43.73029" lon="7.05757">
        <ele>726.20001220703</ele>
        <time>2011-12-17T08:42:50.000Z</time>
      </trkpt>
      <trkpt lat="43.73028" lon="7.05757">
        <ele>726</ele>
        <time>2011-12-17T08:42:57.000Z</time>
      </trkpt>
      <trkpt lat="43.73028" lon="7.05757">
        <ele>726</ele>
        <time>2011-12-17T08:43:18.000Z</time>
      </trkpt>
      <trkpt lat="43.73028" lon="7.05757">
        <ele>726</ele>
        <time>2011-12-17T08:43:36.000Z</time>
      </trkpt>
      <trkpt lat="43.7303" lon="7.05757">
        <ele>726.79998779297</ele>
        <time>2011-12-17T08:43:46.000Z</time>
      </trkpt>
      <trkpt lat="43.73032" lon="7.05755">
        <ele>727.79998779297</ele>
        <time>2011-12-17T08:43:50.000Z</time>
      </trkpt>
      <trkpt lat="43.73038" lon="7.05754">
        <ele>730.40002441406</ele>
        <time>2011-12-17T08:43:54.000Z</time>
      </trkpt>
      <trkpt lat="43.7305" lon="7.05744">
        <ele>734.59997558594</ele>
        <time>2011-12-17T08:44:04.000Z</time>
      </trkpt>
      <trkpt lat="43.73061" lon="7.0573">
        <ele>736.79998779297</ele>
        <time>2011-12-17T08:44:14.000Z</time>
      </trkpt>
      <trkpt lat="43.7307" lon="7.05716">
        <ele>737.20001220703</ele>
        <time>2011-12-17T08:44:24.000Z</time>
      </trkpt>
      <trkpt lat="43.73072" lon="7.05711">
        <ele>737.40002441406</ele>
        <time>2011-12-17T08:44:27.000Z</time>
      </trkpt>
      <trkpt lat="43.73079" lon="7.05712">
        <ele>740.59997558594</ele>
        <time>2011-12-17T08:44:35.000Z</time>
      </trkpt>
      <trkpt lat="43.73077" lon="7.05723">
        <ele>742</ele>
        <time>2011-12-17T08:44:41.000Z</time>
      </trkpt>
      <trkpt lat="43.73067" lon="7.05744">
        <ele>741.59997558594</ele>
        <time>2011-12-17T08:44:51.000Z</time>
      </trkpt>
      <trkpt lat="43.73066" lon="7.05757">
        <ele>742.59997558594</ele>
        <time>2011-12-17T08:44:57.000Z</time>
      </trkpt>
      <trkpt lat="43.73067" lon="7.05759">
        <ele>743</ele>
        <time>2011-12-17T08:44:58.000Z</time>
      </trkpt>
      <trkpt lat="43.73073" lon="7.05758">
        <ele>745.59997558594</ele>
        <time>2011-12-17T08:45:02.000Z</time>
      </trkpt>
      <trkpt lat="43.73089" lon="7.05741">
        <ele>749.79998779297</ele>
        <time>2011-12-17T08:45:14.000Z</time>
      </trkpt>
      <trkpt lat="43.73098" lon="7.0573">
        <ele>750.40002441406</ele>
        <time>2011-12-17T08:45:23.000Z</time>
      </trkpt>
      <trkpt lat="43.73107" lon="7.05719">
        <ele>751.40002441406</ele>
        <time>2011-12-17T08:45:32.000Z</time>
      </trkpt>
      <trkpt lat="43.73117" lon="7.05704">
        <ele>752.20001220703</ele>
        <time>2011-12-17T08:45:43.000Z</time>
      </trkpt>
      <trkpt lat="43.73129" lon="7.05689">
        <ele>753.59997558594</ele>
        <time>2011-12-17T08:45:54.000Z</time>
      </trkpt>
      <trkpt lat="43.7314" lon="7.05677">
        <ele>756.20001220703</ele>
        <time>2011-12-17T08:46:04.000Z</time>
      </trkpt>
      <trkpt lat="43.73152" lon="7.05666">
        <ele>759</ele>
        <time>2011-12-17T08:46:16.000Z</time>
      </trkpt>
      <trkpt lat="43.73163" lon="7.05657">
        <ele>761.40002441406</ele>
        <time>2011-12-17T08:46:26.000Z</time>
      </trkpt>
      <trkpt lat="43.73172" lon="7.05651">
        <ele>763.20001220703</ele>
        <time>2011-12-17T08:46:34.000Z</time>
      </trkpt>
      <trkpt lat="43.73179" lon="7.05648">
        <ele>765</ele>
        <time>2011-12-17T08:46:40.000Z</time>
      </trkpt>
      <trkpt lat="43.73191" lon="7.05641">
        <ele>767.59997558594</ele>
        <time>2011-12-17T08:46:50.000Z</time>
      </trkpt>
      <trkpt lat="43.73198" lon="7.05633">
        <ele>768.79998779297</ele>
        <time>2011-12-17T08:46:57.000Z</time>
      </trkpt>
      <trkpt lat="43.73206" lon="7.05623">
        <ele>769.59997558594</ele>
        <time>2011-12-17T08:47:05.000Z</time>
      </trkpt>
      <trkpt lat="43.73212" lon="7.05611">
        <ele>770</ele>
        <time>2011-12-17T08:47:12.000Z</time>
      </trkpt>
      <trkpt lat="43.73221" lon="7.05593">
        <ele>771</ele>
        <time>2011-12-17T08:47:22.000Z</time>
      </trkpt>
      <trkpt lat="43.73231" lon="7.05571">
        <ele>771.59997558594</ele>
        <time>2011-12-17T08:47:33.000Z</time>
      </trkpt>
      <trkpt lat="43.73242" lon="7.05554">
        <ele>773</ele>
        <time>2011-12-17T08:47:42.000Z</time>
      </trkpt>
      <trkpt lat="43.73255" lon="7.05536">
        <ele>774.59997558594</ele>
        <time>2011-12-17T08:47:52.000Z</time>
      </trkpt>
      <trkpt lat="43.73266" lon="7.05526">
        <ele>776.20001220703</ele>
        <time>2011-12-17T08:48:00.000Z</time>
      </trkpt>
      <trkpt lat="43.73282" lon="7.05522">
        <ele>779.79998779297</ele>
        <time>2011-12-17T08:48:11.000Z</time>
      </trkpt>
      <trkpt lat="43.73295" lon="7.05519">
        <ele>783.40002441406</ele>
        <time>2011-12-17T08:48:21.000Z</time>
      </trkpt>
      <trkpt lat="43.73311" lon="7.05519">
        <ele>787.59997558594</ele>
        <time>2011-12-17T08:48:32.000Z</time>
      </trkpt>
      <trkpt lat="43.73324" lon="7.0552">
        <ele>791.59997558594</ele>
        <time>2011-12-17T08:48:41.000Z</time>
      </trkpt>
      <trkpt lat="43.7333" lon="7.0552">
        <ele>793.20001220703</ele>
        <time>2011-12-17T08:48:45.000Z</time>
      </trkpt>
      <trkpt lat="43.73344" lon="7.05511">
        <ele>794.40002441406</ele>
        <time>2011-12-17T08:48:56.000Z</time>
      </trkpt>
      <trkpt lat="43.73353" lon="7.05505">
        <ele>794.79998779297</ele>
        <time>2011-12-17T08:49:03.000Z</time>
      </trkpt>
      <trkpt lat="43.73357" lon="7.05504">
        <ele>795.20001220703</ele>
        <time>2011-12-17T08:49:06.000Z</time>
      </trkpt>
      <trkpt lat="43.73361" lon="7.05511">
        <ele>796.40002441406</ele>
        <time>2011-12-17T08:49:11.000Z</time>
      </trkpt>
      <trkpt lat="43.73364" lon="7.05531">
        <ele>798.79998779297</ele>
        <time>2011-12-17T08:49:23.000Z</time>
      </trkpt>
      <trkpt lat="43.73369" lon="7.05544">
        <ele>800.79998779297</ele>
        <time>2011-12-17T08:49:32.000Z</time>
      </trkpt>
      <trkpt lat="43.73376" lon="7.0555">
        <ele>802.20001220703</ele>
        <time>2011-12-17T08:49:39.000Z</time>
      </trkpt>
      <trkpt lat="43.73389" lon="7.05545">
        <ele>803.20001220703</ele>
        <time>2011-12-17T08:49:49.000Z</time>
      </trkpt>
      <trkpt lat="43.73398" lon="7.05532">
        <ele>803</ele>
        <time>2011-12-17T08:49:58.000Z</time>
      </trkpt>
      <trkpt lat="43.73408" lon="7.05513">
        <ele>802.20001220703</ele>
        <time>2011-12-17T08:50:07.000Z</time>
      </trkpt>
      <trkpt lat="43.73421" lon="7.05489">
        <ele>803.40002441406</ele>
        <time>2011-12-17T08:50:18.000Z</time>
      </trkpt>
      <trkpt lat="43.73431" lon="7.05475">
        <ele>806.20001220703</ele>
        <time>2011-12-17T08:50:26.000Z</time>
      </trkpt>
      <trkpt lat="43.73443" lon="7.05462">
        <ele>809.40002441406</ele>
        <time>2011-12-17T08:50:36.000Z</time>
      </trkpt>
      <trkpt lat="43.73454" lon="7.05454">
        <ele>811.79998779297</ele>
        <time>2011-12-17T08:50:45.000Z</time>
      </trkpt>
      <trkpt lat="43.73467" lon="7.05447">
        <ele>814.59997558594</ele>
        <time>2011-12-17T08:50:55.000Z</time>
      </trkpt>
      <trkpt lat="43.73477" lon="7.05442">
        <ele>816.79998779297</ele>
        <time>2011-12-17T08:51:03.000Z</time>
      </trkpt>
      <trkpt lat="43.73483" lon="7.05441">
        <ele>818</ele>
        <time>2011-12-17T08:51:10.000Z</time>
      </trkpt>
      <trkpt lat="43.73483" lon="7.0544">
        <ele>818</ele>
        <time>2011-12-17T08:51:17.000Z</time>
      </trkpt>
      <trkpt lat="43.73483" lon="7.0544">
        <ele>818</ele>
        <time>2011-12-17T08:51:26.000Z</time>
      </trkpt>
      <trkpt lat="43.73483" lon="7.05439">
        <ele>818</ele>
        <time>2011-12-17T08:51:42.000Z</time>
      </trkpt>
      <trkpt lat="43.73486" lon="7.05434">
        <ele>818.79998779297</ele>
        <time>2011-12-17T08:52:26.000Z</time>
      </trkpt>
      <trkpt lat="43.73488" lon="7.05432">
        <ele>819.20001220703</ele>
        <time>2011-12-17T08:52:28.000Z</time>
      </trkpt>
      <trkpt lat="43.73499" lon="7.05419">
        <ele>821.79998779297</ele>
        <time>2011-12-17T08:52:37.000Z</time>
      </trkpt>
      <trkpt lat="43.73508" lon="7.05407">
        <ele>823.79998779297</ele>
        <time>2011-12-17T08:52:45.000Z</time>
      </trkpt>
      <trkpt lat="43.73519" lon="7.05396">
        <ele>826.20001220703</ele>
        <time>2011-12-17T08:52:54.000Z</time>
      </trkpt>
      <trkpt lat="43.73532" lon="7.05385">
        <ele>829</ele>
        <time>2011-12-17T08:53:05.000Z</time>
      </trkpt>
      <trkpt lat="43.73543" lon="7.05375">
        <ele>831.59997558594</ele>
        <time>2011-12-17T08:53:15.000Z</time>
      </trkpt>
      <trkpt lat="43.73551" lon="7.05362">
        <ele>833.40002441406</ele>
        <time>2011-12-17T08:53:24.000Z</time>
      </trkpt>
      <trkpt lat="43.73561" lon="7.05355">
        <ele>835.40002441406</ele>
        <time>2011-12-17T08:53:32.000Z</time>
      </trkpt>
      <trkpt lat="43.73568" lon="7.05346">
        <ele>837</ele>
        <time>2011-12-17T08:53:40.000Z</time>
      </trkpt>
      <trkpt lat="43.73576" lon="7.05334">
        <ele>838.79998779297</ele>
        <time>2011-12-17T08:53:49.000Z</time>
      </trkpt>
      <trkpt lat="43.73579" lon="7.05321">
        <ele>840.20001220703</ele>
        <time>2011-12-17T08:53:58.000Z</time>
      </trkpt>
      <trkpt lat="43.73577" lon="7.05314">
        <ele>840.40002441406</ele>
        <time>2011-12-17T08:54:01.000Z</time>
      </trkpt>
      <trkpt lat="43.73575" lon="7.05312">
        <ele>840.40002441406</ele>
        <time>2011-12-17T08:54:06.000Z</time>
      </trkpt>
      <trkpt lat="43.73573" lon="7.05309">
        <ele>840.20001220703</ele>
        <time>2011-12-17T08:54:12.000Z</time>
      </trkpt>
      <trkpt lat="43.73573" lon="7.05301">
        <ele>840.79998779297</ele>
        <time>2011-12-17T08:54:49.000Z</time>
      </trkpt>
      <trkpt lat="43.73575" lon="7.05297">
        <ele>841.59997558594</ele>
        <time>2011-12-17T08:55:07.000Z</time>
      </trkpt>
      <trkpt lat="43.7358" lon="7.05295">
        <ele>842.59997558594</ele>
        <time>2011-12-17T08:55:14.000Z</time>
      </trkpt>
      <trkpt lat="43.73583" lon="7.05292">
        <ele>843.40002441406</ele>
        <time>2011-12-17T08:55:21.000Z</time>
      </trkpt>
      <trkpt lat="43.73587" lon="7.05289">
        <ele>845</ele>
        <time>2011-12-17T08:55:28.000Z</time>
      </trkpt>
      <trkpt lat="43.73591" lon="7.05286">
        <ele>846.40002441406</ele>
        <time>2011-12-17T08:55:37.000Z</time>
      </trkpt>
      <trkpt lat="43.73596" lon="7.05283">
        <ele>848.20001220703</ele>
        <time>2011-12-17T08:55:47.000Z</time>
      </trkpt>
      <trkpt lat="43.736" lon="7.05276">
        <ele>850</ele>
        <time>2011-12-17T08:55:55.000Z</time>
      </trkpt>
      <trkpt lat="43.73603" lon="7.05268">
        <ele>851.59997558594</ele>
        <time>2011-12-17T08:56:03.000Z</time>
      </trkpt>
      <trkpt lat="43.73607" lon="7.05262">
        <ele>853.20001220703</ele>
        <time>2011-12-17T08:56:11.000Z</time>
      </trkpt>
      <trkpt lat="43.7361" lon="7.05256">
        <ele>854.40002441406</ele>
        <time>2011-12-17T08:56:19.000Z</time>
      </trkpt>
      <trkpt lat="43.73613" lon="7.05256">
        <ele>855.40002441406</ele>
        <time>2011-12-17T08:56:27.000Z</time>
      </trkpt>
      <trkpt lat="43.73616" lon="7.05254">
        <ele>856.20001220703</ele>
        <time>2011-12-17T08:56:34.000Z</time>
      </trkpt>
      <trkpt lat="43.73617" lon="7.05252">
        <ele>856.59997558594</ele>
        <time>2011-12-17T08:56:41.000Z</time>
      </trkpt>
      <trkpt lat="43.73619" lon="7.05248">
        <ele>857.59997558594</ele>
        <time>2011-12-17T08:56:48.000Z</time>
      </trkpt>
      <trkpt lat="43.73622" lon="7.05246">
        <ele>858.59997558594</ele>
        <time>2011-12-17T08:56:56.000Z</time>
      </trkpt>
      <trkpt lat="43.73624" lon="7.05244">
        <ele>859.40002441406</ele>
        <time>2011-12-17T08:57:03.000Z</time>
      </trkpt>
      <trkpt lat="43.73621" lon="7.05243">
        <ele>858.79998779297</ele>
        <time>2011-12-17T08:57:10.000Z</time>
      </trkpt>
      <trkpt lat="43.73621" lon="7.05241">
        <ele>859</ele>
        <time>2011-12-17T08:57:16.000Z</time>
      </trkpt>
      <trkpt lat="43.73626" lon="7.05241">
        <ele>860.59997558594</ele>
        <time>2011-12-17T08:57:23.000Z</time>
      </trkpt>
      <trkpt lat="43.73628" lon="7.05243">
        <ele>861</ele>
        <time>2011-12-17T08:57:29.000Z</time>
      </trkpt>
      <trkpt lat="43.73631" lon="7.05245">
        <ele>861.40002441406</ele>
        <time>2011-12-17T08:57:38.000Z</time>
      </trkpt>
      <trkpt lat="43.73637" lon="7.05251">
        <ele>862.40002441406</ele>
        <time>2011-12-17T08:57:47.000Z</time>
      </trkpt>
      <trkpt lat="43.73639" lon="7.0525">
        <ele>862.79998779297</ele>
        <time>2011-12-17T08:57:54.000Z</time>
      </trkpt>
      <trkpt lat="43.73636" lon="7.05245">
        <ele>862.79998779297</ele>
        <time>2011-12-17T08:58:04.000Z</time>
      </trkpt>
      <trkpt lat="43.73634" lon="7.0524">
        <ele>863</ele>
        <time>2011-12-17T08:58:12.000Z</time>
      </trkpt>
      <trkpt lat="43.73636" lon="7.05237">
        <ele>864.20001220703</ele>
        <time>2011-12-17T08:58:18.000Z</time>
      </trkpt>
      <trkpt lat="43.73641" lon="7.05239">
        <ele>865.20001220703</ele>
        <time>2011-12-17T08:58:26.000Z</time>
      </trkpt>
      <trkpt lat="43.73643" lon="7.05237">
        <ele>866</ele>
        <time>2011-12-17T08:58:32.000Z</time>
      </trkpt>
      <trkpt lat="43.73645" lon="7.05233">
        <ele>867.20001220703</ele>
        <time>2011-12-17T08:58:39.000Z</time>
      </trkpt>
      <trkpt lat="43.73644" lon="7.05226">
        <ele>868</ele>
        <time>2011-12-17T08:58:47.000Z</time>
      </trkpt>
      <trkpt lat="43.73642" lon="7.05218">
        <ele>868.79998779297</ele>
        <time>2011-12-17T08:58:57.000Z</time>
      </trkpt>
      <trkpt lat="43.73643" lon="7.05214">
        <ele>869.59997558594</ele>
        <time>2011-12-17T08:59:04.000Z</time>
      </trkpt>
      <trkpt lat="43.73643" lon="7.05209">
        <ele>870.40002441406</ele>
        <time>2011-12-17T08:59:11.000Z</time>
      </trkpt>
      <trkpt lat="43.73643" lon="7.05205">
        <ele>871</ele>
        <time>2011-12-17T08:59:17.000Z</time>
      </trkpt>
      <trkpt lat="43.73643" lon="7.052">
        <ele>871.79998779297</ele>
        <time>2011-12-17T08:59:23.000Z</time>
      </trkpt>
      <trkpt lat="43.73644" lon="7.05194">
        <ele>873</ele>
        <time>2011-12-17T08:59:30.000Z</time>
      </trkpt>
      <trkpt lat="43.73643" lon="7.05189">
        <ele>873.40002441406</ele>
        <time>2011-12-17T08:59:36.000Z</time>
      </trkpt>
      <trkpt lat="43.73642" lon="7.05184">
        <ele>873.79998779297</ele>
        <time>2011-12-17T08:59:44.000Z</time>
      </trkpt>
      <trkpt lat="43.73642" lon="7.05182">
        <ele>874</ele>
        <time>2011-12-17T08:59:55.000Z</time>
      </trkpt>
      <trkpt lat="43.73641" lon="7.05176">
        <ele>874.79998779297</ele>
        <time>2011-12-17T09:00:01.000Z</time>
      </trkpt>
      <trkpt lat="43.7364" lon="7.05172">
        <ele>874.79998779297</ele>
        <time>2011-12-17T09:00:07.000Z</time>
      </trkpt>
      <trkpt lat="43.73638" lon="7.05167">
        <ele>875</ele>
        <time>2011-12-17T09:00:15.000Z</time>
      </trkpt>
      <trkpt lat="43.73637" lon="7.05162">
        <ele>875.59997558594</ele>
        <time>2011-12-17T09:00:22.000Z</time>
      </trkpt>
      <trkpt lat="43.73636" lon="7.05154">
        <ele>876.79998779297</ele>
        <time>2011-12-17T09:00:28.000Z</time>
      </trkpt>
      <trkpt lat="43.73637" lon="7.05145">
        <ele>879</ele>
        <time>2011-12-17T09:00:36.000Z</time>
      </trkpt>
      <trkpt lat="43.73639" lon="7.05139">
        <ele>880.79998779297</ele>
        <time>2011-12-17T09:00:42.000Z</time>
      </trkpt>
      <trkpt lat="43.73641" lon="7.05137">
        <ele>882</ele>
        <time>2011-12-17T09:00:48.000Z</time>
      </trkpt>
      <trkpt lat="43.7364" lon="7.05132">
        <ele>882.79998779297</ele>
        <time>2011-12-17T09:00:54.000Z</time>
      </trkpt>
      <trkpt lat="43.7364" lon="7.05125">
        <ele>884</ele>
        <time>2011-12-17T09:01:01.000Z</time>
      </trkpt>
      <trkpt lat="43.73639" lon="7.05118">
        <ele>885.20001220703</ele>
        <time>2011-12-17T09:01:08.000Z</time>
      </trkpt>
      <trkpt lat="43.73637" lon="7.05109">
        <ele>886</ele>
        <time>2011-12-17T09:01:15.000Z</time>
      </trkpt>
      <trkpt lat="43.73637" lon="7.05105">
        <ele>887</ele>
        <time>2011-12-17T09:01:21.000Z</time>
      </trkpt>
      <trkpt lat="43.73636" lon="7.05098">
        <ele>888</ele>
        <time>2011-12-17T09:01:27.000Z</time>
      </trkpt>
      <trkpt lat="43.73635" lon="7.05091">
        <ele>889</ele>
        <time>2011-12-17T09:01:34.000Z</time>
      </trkpt>
      <trkpt lat="43.73634" lon="7.05082">
        <ele>890.20001220703</ele>
        <time>2011-12-17T09:01:42.000Z</time>
      </trkpt>
      <trkpt lat="43.73635" lon="7.05075">
        <ele>892</ele>
        <time>2011-12-17T09:01:49.000Z</time>
      </trkpt>
      <trkpt lat="43.73639" lon="7.05077">
        <ele>893.20001220703</ele>
        <time>2011-12-17T09:01:55.000Z</time>
      </trkpt>
      <trkpt lat="43.73641" lon="7.05073">
        <ele>894.40002441406</ele>
        <time>2011-12-17T09:02:02.000Z</time>
      </trkpt>
      <trkpt lat="43.73641" lon="7.05065">
        <ele>896</ele>
        <time>2011-12-17T09:02:10.000Z</time>
      </trkpt>
      <trkpt lat="43.7364" lon="7.05055">
        <ele>897.40002441406</ele>
        <time>2011-12-17T09:02:19.000Z</time>
      </trkpt>
      <trkpt lat="43.73643" lon="7.0505">
        <ele>899.40002441406</ele>
        <time>2011-12-17T09:02:26.000Z</time>
      </trkpt>
      <trkpt lat="43.73643" lon="7.0505">
        <ele>899.40002441406</ele>
        <time>2011-12-17T09:02:38.000Z</time>
      </trkpt>
      <trkpt lat="43.73643" lon="7.05049">
        <ele>899.79998779297</ele>
        <time>2011-12-17T09:03:01.000Z</time>
      </trkpt>
      <trkpt lat="43.73643" lon="7.05049">
        <ele>899.79998779297</ele>
        <time>2011-12-17T09:03:07.000Z</time>
      </trkpt>
      <trkpt lat="43.73645" lon="7.05047">
        <ele>901</ele>
        <time>2011-12-17T09:03:14.000Z</time>
      </trkpt>
      <trkpt lat="43.73645" lon="7.05046">
        <ele>901</ele>
        <time>2011-12-17T09:03:26.000Z</time>
      </trkpt>
      <trkpt lat="43.73644" lon="7.0504">
        <ele>901.79998779297</ele>
        <time>2011-12-17T09:03:35.000Z</time>
      </trkpt>
      <trkpt lat="43.73645" lon="7.05032">
        <ele>903.59997558594</ele>
        <time>2011-12-17T09:03:43.000Z</time>
      </trkpt>
      <trkpt lat="43.73644" lon="7.05026">
        <ele>904.40002441406</ele>
        <time>2011-12-17T09:03:50.000Z</time>
      </trkpt>
      <trkpt lat="43.73643" lon="7.05019">
        <ele>905</ele>
        <time>2011-12-17T09:03:58.000Z</time>
      </trkpt>
      <trkpt lat="43.73643" lon="7.05012">
        <ele>906.59997558594</ele>
        <time>2011-12-17T09:04:07.000Z</time>
      </trkpt>
      <trkpt lat="43.73644" lon="7.05007">
        <ele>907.79998779297</ele>
        <time>2011-12-17T09:04:14.000Z</time>
      </trkpt>
      <trkpt lat="43.73647" lon="7.05004">
        <ele>909.79998779297</ele>
        <time>2011-12-17T09:04:22.000Z</time>
      </trkpt>
      <trkpt lat="43.7365" lon="7.05009">
        <ele>909.79998779297</ele>
        <time>2011-12-17T09:04:29.000Z</time>
      </trkpt>
      <trkpt lat="43.73652" lon="7.05013">
        <ele>910</ele>
        <time>2011-12-17T09:04:37.000Z</time>
      </trkpt>
      <trkpt lat="43.73654" lon="7.05016">
        <ele>910.40002441406</ele>
        <time>2011-12-17T09:04:44.000Z</time>
      </trkpt>
      <trkpt lat="43.73656" lon="7.05014">
        <ele>911.79998779297</ele>
        <time>2011-12-17T09:04:51.000Z</time>
      </trkpt>
      <trkpt lat="43.73656" lon="7.05011">
        <ele>912.20001220703</ele>
        <time>2011-12-17T09:05:00.000Z</time>
      </trkpt>
      <trkpt lat="43.73656" lon="7.05006">
        <ele>913.20001220703</ele>
        <time>2011-12-17T09:05:07.000Z</time>
      </trkpt>
      <trkpt lat="43.73657" lon="7.05001">
        <ele>914.40002441406</ele>
        <time>2011-12-17T09:05:14.000Z</time>
      </trkpt>
      <trkpt lat="43.73658" lon="7.04998">
        <ele>915.40002441406</ele>
        <time>2011-12-17T09:05:21.000Z</time>
      </trkpt>
      <trkpt lat="43.73658" lon="7.04995">
        <ele>916.40002441406</ele>
        <time>2011-12-17T09:05:27.000Z</time>
      </trkpt>
      <trkpt lat="43.7366" lon="7.04992">
        <ele>918</ele>
        <time>2011-12-17T09:05:33.000Z</time>
      </trkpt>
      <trkpt lat="43.73662" lon="7.04993">
        <ele>918.40002441406</ele>
        <time>2011-12-17T09:05:40.000Z</time>
      </trkpt>
      <trkpt lat="43.73663" lon="7.04994">
        <ele>918.79998779297</ele>
        <time>2011-12-17T09:06:00.000Z</time>
      </trkpt>
      <trkpt lat="43.73665" lon="7.04996">
        <ele>918.79998779297</ele>
        <time>2011-12-17T09:06:26.000Z</time>
      </trkpt>
      <trkpt lat="43.7367" lon="7.05002">
        <ele>919.79998779297</ele>
        <time>2011-12-17T09:06:36.000Z</time>
      </trkpt>
      <trkpt lat="43.73673" lon="7.05001">
        <ele>921.20001220703</ele>
        <time>2011-12-17T09:06:43.000Z</time>
      </trkpt>
      <trkpt lat="43.73673" lon="7.04995">
        <ele>922.59997558594</ele>
        <time>2011-12-17T09:06:51.000Z</time>
      </trkpt>
      <trkpt lat="43.73671" lon="7.0499">
        <ele>923</ele>
        <time>2011-12-17T09:06:58.000Z</time>
      </trkpt>
      <trkpt lat="43.73671" lon="7.04988">
        <ele>923.40002441406</ele>
        <time>2011-12-17T09:07:03.000Z</time>
      </trkpt>
      <trkpt lat="43.73672" lon="7.04986">
        <ele>924.20001220703</ele>
        <time>2011-12-17T09:07:09.000Z</time>
      </trkpt>
      <trkpt lat="43.73675" lon="7.0499">
        <ele>924.59997558594</ele>
        <time>2011-12-17T09:07:16.000Z</time>
      </trkpt>
      <trkpt lat="43.73679" lon="7.04997">
        <ele>924.59997558594</ele>
        <time>2011-12-17T09:07:25.000Z</time>
      </trkpt>
      <trkpt lat="43.7368" lon="7.05002">
        <ele>923.79998779297</ele>
        <time>2011-12-17T09:07:39.000Z</time>
      </trkpt>
      <trkpt lat="43.73685" lon="7.05006">
        <ele>924.59997558594</ele>
        <time>2011-12-17T09:07:48.000Z</time>
      </trkpt>
      <trkpt lat="43.73686" lon="7.05001">
        <ele>926</ele>
        <time>2011-12-17T09:07:55.000Z</time>
      </trkpt>
      <trkpt lat="43.73688" lon="7.04998">
        <ele>927.40002441406</ele>
        <time>2011-12-17T09:08:01.000Z</time>
      </trkpt>
      <trkpt lat="43.73692" lon="7.05002">
        <ele>928.20001220703</ele>
        <time>2011-12-17T09:08:08.000Z</time>
      </trkpt>
      <trkpt lat="43.73694" lon="7.05002">
        <ele>929.20001220703</ele>
        <time>2011-12-17T09:08:13.000Z</time>
      </trkpt>
      <trkpt lat="43.73694" lon="7.04997">
        <ele>930.20001220703</ele>
        <time>2011-12-17T09:08:19.000Z</time>
      </trkpt>
      <trkpt lat="43.73692" lon="7.04994">
        <ele>930.40002441406</ele>
        <time>2011-12-17T09:08:27.000Z</time>
      </trkpt>
      <trkpt lat="43.73692" lon="7.04988">
        <ele>931.40002441406</ele>
        <time>2011-12-17T09:08:33.000Z</time>
      </trkpt>
      <trkpt lat="43.73696" lon="7.0499">
        <ele>932.59997558594</ele>
        <time>2011-12-17T09:08:38.000Z</time>
      </trkpt>
      <trkpt lat="43.737" lon="7.04993">
        <ele>933.59997558594</ele>
        <time>2011-12-17T09:08:45.000Z</time>
      </trkpt>
      <trkpt lat="43.73703" lon="7.04992">
        <ele>934.79998779297</ele>
        <time>2011-12-17T09:08:52.000Z</time>
      </trkpt>
      <trkpt lat="43.73704" lon="7.04987">
        <ele>936.40002441406</ele>
        <time>2011-12-17T09:09:00.000Z</time>
      </trkpt>
      <trkpt lat="43.73706" lon="7.04982">
        <ele>938.59997558594</ele>
        <time>2011-12-17T09:09:07.000Z</time>
      </trkpt>
      <trkpt lat="43.7371" lon="7.04982">
        <ele>940</ele>
        <time>2011-12-17T09:09:14.000Z</time>
      </trkpt>
      <trkpt lat="43.73711" lon="7.04978">
        <ele>941.20001220703</ele>
        <time>2011-12-17T09:09:20.000Z</time>
      </trkpt>
      <trkpt lat="43.7371" lon="7.04971">
        <ele>942.79998779297</ele>
        <time>2011-12-17T09:09:28.000Z</time>
      </trkpt>
      <trkpt lat="43.73714" lon="7.04971">
        <ele>944.20001220703</ele>
        <time>2011-12-17T09:09:35.000Z</time>
      </trkpt>
      <trkpt lat="43.73717" lon="7.04972">
        <ele>945.40002441406</ele>
        <time>2011-12-17T09:09:42.000Z</time>
      </trkpt>
      <trkpt lat="43.7372" lon="7.0497">
        <ele>946.59997558594</ele>
        <time>2011-12-17T09:09:48.000Z</time>
      </trkpt>
      <trkpt lat="43.7372" lon="7.04967">
        <ele>947.40002441406</ele>
        <time>2011-12-17T09:09:53.000Z</time>
      </trkpt>
      <trkpt lat="43.73719" lon="7.04962">
        <ele>948.20001220703</ele>
        <time>2011-12-17T09:10:00.000Z</time>
      </trkpt>
      <trkpt lat="43.73722" lon="7.0496">
        <ele>949.79998779297</ele>
        <time>2011-12-17T09:10:06.000Z</time>
      </trkpt>
      <trkpt lat="43.73726" lon="7.04964">
        <ele>950.59997558594</ele>
        <time>2011-12-17T09:10:13.000Z</time>
      </trkpt>
      <trkpt lat="43.7373" lon="7.04967">
        <ele>951.59997558594</ele>
        <time>2011-12-17T09:10:21.000Z</time>
      </trkpt>
      <trkpt lat="43.73735" lon="7.0497">
        <ele>952.79998779297</ele>
        <time>2011-12-17T09:10:28.000Z</time>
      </trkpt>
      <trkpt lat="43.7374" lon="7.04969">
        <ele>954.79998779297</ele>
        <time>2011-12-17T09:10:37.000Z</time>
      </trkpt>
      <trkpt lat="43.73739" lon="7.04964">
        <ele>955.59997558594</ele>
        <time>2011-12-17T09:10:43.000Z</time>
      </trkpt>
      <trkpt lat="43.73737" lon="7.04959">
        <ele>956.40002441406</ele>
        <time>2011-12-17T09:10:50.000Z</time>
      </trkpt>
      <trkpt lat="43.73739" lon="7.04956">
        <ele>957.79998779297</ele>
        <time>2011-12-17T09:10:56.000Z</time>
      </trkpt>
      <trkpt lat="43.73745" lon="7.04953">
        <ele>961</ele>
        <time>2011-12-17T09:11:04.000Z</time>
      </trkpt>
      <trkpt lat="43.7375" lon="7.04955">
        <ele>962.20001220703</ele>
        <time>2011-12-17T09:11:11.000Z</time>
      </trkpt>
      <trkpt lat="43.73755" lon="7.04959">
        <ele>963.20001220703</ele>
        <time>2011-12-17T09:11:19.000Z</time>
      </trkpt>
      <trkpt lat="43.7376" lon="7.04959">
        <ele>965</ele>
        <time>2011-12-17T09:11:26.000Z</time>
      </trkpt>
      <trkpt lat="43.73764" lon="7.04962">
        <ele>965.79998779297</ele>
        <time>2011-12-17T09:11:33.000Z</time>
      </trkpt>
      <trkpt lat="43.73768" lon="7.04961">
        <ele>967.40002441406</ele>
        <time>2011-12-17T09:11:41.000Z</time>
      </trkpt>
      <trkpt lat="43.73771" lon="7.0496">
        <ele>968.79998779297</ele>
        <time>2011-12-17T09:11:48.000Z</time>
      </trkpt>
      <trkpt lat="43.73774" lon="7.0496">
        <ele>970</ele>
        <time>2011-12-17T09:11:55.000Z</time>
      </trkpt>
      <trkpt lat="43.73777" lon="7.04962">
        <ele>970.79998779297</ele>
        <time>2011-12-17T09:12:02.000Z</time>
      </trkpt>
      <trkpt lat="43.73779" lon="7.04963">
        <ele>971.59997558594</ele>
        <time>2011-12-17T09:12:25.000Z</time>
      </trkpt>
      <trkpt lat="43.73782" lon="7.04962">
        <ele>972.40002441406</ele>
        <time>2011-12-17T09:12:30.000Z</time>
      </trkpt>
      <trkpt lat="43.73786" lon="7.04962">
        <ele>974.20001220703</ele>
        <time>2011-12-17T09:12:37.000Z</time>
      </trkpt>
      <trkpt lat="43.73788" lon="7.04962">
        <ele>974.79998779297</ele>
        <time>2011-12-17T09:12:43.000Z</time>
      </trkpt>
      <trkpt lat="43.73792" lon="7.04961">
        <ele>976.59997558594</ele>
        <time>2011-12-17T09:12:49.000Z</time>
      </trkpt>
      <trkpt lat="43.73798" lon="7.04963">
        <ele>978.20001220703</ele>
        <time>2011-12-17T09:12:57.000Z</time>
      </trkpt>
      <trkpt lat="43.73802" lon="7.04965">
        <ele>979.20001220703</ele>
        <time>2011-12-17T09:13:03.000Z</time>
      </trkpt>
      <trkpt lat="43.73808" lon="7.04968">
        <ele>981.40002441406</ele>
        <time>2011-12-17T09:13:13.000Z</time>
      </trkpt>
      <trkpt lat="43.73813" lon="7.04971">
        <ele>982.20001220703</ele>
        <time>2011-12-17T09:13:21.000Z</time>
      </trkpt>
      <trkpt lat="43.73817" lon="7.04976">
        <ele>982.40002441406</ele>
        <time>2011-12-17T09:13:29.000Z</time>
      </trkpt>
      <trkpt lat="43.7382" lon="7.0498">
        <ele>982.79998779297</ele>
        <time>2011-12-17T09:13:36.000Z</time>
      </trkpt>
      <trkpt lat="43.73825" lon="7.04983">
        <ele>983.59997558594</ele>
        <time>2011-12-17T09:13:43.000Z</time>
      </trkpt>
      <trkpt lat="43.73828" lon="7.04985">
        <ele>984.59997558594</ele>
        <time>2011-12-17T09:13:50.000Z</time>
      </trkpt>
      <trkpt lat="43.73832" lon="7.04988">
        <ele>985.40002441406</ele>
        <time>2011-12-17T09:13:58.000Z</time>
      </trkpt>
      <trkpt lat="43.73836" lon="7.04989">
        <ele>986.59997558594</ele>
        <time>2011-12-17T09:14:05.000Z</time>
      </trkpt>
      <trkpt lat="43.73839" lon="7.04992">
        <ele>987.20001220703</ele>
        <time>2011-12-17T09:14:11.000Z</time>
      </trkpt>
      <trkpt lat="43.73841" lon="7.04995">
        <ele>987.40002441406</ele>
        <time>2011-12-17T09:14:16.000Z</time>
      </trkpt>
      <trkpt lat="43.73845" lon="7.05001">
        <ele>987.59997558594</ele>
        <time>2011-12-17T09:14:23.000Z</time>
      </trkpt>
      <trkpt lat="43.73849" lon="7.05007">
        <ele>987.79998779297</ele>
        <time>2011-12-17T09:14:32.000Z</time>
      </trkpt>
      <trkpt lat="43.73852" lon="7.05011">
        <ele>988</ele>
        <time>2011-12-17T09:14:38.000Z</time>
      </trkpt>
      <trkpt lat="43.73855" lon="7.05016">
        <ele>988.40002441406</ele>
        <time>2011-12-17T09:14:46.000Z</time>
      </trkpt>
      <trkpt lat="43.73858" lon="7.0502">
        <ele>988.59997558594</ele>
        <time>2011-12-17T09:14:54.000Z</time>
      </trkpt>
      <trkpt lat="43.73861" lon="7.05025">
        <ele>988.79998779297</ele>
        <time>2011-12-17T09:15:02.000Z</time>
      </trkpt>
      <trkpt lat="43.73866" lon="7.05035">
        <ele>988.40002441406</ele>
        <time>2011-12-17T09:15:11.000Z</time>
      </trkpt>
      <trkpt lat="43.73868" lon="7.05041">
        <ele>988.20001220703</ele>
        <time>2011-12-17T09:15:18.000Z</time>
      </trkpt>
      <trkpt lat="43.73871" lon="7.05042">
        <ele>989</ele>
        <time>2011-12-17T09:15:23.000Z</time>
      </trkpt>
      <trkpt lat="43.73874" lon="7.05044">
        <ele>989.79998779297</ele>
        <time>2011-12-17T09:15:30.000Z</time>
      </trkpt>
      <trkpt lat="43.73876" lon="7.05049">
        <ele>989.59997558594</ele>
        <time>2011-12-17T09:15:36.000Z</time>
      </trkpt>
      <trkpt lat="43.73879" lon="7.05056">
        <ele>989.40002441406</ele>
        <time>2011-12-17T09:15:43.000Z</time>
      </trkpt>
      <trkpt lat="43.73885" lon="7.0506">
        <ele>990.59997558594</ele>
        <time>2011-12-17T09:15:52.000Z</time>
      </trkpt>
      <trkpt lat="43.73889" lon="7.0506">
        <ele>992.40002441406</ele>
        <time>2011-12-17T09:16:00.000Z</time>
      </trkpt>
      <trkpt lat="43.73892" lon="7.0506">
        <ele>993.79998779297</ele>
        <time>2011-12-17T09:16:08.000Z</time>
      </trkpt>
      <trkpt lat="43.73896" lon="7.05059">
        <ele>995.79998779297</ele>
        <time>2011-12-17T09:16:15.000Z</time>
      </trkpt>
      <trkpt lat="43.73902" lon="7.05059">
        <ele>998.20001220703</ele>
        <time>2011-12-17T09:16:23.000Z</time>
      </trkpt>
      <trkpt lat="43.73903" lon="7.05059">
        <ele>998.40002441406</ele>
        <time>2011-12-17T09:16:32.000Z</time>
      </trkpt>
      <trkpt lat="43.73907" lon="7.05059">
        <ele>1000</ele>
        <time>2011-12-17T09:16:40.000Z</time>
      </trkpt>
      <trkpt lat="43.73909" lon="7.05059">
        <ele>1001.200012207</ele>
        <time>2011-12-17T09:16:47.000Z</time>
      </trkpt>
      <trkpt lat="43.73916" lon="7.0506">
        <ele>1003.5999755859</ele>
        <time>2011-12-17T09:16:55.000Z</time>
      </trkpt>
      <trkpt lat="43.73918" lon="7.0506">
        <ele>1004.4000244141</ele>
        <time>2011-12-17T09:17:01.000Z</time>
      </trkpt>
      <trkpt lat="43.73923" lon="7.05061">
        <ele>1005.5999755859</ele>
        <time>2011-12-17T09:17:08.000Z</time>
      </trkpt>
      <trkpt lat="43.73929" lon="7.05062">
        <ele>1007.200012207</ele>
        <time>2011-12-17T09:17:16.000Z</time>
      </trkpt>
      <trkpt lat="43.73932" lon="7.05063">
        <ele>1007.799987793</ele>
        <time>2011-12-17T09:17:22.000Z</time>
      </trkpt>
      <trkpt lat="43.73937" lon="7.05065">
        <ele>1008.799987793</ele>
        <time>2011-12-17T09:17:29.000Z</time>
      </trkpt>
      <trkpt lat="43.73938" lon="7.05066">
        <ele>1009</ele>
        <time>2011-12-17T09:17:35.000Z</time>
      </trkpt>
      <trkpt lat="43.73941" lon="7.05067">
        <ele>1009.4000244141</ele>
        <time>2011-12-17T09:17:43.000Z</time>
      </trkpt>
      <trkpt lat="43.73944" lon="7.0507">
        <ele>1009.799987793</ele>
        <time>2011-12-17T09:17:50.000Z</time>
      </trkpt>
      <trkpt lat="43.73947" lon="7.05072">
        <ele>1010.5999755859</ele>
        <time>2011-12-17T09:17:57.000Z</time>
      </trkpt>
      <trkpt lat="43.73952" lon="7.05076">
        <ele>1011.200012207</ele>
        <time>2011-12-17T09:18:05.000Z</time>
      </trkpt>
      <trkpt lat="43.73955" lon="7.05079">
        <ele>1011.799987793</ele>
        <time>2011-12-17T09:18:12.000Z</time>
      </trkpt>
      <trkpt lat="43.73959" lon="7.05082">
        <ele>1012.5999755859</ele>
        <time>2011-12-17T09:18:20.000Z</time>
      </trkpt>
      <trkpt lat="43.73963" lon="7.05085">
        <ele>1013.4000244141</ele>
        <time>2011-12-17T09:18:27.000Z</time>
      </trkpt>
      <trkpt lat="43.73966" lon="7.05086">
        <ele>1014.5999755859</ele>
        <time>2011-12-17T09:18:33.000Z</time>
      </trkpt>
      <trkpt lat="43.7397" lon="7.05088">
        <ele>1016</ele>
        <time>2011-12-17T09:18:41.000Z</time>
      </trkpt>
      <trkpt lat="43.7397" lon="7.05081">
        <ele>1016.200012207</ele>
        <time>2011-12-17T09:18:48.000Z</time>
      </trkpt>
      <trkpt lat="43.73973" lon="7.05078">
        <ele>1017.4000244141</ele>
        <time>2011-12-17T09:18:54.000Z</time>
      </trkpt>
      <trkpt lat="43.73978" lon="7.05083">
        <ele>1018</ele>
        <time>2011-12-17T09:19:02.000Z</time>
      </trkpt>
      <trkpt lat="43.73981" lon="7.05085">
        <ele>1019</ele>
        <time>2011-12-17T09:19:09.000Z</time>
      </trkpt>
      <trkpt lat="43.73986" lon="7.0508">
        <ele>1021</ele>
        <time>2011-12-17T09:19:18.000Z</time>
      </trkpt>
      <trkpt lat="43.7399" lon="7.05078">
        <ele>1022.5999755859</ele>
        <time>2011-12-17T09:19:26.000Z</time>
      </trkpt>
      <trkpt lat="43.73992" lon="7.05078">
        <ele>1023</ele>
        <time>2011-12-17T09:19:36.000Z</time>
      </trkpt>
      <trkpt lat="43.73997" lon="7.05079">
        <ele>1024.5999755859</ele>
        <time>2011-12-17T09:19:43.000Z</time>
      </trkpt>
      <trkpt lat="43.74002" lon="7.05081">
        <ele>1025.5999755859</ele>
        <time>2011-12-17T09:19:50.000Z</time>
      </trkpt>
      <trkpt lat="43.74002" lon="7.05084">
        <ele>1025.4000244141</ele>
        <time>2011-12-17T09:19:56.000Z</time>
      </trkpt>
      <trkpt lat="43.74003" lon="7.05086">
        <ele>1025.4000244141</ele>
        <time>2011-12-17T09:20:13.000Z</time>
      </trkpt>
      <trkpt lat="43.74004" lon="7.05087">
        <ele>1025.8000488281</ele>
        <time>2011-12-17T09:20:18.000Z</time>
      </trkpt>
      <trkpt lat="43.74005" lon="7.05087">
        <ele>1025.8000488281</ele>
        <time>2011-12-17T09:20:30.000Z</time>
      </trkpt>
      <trkpt lat="43.74005" lon="7.05088">
        <ele>1026</ele>
        <time>2011-12-17T09:21:24.000Z</time>
      </trkpt>
      <trkpt lat="43.74005" lon="7.05088">
        <ele>1026</ele>
        <time>2011-12-17T09:21:42.000Z</time>
      </trkpt>
      <trkpt lat="43.74005" lon="7.05088">
        <ele>1026</ele>
        <time>2011-12-17T09:22:05.000Z</time>
      </trkpt>
      <trkpt lat="43.74005" lon="7.05088">
        <ele>1025.8000488281</ele>
        <time>2011-12-17T09:24:50.000Z</time>
      </trkpt>
      <trkpt lat="43.74005" lon="7.05089">
        <ele>1026</ele>
        <time>2011-12-17T09:24:58.000Z</time>
      </trkpt>
      <trkpt lat="43.74006" lon="7.05089">
        <ele>1026</ele>
        <time>2011-12-17T09:25:05.000Z</time>
      </trkpt>
      <trkpt lat="43.74003" lon="7.05091">
        <ele>1025.8000488281</ele>
        <time>2011-12-17T09:26:22.000Z</time>
      </trkpt>
      <trkpt lat="43.74004" lon="7.05091">
        <ele>1026</ele>
        <time>2011-12-17T09:26:30.000Z</time>
      </trkpt>
      <trkpt lat="43.74004" lon="7.05089">
        <ele>1025.8000488281</ele>
        <time>2011-12-17T09:26:38.000Z</time>
      </trkpt>
      <trkpt lat="43.74002" lon="7.05091">
        <ele>1025.8000488281</ele>
        <time>2011-12-17T09:26:42.000Z</time>
      </trkpt>
      <trkpt lat="43.74002" lon="7.05092">
        <ele>1025.8000488281</ele>
        <time>2011-12-17T09:26:44.000Z</time>
      </trkpt>
      <trkpt lat="43.73994" lon="7.05108">
        <ele>1024.5999755859</ele>
        <time>2011-12-17T09:26:50.000Z</time>
      </trkpt>
      <trkpt lat="43.7399" lon="7.05116">
        <ele>1023.4000244141</ele>
        <time>2011-12-17T09:26:54.000Z</time>
      </trkpt>
      <trkpt lat="43.73988" lon="7.05123">
        <ele>1023.200012207</ele>
        <time>2011-12-17T09:27:00.000Z</time>
      </trkpt>
      <trkpt lat="43.73983" lon="7.05138">
        <ele>1022</ele>
        <time>2011-12-17T09:27:05.000Z</time>
      </trkpt>
      <trkpt lat="43.73973" lon="7.0516">
        <ele>1019</ele>
        <time>2011-12-17T09:27:12.000Z</time>
      </trkpt>
      <trkpt lat="43.7396" lon="7.05188">
        <ele>1016.5999755859</ele>
        <time>2011-12-17T09:27:22.000Z</time>
      </trkpt>
      <trkpt lat="43.73957" lon="7.05197">
        <ele>1016.5999755859</ele>
        <time>2011-12-17T09:27:27.000Z</time>
      </trkpt>
      <trkpt lat="43.73953" lon="7.05211">
        <ele>1017</ele>
        <time>2011-12-17T09:27:34.000Z</time>
      </trkpt>
      <trkpt lat="43.73953" lon="7.05213">
        <ele>1017.200012207</ele>
        <time>2011-12-17T09:27:37.000Z</time>
      </trkpt>
      <trkpt lat="43.73952" lon="7.05223">
        <ele>1018</ele>
        <time>2011-12-17T09:27:45.000Z</time>
      </trkpt>
      <trkpt lat="43.7395" lon="7.0524">
        <ele>1019.4000244141</ele>
        <time>2011-12-17T09:27:51.000Z</time>
      </trkpt>
      <trkpt lat="43.73949" lon="7.05262">
        <ele>1020</ele>
        <time>2011-12-17T09:27:58.000Z</time>
      </trkpt>
      <trkpt lat="43.73947" lon="7.05274">
        <ele>1019</ele>
        <time>2011-12-17T09:28:03.000Z</time>
      </trkpt>
      <trkpt lat="43.73946" lon="7.05276">
        <ele>1018.799987793</ele>
        <time>2011-12-17T09:28:07.000Z</time>
      </trkpt>
      <trkpt lat="43.73945" lon="7.05281">
        <ele>1018.4000244141</ele>
        <time>2011-12-17T09:28:10.000Z</time>
      </trkpt>
      <trkpt lat="43.73941" lon="7.05285">
        <ele>1017</ele>
        <time>2011-12-17T09:28:16.000Z</time>
      </trkpt>
      <trkpt lat="43.73935" lon="7.05298">
        <ele>1015.200012207</ele>
        <time>2011-12-17T09:28:22.000Z</time>
      </trkpt>
      <trkpt lat="43.73933" lon="7.05301">
        <ele>1014.5999755859</ele>
        <time>2011-12-17T09:28:24.000Z</time>
      </trkpt>
      <trkpt lat="43.73922" lon="7.05316">
        <ele>1012</ele>
        <time>2011-12-17T09:28:32.000Z</time>
      </trkpt>
      <trkpt lat="43.7392" lon="7.05318">
        <ele>1011.5999755859</ele>
        <time>2011-12-17T09:28:33.000Z</time>
      </trkpt>
      <trkpt lat="43.73913" lon="7.05331">
        <ele>1009</ele>
        <time>2011-12-17T09:28:38.000Z</time>
      </trkpt>
      <trkpt lat="43.73907" lon="7.05348">
        <ele>1003.799987793</ele>
        <time>2011-12-17T09:28:43.000Z</time>
      </trkpt>
      <trkpt lat="43.73899" lon="7.05364">
        <ele>998.40002441406</ele>
        <time>2011-12-17T09:28:48.000Z</time>
      </trkpt>
      <trkpt lat="43.73893" lon="7.05377">
        <ele>994.40002441406</ele>
        <time>2011-12-17T09:28:53.000Z</time>
      </trkpt>
      <trkpt lat="43.73883" lon="7.05398">
        <ele>989</ele>
        <time>2011-12-17T09:28:59.000Z</time>
      </trkpt>
      <trkpt lat="43.73876" lon="7.05415">
        <ele>985.40002441406</ele>
        <time>2011-12-17T09:29:04.000Z</time>
      </trkpt>
      <trkpt lat="43.73872" lon="7.05421">
        <ele>983.59997558594</ele>
        <time>2011-12-17T09:29:08.000Z</time>
      </trkpt>
      <trkpt lat="43.73872" lon="7.05421">
        <ele>983.59997558594</ele>
        <time>2011-12-17T09:29:18.000Z</time>
      </trkpt>
      <trkpt lat="43.73871" lon="7.0542">
        <ele>983.59997558594</ele>
        <time>2011-12-17T09:29:58.000Z</time>
      </trkpt>
      <trkpt lat="43.73872" lon="7.05421">
        <ele>983.79998779297</ele>
        <time>2011-12-17T09:30:22.000Z</time>
      </trkpt>
      <trkpt lat="43.73868" lon="7.05436">
        <ele>982.20001220703</ele>
        <time>2011-12-17T09:30:27.000Z</time>
      </trkpt>
      <trkpt lat="43.73863" lon="7.05465">
        <ele>980</ele>
        <time>2011-12-17T09:30:32.000Z</time>
      </trkpt>
      <trkpt lat="43.73856" lon="7.05478">
        <ele>978.59997558594</ele>
        <time>2011-12-17T09:30:35.000Z</time>
      </trkpt>
      <trkpt lat="43.73852" lon="7.05487">
        <ele>978</ele>
        <time>2011-12-17T09:30:37.000Z</time>
      </trkpt>
      <trkpt lat="43.73851" lon="7.05514">
        <ele>978</ele>
        <time>2011-12-17T09:30:43.000Z</time>
      </trkpt>
      <trkpt lat="43.73848" lon="7.05528">
        <ele>977.59997558594</ele>
        <time>2011-12-17T09:30:48.000Z</time>
      </trkpt>
      <trkpt lat="43.73842" lon="7.05542">
        <ele>977.40002441406</ele>
        <time>2011-12-17T09:30:53.000Z</time>
      </trkpt>
      <trkpt lat="43.73838" lon="7.05568">
        <ele>977.59997558594</ele>
        <time>2011-12-17T09:30:58.000Z</time>
      </trkpt>
      <trkpt lat="43.73838" lon="7.05578">
        <ele>977.79998779297</ele>
        <time>2011-12-17T09:31:01.000Z</time>
      </trkpt>
      <trkpt lat="43.73835" lon="7.05588">
        <ele>978</ele>
        <time>2011-12-17T09:31:07.000Z</time>
      </trkpt>
      <trkpt lat="43.73832" lon="7.0559">
        <ele>977.40002441406</ele>
        <time>2011-12-17T09:31:09.000Z</time>
      </trkpt>
      <trkpt lat="43.73828" lon="7.056">
        <ele>975.20001220703</ele>
        <time>2011-12-17T09:31:15.000Z</time>
      </trkpt>
      <trkpt lat="43.73827" lon="7.05603">
        <ele>975.20001220703</ele>
        <time>2011-12-17T09:31:19.000Z</time>
      </trkpt>
      <trkpt lat="43.73828" lon="7.05612">
        <ele>975.59997558594</ele>
        <time>2011-12-17T09:31:25.000Z</time>
      </trkpt>
      <trkpt lat="43.73829" lon="7.05623">
        <ele>975.79998779297</ele>
        <time>2011-12-17T09:31:32.000Z</time>
      </trkpt>
      <trkpt lat="43.73828" lon="7.05626">
        <ele>975.79998779297</ele>
        <time>2011-12-17T09:31:34.000Z</time>
      </trkpt>
      <trkpt lat="43.73827" lon="7.05636">
        <ele>975.20001220703</ele>
        <time>2011-12-17T09:31:40.000Z</time>
      </trkpt>
      <trkpt lat="43.73826" lon="7.05655">
        <ele>975.20001220703</ele>
        <time>2011-12-17T09:31:46.000Z</time>
      </trkpt>
      <trkpt lat="43.73826" lon="7.05669">
        <ele>975</ele>
        <time>2011-12-17T09:31:51.000Z</time>
      </trkpt>
      <trkpt lat="43.73822" lon="7.05688">
        <ele>973.79998779297</ele>
        <time>2011-12-17T09:31:56.000Z</time>
      </trkpt>
      <trkpt lat="43.73816" lon="7.05713">
        <ele>972.20001220703</ele>
        <time>2011-12-17T09:32:03.000Z</time>
      </trkpt>
      <trkpt lat="43.73808" lon="7.0574">
        <ele>970.79998779297</ele>
        <time>2011-12-17T09:32:09.000Z</time>
      </trkpt>
      <trkpt lat="43.73799" lon="7.05759">
        <ele>969.79998779297</ele>
        <time>2011-12-17T09:32:14.000Z</time>
      </trkpt>
      <trkpt lat="43.7379" lon="7.05784">
        <ele>970.20001220703</ele>
        <time>2011-12-17T09:32:20.000Z</time>
      </trkpt>
      <trkpt lat="43.73787" lon="7.05794">
        <ele>970.79998779297</ele>
        <time>2011-12-17T09:32:25.000Z</time>
      </trkpt>
      <trkpt lat="43.73787" lon="7.05794">
        <ele>970.79998779297</ele>
        <time>2011-12-17T09:32:29.000Z</time>
      </trkpt>
      <trkpt lat="43.73787" lon="7.05795">
        <ele>970.79998779297</ele>
        <time>2011-12-17T09:32:36.000Z</time>
      </trkpt>
      <trkpt lat="43.73787" lon="7.05795">
        <ele>971</ele>
        <time>2011-12-17T09:32:42.000Z</time>
      </trkpt>
      <trkpt lat="43.73787" lon="7.05796">
        <ele>971</ele>
        <time>2011-12-17T09:32:51.000Z</time>
      </trkpt>
      <trkpt lat="43.73786" lon="7.05797">
        <ele>971</ele>
        <time>2011-12-17T09:32:57.000Z</time>
      </trkpt>
      <trkpt lat="43.73785" lon="7.05794">
        <ele>970.59997558594</ele>
        <time>2011-12-17T09:33:14.000Z</time>
      </trkpt>
      <trkpt lat="43.73785" lon="7.05793">
        <ele>970.40002441406</ele>
        <time>2011-12-17T09:33:20.000Z</time>
      </trkpt>
      <trkpt lat="43.73786" lon="7.05796">
        <ele>970.79998779297</ele>
        <time>2011-12-17T09:33:26.000Z</time>
      </trkpt>
      <trkpt lat="43.73792" lon="7.05798">
        <ele>971.79998779297</ele>
        <time>2011-12-17T09:33:32.000Z</time>
      </trkpt>
      <trkpt lat="43.7379" lon="7.05798">
        <ele>971.59997558594</ele>
        <time>2011-12-17T09:33:45.000Z</time>
      </trkpt>
      <trkpt lat="43.73789" lon="7.05798">
        <ele>971.40002441406</ele>
        <time>2011-12-17T09:33:52.000Z</time>
      </trkpt>
      <trkpt lat="43.73788" lon="7.05797">
        <ele>971.20001220703</ele>
        <time>2011-12-17T09:33:59.000Z</time>
      </trkpt>
      <trkpt lat="43.73794" lon="7.058">
        <ele>972.20001220703</ele>
        <time>2011-12-17T09:34:04.000Z</time>
      </trkpt>
      <trkpt lat="43.73804" lon="7.0581">
        <ele>974</ele>
        <time>2011-12-17T09:34:08.000Z</time>
      </trkpt>
      <trkpt lat="43.73818" lon="7.05823">
        <ele>976</ele>
        <time>2011-12-17T09:34:12.000Z</time>
      </trkpt>
      <trkpt lat="43.73827" lon="7.0584">
        <ele>977.59997558594</ele>
        <time>2011-12-17T09:34:15.000Z</time>
      </trkpt>
      <trkpt lat="43.73832" lon="7.05847">
        <ele>978.79998779297</ele>
        <time>2011-12-17T09:34:17.000Z</time>
      </trkpt>
      <trkpt lat="43.73846" lon="7.05851">
        <ele>976.79998779297</ele>
        <time>2011-12-17T09:34:21.000Z</time>
      </trkpt>
      <trkpt lat="43.73854" lon="7.0585">
        <ele>975</ele>
        <time>2011-12-17T09:34:23.000Z</time>
      </trkpt>
      <trkpt lat="43.73862" lon="7.0585">
        <ele>973.59997558594</ele>
        <time>2011-12-17T09:34:25.000Z</time>
      </trkpt>
      <trkpt lat="43.73868" lon="7.05835">
        <ele>969.79998779297</ele>
        <time>2011-12-17T09:34:29.000Z</time>
      </trkpt>
      <trkpt lat="43.73873" lon="7.05814">
        <ele>967.59997558594</ele>
        <time>2011-12-17T09:34:34.000Z</time>
      </trkpt>
      <trkpt lat="43.73875" lon="7.05798">
        <ele>966.40002441406</ele>
        <time>2011-12-17T09:34:37.000Z</time>
      </trkpt>
      <trkpt lat="43.73887" lon="7.05795">
        <ele>963.20001220703</ele>
        <time>2011-12-17T09:34:41.000Z</time>
      </trkpt>
      <trkpt lat="43.73901" lon="7.05793">
        <ele>959.20001220703</ele>
        <time>2011-12-17T09:34:46.000Z</time>
      </trkpt>
      <trkpt lat="43.73916" lon="7.05793">
        <ele>955.20001220703</ele>
        <time>2011-12-17T09:34:51.000Z</time>
      </trkpt>
      <trkpt lat="43.73927" lon="7.05789">
        <ele>952.20001220703</ele>
        <time>2011-12-17T09:34:56.000Z</time>
      </trkpt>
      <trkpt lat="43.73931" lon="7.05784">
        <ele>950.79998779297</ele>
        <time>2011-12-17T09:34:59.000Z</time>
      </trkpt>
      <trkpt lat="43.73932" lon="7.05784">
        <ele>950.40002441406</ele>
        <time>2011-12-17T09:35:06.000Z</time>
      </trkpt>
      <trkpt lat="43.7393" lon="7.05785">
        <ele>951</ele>
        <time>2011-12-17T09:35:12.000Z</time>
      </trkpt>
      <trkpt lat="43.73929" lon="7.05785">
        <ele>951.20001220703</ele>
        <time>2011-12-17T09:35:17.000Z</time>
      </trkpt>
      <trkpt lat="43.73929" lon="7.05786">
        <ele>951.40002441406</ele>
        <time>2011-12-17T09:35:24.000Z</time>
      </trkpt>
      <trkpt lat="43.73931" lon="7.05786">
        <ele>951</ele>
        <time>2011-12-17T09:35:33.000Z</time>
      </trkpt>
      <trkpt lat="43.73934" lon="7.05783">
        <ele>950</ele>
        <time>2011-12-17T09:35:37.000Z</time>
      </trkpt>
      <trkpt lat="43.7394" lon="7.05778">
        <ele>948</ele>
        <time>2011-12-17T09:35:41.000Z</time>
      </trkpt>
      <trkpt lat="43.73942" lon="7.05775">
        <ele>947.59997558594</ele>
        <time>2011-12-17T09:35:48.000Z</time>
      </trkpt>
      <trkpt lat="43.73946" lon="7.05772">
        <ele>946.40002441406</ele>
        <time>2011-12-17T09:35:54.000Z</time>
      </trkpt>
      <trkpt lat="43.73948" lon="7.05771">
        <ele>945.79998779297</ele>
        <time>2011-12-17T09:35:59.000Z</time>
      </trkpt>
      <trkpt lat="43.73964" lon="7.05766">
        <ele>942</ele>
        <time>2011-12-17T09:36:04.000Z</time>
      </trkpt>
      <trkpt lat="43.73979" lon="7.05762">
        <ele>938.59997558594</ele>
        <time>2011-12-17T09:36:08.000Z</time>
      </trkpt>
      <trkpt lat="43.73982" lon="7.05764">
        <ele>937.79998779297</ele>
        <time>2011-12-17T09:36:10.000Z</time>
      </trkpt>
      <trkpt lat="43.73995" lon="7.05774">
        <ele>935.20001220703</ele>
        <time>2011-12-17T09:36:15.000Z</time>
      </trkpt>
      <trkpt lat="43.74011" lon="7.05781">
        <ele>931.79998779297</ele>
        <time>2011-12-17T09:36:21.000Z</time>
      </trkpt>
      <trkpt lat="43.74023" lon="7.0578">
        <ele>929.59997558594</ele>
        <time>2011-12-17T09:36:25.000Z</time>
      </trkpt>
      <trkpt lat="43.74038" lon="7.05782">
        <ele>926.59997558594</ele>
        <time>2011-12-17T09:36:31.000Z</time>
      </trkpt>
      <trkpt lat="43.74053" lon="7.05784">
        <ele>923.59997558594</ele>
        <time>2011-12-17T09:36:35.000Z</time>
      </trkpt>
      <trkpt lat="43.74074" lon="7.05786">
        <ele>919</ele>
        <time>2011-12-17T09:36:40.000Z</time>
      </trkpt>
      <trkpt lat="43.74082" lon="7.05789">
        <ele>917.20001220703</ele>
        <time>2011-12-17T09:36:44.000Z</time>
      </trkpt>
      <trkpt lat="43.74089" lon="7.05799">
        <ele>914.40002441406</ele>
        <time>2011-12-17T09:36:48.000Z</time>
      </trkpt>
      <trkpt lat="43.74102" lon="7.05806">
        <ele>909.79998779297</ele>
        <time>2011-12-17T09:36:53.000Z</time>
      </trkpt>
      <trkpt lat="43.74117" lon="7.05818">
        <ele>904.20001220703</ele>
        <time>2011-12-17T09:36:59.000Z</time>
      </trkpt>
      <trkpt lat="43.74131" lon="7.05822">
        <ele>899.59997558594</ele>
        <time>2011-12-17T09:37:04.000Z</time>
      </trkpt>
      <trkpt lat="43.74146" lon="7.05821">
        <ele>895.59997558594</ele>
        <time>2011-12-17T09:37:08.000Z</time>
      </trkpt>
      <trkpt lat="43.74157" lon="7.05829">
        <ele>890.59997558594</ele>
        <time>2011-12-17T09:37:11.000Z</time>
      </trkpt>
      <trkpt lat="43.74175" lon="7.05831">
        <ele>888</ele>
        <time>2011-12-17T09:37:16.000Z</time>
      </trkpt>
      <trkpt lat="43.74182" lon="7.05837">
        <ele>887.40002441406</ele>
        <time>2011-12-17T09:37:19.000Z</time>
      </trkpt>
      <trkpt lat="43.74186" lon="7.05842">
        <ele>887.40002441406</ele>
        <time>2011-12-17T09:37:21.000Z</time>
      </trkpt>
      <trkpt lat="43.74185" lon="7.05858">
        <ele>886.40002441406</ele>
        <time>2011-12-17T09:37:25.000Z</time>
      </trkpt>
      <trkpt lat="43.74186" lon="7.05873">
        <ele>885.59997558594</ele>
        <time>2011-12-17T09:37:28.000Z</time>
      </trkpt>
      <trkpt lat="43.74195" lon="7.05892">
        <ele>884.79998779297</ele>
        <time>2011-12-17T09:37:33.000Z</time>
      </trkpt>
      <trkpt lat="43.74198" lon="7.059">
        <ele>884.59997558594</ele>
        <time>2011-12-17T09:37:37.000Z</time>
      </trkpt>
      <trkpt lat="43.74198" lon="7.059">
        <ele>884.59997558594</ele>
        <time>2011-12-17T09:37:47.000Z</time>
      </trkpt>
      <trkpt lat="43.74197" lon="7.05901">
        <ele>884.40002441406</ele>
        <time>2011-12-17T09:37:53.000Z</time>
      </trkpt>
      <trkpt lat="43.74197" lon="7.059">
        <ele>884.40002441406</ele>
        <time>2011-12-17T09:38:04.000Z</time>
      </trkpt>
      <trkpt lat="43.74196" lon="7.059">
        <ele>884.40002441406</ele>
        <time>2011-12-17T09:38:25.000Z</time>
      </trkpt>
      <trkpt lat="43.74195" lon="7.05899">
        <ele>884.40002441406</ele>
        <time>2011-12-17T09:38:40.000Z</time>
      </trkpt>
      <trkpt lat="43.74195" lon="7.05907">
        <ele>884</ele>
        <time>2011-12-17T09:38:45.000Z</time>
      </trkpt>
      <trkpt lat="43.74193" lon="7.05924">
        <ele>882.79998779297</ele>
        <time>2011-12-17T09:38:49.000Z</time>
      </trkpt>
      <trkpt lat="43.74185" lon="7.05955">
        <ele>880.79998779297</ele>
        <time>2011-12-17T09:38:55.000Z</time>
      </trkpt>
      <trkpt lat="43.74186" lon="7.05976">
        <ele>879.59997558594</ele>
        <time>2011-12-17T09:38:59.000Z</time>
      </trkpt>
      <trkpt lat="43.74187" lon="7.05998">
        <ele>878.59997558594</ele>
        <time>2011-12-17T09:39:04.000Z</time>
      </trkpt>
      <trkpt lat="43.74188" lon="7.06014">
        <ele>876.79998779297</ele>
        <time>2011-12-17T09:39:08.000Z</time>
      </trkpt>
      <trkpt lat="43.74189" lon="7.06028">
        <ele>875.20001220703</ele>
        <time>2011-12-17T09:39:12.000Z</time>
      </trkpt>
      <trkpt lat="43.74189" lon="7.0603">
        <ele>875</ele>
        <time>2011-12-17T09:39:15.000Z</time>
      </trkpt>
      <trkpt lat="43.74189" lon="7.0605">
        <ele>872.59997558594</ele>
        <time>2011-12-17T09:39:21.000Z</time>
      </trkpt>
      <trkpt lat="43.74191" lon="7.06067">
        <ele>870.79998779297</ele>
        <time>2011-12-17T09:39:26.000Z</time>
      </trkpt>
      <trkpt lat="43.74189" lon="7.06084">
        <ele>868.59997558594</ele>
        <time>2011-12-17T09:39:31.000Z</time>
      </trkpt>
      <trkpt lat="43.74185" lon="7.06102">
        <ele>866.59997558594</ele>
        <time>2011-12-17T09:39:36.000Z</time>
      </trkpt>
      <trkpt lat="43.74179" lon="7.06129">
        <ele>863.79998779297</ele>
        <time>2011-12-17T09:39:41.000Z</time>
      </trkpt>
      <trkpt lat="43.74178" lon="7.0615">
        <ele>862</ele>
        <time>2011-12-17T09:39:44.000Z</time>
      </trkpt>
      <trkpt lat="43.74178" lon="7.06167">
        <ele>860.59997558594</ele>
        <time>2011-12-17T09:39:46.000Z</time>
      </trkpt>
      <trkpt lat="43.74182" lon="7.06208">
        <ele>857</ele>
        <time>2011-12-17T09:39:52.000Z</time>
      </trkpt>
      <trkpt lat="43.74185" lon="7.06222">
        <ele>856</ele>
        <time>2011-12-17T09:39:55.000Z</time>
      </trkpt>
      <trkpt lat="43.74188" lon="7.06245">
        <ele>853.79998779297</ele>
        <time>2011-12-17T09:39:59.000Z</time>
      </trkpt>
      <trkpt lat="43.74188" lon="7.0625">
        <ele>853.40002441406</ele>
        <time>2011-12-17T09:40:00.000Z</time>
      </trkpt>
      <trkpt lat="43.74188" lon="7.06288">
        <ele>848.79998779297</ele>
        <time>2011-12-17T09:40:07.000Z</time>
      </trkpt>
      <trkpt lat="43.74188" lon="7.06293">
        <ele>848</ele>
        <time>2011-12-17T09:40:08.000Z</time>
      </trkpt>
      <trkpt lat="43.74189" lon="7.06305">
        <ele>846.59997558594</ele>
        <time>2011-12-17T09:40:10.000Z</time>
      </trkpt>
      <trkpt lat="43.74188" lon="7.06325">
        <ele>844.20001220703</ele>
        <time>2011-12-17T09:40:14.000Z</time>
      </trkpt>
      <trkpt lat="43.74187" lon="7.06328">
        <ele>843.79998779297</ele>
        <time>2011-12-17T09:40:18.000Z</time>
      </trkpt>
      <trkpt lat="43.74187" lon="7.06335">
        <ele>843</ele>
        <time>2011-12-17T09:40:21.000Z</time>
      </trkpt>
      <trkpt lat="43.74188" lon="7.06344">
        <ele>841.79998779297</ele>
        <time>2011-12-17T09:40:26.000Z</time>
      </trkpt>
      <trkpt lat="43.74187" lon="7.06353">
        <ele>840.79998779297</ele>
        <time>2011-12-17T09:40:30.000Z</time>
      </trkpt>
      <trkpt lat="43.74189" lon="7.06358">
        <ele>840</ele>
        <time>2011-12-17T09:40:37.000Z</time>
      </trkpt>
      <trkpt lat="43.74189" lon="7.06359">
        <ele>839.59997558594</ele>
        <time>2011-12-17T09:40:38.000Z</time>
      </trkpt>
      <trkpt lat="43.74195" lon="7.06375">
        <ele>836.59997558594</ele>
        <time>2011-12-17T09:40:45.000Z</time>
      </trkpt>
      <trkpt lat="43.74199" lon="7.06391">
        <ele>833.79998779297</ele>
        <time>2011-12-17T09:40:49.000Z</time>
      </trkpt>
      <trkpt lat="43.74204" lon="7.06412">
        <ele>829.59997558594</ele>
        <time>2011-12-17T09:40:54.000Z</time>
      </trkpt>
      <trkpt lat="43.74208" lon="7.06435">
        <ele>826</ele>
        <time>2011-12-17T09:40:59.000Z</time>
      </trkpt>
      <trkpt lat="43.7421" lon="7.06455">
        <ele>822.79998779297</ele>
        <time>2011-12-17T09:41:03.000Z</time>
      </trkpt>
      <trkpt lat="43.74211" lon="7.06483">
        <ele>819.20001220703</ele>
        <time>2011-12-17T09:41:08.000Z</time>
      </trkpt>
      <trkpt lat="43.74215" lon="7.06509">
        <ele>814.40002441406</ele>
        <time>2011-12-17T09:41:14.000Z</time>
      </trkpt>
      <trkpt lat="43.74217" lon="7.06523">
        <ele>812.40002441406</ele>
        <time>2011-12-17T09:41:18.000Z</time>
      </trkpt>
      <trkpt lat="43.7422" lon="7.06536">
        <ele>809.59997558594</ele>
        <time>2011-12-17T09:41:22.000Z</time>
      </trkpt>
      <trkpt lat="43.74226" lon="7.06546">
        <ele>805.79998779297</ele>
        <time>2011-12-17T09:41:26.000Z</time>
      </trkpt>
      <trkpt lat="43.74235" lon="7.0657">
        <ele>798.79998779297</ele>
        <time>2011-12-17T09:41:32.000Z</time>
      </trkpt>
      <trkpt lat="43.74246" lon="7.0658">
        <ele>792.20001220703</ele>
        <time>2011-12-17T09:41:36.000Z</time>
      </trkpt>
      <trkpt lat="43.74254" lon="7.0659">
        <ele>790</ele>
        <time>2011-12-17T09:41:40.000Z</time>
      </trkpt>
      <trkpt lat="43.74262" lon="7.06614">
        <ele>788.40002441406</ele>
        <time>2011-12-17T09:41:44.000Z</time>
      </trkpt>
      <trkpt lat="43.74272" lon="7.06649">
        <ele>784.59997558594</ele>
        <time>2011-12-17T09:41:49.000Z</time>
      </trkpt>
      <trkpt lat="43.74283" lon="7.06675">
        <ele>781.20001220703</ele>
        <time>2011-12-17T09:41:54.000Z</time>
      </trkpt>
      <trkpt lat="43.74288" lon="7.06686">
        <ele>779.79998779297</ele>
        <time>2011-12-17T09:41:56.000Z</time>
      </trkpt>
      <trkpt lat="43.74297" lon="7.06706">
        <ele>777</ele>
        <time>2011-12-17T09:42:00.000Z</time>
      </trkpt>
      <trkpt lat="43.74301" lon="7.06714">
        <ele>775.79998779297</ele>
        <time>2011-12-17T09:42:02.000Z</time>
      </trkpt>
      <trkpt lat="43.74312" lon="7.06721">
        <ele>772.79998779297</ele>
        <time>2011-12-17T09:42:06.000Z</time>
      </trkpt>
      <trkpt lat="43.74317" lon="7.06733">
        <ele>770.40002441406</ele>
        <time>2011-12-17T09:42:09.000Z</time>
      </trkpt>
      <trkpt lat="43.74329" lon="7.0675">
        <ele>765.20001220703</ele>
        <time>2011-12-17T09:42:14.000Z</time>
      </trkpt>
      <trkpt lat="43.74345" lon="7.06761">
        <ele>765.40002441406</ele>
        <time>2011-12-17T09:42:19.000Z</time>
      </trkpt>
      <trkpt lat="43.74353" lon="7.06773">
        <ele>766.59997558594</ele>
        <time>2011-12-17T09:42:23.000Z</time>
      </trkpt>
      <trkpt lat="43.74357" lon="7.06776">
        <ele>767</ele>
        <time>2011-12-17T09:42:24.000Z</time>
      </trkpt>
      <trkpt lat="43.74365" lon="7.06781">
        <ele>768.20001220703</ele>
        <time>2011-12-17T09:42:27.000Z</time>
      </trkpt>
      <trkpt lat="43.74367" lon="7.06781">
        <ele>768.59997558594</ele>
        <time>2011-12-17T09:42:34.000Z</time>
      </trkpt>
      <trkpt lat="43.7437" lon="7.06778">
        <ele>769</ele>
        <time>2011-12-17T09:42:39.000Z</time>
      </trkpt>
      <trkpt lat="43.74371" lon="7.06779">
        <ele>769.20001220703</ele>
        <time>2011-12-17T09:42:45.000Z</time>
      </trkpt>
      <trkpt lat="43.74372" lon="7.06778">
        <ele>769.20001220703</ele>
        <time>2011-12-17T09:42:46.000Z</time>
      </trkpt>
      <trkpt lat="43.74377" lon="7.06782">
        <ele>770</ele>
        <time>2011-12-17T09:42:50.000Z</time>
      </trkpt>
      <trkpt lat="43.74379" lon="7.06797">
        <ele>770.40002441406</ele>
        <time>2011-12-17T09:42:54.000Z</time>
      </trkpt>
      <trkpt lat="43.74381" lon="7.06811">
        <ele>770.79998779297</ele>
        <time>2011-12-17T09:42:58.000Z</time>
      </trkpt>
      <trkpt lat="43.74383" lon="7.06816">
        <ele>771.20001220703</ele>
        <time>2011-12-17T09:43:05.000Z</time>
      </trkpt>
      <trkpt lat="43.74382" lon="7.06828">
        <ele>771.20001220703</ele>
        <time>2011-12-17T09:43:09.000Z</time>
      </trkpt>
      <trkpt lat="43.74379" lon="7.0685">
        <ele>769.79998779297</ele>
        <time>2011-12-17T09:43:14.000Z</time>
      </trkpt>
      <trkpt lat="43.74379" lon="7.06877">
        <ele>768.40002441406</ele>
        <time>2011-12-17T09:43:19.000Z</time>
      </trkpt>
      <trkpt lat="43.74374" lon="7.06902">
        <ele>766.20001220703</ele>
        <time>2011-12-17T09:43:24.000Z</time>
      </trkpt>
      <trkpt lat="43.74377" lon="7.06928">
        <ele>765.20001220703</ele>
        <time>2011-12-17T09:43:28.000Z</time>
      </trkpt>
      <trkpt lat="43.7438" lon="7.06945">
        <ele>764.59997558594</ele>
        <time>2011-12-17T09:43:31.000Z</time>
      </trkpt>
      <trkpt lat="43.74381" lon="7.06952">
        <ele>764.40002441406</ele>
        <time>2011-12-17T09:43:33.000Z</time>
      </trkpt>
      <trkpt lat="43.74379" lon="7.06973">
        <ele>762.40002441406</ele>
        <time>2011-12-17T09:43:38.000Z</time>
      </trkpt>
      <trkpt lat="43.74382" lon="7.06995">
        <ele>761.40002441406</ele>
        <time>2011-12-17T09:43:43.000Z</time>
      </trkpt>
      <trkpt lat="43.74385" lon="7.07012">
        <ele>760.59997558594</ele>
        <time>2011-12-17T09:43:47.000Z</time>
      </trkpt>
      <trkpt lat="43.74387" lon="7.07038">
        <ele>758.40002441406</ele>
        <time>2011-12-17T09:43:52.000Z</time>
      </trkpt>
      <trkpt lat="43.74389" lon="7.07055">
        <ele>757</ele>
        <time>2011-12-17T09:43:56.000Z</time>
      </trkpt>
      <trkpt lat="43.74393" lon="7.07073">
        <ele>756.20001220703</ele>
        <time>2011-12-17T09:44:00.000Z</time>
      </trkpt>
      <trkpt lat="43.74398" lon="7.0709">
        <ele>755</ele>
        <time>2011-12-17T09:44:04.000Z</time>
      </trkpt>
      <trkpt lat="43.74398" lon="7.07109">
        <ele>751.79998779297</ele>
        <time>2011-12-17T09:44:09.000Z</time>
      </trkpt>
      <trkpt lat="43.74395" lon="7.07121">
        <ele>749.40002441406</ele>
        <time>2011-12-17T09:44:13.000Z</time>
      </trkpt>
      <trkpt lat="43.74397" lon="7.07137">
        <ele>747.20001220703</ele>
        <time>2011-12-17T09:44:17.000Z</time>
      </trkpt>
      <trkpt lat="43.74398" lon="7.07159">
        <ele>743.40002441406</ele>
        <time>2011-12-17T09:44:22.000Z</time>
      </trkpt>
      <trkpt lat="43.74402" lon="7.07176">
        <ele>742</ele>
        <time>2011-12-17T09:44:26.000Z</time>
      </trkpt>
      <trkpt lat="43.74402" lon="7.07182">
        <ele>741</ele>
        <time>2011-12-17T09:44:32.000Z</time>
      </trkpt>
      <trkpt lat="43.74403" lon="7.07195">
        <ele>739</ele>
        <time>2011-12-17T09:44:36.000Z</time>
      </trkpt>
      <trkpt lat="43.74401" lon="7.07209">
        <ele>736.40002441406</ele>
        <time>2011-12-17T09:44:40.000Z</time>
      </trkpt>
      <trkpt lat="43.74402" lon="7.07213">
        <ele>735.79998779297</ele>
        <time>2011-12-17T09:44:41.000Z</time>
      </trkpt>
      <trkpt lat="43.74398" lon="7.07239">
        <ele>730.79998779297</ele>
        <time>2011-12-17T09:44:46.000Z</time>
      </trkpt>
      <trkpt lat="43.74397" lon="7.07253">
        <ele>728.20001220703</ele>
        <time>2011-12-17T09:44:49.000Z</time>
      </trkpt>
      <trkpt lat="43.74393" lon="7.07266">
        <ele>725.79998779297</ele>
        <time>2011-12-17T09:44:53.000Z</time>
      </trkpt>
      <trkpt lat="43.74389" lon="7.07277">
        <ele>723.59997558594</ele>
        <time>2011-12-17T09:44:57.000Z</time>
      </trkpt>
      <trkpt lat="43.74386" lon="7.07296">
        <ele>721.20001220703</ele>
        <time>2011-12-17T09:45:02.000Z</time>
      </trkpt>
      <trkpt lat="43.74381" lon="7.07318">
        <ele>717.20001220703</ele>
        <time>2011-12-17T09:45:08.000Z</time>
      </trkpt>
      <trkpt lat="43.74382" lon="7.0733">
        <ele>716.79998779297</ele>
        <time>2011-12-17T09:45:11.000Z</time>
      </trkpt>
      <trkpt lat="43.7438" lon="7.07345">
        <ele>714.20001220703</ele>
        <time>2011-12-17T09:45:15.000Z</time>
      </trkpt>
      <trkpt lat="43.74376" lon="7.07369">
        <ele>710.20001220703</ele>
        <time>2011-12-17T09:45:20.000Z</time>
      </trkpt>
      <trkpt lat="43.74371" lon="7.07398">
        <ele>705.40002441406</ele>
        <time>2011-12-17T09:45:26.000Z</time>
      </trkpt>
      <trkpt lat="43.74366" lon="7.07421">
        <ele>701</ele>
        <time>2011-12-17T09:45:30.000Z</time>
      </trkpt>
      <trkpt lat="43.74361" lon="7.07436">
        <ele>697.40002441406</ele>
        <time>2011-12-17T09:45:34.000Z</time>
      </trkpt>
      <trkpt lat="43.7436" lon="7.07448">
        <ele>695.79998779297</ele>
        <time>2011-12-17T09:45:38.000Z</time>
      </trkpt>
      <trkpt lat="43.74359" lon="7.07449">
        <ele>695.40002441406</ele>
        <time>2011-12-17T09:45:40.000Z</time>
      </trkpt>
      <trkpt lat="43.74358" lon="7.07451">
        <ele>694.59997558594</ele>
        <time>2011-12-17T09:45:47.000Z</time>
      </trkpt>
      <trkpt lat="43.74358" lon="7.07456">
        <ele>694.40002441406</ele>
        <time>2011-12-17T09:45:54.000Z</time>
      </trkpt>
      <trkpt lat="43.74358" lon="7.07461">
        <ele>694</ele>
        <time>2011-12-17T09:45:58.000Z</time>
      </trkpt>
      <trkpt lat="43.74357" lon="7.07464">
        <ele>693.59997558594</ele>
        <time>2011-12-17T09:45:59.000Z</time>
      </trkpt>
      <trkpt lat="43.74357" lon="7.07489">
        <ele>691.40002441406</ele>
        <time>2011-12-17T09:46:06.000Z</time>
      </trkpt>
      <trkpt lat="43.74353" lon="7.0751">
        <ele>688.20001220703</ele>
        <time>2011-12-17T09:46:12.000Z</time>
      </trkpt>
      <trkpt lat="43.74347" lon="7.07527">
        <ele>684.20001220703</ele>
        <time>2011-12-17T09:46:17.000Z</time>
      </trkpt>
      <trkpt lat="43.74343" lon="7.07546">
        <ele>680.79998779297</ele>
        <time>2011-12-17T09:46:23.000Z</time>
      </trkpt>
      <trkpt lat="43.74345" lon="7.07565">
        <ele>680.40002441406</ele>
        <time>2011-12-17T09:46:28.000Z</time>
      </trkpt>
      <trkpt lat="43.74347" lon="7.07579">
        <ele>680.40002441406</ele>
        <time>2011-12-17T09:46:33.000Z</time>
      </trkpt>
      <trkpt lat="43.74349" lon="7.07585">
        <ele>680.40002441406</ele>
        <time>2011-12-17T09:46:37.000Z</time>
      </trkpt>
      <trkpt lat="43.74351" lon="7.07603">
        <ele>679.40002441406</ele>
        <time>2011-12-17T09:46:43.000Z</time>
      </trkpt>
      <trkpt lat="43.74351" lon="7.07625">
        <ele>677</ele>
        <time>2011-12-17T09:46:48.000Z</time>
      </trkpt>
      <trkpt lat="43.74351" lon="7.0765">
        <ele>674.40002441406</ele>
        <time>2011-12-17T09:46:53.000Z</time>
      </trkpt>
      <trkpt lat="43.74353" lon="7.07677">
        <ele>671.79998779297</ele>
        <time>2011-12-17T09:46:58.000Z</time>
      </trkpt>
      <trkpt lat="43.74358" lon="7.07696">
        <ele>670.79998779297</ele>
        <time>2011-12-17T09:47:02.000Z</time>
      </trkpt>
      <trkpt lat="43.74368" lon="7.07703">
        <ele>673</ele>
        <time>2011-12-17T09:47:06.000Z</time>
      </trkpt>
      <trkpt lat="43.74377" lon="7.07716">
        <ele>673.79998779297</ele>
        <time>2011-12-17T09:47:11.000Z</time>
      </trkpt>
      <trkpt lat="43.74385" lon="7.07741">
        <ele>671.79998779297</ele>
        <time>2011-12-17T09:47:16.000Z</time>
      </trkpt>
      <trkpt lat="43.7439" lon="7.0776">
        <ele>670.59997558594</ele>
        <time>2011-12-17T09:47:21.000Z</time>
      </trkpt>
      <trkpt lat="43.74395" lon="7.07782">
        <ele>670</ele>
        <time>2011-12-17T09:47:27.000Z</time>
      </trkpt>
      <trkpt lat="43.74393" lon="7.07793">
        <ele>668.20001220703</ele>
        <time>2011-12-17T09:47:33.000Z</time>
      </trkpt>
      <trkpt lat="43.7439" lon="7.07795">
        <ele>667</ele>
        <time>2011-12-17T09:47:39.000Z</time>
      </trkpt>
      <trkpt lat="43.74386" lon="7.07798">
        <ele>665.40002441406</ele>
        <time>2011-12-17T09:47:46.000Z</time>
      </trkpt>
      <trkpt lat="43.74382" lon="7.07795">
        <ele>664.59997558594</ele>
        <time>2011-12-17T09:47:51.000Z</time>
      </trkpt>
      <trkpt lat="43.74379" lon="7.07794">
        <ele>663.59997558594</ele>
        <time>2011-12-17T09:47:56.000Z</time>
      </trkpt>
      <trkpt lat="43.74378" lon="7.07793">
        <ele>663.40002441406</ele>
        <time>2011-12-17T09:48:00.000Z</time>
      </trkpt>
      <trkpt lat="43.74374" lon="7.07793">
        <ele>662.40002441406</ele>
        <time>2011-12-17T09:48:07.000Z</time>
      </trkpt>
      <trkpt lat="43.74369" lon="7.07795">
        <ele>660.59997558594</ele>
        <time>2011-12-17T09:48:12.000Z</time>
      </trkpt>
      <trkpt lat="43.74364" lon="7.07796">
        <ele>659</ele>
        <time>2011-12-17T09:48:18.000Z</time>
      </trkpt>
      <trkpt lat="43.7436" lon="7.07796">
        <ele>657.59997558594</ele>
        <time>2011-12-17T09:48:24.000Z</time>
      </trkpt>
      <trkpt lat="43.74358" lon="7.07796">
        <ele>657.20001220703</ele>
        <time>2011-12-17T09:48:29.000Z</time>
      </trkpt>
      <trkpt lat="43.74356" lon="7.07796">
        <ele>656.59997558594</ele>
        <time>2011-12-17T09:48:34.000Z</time>
      </trkpt>
      <trkpt lat="43.74355" lon="7.07795">
        <ele>656.20001220703</ele>
        <time>2011-12-17T09:48:35.000Z</time>
      </trkpt>
      <trkpt lat="43.74352" lon="7.07791">
        <ele>655.79998779297</ele>
        <time>2011-12-17T09:48:41.000Z</time>
      </trkpt>
      <trkpt lat="43.74344" lon="7.07781">
        <ele>654.20001220703</ele>
        <time>2011-12-17T09:48:46.000Z</time>
      </trkpt>
      <trkpt lat="43.74337" lon="7.07773">
        <ele>652.79998779297</ele>
        <time>2011-12-17T09:48:50.000Z</time>
      </trkpt>
      <trkpt lat="43.74328" lon="7.07768">
        <ele>651</ele>
        <time>2011-12-17T09:48:54.000Z</time>
      </trkpt>
      <trkpt lat="43.74318" lon="7.07758">
        <ele>650</ele>
        <time>2011-12-17T09:48:59.000Z</time>
      </trkpt>
      <trkpt lat="43.74317" lon="7.07756">
        <ele>649.79998779297</ele>
        <time>2011-12-17T09:49:00.000Z</time>
      </trkpt>
      <trkpt lat="43.74306" lon="7.07754">
        <ele>647.79998779297</ele>
        <time>2011-12-17T09:49:05.000Z</time>
      </trkpt>
      <trkpt lat="43.74302" lon="7.07754">
        <ele>647</ele>
        <time>2011-12-17T09:49:11.000Z</time>
      </trkpt>
      <trkpt lat="43.74294" lon="7.07752">
        <ele>645.20001220703</ele>
        <time>2011-12-17T09:49:15.000Z</time>
      </trkpt>
      <trkpt lat="43.74292" lon="7.07761">
        <ele>644</ele>
        <time>2011-12-17T09:49:19.000Z</time>
      </trkpt>
      <trkpt lat="43.74293" lon="7.07764">
        <ele>644</ele>
        <time>2011-12-17T09:49:20.000Z</time>
      </trkpt>
      <trkpt lat="43.74296" lon="7.0777">
        <ele>644</ele>
        <time>2011-12-17T09:49:22.000Z</time>
      </trkpt>
      <trkpt lat="43.74298" lon="7.07778">
        <ele>643.79998779297</ele>
        <time>2011-12-17T09:49:27.000Z</time>
      </trkpt>
      <trkpt lat="43.74298" lon="7.0778">
        <ele>643.59997558594</ele>
        <time>2011-12-17T09:49:31.000Z</time>
      </trkpt>
      <trkpt lat="43.743" lon="7.07784">
        <ele>643.40002441406</ele>
        <time>2011-12-17T09:49:37.000Z</time>
      </trkpt>
      <trkpt lat="43.74298" lon="7.07789">
        <ele>642.59997558594</ele>
        <time>2011-12-17T09:49:43.000Z</time>
      </trkpt>
      <trkpt lat="43.74293" lon="7.07789">
        <ele>641.59997558594</ele>
        <time>2011-12-17T09:49:46.000Z</time>
      </trkpt>
      <trkpt lat="43.74292" lon="7.07785">
        <ele>641.59997558594</ele>
        <time>2011-12-17T09:49:52.000Z</time>
      </trkpt>
      <trkpt lat="43.74289" lon="7.07782">
        <ele>641.40002441406</ele>
        <time>2011-12-17T09:49:57.000Z</time>
      </trkpt>
      <trkpt lat="43.74288" lon="7.07784">
        <ele>641</ele>
        <time>2011-12-17T09:49:59.000Z</time>
      </trkpt>
      <trkpt lat="43.74291" lon="7.078">
        <ele>640</ele>
        <time>2011-12-17T09:50:04.000Z</time>
      </trkpt>
      <trkpt lat="43.74287" lon="7.07803">
        <ele>639</ele>
        <time>2011-12-17T09:50:08.000Z</time>
      </trkpt>
      <trkpt lat="43.74284" lon="7.07798">
        <ele>638.79998779297</ele>
        <time>2011-12-17T09:50:13.000Z</time>
      </trkpt>
      <trkpt lat="43.74279" lon="7.0779">
        <ele>638.40002441406</ele>
        <time>2011-12-17T09:50:18.000Z</time>
      </trkpt>
      <trkpt lat="43.74278" lon="7.07791">
        <ele>638.20001220703</ele>
        <time>2011-12-17T09:50:22.000Z</time>
      </trkpt>
      <trkpt lat="43.74276" lon="7.07795">
        <ele>637.20001220703</ele>
        <time>2011-12-17T09:50:28.000Z</time>
      </trkpt>
      <trkpt lat="43.74274" lon="7.07797">
        <ele>636.59997558594</ele>
        <time>2011-12-17T09:50:34.000Z</time>
      </trkpt>
      <trkpt lat="43.74269" lon="7.07798">
        <ele>635.59997558594</ele>
        <time>2011-12-17T09:50:41.000Z</time>
      </trkpt>
      <trkpt lat="43.74265" lon="7.07799">
        <ele>634.59997558594</ele>
        <time>2011-12-17T09:50:48.000Z</time>
      </trkpt>
      <trkpt lat="43.74262" lon="7.078">
        <ele>633.79998779297</ele>
        <time>2011-12-17T09:50:55.000Z</time>
      </trkpt>
      <trkpt lat="43.74259" lon="7.07803">
        <ele>632.79998779297</ele>
        <time>2011-12-17T09:51:03.000Z</time>
      </trkpt>
      <trkpt lat="43.74254" lon="7.07807">
        <ele>631.40002441406</ele>
        <time>2011-12-17T09:51:10.000Z</time>
      </trkpt>
      <trkpt lat="43.74244" lon="7.07819">
        <ele>629.59997558594</ele>
        <time>2011-12-17T09:51:16.000Z</time>
      </trkpt>
      <trkpt lat="43.7424" lon="7.07833">
        <ele>628</ele>
        <time>2011-12-17T09:51:20.000Z</time>
      </trkpt>
      <trkpt lat="43.74232" lon="7.07855">
        <ele>626.20001220703</ele>
        <time>2011-12-17T09:51:26.000Z</time>
      </trkpt>
      <trkpt lat="43.74229" lon="7.07877">
        <ele>624.20001220703</ele>
        <time>2011-12-17T09:51:33.000Z</time>
      </trkpt>
      <trkpt lat="43.74227" lon="7.07889">
        <ele>623</ele>
        <time>2011-12-17T09:51:38.000Z</time>
      </trkpt>
      <trkpt lat="43.74228" lon="7.07903">
        <ele>622</ele>
        <time>2011-12-17T09:51:42.000Z</time>
      </trkpt>
      <trkpt lat="43.74233" lon="7.07925">
        <ele>622</ele>
        <time>2011-12-17T09:51:47.000Z</time>
      </trkpt>
      <trkpt lat="43.74234" lon="7.07931">
        <ele>622.59997558594</ele>
        <time>2011-12-17T09:51:48.000Z</time>
      </trkpt>
      <trkpt lat="43.74234" lon="7.07953">
        <ele>623.79998779297</ele>
        <time>2011-12-17T09:51:55.000Z</time>
      </trkpt>
      <trkpt lat="43.74238" lon="7.07963">
        <ele>625.20001220703</ele>
        <time>2011-12-17T09:52:00.000Z</time>
      </trkpt>
      <trkpt lat="43.74238" lon="7.0797">
        <ele>625.79998779297</ele>
        <time>2011-12-17T09:52:07.000Z</time>
      </trkpt>
      <trkpt lat="43.74236" lon="7.07973">
        <ele>625.59997558594</ele>
        <time>2011-12-17T09:52:12.000Z</time>
      </trkpt>
      <trkpt lat="43.74234" lon="7.07981">
        <ele>625.59997558594</ele>
        <time>2011-12-17T09:52:18.000Z</time>
      </trkpt>
      <trkpt lat="43.74233" lon="7.07985">
        <ele>625.40002441406</ele>
        <time>2011-12-17T09:52:20.000Z</time>
      </trkpt>
      <trkpt lat="43.74223" lon="7.08003">
        <ele>624.40002441406</ele>
        <time>2011-12-17T09:52:29.000Z</time>
      </trkpt>
      <trkpt lat="43.74223" lon="7.08005">
        <ele>624.59997558594</ele>
        <time>2011-12-17T09:52:30.000Z</time>
      </trkpt>
      <trkpt lat="43.74221" lon="7.08009">
        <ele>625</ele>
        <time>2011-12-17T09:52:36.000Z</time>
      </trkpt>
      <trkpt lat="43.7422" lon="7.08011">
        <ele>625</ele>
        <time>2011-12-17T09:52:37.000Z</time>
      </trkpt>
      <trkpt lat="43.74214" lon="7.08024">
        <ele>626</ele>
        <time>2011-12-17T09:52:42.000Z</time>
      </trkpt>
      <trkpt lat="43.74207" lon="7.08049">
        <ele>628.79998779297</ele>
        <time>2011-12-17T09:52:51.000Z</time>
      </trkpt>
      <trkpt lat="43.74206" lon="7.08052">
        <ele>629.20001220703</ele>
        <time>2011-12-17T09:52:55.000Z</time>
      </trkpt>
      <trkpt lat="43.74206" lon="7.08051">
        <ele>628.79998779297</ele>
        <time>2011-12-17T09:53:05.000Z</time>
      </trkpt>
      <trkpt lat="43.74206" lon="7.08051">
        <ele>628.79998779297</ele>
        <time>2011-12-17T09:53:12.000Z</time>
      </trkpt>
      <trkpt lat="43.74206" lon="7.08051">
        <ele>628.79998779297</ele>
        <time>2011-12-17T09:53:18.000Z</time>
      </trkpt>
      <trkpt lat="43.74208" lon="7.08049">
        <ele>628.79998779297</ele>
        <time>2011-12-17T09:54:43.000Z</time>
      </trkpt>
      <trkpt lat="43.74205" lon="7.08055">
        <ele>629.20001220703</ele>
        <time>2011-12-17T09:54:52.000Z</time>
      </trkpt>
      <trkpt lat="43.74197" lon="7.08071">
        <ele>629.79998779297</ele>
        <time>2011-12-17T09:54:56.000Z</time>
      </trkpt>
      <trkpt lat="43.74188" lon="7.08088">
        <ele>630.40002441406</ele>
        <time>2011-12-17T09:55:02.000Z</time>
      </trkpt>
      <trkpt lat="43.74189" lon="7.08091">
        <ele>631</ele>
        <time>2011-12-17T09:55:06.000Z</time>
      </trkpt>
      <trkpt lat="43.74193" lon="7.08089">
        <ele>632.20001220703</ele>
        <time>2011-12-17T09:55:11.000Z</time>
      </trkpt>
      <trkpt lat="43.74197" lon="7.08087">
        <ele>633.20001220703</ele>
        <time>2011-12-17T09:55:19.000Z</time>
      </trkpt>
      <trkpt lat="43.742" lon="7.08083">
        <ele>633.20001220703</ele>
        <time>2011-12-17T09:55:26.000Z</time>
      </trkpt>
      <trkpt lat="43.74203" lon="7.08079">
        <ele>633.59997558594</ele>
        <time>2011-12-17T09:55:33.000Z</time>
      </trkpt>
      <trkpt lat="43.74208" lon="7.08078">
        <ele>635</ele>
        <time>2011-12-17T09:55:40.000Z</time>
      </trkpt>
      <trkpt lat="43.74209" lon="7.08078">
        <ele>635.20001220703</ele>
        <time>2011-12-17T09:55:47.000Z</time>
      </trkpt>
      <trkpt lat="43.74213" lon="7.08075">
        <ele>635.79998779297</ele>
        <time>2011-12-17T09:55:53.000Z</time>
      </trkpt>
      <trkpt lat="43.74216" lon="7.08072">
        <ele>636.20001220703</ele>
        <time>2011-12-17T09:55:59.000Z</time>
      </trkpt>
      <trkpt lat="43.74217" lon="7.08071">
        <ele>636.40002441406</ele>
        <time>2011-12-17T09:56:05.000Z</time>
      </trkpt>
      <trkpt lat="43.74219" lon="7.08071">
        <ele>637</ele>
        <time>2011-12-17T09:56:12.000Z</time>
      </trkpt>
      <trkpt lat="43.74224" lon="7.08068">
        <ele>638.20001220703</ele>
        <time>2011-12-17T09:56:20.000Z</time>
      </trkpt>
      <trkpt lat="43.74226" lon="7.08067">
        <ele>638.40002441406</ele>
        <time>2011-12-17T09:56:27.000Z</time>
      </trkpt>
      <trkpt lat="43.74228" lon="7.08066">
        <ele>639</ele>
        <time>2011-12-17T09:56:33.000Z</time>
      </trkpt>
      <trkpt lat="43.7423" lon="7.08066">
        <ele>639.59997558594</ele>
        <time>2011-12-17T09:56:39.000Z</time>
      </trkpt>
      <trkpt lat="43.74245" lon="7.08059">
        <ele>642.79998779297</ele>
        <time>2011-12-17T09:56:47.000Z</time>
      </trkpt>
      <trkpt lat="43.74258" lon="7.08056">
        <ele>646.40002441406</ele>
        <time>2011-12-17T09:56:53.000Z</time>
      </trkpt>
      <trkpt lat="43.74263" lon="7.08053">
        <ele>647.20001220703</ele>
        <time>2011-12-17T09:56:58.000Z</time>
      </trkpt>
      <trkpt lat="43.74265" lon="7.08052">
        <ele>647.79998779297</ele>
        <time>2011-12-17T09:57:03.000Z</time>
      </trkpt>
      <trkpt lat="43.74266" lon="7.08052">
        <ele>648.20001220703</ele>
        <time>2011-12-17T09:57:07.000Z</time>
      </trkpt>
      <trkpt lat="43.7427" lon="7.08049">
        <ele>649</ele>
        <time>2011-12-17T09:57:13.000Z</time>
      </trkpt>
      <trkpt lat="43.74277" lon="7.08045">
        <ele>650.20001220703</ele>
        <time>2011-12-17T09:57:20.000Z</time>
      </trkpt>
      <trkpt lat="43.74284" lon="7.0804">
        <ele>651.40002441406</ele>
        <time>2011-12-17T09:57:25.000Z</time>
      </trkpt>
      <trkpt lat="43.7429" lon="7.08036">
        <ele>652.59997558594</ele>
        <time>2011-12-17T09:57:29.000Z</time>
      </trkpt>
      <trkpt lat="43.74295" lon="7.08032">
        <ele>653.40002441406</ele>
        <time>2011-12-17T09:57:34.000Z</time>
      </trkpt>
      <trkpt lat="43.74299" lon="7.08028">
        <ele>653.79998779297</ele>
        <time>2011-12-17T09:57:41.000Z</time>
      </trkpt>
      <trkpt lat="43.74306" lon="7.08019">
        <ele>654.20001220703</ele>
        <time>2011-12-17T09:57:51.000Z</time>
      </trkpt>
      <trkpt lat="43.74312" lon="7.08011">
        <ele>654.40002441406</ele>
        <time>2011-12-17T09:58:00.000Z</time>
      </trkpt>
      <trkpt lat="43.74317" lon="7.08003">
        <ele>654.20001220703</ele>
        <time>2011-12-17T09:58:10.000Z</time>
      </trkpt>
      <trkpt lat="43.7432" lon="7.07996">
        <ele>654.20001220703</ele>
        <time>2011-12-17T09:58:19.000Z</time>
      </trkpt>
      <trkpt lat="43.74325" lon="7.07992">
        <ele>655.59997558594</ele>
        <time>2011-12-17T09:58:26.000Z</time>
      </trkpt>
      <trkpt lat="43.74331" lon="7.07991">
        <ele>657.59997558594</ele>
        <time>2011-12-17T09:58:35.000Z</time>
      </trkpt>
      <trkpt lat="43.74334" lon="7.07991">
        <ele>658.20001220703</ele>
        <time>2011-12-17T09:58:44.000Z</time>
      </trkpt>
      <trkpt lat="43.74338" lon="7.0799">
        <ele>659.59997558594</ele>
        <time>2011-12-17T09:58:52.000Z</time>
      </trkpt>
      <trkpt lat="43.7434" lon="7.07991">
        <ele>660.40002441406</ele>
        <time>2011-12-17T09:59:00.000Z</time>
      </trkpt>
      <trkpt lat="43.74344" lon="7.07991">
        <ele>661.79998779297</ele>
        <time>2011-12-17T09:59:08.000Z</time>
      </trkpt>
      <trkpt lat="43.74346" lon="7.07991">
        <ele>662.40002441406</ele>
        <time>2011-12-17T09:59:15.000Z</time>
      </trkpt>
      <trkpt lat="43.74348" lon="7.07992">
        <ele>663.20001220703</ele>
        <time>2011-12-17T09:59:22.000Z</time>
      </trkpt>
      <trkpt lat="43.74349" lon="7.07992">
        <ele>663.59997558594</ele>
        <time>2011-12-17T09:59:30.000Z</time>
      </trkpt>
      <trkpt lat="43.7435" lon="7.0799">
        <ele>663.79998779297</ele>
        <time>2011-12-17T09:59:35.000Z</time>
      </trkpt>
      <trkpt lat="43.74352" lon="7.07987">
        <ele>664.20001220703</ele>
        <time>2011-12-17T09:59:41.000Z</time>
      </trkpt>
      <trkpt lat="43.7436" lon="7.07981">
        <ele>666.40002441406</ele>
        <time>2011-12-17T09:59:52.000Z</time>
      </trkpt>
      <trkpt lat="43.74366" lon="7.07981">
        <ele>668.40002441406</ele>
        <time>2011-12-17T10:00:01.000Z</time>
      </trkpt>
      <trkpt lat="43.74371" lon="7.07984">
        <ele>670.40002441406</ele>
        <time>2011-12-17T10:00:10.000Z</time>
      </trkpt>
      <trkpt lat="43.74374" lon="7.07982">
        <ele>671.20001220703</ele>
        <time>2011-12-17T10:00:16.000Z</time>
      </trkpt>
      <trkpt lat="43.74381" lon="7.0798">
        <ele>673.20001220703</ele>
        <time>2011-12-17T10:00:27.000Z</time>
      </trkpt>
      <trkpt lat="43.74384" lon="7.07979">
        <ele>674.20001220703</ele>
        <time>2011-12-17T10:00:37.000Z</time>
      </trkpt>
      <trkpt lat="43.74387" lon="7.07983">
        <ele>675.59997558594</ele>
        <time>2011-12-17T10:00:45.000Z</time>
      </trkpt>
      <trkpt lat="43.74388" lon="7.07988">
        <ele>676.59997558594</ele>
        <time>2011-12-17T10:00:52.000Z</time>
      </trkpt>
      <trkpt lat="43.74391" lon="7.07991">
        <ele>678</ele>
        <time>2011-12-17T10:01:00.000Z</time>
      </trkpt>
      <trkpt lat="43.74392" lon="7.07993">
        <ele>678.59997558594</ele>
        <time>2011-12-17T10:01:06.000Z</time>
      </trkpt>
      <trkpt lat="43.74395" lon="7.07996">
        <ele>679.79998779297</ele>
        <time>2011-12-17T10:01:13.000Z</time>
      </trkpt>
      <trkpt lat="43.74396" lon="7.08001">
        <ele>681.20001220703</ele>
        <time>2011-12-17T10:01:20.000Z</time>
      </trkpt>
      <trkpt lat="43.74398" lon="7.08006">
        <ele>682.79998779297</ele>
        <time>2011-12-17T10:01:27.000Z</time>
      </trkpt>
      <trkpt lat="43.74401" lon="7.08008">
        <ele>684.40002441406</ele>
        <time>2011-12-17T10:01:34.000Z</time>
      </trkpt>
      <trkpt lat="43.74404" lon="7.08008">
        <ele>685.40002441406</ele>
        <time>2011-12-17T10:01:40.000Z</time>
      </trkpt>
      <trkpt lat="43.74407" lon="7.08007">
        <ele>686.20001220703</ele>
        <time>2011-12-17T10:01:48.000Z</time>
      </trkpt>
      <trkpt lat="43.7441" lon="7.08005">
        <ele>686.79998779297</ele>
        <time>2011-12-17T10:01:55.000Z</time>
      </trkpt>
      <trkpt lat="43.74416" lon="7.07998">
        <ele>687.40002441406</ele>
        <time>2011-12-17T10:02:03.000Z</time>
      </trkpt>
      <trkpt lat="43.74418" lon="7.07994">
        <ele>687.59997558594</ele>
        <time>2011-12-17T10:02:10.000Z</time>
      </trkpt>
      <trkpt lat="43.74421" lon="7.07992">
        <ele>688</ele>
        <time>2011-12-17T10:02:16.000Z</time>
      </trkpt>
      <trkpt lat="43.74432" lon="7.07991">
        <ele>690.59997558594</ele>
        <time>2011-12-17T10:02:26.000Z</time>
      </trkpt>
      <trkpt lat="43.74438" lon="7.07988">
        <ele>691.59997558594</ele>
        <time>2011-12-17T10:02:33.000Z</time>
      </trkpt>
      <trkpt lat="43.74444" lon="7.07987">
        <ele>693</ele>
        <time>2011-12-17T10:02:41.000Z</time>
      </trkpt>
      <trkpt lat="43.7445" lon="7.07984">
        <ele>693.79998779297</ele>
        <time>2011-12-17T10:02:49.000Z</time>
      </trkpt>
      <trkpt lat="43.74451" lon="7.07983">
        <ele>694.20001220703</ele>
        <time>2011-12-17T10:02:54.000Z</time>
      </trkpt>
      <trkpt lat="43.74457" lon="7.07979">
        <ele>694.79998779297</ele>
        <time>2011-12-17T10:03:28.000Z</time>
      </trkpt>
      <trkpt lat="43.74468" lon="7.07969">
        <ele>696.20001220703</ele>
        <time>2011-12-17T10:03:34.000Z</time>
      </trkpt>
      <trkpt lat="43.74487" lon="7.07956">
        <ele>699</ele>
        <time>2011-12-17T10:03:43.000Z</time>
      </trkpt>
      <trkpt lat="43.74506" lon="7.07938">
        <ele>701</ele>
        <time>2011-12-17T10:03:52.000Z</time>
      </trkpt>
      <trkpt lat="43.74523" lon="7.07923">
        <ele>702.40002441406</ele>
        <time>2011-12-17T10:03:59.000Z</time>
      </trkpt>
      <trkpt lat="43.7454" lon="7.07903">
        <ele>704</ele>
        <time>2011-12-17T10:04:06.000Z</time>
      </trkpt>
      <trkpt lat="43.74552" lon="7.07896">
        <ele>706</ele>
        <time>2011-12-17T10:04:11.000Z</time>
      </trkpt>
      <trkpt lat="43.74561" lon="7.07888">
        <ele>707.20001220703</ele>
        <time>2011-12-17T10:04:15.000Z</time>
      </trkpt>
      <trkpt lat="43.74575" lon="7.07879">
        <ele>709.59997558594</ele>
        <time>2011-12-17T10:04:21.000Z</time>
      </trkpt>
      <trkpt lat="43.74587" lon="7.0787">
        <ele>711.40002441406</ele>
        <time>2011-12-17T10:04:26.000Z</time>
      </trkpt>
      <trkpt lat="43.74601" lon="7.07874">
        <ele>714.20001220703</ele>
        <time>2011-12-17T10:04:32.000Z</time>
      </trkpt>
      <trkpt lat="43.74615" lon="7.0787">
        <ele>716.20001220703</ele>
        <time>2011-12-17T10:04:39.000Z</time>
      </trkpt>
      <trkpt lat="43.74629" lon="7.07867">
        <ele>718.20001220703</ele>
        <time>2011-12-17T10:04:46.000Z</time>
      </trkpt>
      <trkpt lat="43.74639" lon="7.07858">
        <ele>718.40002441406</ele>
        <time>2011-12-17T10:04:52.000Z</time>
      </trkpt>
      <trkpt lat="43.74652" lon="7.07849">
        <ele>719</ele>
        <time>2011-12-17T10:05:00.000Z</time>
      </trkpt>
      <trkpt lat="43.74663" lon="7.07846">
        <ele>719.79998779297</ele>
        <time>2011-12-17T10:05:07.000Z</time>
      </trkpt>
      <trkpt lat="43.74673" lon="7.07843">
        <ele>720.40002441406</ele>
        <time>2011-12-17T10:05:13.000Z</time>
      </trkpt>
      <trkpt lat="43.74679" lon="7.07842">
        <ele>720.59997558594</ele>
        <time>2011-12-17T10:05:18.000Z</time>
      </trkpt>
      <trkpt lat="43.7469" lon="7.07842">
        <ele>721.40002441406</ele>
        <time>2011-12-17T10:05:24.000Z</time>
      </trkpt>
      <trkpt lat="43.74694" lon="7.07843">
        <ele>722</ele>
        <time>2011-12-17T10:05:28.000Z</time>
      </trkpt>
      <trkpt lat="43.74697" lon="7.07843">
        <ele>722.20001220703</ele>
        <time>2011-12-17T10:05:34.000Z</time>
      </trkpt>
      <trkpt lat="43.74702" lon="7.07843">
        <ele>722.59997558594</ele>
        <time>2011-12-17T10:05:41.000Z</time>
      </trkpt>
      <trkpt lat="43.74705" lon="7.07843">
        <ele>722.79998779297</ele>
        <time>2011-12-17T10:05:47.000Z</time>
      </trkpt>
      <trkpt lat="43.74716" lon="7.07843">
        <ele>723.79998779297</ele>
        <time>2011-12-17T10:05:54.000Z</time>
      </trkpt>
      <trkpt lat="43.74738" lon="7.07844">
        <ele>725.59997558594</ele>
        <time>2011-12-17T10:06:04.000Z</time>
      </trkpt>
      <trkpt lat="43.74758" lon="7.07847">
        <ele>727.79998779297</ele>
        <time>2011-12-17T10:06:14.000Z</time>
      </trkpt>
      <trkpt lat="43.74771" lon="7.07849">
        <ele>729.20001220703</ele>
        <time>2011-12-17T10:06:21.000Z</time>
      </trkpt>
      <trkpt lat="43.74788" lon="7.07849">
        <ele>730.20001220703</ele>
        <time>2011-12-17T10:06:29.000Z</time>
      </trkpt>
      <trkpt lat="43.74803" lon="7.0785">
        <ele>731.20001220703</ele>
        <time>2011-12-17T10:06:36.000Z</time>
      </trkpt>
      <trkpt lat="43.74811" lon="7.07855">
        <ele>732.79998779297</ele>
        <time>2011-12-17T10:06:41.000Z</time>
      </trkpt>
      <trkpt lat="43.74812" lon="7.07856">
        <ele>733</ele>
        <time>2011-12-17T10:06:48.000Z</time>
      </trkpt>
      <trkpt lat="43.74813" lon="7.07856">
        <ele>733.20001220703</ele>
        <time>2011-12-17T10:06:53.000Z</time>
      </trkpt>
      <trkpt lat="43.74817" lon="7.07856">
        <ele>733.20001220703</ele>
        <time>2011-12-17T10:06:59.000Z</time>
      </trkpt>
      <trkpt lat="43.7482" lon="7.07855">
        <ele>733.20001220703</ele>
        <time>2011-12-17T10:07:04.000Z</time>
      </trkpt>
      <trkpt lat="43.74835" lon="7.07846">
        <ele>732.59997558594</ele>
        <time>2011-12-17T10:07:13.000Z</time>
      </trkpt>
      <trkpt lat="43.74848" lon="7.07835">
        <ele>732.79998779297</ele>
        <time>2011-12-17T10:07:22.000Z</time>
      </trkpt>
      <trkpt lat="43.74861" lon="7.07825">
        <ele>735</ele>
        <time>2011-12-17T10:07:30.000Z</time>
      </trkpt>
      <trkpt lat="43.74873" lon="7.07819">
        <ele>737</ele>
        <time>2011-12-17T10:07:38.000Z</time>
      </trkpt>
      <trkpt lat="43.74878" lon="7.07816">
        <ele>737.79998779297</ele>
        <time>2011-12-17T10:07:43.000Z</time>
      </trkpt>
      <trkpt lat="43.74884" lon="7.07813">
        <ele>738.59997558594</ele>
        <time>2011-12-17T10:07:46.000Z</time>
      </trkpt>
      <trkpt lat="43.74904" lon="7.07803">
        <ele>741.20001220703</ele>
        <time>2011-12-17T10:07:56.000Z</time>
      </trkpt>
      <trkpt lat="43.74921" lon="7.07793">
        <ele>743</ele>
        <time>2011-12-17T10:08:05.000Z</time>
      </trkpt>
      <trkpt lat="43.74942" lon="7.07784">
        <ele>743.59997558594</ele>
        <time>2011-12-17T10:08:16.000Z</time>
      </trkpt>
      <trkpt lat="43.74952" lon="7.07781">
        <ele>744</ele>
        <time>2011-12-17T10:08:22.000Z</time>
      </trkpt>
      <trkpt lat="43.74966" lon="7.07776">
        <ele>744.40002441406</ele>
        <time>2011-12-17T10:08:30.000Z</time>
      </trkpt>
      <trkpt lat="43.74976" lon="7.07777">
        <ele>745.20001220703</ele>
        <time>2011-12-17T10:08:37.000Z</time>
      </trkpt>
      <trkpt lat="43.7498" lon="7.07779">
        <ele>745.59997558594</ele>
        <time>2011-12-17T10:08:41.000Z</time>
      </trkpt>
      <trkpt lat="43.74982" lon="7.0778">
        <ele>745.79998779297</ele>
        <time>2011-12-17T10:08:46.000Z</time>
      </trkpt>
      <trkpt lat="43.74989" lon="7.07781">
        <ele>746.40002441406</ele>
        <time>2011-12-17T10:08:53.000Z</time>
      </trkpt>
      <trkpt lat="43.74994" lon="7.07783">
        <ele>746.79998779297</ele>
        <time>2011-12-17T10:08:59.000Z</time>
      </trkpt>
      <trkpt lat="43.75003" lon="7.07785">
        <ele>747.59997558594</ele>
        <time>2011-12-17T10:09:08.000Z</time>
      </trkpt>
      <trkpt lat="43.75011" lon="7.07787">
        <ele>748.20001220703</ele>
        <time>2011-12-17T10:09:16.000Z</time>
      </trkpt>
      <trkpt lat="43.75016" lon="7.07789">
        <ele>748.59997558594</ele>
        <time>2011-12-17T10:09:21.000Z</time>
      </trkpt>
      <trkpt lat="43.7503" lon="7.07794">
        <ele>749.79998779297</ele>
        <time>2011-12-17T10:09:29.000Z</time>
      </trkpt>
      <trkpt lat="43.7505" lon="7.07796">
        <ele>751.20001220703</ele>
        <time>2011-12-17T10:09:39.000Z</time>
      </trkpt>
      <trkpt lat="43.75066" lon="7.0779">
        <ele>751.40002441406</ele>
        <time>2011-12-17T10:09:48.000Z</time>
      </trkpt>
      <trkpt lat="43.75081" lon="7.07785">
        <ele>751.79998779297</ele>
        <time>2011-12-17T10:09:57.000Z</time>
      </trkpt>
      <trkpt lat="43.75093" lon="7.07787">
        <ele>753.20001220703</ele>
        <time>2011-12-17T10:10:05.000Z</time>
      </trkpt>
      <trkpt lat="43.75104" lon="7.07791">
        <ele>754.79998779297</ele>
        <time>2011-12-17T10:10:13.000Z</time>
      </trkpt>
      <trkpt lat="43.75113" lon="7.07799">
        <ele>756.79998779297</ele>
        <time>2011-12-17T10:10:21.000Z</time>
      </trkpt>
      <trkpt lat="43.75123" lon="7.07805">
        <ele>758.40002441406</ele>
        <time>2011-12-17T10:10:28.000Z</time>
      </trkpt>
      <trkpt lat="43.75128" lon="7.07806">
        <ele>759</ele>
        <time>2011-12-17T10:10:32.000Z</time>
      </trkpt>
      <trkpt lat="43.75128" lon="7.07808">
        <ele>759.20001220703</ele>
        <time>2011-12-17T10:10:38.000Z</time>
      </trkpt>
      <trkpt lat="43.75128" lon="7.07808">
        <ele>759.20001220703</ele>
        <time>2011-12-17T10:10:45.000Z</time>
      </trkpt>
      <trkpt lat="43.75129" lon="7.07802">
        <ele>758.79998779297</ele>
        <time>2011-12-17T10:11:28.000Z</time>
      </trkpt>
      <trkpt lat="43.75129" lon="7.07802">
        <ele>758.79998779297</ele>
        <time>2011-12-17T10:11:38.000Z</time>
      </trkpt>
      <trkpt lat="43.75132" lon="7.07803">
        <ele>759.20001220703</ele>
        <time>2011-12-17T10:11:50.000Z</time>
      </trkpt>
      <trkpt lat="43.75136" lon="7.07804">
        <ele>759.79998779297</ele>
        <time>2011-12-17T10:11:56.000Z</time>
      </trkpt>
      <trkpt lat="43.75141" lon="7.07806">
        <ele>760.59997558594</ele>
        <time>2011-12-17T10:12:03.000Z</time>
      </trkpt>
      <trkpt lat="43.75149" lon="7.07808">
        <ele>761.79998779297</ele>
        <time>2011-12-17T10:12:12.000Z</time>
      </trkpt>
      <trkpt lat="43.75155" lon="7.07811">
        <ele>762.79998779297</ele>
        <time>2011-12-17T10:12:20.000Z</time>
      </trkpt>
      <trkpt lat="43.75162" lon="7.07813">
        <ele>763.59997558594</ele>
        <time>2011-12-17T10:12:28.000Z</time>
      </trkpt>
      <trkpt lat="43.75168" lon="7.07815">
        <ele>764.59997558594</ele>
        <time>2011-12-17T10:12:36.000Z</time>
      </trkpt>
      <trkpt lat="43.75173" lon="7.07816">
        <ele>765.40002441406</ele>
        <time>2011-12-17T10:12:44.000Z</time>
      </trkpt>
      <trkpt lat="43.75179" lon="7.07818">
        <ele>766.59997558594</ele>
        <time>2011-12-17T10:12:53.000Z</time>
      </trkpt>
      <trkpt lat="43.75184" lon="7.0782">
        <ele>767.20001220703</ele>
        <time>2011-12-17T10:13:00.000Z</time>
      </trkpt>
      <trkpt lat="43.75188" lon="7.0782">
        <ele>768</ele>
        <time>2011-12-17T10:13:08.000Z</time>
      </trkpt>
      <trkpt lat="43.75192" lon="7.07821">
        <ele>768.59997558594</ele>
        <time>2011-12-17T10:13:15.000Z</time>
      </trkpt>
      <trkpt lat="43.75195" lon="7.07823">
        <ele>769.20001220703</ele>
        <time>2011-12-17T10:13:21.000Z</time>
      </trkpt>
      <trkpt lat="43.752" lon="7.07827">
        <ele>770</ele>
        <time>2011-12-17T10:13:29.000Z</time>
      </trkpt>
      <trkpt lat="43.75202" lon="7.07828">
        <ele>770.20001220703</ele>
        <time>2011-12-17T10:13:36.000Z</time>
      </trkpt>
      <trkpt lat="43.75202" lon="7.07828">
        <ele>770.20001220703</ele>
        <time>2011-12-17T10:13:52.000Z</time>
      </trkpt>
      <trkpt lat="43.75201" lon="7.07828">
        <ele>770.20001220703</ele>
        <time>2011-12-17T10:14:02.000Z</time>
      </trkpt>
      <trkpt lat="43.75204" lon="7.0783">
        <ele>770.59997558594</ele>
        <time>2011-12-17T10:14:12.000Z</time>
      </trkpt>
      <trkpt lat="43.75207" lon="7.07835">
        <ele>771.59997558594</ele>
        <time>2011-12-17T10:14:21.000Z</time>
      </trkpt>
      <trkpt lat="43.7521" lon="7.07838">
        <ele>772.59997558594</ele>
        <time>2011-12-17T10:14:28.000Z</time>
      </trkpt>
      <trkpt lat="43.75211" lon="7.0784">
        <ele>773</ele>
        <time>2011-12-17T10:14:35.000Z</time>
      </trkpt>
      <trkpt lat="43.75211" lon="7.07841">
        <ele>773.20001220703</ele>
        <time>2011-12-17T10:14:48.000Z</time>
      </trkpt>
      <trkpt lat="43.75213" lon="7.07844">
        <ele>773.79998779297</ele>
        <time>2011-12-17T10:14:53.000Z</time>
      </trkpt>
      <trkpt lat="43.75215" lon="7.07848">
        <ele>774.79998779297</ele>
        <time>2011-12-17T10:15:00.000Z</time>
      </trkpt>
      <trkpt lat="43.75217" lon="7.0785">
        <ele>775.40002441406</ele>
        <time>2011-12-17T10:15:07.000Z</time>
      </trkpt>
      <trkpt lat="43.75219" lon="7.07854">
        <ele>776.40002441406</ele>
        <time>2011-12-17T10:15:14.000Z</time>
      </trkpt>
      <trkpt lat="43.75223" lon="7.07858">
        <ele>777.40002441406</ele>
        <time>2011-12-17T10:15:20.000Z</time>
      </trkpt>
      <trkpt lat="43.75226" lon="7.07862">
        <ele>778.59997558594</ele>
        <time>2011-12-17T10:15:29.000Z</time>
      </trkpt>
      <trkpt lat="43.75228" lon="7.07865">
        <ele>779.40002441406</ele>
        <time>2011-12-17T10:15:35.000Z</time>
      </trkpt>
      <trkpt lat="43.7523" lon="7.07867">
        <ele>780</ele>
        <time>2011-12-17T10:15:42.000Z</time>
      </trkpt>
      <trkpt lat="43.75232" lon="7.07869">
        <ele>780.59997558594</ele>
        <time>2011-12-17T10:15:53.000Z</time>
      </trkpt>
      <trkpt lat="43.75234" lon="7.07871">
        <ele>781.20001220703</ele>
        <time>2011-12-17T10:16:01.000Z</time>
      </trkpt>
      <trkpt lat="43.75235" lon="7.07873">
        <ele>781.59997558594</ele>
        <time>2011-12-17T10:16:07.000Z</time>
      </trkpt>
      <trkpt lat="43.75238" lon="7.07878">
        <ele>783</ele>
        <time>2011-12-17T10:16:15.000Z</time>
      </trkpt>
      <trkpt lat="43.75241" lon="7.07883">
        <ele>784.20001220703</ele>
        <time>2011-12-17T10:16:24.000Z</time>
      </trkpt>
      <trkpt lat="43.75243" lon="7.07888">
        <ele>785.20001220703</ele>
        <time>2011-12-17T10:16:32.000Z</time>
      </trkpt>
      <trkpt lat="43.75245" lon="7.07892">
        <ele>786.20001220703</ele>
        <time>2011-12-17T10:16:39.000Z</time>
      </trkpt>
      <trkpt lat="43.75247" lon="7.07898">
        <ele>787.40002441406</ele>
        <time>2011-12-17T10:16:48.000Z</time>
      </trkpt>
      <trkpt lat="43.75246" lon="7.07897">
        <ele>787.20001220703</ele>
        <time>2011-12-17T10:17:02.000Z</time>
      </trkpt>
      <trkpt lat="43.75248" lon="7.07902">
        <ele>788.20001220703</ele>
        <time>2011-12-17T10:17:09.000Z</time>
      </trkpt>
      <trkpt lat="43.7525" lon="7.07908">
        <ele>789.40002441406</ele>
        <time>2011-12-17T10:17:17.000Z</time>
      </trkpt>
      <trkpt lat="43.75251" lon="7.07917">
        <ele>791</ele>
        <time>2011-12-17T10:17:26.000Z</time>
      </trkpt>
      <trkpt lat="43.7525" lon="7.07923">
        <ele>792</ele>
        <time>2011-12-17T10:17:34.000Z</time>
      </trkpt>
      <trkpt lat="43.75254" lon="7.0793">
        <ele>793.79998779297</ele>
        <time>2011-12-17T10:17:42.000Z</time>
      </trkpt>
      <trkpt lat="43.75257" lon="7.07939">
        <ele>795.59997558594</ele>
        <time>2011-12-17T10:17:51.000Z</time>
      </trkpt>
      <trkpt lat="43.75261" lon="7.07947">
        <ele>797.20001220703</ele>
        <time>2011-12-17T10:17:59.000Z</time>
      </trkpt>
      <trkpt lat="43.75265" lon="7.07954">
        <ele>799</ele>
        <time>2011-12-17T10:18:08.000Z</time>
      </trkpt>
      <trkpt lat="43.75267" lon="7.07958">
        <ele>799.79998779297</ele>
        <time>2011-12-17T10:18:15.000Z</time>
      </trkpt>
      <trkpt lat="43.75267" lon="7.0796">
        <ele>800.40002441406</ele>
        <time>2011-12-17T10:18:21.000Z</time>
      </trkpt>
      <trkpt lat="43.7527" lon="7.07966">
        <ele>801.59997558594</ele>
        <time>2011-12-17T10:18:28.000Z</time>
      </trkpt>
      <trkpt lat="43.75271" lon="7.07975">
        <ele>803</ele>
        <time>2011-12-17T10:18:37.000Z</time>
      </trkpt>
      <trkpt lat="43.75272" lon="7.07982">
        <ele>804.20001220703</ele>
        <time>2011-12-17T10:18:45.000Z</time>
      </trkpt>
      <trkpt lat="43.75271" lon="7.07991">
        <ele>805.40002441406</ele>
        <time>2011-12-17T10:18:53.000Z</time>
      </trkpt>
      <trkpt lat="43.75271" lon="7.07999">
        <ele>806.59997558594</ele>
        <time>2011-12-17T10:19:00.000Z</time>
      </trkpt>
      <trkpt lat="43.75272" lon="7.08009">
        <ele>807.59997558594</ele>
        <time>2011-12-17T10:19:09.000Z</time>
      </trkpt>
      <trkpt lat="43.75273" lon="7.08018">
        <ele>808.40002441406</ele>
        <time>2011-12-17T10:19:17.000Z</time>
      </trkpt>
      <trkpt lat="43.75274" lon="7.08027">
        <ele>809.40002441406</ele>
        <time>2011-12-17T10:19:25.000Z</time>
      </trkpt>
      <trkpt lat="43.75274" lon="7.0803">
        <ele>809.59997558594</ele>
        <time>2011-12-17T10:19:31.000Z</time>
      </trkpt>
      <trkpt lat="43.75272" lon="7.08043">
        <ele>810.40002441406</ele>
        <time>2011-12-17T10:19:40.000Z</time>
      </trkpt>
      <trkpt lat="43.75271" lon="7.08052">
        <ele>811</ele>
        <time>2011-12-17T10:19:47.000Z</time>
      </trkpt>
      <trkpt lat="43.75273" lon="7.08057">
        <ele>811.59997558594</ele>
        <time>2011-12-17T10:19:53.000Z</time>
      </trkpt>
      <trkpt lat="43.75272" lon="7.08057">
        <ele>811.40002441406</ele>
        <time>2011-12-17T10:19:59.000Z</time>
      </trkpt>
      <trkpt lat="43.75269" lon="7.08063">
        <ele>811.59997558594</ele>
        <time>2011-12-17T10:20:04.000Z</time>
      </trkpt>
      <trkpt lat="43.7527" lon="7.08065">
        <ele>811.79998779297</ele>
        <time>2011-12-17T10:20:09.000Z</time>
      </trkpt>
      <trkpt lat="43.75271" lon="7.08083">
        <ele>813.40002441406</ele>
        <time>2011-12-17T10:20:16.000Z</time>
      </trkpt>
      <trkpt lat="43.7527" lon="7.08115">
        <ele>813.79998779297</ele>
        <time>2011-12-17T10:20:27.000Z</time>
      </trkpt>
      <trkpt lat="43.75271" lon="7.08142">
        <ele>814</ele>
        <time>2011-12-17T10:20:36.000Z</time>
      </trkpt>
      <trkpt lat="43.75276" lon="7.08159">
        <ele>814.79998779297</ele>
        <time>2011-12-17T10:20:42.000Z</time>
      </trkpt>
      <trkpt lat="43.75288" lon="7.08179">
        <ele>815.59997558594</ele>
        <time>2011-12-17T10:20:50.000Z</time>
      </trkpt>
      <trkpt lat="43.75293" lon="7.08192">
        <ele>815.59997558594</ele>
        <time>2011-12-17T10:20:55.000Z</time>
      </trkpt>
      <trkpt lat="43.75301" lon="7.08203">
        <ele>815.79998779297</ele>
        <time>2011-12-17T10:21:00.000Z</time>
      </trkpt>
      <trkpt lat="43.7531" lon="7.08218">
        <ele>816.20001220703</ele>
        <time>2011-12-17T10:21:07.000Z</time>
      </trkpt>
      <trkpt lat="43.75319" lon="7.08227">
        <ele>816.79998779297</ele>
        <time>2011-12-17T10:21:13.000Z</time>
      </trkpt>
      <trkpt lat="43.7533" lon="7.08229">
        <ele>817.79998779297</ele>
        <time>2011-12-17T10:21:19.000Z</time>
      </trkpt>
      <trkpt lat="43.75337" lon="7.08228">
        <ele>818.59997558594</ele>
        <time>2011-12-17T10:21:23.000Z</time>
      </trkpt>
      <trkpt lat="43.75349" lon="7.08236">
        <ele>820</ele>
        <time>2011-12-17T10:21:31.000Z</time>
      </trkpt>
      <trkpt lat="43.7536" lon="7.0824">
        <ele>821.40002441406</ele>
        <time>2011-12-17T10:21:38.000Z</time>
      </trkpt>
      <trkpt lat="43.7537" lon="7.08246">
        <ele>822.40002441406</ele>
        <time>2011-12-17T10:21:45.000Z</time>
      </trkpt>
      <trkpt lat="43.75379" lon="7.08255">
        <ele>823.20001220703</ele>
        <time>2011-12-17T10:21:52.000Z</time>
      </trkpt>
      <trkpt lat="43.75388" lon="7.08263">
        <ele>823.79998779297</ele>
        <time>2011-12-17T10:21:59.000Z</time>
      </trkpt>
      <trkpt lat="43.75399" lon="7.08272">
        <ele>824.40002441406</ele>
        <time>2011-12-17T10:22:06.000Z</time>
      </trkpt>
      <trkpt lat="43.75404" lon="7.08275">
        <ele>824.79998779297</ele>
        <time>2011-12-17T10:22:09.000Z</time>
      </trkpt>
      <trkpt lat="43.75414" lon="7.0829">
        <ele>824.40002441406</ele>
        <time>2011-12-17T10:22:18.000Z</time>
      </trkpt>
      <trkpt lat="43.75423" lon="7.08303">
        <ele>823.79998779297</ele>
        <time>2011-12-17T10:22:26.000Z</time>
      </trkpt>
      <trkpt lat="43.75436" lon="7.08315">
        <ele>823.20001220703</ele>
        <time>2011-12-17T10:22:33.000Z</time>
      </trkpt>
      <trkpt lat="43.75448" lon="7.08328">
        <ele>822.59997558594</ele>
        <time>2011-12-17T10:22:37.000Z</time>
      </trkpt>
      <trkpt lat="43.75467" lon="7.08335">
        <ele>822.79998779297</ele>
        <time>2011-12-17T10:22:41.000Z</time>
      </trkpt>
      <trkpt lat="43.75479" lon="7.08343">
        <ele>822.40002441406</ele>
        <time>2011-12-17T10:22:44.000Z</time>
      </trkpt>
      <trkpt lat="43.75494" lon="7.08352">
        <ele>822</ele>
        <time>2011-12-17T10:22:49.000Z</time>
      </trkpt>
      <trkpt lat="43.75514" lon="7.08364">
        <ele>821.40002441406</ele>
        <time>2011-12-17T10:22:58.000Z</time>
      </trkpt>
      <trkpt lat="43.75531" lon="7.08376">
        <ele>820.40002441406</ele>
        <time>2011-12-17T10:23:05.000Z</time>
      </trkpt>
      <trkpt lat="43.75549" lon="7.08381">
        <ele>820.20001220703</ele>
        <time>2011-12-17T10:23:11.000Z</time>
      </trkpt>
      <trkpt lat="43.75568" lon="7.08389">
        <ele>819.59997558594</ele>
        <time>2011-12-17T10:23:15.000Z</time>
      </trkpt>
      <trkpt lat="43.75578" lon="7.08393">
        <ele>819.20001220703</ele>
        <time>2011-12-17T10:23:17.000Z</time>
      </trkpt>
      <trkpt lat="43.75595" lon="7.08402">
        <ele>818</ele>
        <time>2011-12-17T10:23:22.000Z</time>
      </trkpt>
      <trkpt lat="43.75599" lon="7.08404">
        <ele>817.79998779297</ele>
        <time>2011-12-17T10:23:23.000Z</time>
      </trkpt>
      <trkpt lat="43.75625" lon="7.08409">
        <ele>817.20001220703</ele>
        <time>2011-12-17T10:23:31.000Z</time>
      </trkpt>
      <trkpt lat="43.75635" lon="7.08413">
        <ele>816.40002441406</ele>
        <time>2011-12-17T10:23:37.000Z</time>
      </trkpt>
      <trkpt lat="43.75643" lon="7.08415">
        <ele>816</ele>
        <time>2011-12-17T10:23:41.000Z</time>
      </trkpt>
      <trkpt lat="43.75644" lon="7.08417">
        <ele>815.79998779297</ele>
        <time>2011-12-17T10:23:47.000Z</time>
      </trkpt>
      <trkpt lat="43.75647" lon="7.08417">
        <ele>815.79998779297</ele>
        <time>2011-12-17T10:24:06.000Z</time>
      </trkpt>
      <trkpt lat="43.7566" lon="7.08426">
        <ele>813.40002441406</ele>
        <time>2011-12-17T10:24:13.000Z</time>
      </trkpt>
      <trkpt lat="43.7567" lon="7.08428">
        <ele>813.20001220703</ele>
        <time>2011-12-17T10:24:18.000Z</time>
      </trkpt>
      <trkpt lat="43.75674" lon="7.08428">
        <ele>813.40002441406</ele>
        <time>2011-12-17T10:24:20.000Z</time>
      </trkpt>
      <trkpt lat="43.75679" lon="7.08432">
        <ele>812.59997558594</ele>
        <time>2011-12-17T10:24:25.000Z</time>
      </trkpt>
      <trkpt lat="43.75684" lon="7.08435">
        <ele>812.20001220703</ele>
        <time>2011-12-17T10:24:29.000Z</time>
      </trkpt>
      <trkpt lat="43.75686" lon="7.08436">
        <ele>812</ele>
        <time>2011-12-17T10:24:30.000Z</time>
      </trkpt>
      <trkpt lat="43.75703" lon="7.08445">
        <ele>810.59997558594</ele>
        <time>2011-12-17T10:24:37.000Z</time>
      </trkpt>
      <trkpt lat="43.75713" lon="7.08448">
        <ele>810.40002441406</ele>
        <time>2011-12-17T10:24:41.000Z</time>
      </trkpt>
      <trkpt lat="43.75727" lon="7.08458">
        <ele>808.79998779297</ele>
        <time>2011-12-17T10:24:47.000Z</time>
      </trkpt>
      <trkpt lat="43.75751" lon="7.08468">
        <ele>808</ele>
        <time>2011-12-17T10:24:53.000Z</time>
      </trkpt>
      <trkpt lat="43.75768" lon="7.08476">
        <ele>807.79998779297</ele>
        <time>2011-12-17T10:24:58.000Z</time>
      </trkpt>
      <trkpt lat="43.75784" lon="7.08489">
        <ele>806.59997558594</ele>
        <time>2011-12-17T10:25:03.000Z</time>
      </trkpt>
      <trkpt lat="43.75797" lon="7.08502">
        <ele>805.20001220703</ele>
        <time>2011-12-17T10:25:06.000Z</time>
      </trkpt>
      <trkpt lat="43.75812" lon="7.08518">
        <ele>803.79998779297</ele>
        <time>2011-12-17T10:25:10.000Z</time>
      </trkpt>
      <trkpt lat="43.75822" lon="7.08527">
        <ele>803.79998779297</ele>
        <time>2011-12-17T10:25:13.000Z</time>
      </trkpt>
      <trkpt lat="43.75823" lon="7.0854">
        <ele>801.79998779297</ele>
        <time>2011-12-17T10:25:17.000Z</time>
      </trkpt>
      <trkpt lat="43.75827" lon="7.0857">
        <ele>798</ele>
        <time>2011-12-17T10:25:22.000Z</time>
      </trkpt>
      <trkpt lat="43.75832" lon="7.08587">
        <ele>796.40002441406</ele>
        <time>2011-12-17T10:25:25.000Z</time>
      </trkpt>
      <trkpt lat="43.75839" lon="7.08608">
        <ele>794.79998779297</ele>
        <time>2011-12-17T10:25:29.000Z</time>
      </trkpt>
      <trkpt lat="43.75842" lon="7.08618">
        <ele>793.79998779297</ele>
        <time>2011-12-17T10:25:32.000Z</time>
      </trkpt>
      <trkpt lat="43.75838" lon="7.08645">
        <ele>790.59997558594</ele>
        <time>2011-12-17T10:25:38.000Z</time>
      </trkpt>
      <trkpt lat="43.75835" lon="7.0866">
        <ele>788.79998779297</ele>
        <time>2011-12-17T10:25:43.000Z</time>
      </trkpt>
      <trkpt lat="43.75834" lon="7.08662">
        <ele>788.40002441406</ele>
        <time>2011-12-17T10:25:49.000Z</time>
      </trkpt>
      <trkpt lat="43.7583" lon="7.08666">
        <ele>787.59997558594</ele>
        <time>2011-12-17T10:25:56.000Z</time>
      </trkpt>
      <trkpt lat="43.75833" lon="7.08674">
        <ele>787.40002441406</ele>
        <time>2011-12-17T10:26:02.000Z</time>
      </trkpt>
      <trkpt lat="43.75834" lon="7.08675">
        <ele>787.40002441406</ele>
        <time>2011-12-17T10:26:09.000Z</time>
      </trkpt>
      <trkpt lat="43.75835" lon="7.08674">
        <ele>787.40002441406</ele>
        <time>2011-12-17T10:26:23.000Z</time>
      </trkpt>
      <trkpt lat="43.75835" lon="7.08675">
        <ele>787.40002441406</ele>
        <time>2011-12-17T10:26:39.000Z</time>
      </trkpt>
      <trkpt lat="43.75835" lon="7.08675">
        <ele>787.40002441406</ele>
        <time>2011-12-17T10:26:48.000Z</time>
      </trkpt>
      <trkpt lat="43.75836" lon="7.08674">
        <ele>787.59997558594</ele>
        <time>2011-12-17T10:26:53.000Z</time>
      </trkpt>
      <trkpt lat="43.75838" lon="7.08673">
        <ele>787.79998779297</ele>
        <time>2011-12-17T10:26:56.000Z</time>
      </trkpt>
      <trkpt lat="43.75847" lon="7.08671">
        <ele>788.40002441406</ele>
        <time>2011-12-17T10:27:02.000Z</time>
      </trkpt>
      <trkpt lat="43.75857" lon="7.08667">
        <ele>789.40002441406</ele>
        <time>2011-12-17T10:27:07.000Z</time>
      </trkpt>
      <trkpt lat="43.75877" lon="7.08669">
        <ele>790.40002441406</ele>
        <time>2011-12-17T10:27:15.000Z</time>
      </trkpt>
      <trkpt lat="43.7589" lon="7.08679">
        <ele>790.20001220703</ele>
        <time>2011-12-17T10:27:22.000Z</time>
      </trkpt>
      <trkpt lat="43.75904" lon="7.0868">
        <ele>790.79998779297</ele>
        <time>2011-12-17T10:27:28.000Z</time>
      </trkpt>
      <trkpt lat="43.75918" lon="7.08667">
        <ele>792.79998779297</ele>
        <time>2011-12-17T10:27:35.000Z</time>
      </trkpt>
      <trkpt lat="43.75935" lon="7.08646">
        <ele>793.59997558594</ele>
        <time>2011-12-17T10:27:44.000Z</time>
      </trkpt>
      <trkpt lat="43.75952" lon="7.08627">
        <ele>794.20001220703</ele>
        <time>2011-12-17T10:27:53.000Z</time>
      </trkpt>
      <trkpt lat="43.7597" lon="7.08604">
        <ele>794.79998779297</ele>
        <time>2011-12-17T10:28:03.000Z</time>
      </trkpt>
      <trkpt lat="43.75982" lon="7.0858">
        <ele>796.20001220703</ele>
        <time>2011-12-17T10:28:12.000Z</time>
      </trkpt>
      <trkpt lat="43.75991" lon="7.08558">
        <ele>799.20001220703</ele>
        <time>2011-12-17T10:28:21.000Z</time>
      </trkpt>
      <trkpt lat="43.76002" lon="7.08536">
        <ele>802.59997558594</ele>
        <time>2011-12-17T10:28:31.000Z</time>
      </trkpt>
      <trkpt lat="43.76014" lon="7.08519">
        <ele>805</ele>
        <time>2011-12-17T10:28:40.000Z</time>
      </trkpt>
      <trkpt lat="43.76027" lon="7.08501">
        <ele>807.20001220703</ele>
        <time>2011-12-17T10:28:50.000Z</time>
      </trkpt>
      <trkpt lat="43.76037" lon="7.08486">
        <ele>808.79998779297</ele>
        <time>2011-12-17T10:28:59.000Z</time>
      </trkpt>
      <trkpt lat="43.76048" lon="7.08463">
        <ele>811.59997558594</ele>
        <time>2011-12-17T10:29:09.000Z</time>
      </trkpt>
      <trkpt lat="43.76052" lon="7.08436">
        <ele>815.20001220703</ele>
        <time>2011-12-17T10:29:19.000Z</time>
      </trkpt>
      <trkpt lat="43.76059" lon="7.0841">
        <ele>818.40002441406</ele>
        <time>2011-12-17T10:29:28.000Z</time>
      </trkpt>
      <trkpt lat="43.76072" lon="7.08396">
        <ele>819.59997558594</ele>
        <time>2011-12-17T10:29:36.000Z</time>
      </trkpt>
      <trkpt lat="43.76085" lon="7.08398">
        <ele>818.40002441406</ele>
        <time>2011-12-17T10:29:42.000Z</time>
      </trkpt>
      <trkpt lat="43.76096" lon="7.0841">
        <ele>818.20001220703</ele>
        <time>2011-12-17T10:29:49.000Z</time>
      </trkpt>
      <trkpt lat="43.76107" lon="7.08426">
        <ele>817.59997558594</ele>
        <time>2011-12-17T10:29:57.000Z</time>
      </trkpt>
      <trkpt lat="43.76119" lon="7.08447">
        <ele>816.79998779297</ele>
        <time>2011-12-17T10:30:07.000Z</time>
      </trkpt>
      <trkpt lat="43.76131" lon="7.08466">
        <ele>816.20001220703</ele>
        <time>2011-12-17T10:30:16.000Z</time>
      </trkpt>
      <trkpt lat="43.76146" lon="7.08486">
        <ele>816.40002441406</ele>
        <time>2011-12-17T10:30:26.000Z</time>
      </trkpt>
      <trkpt lat="43.76164" lon="7.08499">
        <ele>817.59997558594</ele>
        <time>2011-12-17T10:30:36.000Z</time>
      </trkpt>
      <trkpt lat="43.76175" lon="7.08506">
        <ele>818.59997558594</ele>
        <time>2011-12-17T10:30:42.000Z</time>
      </trkpt>
      <trkpt lat="43.76195" lon="7.08519">
        <ele>820.40002441406</ele>
        <time>2011-12-17T10:30:53.000Z</time>
      </trkpt>
      <trkpt lat="43.7621" lon="7.08526">
        <ele>821.79998779297</ele>
        <time>2011-12-17T10:31:01.000Z</time>
      </trkpt>
      <trkpt lat="43.76227" lon="7.08534">
        <ele>823.59997558594</ele>
        <time>2011-12-17T10:31:10.000Z</time>
      </trkpt>
      <trkpt lat="43.76242" lon="7.08542">
        <ele>825</ele>
        <time>2011-12-17T10:31:18.000Z</time>
      </trkpt>
      <trkpt lat="43.7626" lon="7.0855">
        <ele>826</ele>
        <time>2011-12-17T10:31:28.000Z</time>
      </trkpt>
      <trkpt lat="43.76276" lon="7.08545">
        <ele>827.40002441406</ele>
        <time>2011-12-17T10:31:37.000Z</time>
      </trkpt>
      <trkpt lat="43.76292" lon="7.08539">
        <ele>828.79998779297</ele>
        <time>2011-12-17T10:31:45.000Z</time>
      </trkpt>
      <trkpt lat="43.76311" lon="7.08533">
        <ele>830.40002441406</ele>
        <time>2011-12-17T10:31:55.000Z</time>
      </trkpt>
      <trkpt lat="43.76329" lon="7.08523">
        <ele>832.59997558594</ele>
        <time>2011-12-17T10:32:04.000Z</time>
      </trkpt>
      <trkpt lat="43.76335" lon="7.0851">
        <ele>834</ele>
        <time>2011-12-17T10:32:10.000Z</time>
      </trkpt>
      <trkpt lat="43.76332" lon="7.08499">
        <ele>835</ele>
        <time>2011-12-17T10:32:15.000Z</time>
      </trkpt>
      <trkpt lat="43.76322" lon="7.08489">
        <ele>835.79998779297</ele>
        <time>2011-12-17T10:32:21.000Z</time>
      </trkpt>
      <trkpt lat="43.76304" lon="7.08473">
        <ele>836.79998779297</ele>
        <time>2011-12-17T10:32:30.000Z</time>
      </trkpt>
      <trkpt lat="43.76296" lon="7.08463">
        <ele>837.79998779297</ele>
        <time>2011-12-17T10:32:34.000Z</time>
      </trkpt>
      <trkpt lat="43.76287" lon="7.08458">
        <ele>838</ele>
        <time>2011-12-17T10:32:39.000Z</time>
      </trkpt>
      <trkpt lat="43.76274" lon="7.08445">
        <ele>839</ele>
        <time>2011-12-17T10:32:47.000Z</time>
      </trkpt>
      <trkpt lat="43.76258" lon="7.08431">
        <ele>840.20001220703</ele>
        <time>2011-12-17T10:32:56.000Z</time>
      </trkpt>
      <trkpt lat="43.76241" lon="7.08416">
        <ele>840.79998779297</ele>
        <time>2011-12-17T10:33:04.000Z</time>
      </trkpt>
      <trkpt lat="43.76226" lon="7.08405">
        <ele>840.20001220703</ele>
        <time>2011-12-17T10:33:12.000Z</time>
      </trkpt>
      <trkpt lat="43.76213" lon="7.08391">
        <ele>840.79998779297</ele>
        <time>2011-12-17T10:33:20.000Z</time>
      </trkpt>
      <trkpt lat="43.76204" lon="7.08377">
        <ele>841.79998779297</ele>
        <time>2011-12-17T10:33:27.000Z</time>
      </trkpt>
      <trkpt lat="43.76198" lon="7.08365">
        <ele>843.20001220703</ele>
        <time>2011-12-17T10:33:33.000Z</time>
      </trkpt>
      <trkpt lat="43.7619" lon="7.08344">
        <ele>846</ele>
        <time>2011-12-17T10:33:43.000Z</time>
      </trkpt>
      <trkpt lat="43.76184" lon="7.08325">
        <ele>848.20001220703</ele>
        <time>2011-12-17T10:33:50.000Z</time>
      </trkpt>
      <trkpt lat="43.76176" lon="7.08306">
        <ele>850</ele>
        <time>2011-12-17T10:33:59.000Z</time>
      </trkpt>
      <trkpt lat="43.7617" lon="7.08289">
        <ele>852</ele>
        <time>2011-12-17T10:34:07.000Z</time>
      </trkpt>
      <trkpt lat="43.76163" lon="7.08271">
        <ele>853.79998779297</ele>
        <time>2011-12-17T10:34:15.000Z</time>
      </trkpt>
      <trkpt lat="43.76156" lon="7.08253">
        <ele>855.59997558594</ele>
        <time>2011-12-17T10:34:22.000Z</time>
      </trkpt>
      <trkpt lat="43.76151" lon="7.08247">
        <ele>856</ele>
        <time>2011-12-17T10:34:26.000Z</time>
      </trkpt>
      <trkpt lat="43.76142" lon="7.08232">
        <ele>857.79998779297</ele>
        <time>2011-12-17T10:34:34.000Z</time>
      </trkpt>
      <trkpt lat="43.76135" lon="7.08222">
        <ele>859</ele>
        <time>2011-12-17T10:34:40.000Z</time>
      </trkpt>
      <trkpt lat="43.76127" lon="7.08208">
        <ele>861</ele>
        <time>2011-12-17T10:34:48.000Z</time>
      </trkpt>
      <trkpt lat="43.76116" lon="7.08191">
        <ele>863</ele>
        <time>2011-12-17T10:34:57.000Z</time>
      </trkpt>
      <trkpt lat="43.76104" lon="7.08177">
        <ele>864.59997558594</ele>
        <time>2011-12-17T10:35:06.000Z</time>
      </trkpt>
      <trkpt lat="43.76093" lon="7.08163">
        <ele>866</ele>
        <time>2011-12-17T10:35:14.000Z</time>
      </trkpt>
      <trkpt lat="43.76082" lon="7.0815">
        <ele>867.20001220703</ele>
        <time>2011-12-17T10:35:23.000Z</time>
      </trkpt>
      <trkpt lat="43.76069" lon="7.08138">
        <ele>870</ele>
        <time>2011-12-17T10:35:32.000Z</time>
      </trkpt>
      <trkpt lat="43.76065" lon="7.08136">
        <ele>870.59997558594</ele>
        <time>2011-12-17T10:35:35.000Z</time>
      </trkpt>
      <trkpt lat="43.76058" lon="7.08136">
        <ele>870.79998779297</ele>
        <time>2011-12-17T10:35:39.000Z</time>
      </trkpt>
      <trkpt lat="43.76042" lon="7.08143">
        <ele>870.40002441406</ele>
        <time>2011-12-17T10:35:48.000Z</time>
      </trkpt>
      <trkpt lat="43.76025" lon="7.0816">
        <ele>868</ele>
        <time>2011-12-17T10:35:58.000Z</time>
      </trkpt>
      <trkpt lat="43.76011" lon="7.08171">
        <ele>866.79998779297</ele>
        <time>2011-12-17T10:36:07.000Z</time>
      </trkpt>
      <trkpt lat="43.75994" lon="7.08179">
        <ele>866.40002441406</ele>
        <time>2011-12-17T10:36:16.000Z</time>
      </trkpt>
      <trkpt lat="43.75974" lon="7.0819">
        <ele>866</ele>
        <time>2011-12-17T10:36:27.000Z</time>
      </trkpt>
      <trkpt lat="43.75959" lon="7.08195">
        <ele>866.40002441406</ele>
        <time>2011-12-17T10:36:35.000Z</time>
      </trkpt>
      <trkpt lat="43.7594" lon="7.08195">
        <ele>868</ele>
        <time>2011-12-17T10:36:45.000Z</time>
      </trkpt>
      <trkpt lat="43.75919" lon="7.08193">
        <ele>870.59997558594</ele>
        <time>2011-12-17T10:36:56.000Z</time>
      </trkpt>
      <trkpt lat="43.75903" lon="7.08188">
        <ele>871.59997558594</ele>
        <time>2011-12-17T10:37:04.000Z</time>
      </trkpt>
      <trkpt lat="43.75885" lon="7.08176">
        <ele>874</ele>
        <time>2011-12-17T10:37:15.000Z</time>
      </trkpt>
      <trkpt lat="43.75873" lon="7.08168">
        <ele>875.59997558594</ele>
        <time>2011-12-17T10:37:22.000Z</time>
      </trkpt>
      <trkpt lat="43.75859" lon="7.08159">
        <ele>877.59997558594</ele>
        <time>2011-12-17T10:37:31.000Z</time>
      </trkpt>
      <trkpt lat="43.75847" lon="7.0815">
        <ele>879.40002441406</ele>
        <time>2011-12-17T10:37:39.000Z</time>
      </trkpt>
      <trkpt lat="43.75833" lon="7.08138">
        <ele>881.79998779297</ele>
        <time>2011-12-17T10:37:48.000Z</time>
      </trkpt>
      <trkpt lat="43.75819" lon="7.08127">
        <ele>883</ele>
        <time>2011-12-17T10:37:57.000Z</time>
      </trkpt>
      <trkpt lat="43.75808" lon="7.08117">
        <ele>884.20001220703</ele>
        <time>2011-12-17T10:38:05.000Z</time>
      </trkpt>
      <trkpt lat="43.75792" lon="7.08104">
        <ele>885.59997558594</ele>
        <time>2011-12-17T10:38:15.000Z</time>
      </trkpt>
      <trkpt lat="43.75778" lon="7.08091">
        <ele>886.79998779297</ele>
        <time>2011-12-17T10:38:25.000Z</time>
      </trkpt>
      <trkpt lat="43.75766" lon="7.08081">
        <ele>887.79998779297</ele>
        <time>2011-12-17T10:38:33.000Z</time>
      </trkpt>
      <trkpt lat="43.75753" lon="7.08069">
        <ele>889</ele>
        <time>2011-12-17T10:38:43.000Z</time>
      </trkpt>
      <trkpt lat="43.75737" lon="7.08056">
        <ele>889.79998779297</ele>
        <time>2011-12-17T10:38:54.000Z</time>
      </trkpt>
      <trkpt lat="43.75722" lon="7.08044">
        <ele>890.20001220703</ele>
        <time>2011-12-17T10:39:04.000Z</time>
      </trkpt>
      <trkpt lat="43.75707" lon="7.08031">
        <ele>890.59997558594</ele>
        <time>2011-12-17T10:39:14.000Z</time>
      </trkpt>
      <trkpt lat="43.75694" lon="7.08016">
        <ele>891.40002441406</ele>
        <time>2011-12-17T10:39:24.000Z</time>
      </trkpt>
      <trkpt lat="43.75686" lon="7.07996">
        <ele>893.20001220703</ele>
        <time>2011-12-17T10:39:33.000Z</time>
      </trkpt>
      <trkpt lat="43.75683" lon="7.07977">
        <ele>894.59997558594</ele>
        <time>2011-12-17T10:39:42.000Z</time>
      </trkpt>
      <trkpt lat="43.75682" lon="7.07962">
        <ele>895.79998779297</ele>
        <time>2011-12-17T10:39:49.000Z</time>
      </trkpt>
      <trkpt lat="43.7568" lon="7.07945">
        <ele>897.20001220703</ele>
        <time>2011-12-17T10:39:57.000Z</time>
      </trkpt>
      <trkpt lat="43.75679" lon="7.07927">
        <ele>898.59997558594</ele>
        <time>2011-12-17T10:40:05.000Z</time>
      </trkpt>
      <trkpt lat="43.75677" lon="7.07913">
        <ele>899.40002441406</ele>
        <time>2011-12-17T10:40:11.000Z</time>
      </trkpt>
      <trkpt lat="43.75676" lon="7.07895">
        <ele>899.79998779297</ele>
        <time>2011-12-17T10:40:19.000Z</time>
      </trkpt>
      <trkpt lat="43.75674" lon="7.07878">
        <ele>900.40002441406</ele>
        <time>2011-12-17T10:40:27.000Z</time>
      </trkpt>
      <trkpt lat="43.75672" lon="7.07856">
        <ele>901</ele>
        <time>2011-12-17T10:40:37.000Z</time>
      </trkpt>
      <trkpt lat="43.75671" lon="7.07839">
        <ele>901.59997558594</ele>
        <time>2011-12-17T10:40:45.000Z</time>
      </trkpt>
      <trkpt lat="43.75671" lon="7.07817">
        <ele>902.59997558594</ele>
        <time>2011-12-17T10:40:55.000Z</time>
      </trkpt>
      <trkpt lat="43.75671" lon="7.07796">
        <ele>903.79998779297</ele>
        <time>2011-12-17T10:41:03.000Z</time>
      </trkpt>
      <trkpt lat="43.75671" lon="7.07792">
        <ele>903.79998779297</ele>
        <time>2011-12-17T10:41:05.000Z</time>
      </trkpt>
      <trkpt lat="43.7567" lon="7.07782">
        <ele>904.20001220703</ele>
        <time>2011-12-17T10:41:10.000Z</time>
      </trkpt>
      <trkpt lat="43.75672" lon="7.07765">
        <ele>905.59997558594</ele>
        <time>2011-12-17T10:41:18.000Z</time>
      </trkpt>
      <trkpt lat="43.75675" lon="7.07746">
        <ele>907</ele>
        <time>2011-12-17T10:41:26.000Z</time>
      </trkpt>
      <trkpt lat="43.7568" lon="7.07722">
        <ele>908.20001220703</ele>
        <time>2011-12-17T10:41:36.000Z</time>
      </trkpt>
      <trkpt lat="43.75682" lon="7.07716">
        <ele>908.59997558594</ele>
        <time>2011-12-17T10:41:39.000Z</time>
      </trkpt>
      <trkpt lat="43.75686" lon="7.07705">
        <ele>909.59997558594</ele>
        <time>2011-12-17T10:41:45.000Z</time>
      </trkpt>
      <trkpt lat="43.75688" lon="7.07697">
        <ele>910.20001220703</ele>
        <time>2011-12-17T10:41:49.000Z</time>
      </trkpt>
      <trkpt lat="43.75693" lon="7.07682">
        <ele>911.40002441406</ele>
        <time>2011-12-17T10:41:57.000Z</time>
      </trkpt>
      <trkpt lat="43.75698" lon="7.07669">
        <ele>913</ele>
        <time>2011-12-17T10:42:04.000Z</time>
      </trkpt>
      <trkpt lat="43.75704" lon="7.07651">
        <ele>914.40002441406</ele>
        <time>2011-12-17T10:42:11.000Z</time>
      </trkpt>
      <trkpt lat="43.7571" lon="7.07634">
        <ele>915.79998779297</ele>
        <time>2011-12-17T10:42:19.000Z</time>
      </trkpt>
      <trkpt lat="43.75715" lon="7.0762">
        <ele>917</ele>
        <time>2011-12-17T10:42:26.000Z</time>
      </trkpt>
      <trkpt lat="43.75717" lon="7.07607">
        <ele>917.59997558594</ele>
        <time>2011-12-17T10:42:32.000Z</time>
      </trkpt>
      <trkpt lat="43.7572" lon="7.07584">
        <ele>918.40002441406</ele>
        <time>2011-12-17T10:42:41.000Z</time>
      </trkpt>
      <trkpt lat="43.7572" lon="7.07562">
        <ele>919.40002441406</ele>
        <time>2011-12-17T10:42:50.000Z</time>
      </trkpt>
      <trkpt lat="43.75722" lon="7.07547">
        <ele>920.59997558594</ele>
        <time>2011-12-17T10:42:56.000Z</time>
      </trkpt>
      <trkpt lat="43.75723" lon="7.07526">
        <ele>921.79998779297</ele>
        <time>2011-12-17T10:43:04.000Z</time>
      </trkpt>
      <trkpt lat="43.75719" lon="7.07509">
        <ele>921.40002441406</ele>
        <time>2011-12-17T10:43:11.000Z</time>
      </trkpt>
      <trkpt lat="43.75716" lon="7.07487">
        <ele>921.79998779297</ele>
        <time>2011-12-17T10:43:20.000Z</time>
      </trkpt>
      <trkpt lat="43.75715" lon="7.07466">
        <ele>923</ele>
        <time>2011-12-17T10:43:28.000Z</time>
      </trkpt>
      <trkpt lat="43.75721" lon="7.07456">
        <ele>925.20001220703</ele>
        <time>2011-12-17T10:43:33.000Z</time>
      </trkpt>
      <trkpt lat="43.75732" lon="7.07457">
        <ele>927.79998779297</ele>
        <time>2011-12-17T10:43:39.000Z</time>
      </trkpt>
      <trkpt lat="43.75743" lon="7.07473">
        <ele>929.79998779297</ele>
        <time>2011-12-17T10:43:48.000Z</time>
      </trkpt>
      <trkpt lat="43.75752" lon="7.07497">
        <ele>930.59997558594</ele>
        <time>2011-12-17T10:43:58.000Z</time>
      </trkpt>
      <trkpt lat="43.75759" lon="7.07524">
        <ele>931</ele>
        <time>2011-12-17T10:44:09.000Z</time>
      </trkpt>
      <trkpt lat="43.75764" lon="7.07544">
        <ele>931</ele>
        <time>2011-12-17T10:44:18.000Z</time>
      </trkpt>
      <trkpt lat="43.75767" lon="7.07566">
        <ele>930.59997558594</ele>
        <time>2011-12-17T10:44:27.000Z</time>
      </trkpt>
      <trkpt lat="43.75772" lon="7.07589">
        <ele>930.79998779297</ele>
        <time>2011-12-17T10:44:37.000Z</time>
      </trkpt>
      <trkpt lat="43.75776" lon="7.07608">
        <ele>931.40002441406</ele>
        <time>2011-12-17T10:44:45.000Z</time>
      </trkpt>
      <trkpt lat="43.75781" lon="7.0763">
        <ele>932.20001220703</ele>
        <time>2011-12-17T10:44:54.000Z</time>
      </trkpt>
      <trkpt lat="43.75784" lon="7.07649">
        <ele>932.79998779297</ele>
        <time>2011-12-17T10:45:02.000Z</time>
      </trkpt>
      <trkpt lat="43.75789" lon="7.07661">
        <ele>933.40002441406</ele>
        <time>2011-12-17T10:45:08.000Z</time>
      </trkpt>
      <trkpt lat="43.75799" lon="7.07678">
        <ele>934.79998779297</ele>
        <time>2011-12-17T10:45:18.000Z</time>
      </trkpt>
      <trkpt lat="43.75808" lon="7.07687">
        <ele>936.20001220703</ele>
        <time>2011-12-17T10:45:25.000Z</time>
      </trkpt>
      <trkpt lat="43.75821" lon="7.07695">
        <ele>938.20001220703</ele>
        <time>2011-12-17T10:45:34.000Z</time>
      </trkpt>
      <trkpt lat="43.75835" lon="7.077">
        <ele>940.20001220703</ele>
        <time>2011-12-17T10:45:43.000Z</time>
      </trkpt>
      <trkpt lat="43.75849" lon="7.07702">
        <ele>941</ele>
        <time>2011-12-17T10:45:52.000Z</time>
      </trkpt>
      <trkpt lat="43.75863" lon="7.07703">
        <ele>941.79998779297</ele>
        <time>2011-12-17T10:45:59.000Z</time>
      </trkpt>
      <trkpt lat="43.75873" lon="7.07699">
        <ele>942.79998779297</ele>
        <time>2011-12-17T10:46:06.000Z</time>
      </trkpt>
      <trkpt lat="43.75883" lon="7.07692">
        <ele>943.79998779297</ele>
        <time>2011-12-17T10:46:13.000Z</time>
      </trkpt>
      <trkpt lat="43.75893" lon="7.0768">
        <ele>945.40002441406</ele>
        <time>2011-12-17T10:46:21.000Z</time>
      </trkpt>
      <trkpt lat="43.75905" lon="7.07662">
        <ele>947.40002441406</ele>
        <time>2011-12-17T10:46:31.000Z</time>
      </trkpt>
      <trkpt lat="43.75919" lon="7.0764">
        <ele>949.59997558594</ele>
        <time>2011-12-17T10:46:42.000Z</time>
      </trkpt>
      <trkpt lat="43.7593" lon="7.07623">
        <ele>950.79998779297</ele>
        <time>2011-12-17T10:46:51.000Z</time>
      </trkpt>
      <trkpt lat="43.75942" lon="7.07607">
        <ele>952.20001220703</ele>
        <time>2011-12-17T10:47:00.000Z</time>
      </trkpt>
      <trkpt lat="43.75953" lon="7.07589">
        <ele>953.40002441406</ele>
        <time>2011-12-17T10:47:09.000Z</time>
      </trkpt>
      <trkpt lat="43.75963" lon="7.07577">
        <ele>954.79998779297</ele>
        <time>2011-12-17T10:47:16.000Z</time>
      </trkpt>
      <trkpt lat="43.75977" lon="7.07565">
        <ele>956.40002441406</ele>
        <time>2011-12-17T10:47:25.000Z</time>
      </trkpt>
      <trkpt lat="43.75989" lon="7.0756">
        <ele>957.20001220703</ele>
        <time>2011-12-17T10:47:32.000Z</time>
      </trkpt>
      <trkpt lat="43.76006" lon="7.07555">
        <ele>958.40002441406</ele>
        <time>2011-12-17T10:47:41.000Z</time>
      </trkpt>
      <trkpt lat="43.7602" lon="7.07549">
        <ele>959.59997558594</ele>
        <time>2011-12-17T10:47:51.000Z</time>
      </trkpt>
      <trkpt lat="43.76034" lon="7.07542">
        <ele>960.79998779297</ele>
        <time>2011-12-17T10:48:01.000Z</time>
      </trkpt>
      <trkpt lat="43.76051" lon="7.0753">
        <ele>962.20001220703</ele>
        <time>2011-12-17T10:48:12.000Z</time>
      </trkpt>
      <trkpt lat="43.76062" lon="7.07523">
        <ele>963</ele>
        <time>2011-12-17T10:48:20.000Z</time>
      </trkpt>
      <trkpt lat="43.7608" lon="7.07508">
        <ele>963.79998779297</ele>
        <time>2011-12-17T10:48:31.000Z</time>
      </trkpt>
      <trkpt lat="43.76099" lon="7.07494">
        <ele>964.20001220703</ele>
        <time>2011-12-17T10:48:41.000Z</time>
      </trkpt>
      <trkpt lat="43.76111" lon="7.07491">
        <ele>964.20001220703</ele>
        <time>2011-12-17T10:48:48.000Z</time>
      </trkpt>
      <trkpt lat="43.76112" lon="7.07493">
        <ele>964.20001220703</ele>
        <time>2011-12-17T10:48:52.000Z</time>
      </trkpt>
      <trkpt lat="43.76112" lon="7.075">
        <ele>964.40002441406</ele>
        <time>2011-12-17T10:48:59.000Z</time>
      </trkpt>
      <trkpt lat="43.7611" lon="7.07503">
        <ele>964.20001220703</ele>
        <time>2011-12-17T10:49:06.000Z</time>
      </trkpt>
      <trkpt lat="43.7611" lon="7.07504">
        <ele>964.20001220703</ele>
        <time>2011-12-17T10:49:11.000Z</time>
      </trkpt>
      <trkpt lat="43.76109" lon="7.07506">
        <ele>964.20001220703</ele>
        <time>2011-12-17T10:49:18.000Z</time>
      </trkpt>
      <trkpt lat="43.76108" lon="7.07506">
        <ele>964.20001220703</ele>
        <time>2011-12-17T10:49:24.000Z</time>
      </trkpt>
      <trkpt lat="43.76109" lon="7.07506">
        <ele>964.20001220703</ele>
        <time>2011-12-17T10:49:40.000Z</time>
      </trkpt>
      <trkpt lat="43.7611" lon="7.07509">
        <ele>964.20001220703</ele>
        <time>2011-12-17T10:50:07.000Z</time>
      </trkpt>
      <trkpt lat="43.7611" lon="7.07503">
        <ele>964.20001220703</ele>
        <time>2011-12-17T10:50:21.000Z</time>
      </trkpt>
      <trkpt lat="43.76109" lon="7.07501">
        <ele>964.20001220703</ele>
        <time>2011-12-17T10:50:32.000Z</time>
      </trkpt>
      <trkpt lat="43.7611" lon="7.07495">
        <ele>964.20001220703</ele>
        <time>2011-12-17T10:50:46.000Z</time>
      </trkpt>
      <trkpt lat="43.7611" lon="7.07493">
        <ele>964.20001220703</ele>
        <time>2011-12-17T10:51:02.000Z</time>
      </trkpt>
      <trkpt lat="43.76113" lon="7.07497">
        <ele>964.40002441406</ele>
        <time>2011-12-17T10:51:24.000Z</time>
      </trkpt>
      <trkpt lat="43.76116" lon="7.07499">
        <ele>964.40002441406</ele>
        <time>2011-12-17T10:51:37.000Z</time>
      </trkpt>
      <trkpt lat="43.76118" lon="7.07499">
        <ele>964.40002441406</ele>
        <time>2011-12-17T10:51:55.000Z</time>
      </trkpt>
      <trkpt lat="43.76117" lon="7.07499">
        <ele>964.40002441406</ele>
        <time>2011-12-17T10:52:14.000Z</time>
      </trkpt>
      <trkpt lat="43.76116" lon="7.07499">
        <ele>964.40002441406</ele>
        <time>2011-12-17T10:52:24.000Z</time>
      </trkpt>
      <trkpt lat="43.76117" lon="7.07501">
        <ele>964.40002441406</ele>
        <time>2011-12-17T10:52:47.000Z</time>
      </trkpt>
      <trkpt lat="43.76113" lon="7.07503">
        <ele>964.40002441406</ele>
        <time>2011-12-17T10:53:07.000Z</time>
      </trkpt>
      <trkpt lat="43.7611" lon="7.07506">
        <ele>964.20001220703</ele>
        <time>2011-12-17T10:54:30.000Z</time>
      </trkpt>
      <trkpt lat="43.7611" lon="7.07506">
        <ele>964.20001220703</ele>
        <time>2011-12-17T10:54:38.000Z</time>
      </trkpt>
      <trkpt lat="43.76109" lon="7.07507">
        <ele>964.20001220703</ele>
        <time>2011-12-17T10:54:50.000Z</time>
      </trkpt>
      <trkpt lat="43.76109" lon="7.07508">
        <ele>964.20001220703</ele>
        <time>2011-12-17T10:55:04.000Z</time>
      </trkpt>
      <trkpt lat="43.7611" lon="7.07507">
        <ele>964.20001220703</ele>
        <time>2011-12-17T10:55:12.000Z</time>
      </trkpt>
      <trkpt lat="43.76111" lon="7.07506">
        <ele>964.20001220703</ele>
        <time>2011-12-17T10:55:18.000Z</time>
      </trkpt>
      <trkpt lat="43.76112" lon="7.07504">
        <ele>964.20001220703</ele>
        <time>2011-12-17T10:55:23.000Z</time>
      </trkpt>
      <trkpt lat="43.76112" lon="7.07503">
        <ele>964.20001220703</ele>
        <time>2011-12-17T10:55:29.000Z</time>
      </trkpt>
      <trkpt lat="43.76111" lon="7.07502">
        <ele>964.40002441406</ele>
        <time>2011-12-17T10:55:35.000Z</time>
      </trkpt>
      <trkpt lat="43.76111" lon="7.07499">
        <ele>964.40002441406</ele>
        <time>2011-12-17T10:55:37.000Z</time>
      </trkpt>
      <trkpt lat="43.76113" lon="7.07484">
        <ele>964</ele>
        <time>2011-12-17T10:55:43.000Z</time>
      </trkpt>
      <trkpt lat="43.76115" lon="7.07482">
        <ele>964</ele>
        <time>2011-12-17T10:55:44.000Z</time>
      </trkpt>
      <trkpt lat="43.76128" lon="7.07463">
        <ele>963.79998779297</ele>
        <time>2011-12-17T10:55:53.000Z</time>
      </trkpt>
      <trkpt lat="43.76139" lon="7.07446">
        <ele>963.59997558594</ele>
        <time>2011-12-17T10:55:58.000Z</time>
      </trkpt>
      <trkpt lat="43.76162" lon="7.07407">
        <ele>962.40002441406</ele>
        <time>2011-12-17T10:56:07.000Z</time>
      </trkpt>
      <trkpt lat="43.76177" lon="7.07373">
        <ele>960.20001220703</ele>
        <time>2011-12-17T10:56:14.000Z</time>
      </trkpt>
      <trkpt lat="43.76194" lon="7.07328">
        <ele>957.79998779297</ele>
        <time>2011-12-17T10:56:21.000Z</time>
      </trkpt>
      <trkpt lat="43.76199" lon="7.07314">
        <ele>957.59997558594</ele>
        <time>2011-12-17T10:56:23.000Z</time>
      </trkpt>
      <trkpt lat="43.76211" lon="7.07293">
        <ele>957.20001220703</ele>
        <time>2011-12-17T10:56:27.000Z</time>
      </trkpt>
      <trkpt lat="43.76243" lon="7.07257">
        <ele>957</ele>
        <time>2011-12-17T10:56:36.000Z</time>
      </trkpt>
      <trkpt lat="43.76272" lon="7.07235">
        <ele>956.59997558594</ele>
        <time>2011-12-17T10:56:42.000Z</time>
      </trkpt>
      <trkpt lat="43.76281" lon="7.07224">
        <ele>956.20001220703</ele>
        <time>2011-12-17T10:56:44.000Z</time>
      </trkpt>
      <trkpt lat="43.76302" lon="7.07191">
        <ele>954.59997558594</ele>
        <time>2011-12-17T10:56:50.000Z</time>
      </trkpt>
      <trkpt lat="43.76317" lon="7.07178">
        <ele>953.79998779297</ele>
        <time>2011-12-17T10:56:54.000Z</time>
      </trkpt>
      <trkpt lat="43.7635" lon="7.0716">
        <ele>951.79998779297</ele>
        <time>2011-12-17T10:57:02.000Z</time>
      </trkpt>
      <trkpt lat="43.76382" lon="7.07145">
        <ele>949.20001220703</ele>
        <time>2011-12-17T10:57:08.000Z</time>
      </trkpt>
      <trkpt lat="43.76424" lon="7.07126">
        <ele>945.59997558594</ele>
        <time>2011-12-17T10:57:14.000Z</time>
      </trkpt>
      <trkpt lat="43.76487" lon="7.07092">
        <ele>942.59997558594</ele>
        <time>2011-12-17T10:57:23.000Z</time>
      </trkpt>
      <trkpt lat="43.76521" lon="7.07071">
        <ele>941.40002441406</ele>
        <time>2011-12-17T10:57:29.000Z</time>
      </trkpt>
      <trkpt lat="43.76553" lon="7.07058">
        <ele>940.40002441406</ele>
        <time>2011-12-17T10:57:35.000Z</time>
      </trkpt>
      <trkpt lat="43.76595" lon="7.07046">
        <ele>938.40002441406</ele>
        <time>2011-12-17T10:57:41.000Z</time>
      </trkpt>
      <trkpt lat="43.76666" lon="7.07026">
        <ele>933.59997558594</ele>
        <time>2011-12-17T10:57:50.000Z</time>
      </trkpt>
      <trkpt lat="43.76727" lon="7.07009">
        <ele>930.79998779297</ele>
        <time>2011-12-17T10:57:58.000Z</time>
      </trkpt>
      <trkpt lat="43.76774" lon="7.06996">
        <ele>929.20001220703</ele>
        <time>2011-12-17T10:58:06.000Z</time>
      </trkpt>
      <trkpt lat="43.76811" lon="7.06981">
        <ele>929</ele>
        <time>2011-12-17T10:58:13.000Z</time>
      </trkpt>
      <trkpt lat="43.76821" lon="7.06978">
        <ele>928.79998779297</ele>
        <time>2011-12-17T10:58:15.000Z</time>
      </trkpt>
      <trkpt lat="43.76836" lon="7.0697">
        <ele>928</ele>
        <time>2011-12-17T10:58:19.000Z</time>
      </trkpt>
      <trkpt lat="43.76849" lon="7.0697">
        <ele>927</ele>
        <time>2011-12-17T10:58:23.000Z</time>
      </trkpt>
      <trkpt lat="43.76858" lon="7.06976">
        <ele>926.59997558594</ele>
        <time>2011-12-17T10:58:25.000Z</time>
      </trkpt>
      <trkpt lat="43.76888" lon="7.06999">
        <ele>925.40002441406</ele>
        <time>2011-12-17T10:58:32.000Z</time>
      </trkpt>
      <trkpt lat="43.76908" lon="7.07012">
        <ele>925.79998779297</ele>
        <time>2011-12-17T10:58:37.000Z</time>
      </trkpt>
      <trkpt lat="43.76938" lon="7.07037">
        <ele>927.40002441406</ele>
        <time>2011-12-17T10:58:44.000Z</time>
      </trkpt>
      <trkpt lat="43.76953" lon="7.07049">
        <ele>927.40002441406</ele>
        <time>2011-12-17T10:58:47.000Z</time>
      </trkpt>
      <trkpt lat="43.76984" lon="7.0708">
        <ele>925.79998779297</ele>
        <time>2011-12-17T10:58:54.000Z</time>
      </trkpt>
      <trkpt lat="43.76999" lon="7.07105">
        <ele>926.40002441406</ele>
        <time>2011-12-17T10:58:58.000Z</time>
      </trkpt>
      <trkpt lat="43.77009" lon="7.07127">
        <ele>929</ele>
        <time>2011-12-17T10:59:01.000Z</time>
      </trkpt>
      <trkpt lat="43.77019" lon="7.07144">
        <ele>929.59997558594</ele>
        <time>2011-12-17T10:59:04.000Z</time>
      </trkpt>
      <trkpt lat="43.77044" lon="7.07167">
        <ele>925.59997558594</ele>
        <time>2011-12-17T10:59:09.000Z</time>
      </trkpt>
      <trkpt lat="43.7708" lon="7.07197">
        <ele>921</ele>
        <time>2011-12-17T10:59:15.000Z</time>
      </trkpt>
      <trkpt lat="43.7711" lon="7.07216">
        <ele>919.79998779297</ele>
        <time>2011-12-17T10:59:20.000Z</time>
      </trkpt>
      <trkpt lat="43.77129" lon="7.07236">
        <ele>917.79998779297</ele>
        <time>2011-12-17T10:59:24.000Z</time>
      </trkpt>
      <trkpt lat="43.77151" lon="7.0726">
        <ele>915.20001220703</ele>
        <time>2011-12-17T10:59:29.000Z</time>
      </trkpt>
      <trkpt lat="43.77161" lon="7.07274">
        <ele>915.40002441406</ele>
        <time>2011-12-17T10:59:32.000Z</time>
      </trkpt>
      <trkpt lat="43.77185" lon="7.07306">
        <ele>915.79998779297</ele>
        <time>2011-12-17T10:59:38.000Z</time>
      </trkpt>
      <trkpt lat="43.77207" lon="7.07326">
        <ele>912.20001220703</ele>
        <time>2011-12-17T10:59:42.000Z</time>
      </trkpt>
      <trkpt lat="43.77227" lon="7.07346">
        <ele>909.40002441406</ele>
        <time>2011-12-17T10:59:46.000Z</time>
      </trkpt>
      <trkpt lat="43.77237" lon="7.07355">
        <ele>908</ele>
        <time>2011-12-17T10:59:48.000Z</time>
      </trkpt>
      <trkpt lat="43.77253" lon="7.07363">
        <ele>904.79998779297</ele>
        <time>2011-12-17T10:59:50.000Z</time>
      </trkpt>
      <trkpt lat="43.77276" lon="7.07375">
        <ele>901.40002441406</ele>
        <time>2011-12-17T10:59:53.000Z</time>
      </trkpt>
      <trkpt lat="43.773" lon="7.07406">
        <ele>895.59997558594</ele>
        <time>2011-12-17T10:59:58.000Z</time>
      </trkpt>
      <trkpt lat="43.77325" lon="7.07438">
        <ele>893.20001220703</ele>
        <time>2011-12-17T11:00:03.000Z</time>
      </trkpt>
      <trkpt lat="43.77351" lon="7.07472">
        <ele>893.20001220703</ele>
        <time>2011-12-17T11:00:09.000Z</time>
      </trkpt>
      <trkpt lat="43.77377" lon="7.07493">
        <ele>886.20001220703</ele>
        <time>2011-12-17T11:00:15.000Z</time>
      </trkpt>
      <trkpt lat="43.77396" lon="7.0751">
        <ele>882</ele>
        <time>2011-12-17T11:00:20.000Z</time>
      </trkpt>
      <trkpt lat="43.77418" lon="7.07523">
        <ele>876.79998779297</ele>
        <time>2011-12-17T11:00:25.000Z</time>
      </trkpt>
      <trkpt lat="43.77429" lon="7.0753">
        <ele>875.20001220703</ele>
        <time>2011-12-17T11:00:28.000Z</time>
      </trkpt>
      <trkpt lat="43.77444" lon="7.07538">
        <ele>872</ele>
        <time>2011-12-17T11:00:32.000Z</time>
      </trkpt>
      <trkpt lat="43.77465" lon="7.07558">
        <ele>868.79998779297</ele>
        <time>2011-12-17T11:00:39.000Z</time>
      </trkpt>
      <trkpt lat="43.77467" lon="7.07564">
        <ele>869.40002441406</ele>
        <time>2011-12-17T11:00:41.000Z</time>
      </trkpt>
      <trkpt lat="43.77469" lon="7.07558">
        <ele>866</ele>
        <time>2011-12-17T11:00:46.000Z</time>
      </trkpt>
      <trkpt lat="43.77455" lon="7.07534">
        <ele>865.20001220703</ele>
        <time>2011-12-17T11:00:53.000Z</time>
      </trkpt>
      <trkpt lat="43.77442" lon="7.07519">
        <ele>865.20001220703</ele>
        <time>2011-12-17T11:00:58.000Z</time>
      </trkpt>
      <trkpt lat="43.77439" lon="7.07513">
        <ele>864.20001220703</ele>
        <time>2011-12-17T11:01:00.000Z</time>
      </trkpt>
      <trkpt lat="43.77444" lon="7.07512">
        <ele>861.40002441406</ele>
        <time>2011-12-17T11:01:04.000Z</time>
      </trkpt>
      <trkpt lat="43.77447" lon="7.07514">
        <ele>861.20001220703</ele>
        <time>2011-12-17T11:01:05.000Z</time>
      </trkpt>
      <trkpt lat="43.77469" lon="7.07534">
        <ele>858.79998779297</ele>
        <time>2011-12-17T11:01:12.000Z</time>
      </trkpt>
      <trkpt lat="43.77477" lon="7.07551">
        <ele>860.20001220703</ele>
        <time>2011-12-17T11:01:18.000Z</time>
      </trkpt>
      <trkpt lat="43.77481" lon="7.07562">
        <ele>861.20001220703</ele>
        <time>2011-12-17T11:01:22.000Z</time>
      </trkpt>
      <trkpt lat="43.77492" lon="7.07577">
        <ele>859.20001220703</ele>
        <time>2011-12-17T11:01:27.000Z</time>
      </trkpt>
      <trkpt lat="43.77507" lon="7.07597">
        <ele>856.40002441406</ele>
        <time>2011-12-17T11:01:32.000Z</time>
      </trkpt>
      <trkpt lat="43.77511" lon="7.07607">
        <ele>856.59997558594</ele>
        <time>2011-12-17T11:01:35.000Z</time>
      </trkpt>
      <trkpt lat="43.7752" lon="7.07594">
        <ele>848.79998779297</ele>
        <time>2011-12-17T11:01:39.000Z</time>
      </trkpt>
      <trkpt lat="43.77526" lon="7.07595">
        <ele>846</ele>
        <time>2011-12-17T11:01:42.000Z</time>
      </trkpt>
      <trkpt lat="43.77525" lon="7.076">
        <ele>847.79998779297</ele>
        <time>2011-12-17T11:01:47.000Z</time>
      </trkpt>
      <trkpt lat="43.77527" lon="7.07611">
        <ele>849</ele>
        <time>2011-12-17T11:01:52.000Z</time>
      </trkpt>
      <trkpt lat="43.7753" lon="7.07619">
        <ele>849.40002441406</ele>
        <time>2011-12-17T11:01:55.000Z</time>
      </trkpt>
      <trkpt lat="43.77531" lon="7.07629">
        <ele>850.79998779297</ele>
        <time>2011-12-17T11:02:02.000Z</time>
      </trkpt>
      <trkpt lat="43.77539" lon="7.07621">
        <ele>844.79998779297</ele>
        <time>2011-12-17T11:02:06.000Z</time>
      </trkpt>
      <trkpt lat="43.77542" lon="7.07626">
        <ele>844.20001220703</ele>
        <time>2011-12-17T11:02:10.000Z</time>
      </trkpt>
      <trkpt lat="43.77539" lon="7.07639">
        <ele>848.40002441406</ele>
        <time>2011-12-17T11:02:13.000Z</time>
      </trkpt>
      <trkpt lat="43.77539" lon="7.07651">
        <ele>851</ele>
        <time>2011-12-17T11:02:16.000Z</time>
      </trkpt>
      <trkpt lat="43.7754" lon="7.07652">
        <ele>850.79998779297</ele>
        <time>2011-12-17T11:02:21.000Z</time>
      </trkpt>
      <trkpt lat="43.77541" lon="7.07651">
        <ele>849.79998779297</ele>
        <time>2011-12-17T11:02:22.000Z</time>
      </trkpt>
      <trkpt lat="43.77557" lon="7.07644">
        <ele>839</ele>
        <time>2011-12-17T11:02:27.000Z</time>
      </trkpt>
      <trkpt lat="43.77564" lon="7.07651">
        <ele>835.59997558594</ele>
        <time>2011-12-17T11:02:31.000Z</time>
      </trkpt>
      <trkpt lat="43.77571" lon="7.07648">
        <ele>830.79998779297</ele>
        <time>2011-12-17T11:02:34.000Z</time>
      </trkpt>
      <trkpt lat="43.77575" lon="7.07649">
        <ele>828.79998779297</ele>
        <time>2011-12-17T11:02:36.000Z</time>
      </trkpt>
      <trkpt lat="43.77588" lon="7.07658">
        <ele>823.40002441406</ele>
        <time>2011-12-17T11:02:40.000Z</time>
      </trkpt>
      <trkpt lat="43.77598" lon="7.07665">
        <ele>820.79998779297</ele>
        <time>2011-12-17T11:02:43.000Z</time>
      </trkpt>
      <trkpt lat="43.77611" lon="7.07665">
        <ele>816.20001220703</ele>
        <time>2011-12-17T11:02:48.000Z</time>
      </trkpt>
      <trkpt lat="43.77615" lon="7.07662">
        <ele>814.20001220703</ele>
        <time>2011-12-17T11:02:50.000Z</time>
      </trkpt>
      <trkpt lat="43.77622" lon="7.07654">
        <ele>810.20001220703</ele>
        <time>2011-12-17T11:02:54.000Z</time>
      </trkpt>
      <trkpt lat="43.77631" lon="7.07654">
        <ele>807</ele>
        <time>2011-12-17T11:02:58.000Z</time>
      </trkpt>
      <trkpt lat="43.77635" lon="7.0767">
        <ele>808</ele>
        <time>2011-12-17T11:03:02.000Z</time>
      </trkpt>
      <trkpt lat="43.77632" lon="7.0768">
        <ele>808.79998779297</ele>
        <time>2011-12-17T11:03:05.000Z</time>
      </trkpt>
      <trkpt lat="43.77628" lon="7.07699">
        <ele>809.40002441406</ele>
        <time>2011-12-17T11:03:09.000Z</time>
      </trkpt>
      <trkpt lat="43.77638" lon="7.07711">
        <ele>805.40002441406</ele>
        <time>2011-12-17T11:03:14.000Z</time>
      </trkpt>
      <trkpt lat="43.7764" lon="7.07713">
        <ele>804.59997558594</ele>
        <time>2011-12-17T11:03:15.000Z</time>
      </trkpt>
      <trkpt lat="43.77638" lon="7.0773">
        <ele>804.40002441406</ele>
        <time>2011-12-17T11:03:20.000Z</time>
      </trkpt>
      <trkpt lat="43.77635" lon="7.07738">
        <ele>805.20001220703</ele>
        <time>2011-12-17T11:03:24.000Z</time>
      </trkpt>
      <trkpt lat="43.77641" lon="7.0774">
        <ele>802.79998779297</ele>
        <time>2011-12-17T11:03:27.000Z</time>
      </trkpt>
      <trkpt lat="43.77643" lon="7.07741">
        <ele>802.20001220703</ele>
        <time>2011-12-17T11:03:28.000Z</time>
      </trkpt>
      <trkpt lat="43.77653" lon="7.07741">
        <ele>798</ele>
        <time>2011-12-17T11:03:33.000Z</time>
      </trkpt>
      <trkpt lat="43.77666" lon="7.07732">
        <ele>793.59997558594</ele>
        <time>2011-12-17T11:03:39.000Z</time>
      </trkpt>
      <trkpt lat="43.77675" lon="7.07733">
        <ele>789.79998779297</ele>
        <time>2011-12-17T11:03:43.000Z</time>
      </trkpt>
      <trkpt lat="43.77688" lon="7.0773">
        <ele>785.40002441406</ele>
        <time>2011-12-17T11:03:48.000Z</time>
      </trkpt>
      <trkpt lat="43.77692" lon="7.0772">
        <ele>784.20001220703</ele>
        <time>2011-12-17T11:03:51.000Z</time>
      </trkpt>
      <trkpt lat="43.77698" lon="7.07707">
        <ele>782.59997558594</ele>
        <time>2011-12-17T11:03:55.000Z</time>
      </trkpt>
      <trkpt lat="43.77707" lon="7.07715">
        <ele>778.79998779297</ele>
        <time>2011-12-17T11:03:59.000Z</time>
      </trkpt>
      <trkpt lat="43.77712" lon="7.07719">
        <ele>776.59997558594</ele>
        <time>2011-12-17T11:04:01.000Z</time>
      </trkpt>
      <trkpt lat="43.77721" lon="7.07721">
        <ele>773.20001220703</ele>
        <time>2011-12-17T11:04:04.000Z</time>
      </trkpt>
      <trkpt lat="43.77727" lon="7.07728">
        <ele>771</ele>
        <time>2011-12-17T11:04:09.000Z</time>
      </trkpt>
      <trkpt lat="43.77731" lon="7.07734">
        <ele>769</ele>
        <time>2011-12-17T11:04:14.000Z</time>
      </trkpt>
      <trkpt lat="43.77734" lon="7.07739">
        <ele>768.20001220703</ele>
        <time>2011-12-17T11:04:16.000Z</time>
      </trkpt>
      <trkpt lat="43.77739" lon="7.07736">
        <ele>766.20001220703</ele>
        <time>2011-12-17T11:04:20.000Z</time>
      </trkpt>
      <trkpt lat="43.77745" lon="7.0772">
        <ele>764.40002441406</ele>
        <time>2011-12-17T11:04:24.000Z</time>
      </trkpt>
      <trkpt lat="43.7775" lon="7.07722">
        <ele>762.20001220703</ele>
        <time>2011-12-17T11:04:27.000Z</time>
      </trkpt>
      <trkpt lat="43.77755" lon="7.07724">
        <ele>759.59997558594</ele>
        <time>2011-12-17T11:04:29.000Z</time>
      </trkpt>
      <trkpt lat="43.77767" lon="7.07738">
        <ele>753.40002441406</ele>
        <time>2011-12-17T11:04:34.000Z</time>
      </trkpt>
      <trkpt lat="43.77771" lon="7.0775">
        <ele>751</ele>
        <time>2011-12-17T11:04:38.000Z</time>
      </trkpt>
      <trkpt lat="43.77779" lon="7.07764">
        <ele>746</ele>
        <time>2011-12-17T11:04:42.000Z</time>
      </trkpt>
      <trkpt lat="43.7778" lon="7.07767">
        <ele>745.20001220703</ele>
        <time>2011-12-17T11:04:43.000Z</time>
      </trkpt>
      <trkpt lat="43.77779" lon="7.07775">
        <ele>744.59997558594</ele>
        <time>2011-12-17T11:04:47.000Z</time>
      </trkpt>
      <trkpt lat="43.77781" lon="7.07781">
        <ele>743.40002441406</ele>
        <time>2011-12-17T11:04:49.000Z</time>
      </trkpt>
      <trkpt lat="43.77784" lon="7.07799">
        <ele>740.59997558594</ele>
        <time>2011-12-17T11:04:54.000Z</time>
      </trkpt>
      <trkpt lat="43.77789" lon="7.0781">
        <ele>737.20001220703</ele>
        <time>2011-12-17T11:04:57.000Z</time>
      </trkpt>
      <trkpt lat="43.77792" lon="7.07823">
        <ele>734.40002441406</ele>
        <time>2011-12-17T11:05:00.000Z</time>
      </trkpt>
      <trkpt lat="43.77791" lon="7.07848">
        <ele>734.40002441406</ele>
        <time>2011-12-17T11:05:05.000Z</time>
      </trkpt>
      <trkpt lat="43.77791" lon="7.07864">
        <ele>734</ele>
        <time>2011-12-17T11:05:08.000Z</time>
      </trkpt>
      <trkpt lat="43.77793" lon="7.07881">
        <ele>733</ele>
        <time>2011-12-17T11:05:11.000Z</time>
      </trkpt>
      <trkpt lat="43.77799" lon="7.07896">
        <ele>730</ele>
        <time>2011-12-17T11:05:14.000Z</time>
      </trkpt>
      <trkpt lat="43.77809" lon="7.07914">
        <ele>724.79998779297</ele>
        <time>2011-12-17T11:05:18.000Z</time>
      </trkpt>
      <trkpt lat="43.77812" lon="7.07919">
        <ele>723.20001220703</ele>
        <time>2011-12-17T11:05:20.000Z</time>
      </trkpt>
      <trkpt lat="43.7782" lon="7.07938">
        <ele>720.20001220703</ele>
        <time>2011-12-17T11:05:25.000Z</time>
      </trkpt>
      <trkpt lat="43.77822" lon="7.07958">
        <ele>720.59997558594</ele>
        <time>2011-12-17T11:05:30.000Z</time>
      </trkpt>
      <trkpt lat="43.77822" lon="7.07962">
        <ele>720.79998779297</ele>
        <time>2011-12-17T11:05:31.000Z</time>
      </trkpt>
      <trkpt lat="43.7783" lon="7.07973">
        <ele>717.20001220703</ele>
        <time>2011-12-17T11:05:37.000Z</time>
      </trkpt>
      <trkpt lat="43.77837" lon="7.07974">
        <ele>713.79998779297</ele>
        <time>2011-12-17T11:05:41.000Z</time>
      </trkpt>
      <trkpt lat="43.77844" lon="7.07974">
        <ele>711.20001220703</ele>
        <time>2011-12-17T11:05:44.000Z</time>
      </trkpt>
      <trkpt lat="43.77846" lon="7.07977">
        <ele>710.79998779297</ele>
        <time>2011-12-17T11:05:45.000Z</time>
      </trkpt>
      <trkpt lat="43.7785" lon="7.07995">
        <ele>709.79998779297</ele>
        <time>2011-12-17T11:05:51.000Z</time>
      </trkpt>
      <trkpt lat="43.77853" lon="7.08015">
        <ele>708</ele>
        <time>2011-12-17T11:05:55.000Z</time>
      </trkpt>
      <trkpt lat="43.77856" lon="7.0803">
        <ele>706.20001220703</ele>
        <time>2011-12-17T11:06:00.000Z</time>
      </trkpt>
      <trkpt lat="43.77856" lon="7.08043">
        <ele>705.79998779297</ele>
        <time>2011-12-17T11:06:04.000Z</time>
      </trkpt>
      <trkpt lat="43.77856" lon="7.08051">
        <ele>705.59997558594</ele>
        <time>2011-12-17T11:06:07.000Z</time>
      </trkpt>
      <trkpt lat="43.77857" lon="7.08056">
        <ele>704.79998779297</ele>
        <time>2011-12-17T11:06:11.000Z</time>
      </trkpt>
      <trkpt lat="43.77863" lon="7.08056">
        <ele>702.59997558594</ele>
        <time>2011-12-17T11:06:15.000Z</time>
      </trkpt>
      <trkpt lat="43.77868" lon="7.08065">
        <ele>700.20001220703</ele>
        <time>2011-12-17T11:06:18.000Z</time>
      </trkpt>
      <trkpt lat="43.77872" lon="7.08074">
        <ele>698</ele>
        <time>2011-12-17T11:06:22.000Z</time>
      </trkpt>
      <trkpt lat="43.77876" lon="7.0808">
        <ele>696.20001220703</ele>
        <time>2011-12-17T11:06:25.000Z</time>
      </trkpt>
      <trkpt lat="43.77883" lon="7.08092">
        <ele>693.20001220703</ele>
        <time>2011-12-17T11:06:31.000Z</time>
      </trkpt>
      <trkpt lat="43.77884" lon="7.08105">
        <ele>692.40002441406</ele>
        <time>2011-12-17T11:06:35.000Z</time>
      </trkpt>
      <trkpt lat="43.77886" lon="7.08115">
        <ele>691.59997558594</ele>
        <time>2011-12-17T11:06:39.000Z</time>
      </trkpt>
      <trkpt lat="43.77887" lon="7.08128">
        <ele>691.40002441406</ele>
        <time>2011-12-17T11:06:44.000Z</time>
      </trkpt>
      <trkpt lat="43.7789" lon="7.08132">
        <ele>689.79998779297</ele>
        <time>2011-12-17T11:06:49.000Z</time>
      </trkpt>
      <trkpt lat="43.77893" lon="7.0813">
        <ele>688.40002441406</ele>
        <time>2011-12-17T11:06:56.000Z</time>
      </trkpt>
      <trkpt lat="43.779" lon="7.08134">
        <ele>684.79998779297</ele>
        <time>2011-12-17T11:07:01.000Z</time>
      </trkpt>
      <trkpt lat="43.77906" lon="7.08131">
        <ele>682.20001220703</ele>
        <time>2011-12-17T11:07:22.000Z</time>
      </trkpt>
      <trkpt lat="43.77909" lon="7.08136">
        <ele>680.59997558594</ele>
        <time>2011-12-17T11:07:27.000Z</time>
      </trkpt>
      <trkpt lat="43.77915" lon="7.08146">
        <ele>677.79998779297</ele>
        <time>2011-12-17T11:07:31.000Z</time>
      </trkpt>
      <trkpt lat="43.77918" lon="7.08165">
        <ele>676.40002441406</ele>
        <time>2011-12-17T11:07:36.000Z</time>
      </trkpt>
      <trkpt lat="43.77921" lon="7.08189">
        <ele>677.59997558594</ele>
        <time>2011-12-17T11:07:41.000Z</time>
      </trkpt>
      <trkpt lat="43.77923" lon="7.08203">
        <ele>678.20001220703</ele>
        <time>2011-12-17T11:07:45.000Z</time>
      </trkpt>
      <trkpt lat="43.77923" lon="7.08211">
        <ele>678.20001220703</ele>
        <time>2011-12-17T11:07:47.000Z</time>
      </trkpt>
      <trkpt lat="43.77923" lon="7.08216">
        <ele>678.40002441406</ele>
        <time>2011-12-17T11:07:52.000Z</time>
      </trkpt>
      <trkpt lat="43.77923" lon="7.08216">
        <ele>678.20001220703</ele>
        <time>2011-12-17T11:08:00.000Z</time>
      </trkpt>
      <trkpt lat="43.77923" lon="7.08213">
        <ele>678.20001220703</ele>
        <time>2011-12-17T11:08:05.000Z</time>
      </trkpt>
      <trkpt lat="43.77922" lon="7.0821">
        <ele>678</ele>
        <time>2011-12-17T11:08:09.000Z</time>
      </trkpt>
      <trkpt lat="43.77923" lon="7.08205">
        <ele>678.20001220703</ele>
        <time>2011-12-17T11:08:15.000Z</time>
      </trkpt>
      <trkpt lat="43.77924" lon="7.08203">
        <ele>678.20001220703</ele>
        <time>2011-12-17T11:08:23.000Z</time>
      </trkpt>
      <trkpt lat="43.77926" lon="7.08203">
        <ele>678.79998779297</ele>
        <time>2011-12-17T11:08:30.000Z</time>
      </trkpt>
      <trkpt lat="43.77927" lon="7.08207">
        <ele>679</ele>
        <time>2011-12-17T11:08:38.000Z</time>
      </trkpt>
      <trkpt lat="43.77928" lon="7.08207">
        <ele>679.20001220703</ele>
        <time>2011-12-17T11:08:46.000Z</time>
      </trkpt>
      <trkpt lat="43.7793" lon="7.08208">
        <ele>679.59997558594</ele>
        <time>2011-12-17T11:08:58.000Z</time>
      </trkpt>
      <trkpt lat="43.77931" lon="7.0821">
        <ele>679.79998779297</ele>
        <time>2011-12-17T11:09:04.000Z</time>
      </trkpt>
      <trkpt lat="43.77933" lon="7.0821">
        <ele>680</ele>
        <time>2011-12-17T11:09:09.000Z</time>
      </trkpt>
      <trkpt lat="43.77937" lon="7.08208">
        <ele>680.79998779297</ele>
        <time>2011-12-17T11:09:15.000Z</time>
      </trkpt>
      <trkpt lat="43.77937" lon="7.08209">
        <ele>680.79998779297</ele>
        <time>2011-12-17T11:09:20.000Z</time>
      </trkpt>
      <trkpt lat="43.7794" lon="7.08215">
        <ele>681.20001220703</ele>
        <time>2011-12-17T11:09:44.000Z</time>
      </trkpt>
      <trkpt lat="43.77939" lon="7.08219">
        <ele>681</ele>
        <time>2011-12-17T11:09:46.000Z</time>
      </trkpt>
      <trkpt lat="43.77935" lon="7.08228">
        <ele>680.20001220703</ele>
        <time>2011-12-17T11:09:51.000Z</time>
      </trkpt>
      <trkpt lat="43.77941" lon="7.08238">
        <ele>681</ele>
        <time>2011-12-17T11:09:55.000Z</time>
      </trkpt>
      <trkpt lat="43.77948" lon="7.08253">
        <ele>681.40002441406</ele>
        <time>2011-12-17T11:10:00.000Z</time>
      </trkpt>
      <trkpt lat="43.7796" lon="7.08262">
        <ele>682.40002441406</ele>
        <time>2011-12-17T11:10:05.000Z</time>
      </trkpt>
      <trkpt lat="43.77964" lon="7.08273">
        <ele>682.40002441406</ele>
        <time>2011-12-17T11:10:08.000Z</time>
      </trkpt>
      <trkpt lat="43.77965" lon="7.08287">
        <ele>682</ele>
        <time>2011-12-17T11:10:11.000Z</time>
      </trkpt>
      <trkpt lat="43.77971" lon="7.08303">
        <ele>681.20001220703</ele>
        <time>2011-12-17T11:10:17.000Z</time>
      </trkpt>
      <trkpt lat="43.77972" lon="7.08304">
        <ele>681.20001220703</ele>
        <time>2011-12-17T11:10:22.000Z</time>
      </trkpt>
      <trkpt lat="43.77971" lon="7.08308">
        <ele>681</ele>
        <time>2011-12-17T11:10:27.000Z</time>
      </trkpt>
      <trkpt lat="43.77971" lon="7.0831">
        <ele>681</ele>
        <time>2011-12-17T11:10:35.000Z</time>
      </trkpt>
      <trkpt lat="43.77972" lon="7.08311">
        <ele>680.79998779297</ele>
        <time>2011-12-17T11:10:44.000Z</time>
      </trkpt>
      <trkpt lat="43.77973" lon="7.08313">
        <ele>680.59997558594</ele>
        <time>2011-12-17T11:10:53.000Z</time>
      </trkpt>
      <trkpt lat="43.77974" lon="7.08319">
        <ele>680.20001220703</ele>
        <time>2011-12-17T11:11:01.000Z</time>
      </trkpt>
      <trkpt lat="43.77975" lon="7.08321">
        <ele>680.20001220703</ele>
        <time>2011-12-17T11:11:09.000Z</time>
      </trkpt>
      <trkpt lat="43.77974" lon="7.08321">
        <ele>680.20001220703</ele>
        <time>2011-12-17T11:11:23.000Z</time>
      </trkpt>
      <trkpt lat="43.77976" lon="7.08326">
        <ele>679.79998779297</ele>
        <time>2011-12-17T11:11:32.000Z</time>
      </trkpt>
      <trkpt lat="43.77977" lon="7.08327">
        <ele>679.59997558594</ele>
        <time>2011-12-17T11:11:41.000Z</time>
      </trkpt>
      <trkpt lat="43.77978" lon="7.08333">
        <ele>679.20001220703</ele>
        <time>2011-12-17T11:11:47.000Z</time>
      </trkpt>
      <trkpt lat="43.77978" lon="7.08336">
        <ele>679</ele>
        <time>2011-12-17T11:11:53.000Z</time>
      </trkpt>
      <trkpt lat="43.77979" lon="7.08345">
        <ele>678.59997558594</ele>
        <time>2011-12-17T11:11:59.000Z</time>
      </trkpt>
      <trkpt lat="43.77979" lon="7.08346">
        <ele>678.40002441406</ele>
        <time>2011-12-17T11:12:00.000Z</time>
      </trkpt>
      <trkpt lat="43.77979" lon="7.08354">
        <ele>678</ele>
        <time>2011-12-17T11:12:06.000Z</time>
      </trkpt>
      <trkpt lat="43.77981" lon="7.08358">
        <ele>677.59997558594</ele>
        <time>2011-12-17T11:12:09.000Z</time>
      </trkpt>
      <trkpt lat="43.77984" lon="7.08365">
        <ele>676.79998779297</ele>
        <time>2011-12-17T11:12:14.000Z</time>
      </trkpt>
      <trkpt lat="43.77988" lon="7.0837">
        <ele>676.20001220703</ele>
        <time>2011-12-17T11:12:18.000Z</time>
      </trkpt>
      <trkpt lat="43.77989" lon="7.08377">
        <ele>675.40002441406</ele>
        <time>2011-12-17T11:12:23.000Z</time>
      </trkpt>
      <trkpt lat="43.77989" lon="7.08388">
        <ele>674.79998779297</ele>
        <time>2011-12-17T11:12:27.000Z</time>
      </trkpt>
      <trkpt lat="43.78" lon="7.0841">
        <ele>671.59997558594</ele>
        <time>2011-12-17T11:12:33.000Z</time>
      </trkpt>
      <trkpt lat="43.78" lon="7.08426">
        <ele>670.20001220703</ele>
        <time>2011-12-17T11:12:37.000Z</time>
      </trkpt>
      <trkpt lat="43.77999" lon="7.08451">
        <ele>668.40002441406</ele>
        <time>2011-12-17T11:12:43.000Z</time>
      </trkpt>
      <trkpt lat="43.77997" lon="7.08458">
        <ele>668.40002441406</ele>
        <time>2011-12-17T11:12:45.000Z</time>
      </trkpt>
      <trkpt lat="43.77999" lon="7.08475">
        <ele>666.40002441406</ele>
        <time>2011-12-17T11:12:51.000Z</time>
      </trkpt>
      <trkpt lat="43.77998" lon="7.08482">
        <ele>666</ele>
        <time>2011-12-17T11:12:53.000Z</time>
      </trkpt>
      <trkpt lat="43.77997" lon="7.08492">
        <ele>665.79998779297</ele>
        <time>2011-12-17T11:12:58.000Z</time>
      </trkpt>
      <trkpt lat="43.77996" lon="7.08495">
        <ele>665.79998779297</ele>
        <time>2011-12-17T11:13:04.000Z</time>
      </trkpt>
      <trkpt lat="43.77991" lon="7.08505">
        <ele>666.79998779297</ele>
        <time>2011-12-17T11:13:09.000Z</time>
      </trkpt>
      <trkpt lat="43.77984" lon="7.08519">
        <ele>669</ele>
        <time>2011-12-17T11:13:16.000Z</time>
      </trkpt>
      <trkpt lat="43.77979" lon="7.0854">
        <ele>670.59997558594</ele>
        <time>2011-12-17T11:13:22.000Z</time>
      </trkpt>
      <trkpt lat="43.77981" lon="7.08557">
        <ele>670</ele>
        <time>2011-12-17T11:13:27.000Z</time>
      </trkpt>
      <trkpt lat="43.77991" lon="7.0858">
        <ele>664.59997558594</ele>
        <time>2011-12-17T11:13:33.000Z</time>
      </trkpt>
      <trkpt lat="43.78" lon="7.08597">
        <ele>660.40002441406</ele>
        <time>2011-12-17T11:13:36.000Z</time>
      </trkpt>
      <trkpt lat="43.78006" lon="7.08608">
        <ele>661.20001220703</ele>
        <time>2011-12-17T11:13:38.000Z</time>
      </trkpt>
      <trkpt lat="43.78024" lon="7.08615">
        <ele>662.20001220703</ele>
        <time>2011-12-17T11:13:42.000Z</time>
      </trkpt>
      <trkpt lat="43.78039" lon="7.08616">
        <ele>662.79998779297</ele>
        <time>2011-12-17T11:13:45.000Z</time>
      </trkpt>
      <trkpt lat="43.7806" lon="7.08628">
        <ele>661.79998779297</ele>
        <time>2011-12-17T11:13:50.000Z</time>
      </trkpt>
      <trkpt lat="43.78064" lon="7.08638">
        <ele>660.20001220703</ele>
        <time>2011-12-17T11:13:52.000Z</time>
      </trkpt>
      <trkpt lat="43.78071" lon="7.08659">
        <ele>656</ele>
        <time>2011-12-17T11:13:56.000Z</time>
      </trkpt>
      <trkpt lat="43.78076" lon="7.08676">
        <ele>653.40002441406</ele>
        <time>2011-12-17T11:13:59.000Z</time>
      </trkpt>
      <trkpt lat="43.78079" lon="7.08701">
        <ele>651.40002441406</ele>
        <time>2011-12-17T11:14:04.000Z</time>
      </trkpt>
      <trkpt lat="43.78085" lon="7.08715">
        <ele>649.59997558594</ele>
        <time>2011-12-17T11:14:07.000Z</time>
      </trkpt>
      <trkpt lat="43.78082" lon="7.08728">
        <ele>648.79998779297</ele>
        <time>2011-12-17T11:14:10.000Z</time>
      </trkpt>
      <trkpt lat="43.78084" lon="7.0875">
        <ele>647</ele>
        <time>2011-12-17T11:14:16.000Z</time>
      </trkpt>
      <trkpt lat="43.78085" lon="7.08756">
        <ele>647</ele>
        <time>2011-12-17T11:14:18.000Z</time>
      </trkpt>
      <trkpt lat="43.78093" lon="7.08777">
        <ele>647.40002441406</ele>
        <time>2011-12-17T11:14:24.000Z</time>
      </trkpt>
      <trkpt lat="43.78103" lon="7.08785">
        <ele>648</ele>
        <time>2011-12-17T11:14:27.000Z</time>
      </trkpt>
      <trkpt lat="43.78117" lon="7.08807">
        <ele>648.79998779297</ele>
        <time>2011-12-17T11:14:32.000Z</time>
      </trkpt>
      <trkpt lat="43.78125" lon="7.08807">
        <ele>649.20001220703</ele>
        <time>2011-12-17T11:14:35.000Z</time>
      </trkpt>
      <trkpt lat="43.78132" lon="7.08805">
        <ele>649.59997558594</ele>
        <time>2011-12-17T11:14:39.000Z</time>
      </trkpt>
      <trkpt lat="43.78135" lon="7.08805">
        <ele>649.59997558594</ele>
        <time>2011-12-17T11:14:41.000Z</time>
      </trkpt>
      <trkpt lat="43.7814" lon="7.0881">
        <ele>650</ele>
        <time>2011-12-17T11:14:44.000Z</time>
      </trkpt>
      <trkpt lat="43.7814" lon="7.08827">
        <ele>650.40002441406</ele>
        <time>2011-12-17T11:14:51.000Z</time>
      </trkpt>
      <trkpt lat="43.78146" lon="7.0883">
        <ele>650.59997558594</ele>
        <time>2011-12-17T11:14:55.000Z</time>
      </trkpt>
      <trkpt lat="43.78152" lon="7.08822">
        <ele>650.79998779297</ele>
        <time>2011-12-17T11:15:00.000Z</time>
      </trkpt>
      <trkpt lat="43.78154" lon="7.08819">
        <ele>651</ele>
        <time>2011-12-17T11:15:06.000Z</time>
      </trkpt>
      <trkpt lat="43.78156" lon="7.08818">
        <ele>651</ele>
        <time>2011-12-17T11:15:16.000Z</time>
      </trkpt>
      <trkpt lat="43.78156" lon="7.08818">
        <ele>651</ele>
        <time>2011-12-17T11:15:22.000Z</time>
      </trkpt>
      <trkpt lat="43.78156" lon="7.08817">
        <ele>651</ele>
        <time>2011-12-17T11:15:34.000Z</time>
      </trkpt>
      <trkpt lat="43.78156" lon="7.08817">
        <ele>651</ele>
        <time>2011-12-17T11:15:40.000Z</time>
      </trkpt>
      <trkpt lat="43.78155" lon="7.08817">
        <ele>651</ele>
        <time>2011-12-17T11:15:50.000Z</time>
      </trkpt>
      <trkpt lat="43.78156" lon="7.08815">
        <ele>651</ele>
        <time>2011-12-17T11:16:26.000Z</time>
      </trkpt>
      <trkpt lat="43.78158" lon="7.08804">
        <ele>650.79998779297</ele>
        <time>2011-12-17T11:16:32.000Z</time>
      </trkpt>
      <trkpt lat="43.78155" lon="7.08808">
        <ele>650.79998779297</ele>
        <time>2011-12-17T11:16:39.000Z</time>
      </trkpt>
      <trkpt lat="43.78157" lon="7.08812">
        <ele>651</ele>
        <time>2011-12-17T11:16:43.000Z</time>
      </trkpt>
      <trkpt lat="43.7816" lon="7.08817">
        <ele>651.20001220703</ele>
        <time>2011-12-17T11:16:47.000Z</time>
      </trkpt>
      <trkpt lat="43.78159" lon="7.08821">
        <ele>651.20001220703</ele>
        <time>2011-12-17T11:16:53.000Z</time>
      </trkpt>
      <trkpt lat="43.78158" lon="7.0883">
        <ele>651.40002441406</ele>
        <time>2011-12-17T11:16:59.000Z</time>
      </trkpt>
      <trkpt lat="43.78157" lon="7.08834">
        <ele>651.40002441406</ele>
        <time>2011-12-17T11:17:05.000Z</time>
      </trkpt>
      <trkpt lat="43.78157" lon="7.08839">
        <ele>651.79998779297</ele>
        <time>2011-12-17T11:17:10.000Z</time>
      </trkpt>
      <trkpt lat="43.78158" lon="7.08849">
        <ele>652.59997558594</ele>
        <time>2011-12-17T11:17:15.000Z</time>
      </trkpt>
      <trkpt lat="43.78155" lon="7.08858">
        <ele>653</ele>
        <time>2011-12-17T11:17:19.000Z</time>
      </trkpt>
      <trkpt lat="43.78156" lon="7.08862">
        <ele>653.20001220703</ele>
        <time>2011-12-17T11:17:25.000Z</time>
      </trkpt>
      <trkpt lat="43.78157" lon="7.08872">
        <ele>654</ele>
        <time>2011-12-17T11:17:34.000Z</time>
      </trkpt>
      <trkpt lat="43.78159" lon="7.0888">
        <ele>654.79998779297</ele>
        <time>2011-12-17T11:17:42.000Z</time>
      </trkpt>
      <trkpt lat="43.7816" lon="7.08889">
        <ele>655.40002441406</ele>
        <time>2011-12-17T11:17:50.000Z</time>
      </trkpt>
      <trkpt lat="43.78165" lon="7.08897">
        <ele>656.40002441406</ele>
        <time>2011-12-17T11:17:59.000Z</time>
      </trkpt>
      <trkpt lat="43.78167" lon="7.08901">
        <ele>657.20001220703</ele>
        <time>2011-12-17T11:18:06.000Z</time>
      </trkpt>
      <trkpt lat="43.78168" lon="7.08902">
        <ele>657.20001220703</ele>
        <time>2011-12-17T11:18:13.000Z</time>
      </trkpt>
      <trkpt lat="43.78171" lon="7.08906">
        <ele>658.59997558594</ele>
        <time>2011-12-17T11:18:19.000Z</time>
      </trkpt>
      <trkpt lat="43.78179" lon="7.08922">
        <ele>662</ele>
        <time>2011-12-17T11:18:26.000Z</time>
      </trkpt>
      <trkpt lat="43.78187" lon="7.08941">
        <ele>664.40002441406</ele>
        <time>2011-12-17T11:18:35.000Z</time>
      </trkpt>
      <trkpt lat="43.78191" lon="7.08959">
        <ele>665.40002441406</ele>
        <time>2011-12-17T11:18:43.000Z</time>
      </trkpt>
      <trkpt lat="43.78195" lon="7.08973">
        <ele>666.59997558594</ele>
        <time>2011-12-17T11:18:50.000Z</time>
      </trkpt>
      <trkpt lat="43.78205" lon="7.08989">
        <ele>669.40002441406</ele>
        <time>2011-12-17T11:18:59.000Z</time>
      </trkpt>
      <trkpt lat="43.78213" lon="7.09004">
        <ele>672.20001220703</ele>
        <time>2011-12-17T11:19:07.000Z</time>
      </trkpt>
      <trkpt lat="43.78219" lon="7.09021">
        <ele>675</ele>
        <time>2011-12-17T11:19:15.000Z</time>
      </trkpt>
      <trkpt lat="43.78226" lon="7.09038">
        <ele>678</ele>
        <time>2011-12-17T11:19:24.000Z</time>
      </trkpt>
      <trkpt lat="43.78224" lon="7.09051">
        <ele>677.79998779297</ele>
        <time>2011-12-17T11:19:29.000Z</time>
      </trkpt>
      <trkpt lat="43.78216" lon="7.09063">
        <ele>675.79998779297</ele>
        <time>2011-12-17T11:19:37.000Z</time>
      </trkpt>
      <trkpt lat="43.78209" lon="7.09078">
        <ele>674.20001220703</ele>
        <time>2011-12-17T11:19:45.000Z</time>
      </trkpt>
      <trkpt lat="43.78204" lon="7.09097">
        <ele>674.40002441406</ele>
        <time>2011-12-17T11:19:53.000Z</time>
      </trkpt>
      <trkpt lat="43.782" lon="7.09118">
        <ele>675.59997558594</ele>
        <time>2011-12-17T11:20:03.000Z</time>
      </trkpt>
      <trkpt lat="43.78201" lon="7.09136">
        <ele>677.79998779297</ele>
        <time>2011-12-17T11:20:11.000Z</time>
      </trkpt>
      <trkpt lat="43.78201" lon="7.09159">
        <ele>681</ele>
        <time>2011-12-17T11:20:20.000Z</time>
      </trkpt>
      <trkpt lat="43.78198" lon="7.09178">
        <ele>681.79998779297</ele>
        <time>2011-12-17T11:20:28.000Z</time>
      </trkpt>
      <trkpt lat="43.78196" lon="7.09198">
        <ele>683</ele>
        <time>2011-12-17T11:20:37.000Z</time>
      </trkpt>
      <trkpt lat="43.78198" lon="7.09218">
        <ele>686.20001220703</ele>
        <time>2011-12-17T11:20:45.000Z</time>
      </trkpt>
      <trkpt lat="43.78195" lon="7.09245">
        <ele>687.59997558594</ele>
        <time>2011-12-17T11:20:54.000Z</time>
      </trkpt>
      <trkpt lat="43.78191" lon="7.09267">
        <ele>687.59997558594</ele>
        <time>2011-12-17T11:21:02.000Z</time>
      </trkpt>
      <trkpt lat="43.78191" lon="7.09294">
        <ele>690</ele>
        <time>2011-12-17T11:21:11.000Z</time>
      </trkpt>
      <trkpt lat="43.78191" lon="7.09318">
        <ele>691.79998779297</ele>
        <time>2011-12-17T11:21:19.000Z</time>
      </trkpt>
      <trkpt lat="43.78189" lon="7.0934">
        <ele>691</ele>
        <time>2011-12-17T11:21:28.000Z</time>
      </trkpt>
      <trkpt lat="43.78189" lon="7.09359">
        <ele>690</ele>
        <time>2011-12-17T11:21:37.000Z</time>
      </trkpt>
      <trkpt lat="43.78195" lon="7.09376">
        <ele>692.20001220703</ele>
        <time>2011-12-17T11:21:45.000Z</time>
      </trkpt>
      <trkpt lat="43.78203" lon="7.09392">
        <ele>696</ele>
        <time>2011-12-17T11:21:54.000Z</time>
      </trkpt>
      <trkpt lat="43.78211" lon="7.09404">
        <ele>699.59997558594</ele>
        <time>2011-12-17T11:22:02.000Z</time>
      </trkpt>
      <trkpt lat="43.78217" lon="7.09421">
        <ele>702.40002441406</ele>
        <time>2011-12-17T11:22:11.000Z</time>
      </trkpt>
      <trkpt lat="43.7822" lon="7.09434">
        <ele>702.59997558594</ele>
        <time>2011-12-17T11:22:18.000Z</time>
      </trkpt>
      <trkpt lat="43.78223" lon="7.09456">
        <ele>701.40002441406</ele>
        <time>2011-12-17T11:22:28.000Z</time>
      </trkpt>
      <trkpt lat="43.78225" lon="7.09474">
        <ele>701</ele>
        <time>2011-12-17T11:22:37.000Z</time>
      </trkpt>
      <trkpt lat="43.78228" lon="7.09489">
        <ele>701.20001220703</ele>
        <time>2011-12-17T11:22:45.000Z</time>
      </trkpt>
      <trkpt lat="43.78233" lon="7.09507">
        <ele>701.79998779297</ele>
        <time>2011-12-17T11:22:55.000Z</time>
      </trkpt>
      <trkpt lat="43.78237" lon="7.09519">
        <ele>703</ele>
        <time>2011-12-17T11:23:03.000Z</time>
      </trkpt>
      <trkpt lat="43.78243" lon="7.09534">
        <ele>705</ele>
        <time>2011-12-17T11:23:12.000Z</time>
      </trkpt>
      <trkpt lat="43.78247" lon="7.0955">
        <ele>706</ele>
        <time>2011-12-17T11:23:20.000Z</time>
      </trkpt>
      <trkpt lat="43.78254" lon="7.09566">
        <ele>708</ele>
        <time>2011-12-17T11:23:29.000Z</time>
      </trkpt>
      <trkpt lat="43.78264" lon="7.09579">
        <ele>711.20001220703</ele>
        <time>2011-12-17T11:23:38.000Z</time>
      </trkpt>
      <trkpt lat="43.78274" lon="7.09587">
        <ele>714</ele>
        <time>2011-12-17T11:23:46.000Z</time>
      </trkpt>
      <trkpt lat="43.78286" lon="7.09596">
        <ele>717</ele>
        <time>2011-12-17T11:23:55.000Z</time>
      </trkpt>
      <trkpt lat="43.78298" lon="7.09608">
        <ele>718.79998779297</ele>
        <time>2011-12-17T11:24:04.000Z</time>
      </trkpt>
      <trkpt lat="43.78306" lon="7.0962">
        <ele>718.59997558594</ele>
        <time>2011-12-17T11:24:12.000Z</time>
      </trkpt>
      <trkpt lat="43.78319" lon="7.0963">
        <ele>721.40002441406</ele>
        <time>2011-12-17T11:24:22.000Z</time>
      </trkpt>
      <trkpt lat="43.78329" lon="7.09638">
        <ele>723.40002441406</ele>
        <time>2011-12-17T11:24:30.000Z</time>
      </trkpt>
      <trkpt lat="43.78335" lon="7.09645">
        <ele>724.20001220703</ele>
        <time>2011-12-17T11:24:36.000Z</time>
      </trkpt>
      <trkpt lat="43.78341" lon="7.09651">
        <ele>726.20001220703</ele>
        <time>2011-12-17T11:24:43.000Z</time>
      </trkpt>
      <trkpt lat="43.78349" lon="7.0966">
        <ele>728.79998779297</ele>
        <time>2011-12-17T11:24:51.000Z</time>
      </trkpt>
      <trkpt lat="43.78359" lon="7.09672">
        <ele>733.20001220703</ele>
        <time>2011-12-17T11:25:00.000Z</time>
      </trkpt>
      <trkpt lat="43.78372" lon="7.09695">
        <ele>739.59997558594</ele>
        <time>2011-12-17T11:25:12.000Z</time>
      </trkpt>
      <trkpt lat="43.78377" lon="7.09712">
        <ele>741</ele>
        <time>2011-12-17T11:25:20.000Z</time>
      </trkpt>
      <trkpt lat="43.78379" lon="7.0973">
        <ele>739.40002441406</ele>
        <time>2011-12-17T11:25:29.000Z</time>
      </trkpt>
      <trkpt lat="43.78378" lon="7.09737">
        <ele>738.40002441406</ele>
        <time>2011-12-17T11:25:32.000Z</time>
      </trkpt>
      <trkpt lat="43.78377" lon="7.09738">
        <ele>737.79998779297</ele>
        <time>2011-12-17T11:25:39.000Z</time>
      </trkpt>
      <trkpt lat="43.78378" lon="7.09739">
        <ele>738</ele>
        <time>2011-12-17T11:25:51.000Z</time>
      </trkpt>
      <trkpt lat="43.78378" lon="7.09738">
        <ele>738.20001220703</ele>
        <time>2011-12-17T11:25:58.000Z</time>
      </trkpt>
      <trkpt lat="43.7838" lon="7.09737">
        <ele>739.59997558594</ele>
        <time>2011-12-17T11:26:32.000Z</time>
      </trkpt>
      <trkpt lat="43.7838" lon="7.09739">
        <ele>739.40002441406</ele>
        <time>2011-12-17T11:26:55.000Z</time>
      </trkpt>
      <trkpt lat="43.78375" lon="7.09752">
        <ele>734.59997558594</ele>
        <time>2011-12-17T11:27:00.000Z</time>
      </trkpt>
      <trkpt lat="43.78367" lon="7.09792">
        <ele>724.79998779297</ele>
        <time>2011-12-17T11:27:06.000Z</time>
      </trkpt>
      <trkpt lat="43.78368" lon="7.09827">
        <ele>722.40002441406</ele>
        <time>2011-12-17T11:27:10.000Z</time>
      </trkpt>
      <trkpt lat="43.7837" lon="7.09855">
        <ele>720</ele>
        <time>2011-12-17T11:27:14.000Z</time>
      </trkpt>
      <trkpt lat="43.78376" lon="7.09899">
        <ele>717.40002441406</ele>
        <time>2011-12-17T11:27:20.000Z</time>
      </trkpt>
      <trkpt lat="43.78378" lon="7.09926">
        <ele>716.40002441406</ele>
        <time>2011-12-17T11:27:24.000Z</time>
      </trkpt>
      <trkpt lat="43.78376" lon="7.09949">
        <ele>715.59997558594</ele>
        <time>2011-12-17T11:27:29.000Z</time>
      </trkpt>
      <trkpt lat="43.78366" lon="7.09976">
        <ele>710</ele>
        <time>2011-12-17T11:27:35.000Z</time>
      </trkpt>
      <trkpt lat="43.78365" lon="7.09982">
        <ele>709</ele>
        <time>2011-12-17T11:27:37.000Z</time>
      </trkpt>
      <trkpt lat="43.78364" lon="7.09982">
        <ele>708.59997558594</ele>
        <time>2011-12-17T11:27:48.000Z</time>
      </trkpt>
      <trkpt lat="43.78364" lon="7.09979">
        <ele>708.79998779297</ele>
        <time>2011-12-17T11:27:58.000Z</time>
      </trkpt>
      <trkpt lat="43.78363" lon="7.09976">
        <ele>708</ele>
        <time>2011-12-17T11:28:00.000Z</time>
      </trkpt>
      <trkpt lat="43.7836" lon="7.0996">
        <ele>705.79998779297</ele>
        <time>2011-12-17T11:28:05.000Z</time>
      </trkpt>
      <trkpt lat="43.78359" lon="7.09939">
        <ele>704.79998779297</ele>
        <time>2011-12-17T11:28:10.000Z</time>
      </trkpt>
      <trkpt lat="43.7835" lon="7.09921">
        <ele>698.59997558594</ele>
        <time>2011-12-17T11:28:15.000Z</time>
      </trkpt>
      <trkpt lat="43.7834" lon="7.09898">
        <ele>694.40002441406</ele>
        <time>2011-12-17T11:28:20.000Z</time>
      </trkpt>
      <trkpt lat="43.78328" lon="7.09877">
        <ele>688.40002441406</ele>
        <time>2011-12-17T11:28:25.000Z</time>
      </trkpt>
      <trkpt lat="43.78324" lon="7.09866">
        <ele>687.20001220703</ele>
        <time>2011-12-17T11:28:27.000Z</time>
      </trkpt>
      <trkpt lat="43.78321" lon="7.09849">
        <ele>687</ele>
        <time>2011-12-17T11:28:30.000Z</time>
      </trkpt>
      <trkpt lat="43.78322" lon="7.0982">
        <ele>690.79998779297</ele>
        <time>2011-12-17T11:28:34.000Z</time>
      </trkpt>
      <trkpt lat="43.78322" lon="7.09795">
        <ele>693.40002441406</ele>
        <time>2011-12-17T11:28:38.000Z</time>
      </trkpt>
      <trkpt lat="43.78312" lon="7.09755">
        <ele>692.79998779297</ele>
        <time>2011-12-17T11:28:45.000Z</time>
      </trkpt>
      <trkpt lat="43.78309" lon="7.09743">
        <ele>693.20001220703</ele>
        <time>2011-12-17T11:28:47.000Z</time>
      </trkpt>
      <trkpt lat="43.783" lon="7.09723">
        <ele>691.79998779297</ele>
        <time>2011-12-17T11:28:52.000Z</time>
      </trkpt>
      <trkpt lat="43.78285" lon="7.09704">
        <ele>688</ele>
        <time>2011-12-17T11:28:56.000Z</time>
      </trkpt>
      <trkpt lat="43.78271" lon="7.09688">
        <ele>684.40002441406</ele>
        <time>2011-12-17T11:29:00.000Z</time>
      </trkpt>
      <trkpt lat="43.78262" lon="7.09675">
        <ele>683.20001220703</ele>
        <time>2011-12-17T11:29:02.000Z</time>
      </trkpt>
      <trkpt lat="43.78237" lon="7.09643">
        <ele>681.59997558594</ele>
        <time>2011-12-17T11:29:08.000Z</time>
      </trkpt>
      <trkpt lat="43.78231" lon="7.09634">
        <ele>680.79998779297</ele>
        <time>2011-12-17T11:29:10.000Z</time>
      </trkpt>
      <trkpt lat="43.78226" lon="7.09632">
        <ele>679</ele>
        <time>2011-12-17T11:29:15.000Z</time>
      </trkpt>
      <trkpt lat="43.78228" lon="7.0964">
        <ele>677.79998779297</ele>
        <time>2011-12-17T11:29:18.000Z</time>
      </trkpt>
      <trkpt lat="43.78236" lon="7.09661">
        <ele>676.20001220703</ele>
        <time>2011-12-17T11:29:23.000Z</time>
      </trkpt>
      <trkpt lat="43.78243" lon="7.09685">
        <ele>673.40002441406</ele>
        <time>2011-12-17T11:29:28.000Z</time>
      </trkpt>
      <trkpt lat="43.78247" lon="7.09702">
        <ele>670.59997558594</ele>
        <time>2011-12-17T11:29:33.000Z</time>
      </trkpt>
      <trkpt lat="43.78247" lon="7.09715">
        <ele>667.59997558594</ele>
        <time>2011-12-17T11:29:37.000Z</time>
      </trkpt>
      <trkpt lat="43.78245" lon="7.09729">
        <ele>664</ele>
        <time>2011-12-17T11:29:41.000Z</time>
      </trkpt>
      <trkpt lat="43.78243" lon="7.0973">
        <ele>663.40002441406</ele>
        <time>2011-12-17T11:29:45.000Z</time>
      </trkpt>
      <trkpt lat="43.78242" lon="7.09729">
        <ele>663.40002441406</ele>
        <time>2011-12-17T11:29:47.000Z</time>
      </trkpt>
      <trkpt lat="43.78237" lon="7.09713">
        <ele>665.79998779297</ele>
        <time>2011-12-17T11:29:52.000Z</time>
      </trkpt>
      <trkpt lat="43.78228" lon="7.09704">
        <ele>665.40002441406</ele>
        <time>2011-12-17T11:29:56.000Z</time>
      </trkpt>
      <trkpt lat="43.78219" lon="7.09695">
        <ele>664.40002441406</ele>
        <time>2011-12-17T11:30:01.000Z</time>
      </trkpt>
      <trkpt lat="43.78208" lon="7.09686">
        <ele>662.20001220703</ele>
        <time>2011-12-17T11:30:06.000Z</time>
      </trkpt>
      <trkpt lat="43.78195" lon="7.09674">
        <ele>659.40002441406</ele>
        <time>2011-12-17T11:30:11.000Z</time>
      </trkpt>
      <trkpt lat="43.78188" lon="7.09669">
        <ele>657.59997558594</ele>
        <time>2011-12-17T11:30:15.000Z</time>
      </trkpt>
      <trkpt lat="43.7819" lon="7.09681">
        <ele>657</ele>
        <time>2011-12-17T11:30:20.000Z</time>
      </trkpt>
      <trkpt lat="43.78194" lon="7.09705">
        <ele>656.20001220703</ele>
        <time>2011-12-17T11:30:26.000Z</time>
      </trkpt>
      <trkpt lat="43.78195" lon="7.09712">
        <ele>655.79998779297</ele>
        <time>2011-12-17T11:30:29.000Z</time>
      </trkpt>
      <trkpt lat="43.78198" lon="7.0974">
        <ele>653.40002441406</ele>
        <time>2011-12-17T11:30:36.000Z</time>
      </trkpt>
      <trkpt lat="43.78203" lon="7.09763">
        <ele>653.40002441406</ele>
        <time>2011-12-17T11:30:41.000Z</time>
      </trkpt>
      <trkpt lat="43.7821" lon="7.09779">
        <ele>653.79998779297</ele>
        <time>2011-12-17T11:30:45.000Z</time>
      </trkpt>
      <trkpt lat="43.78214" lon="7.09788">
        <ele>653.59997558594</ele>
        <time>2011-12-17T11:30:48.000Z</time>
      </trkpt>
      <trkpt lat="43.78206" lon="7.09805">
        <ele>653.79998779297</ele>
        <time>2011-12-17T11:30:54.000Z</time>
      </trkpt>
      <trkpt lat="43.78209" lon="7.09817">
        <ele>653.40002441406</ele>
        <time>2011-12-17T11:30:59.000Z</time>
      </trkpt>
      <trkpt lat="43.78217" lon="7.09836">
        <ele>651.79998779297</ele>
        <time>2011-12-17T11:31:03.000Z</time>
      </trkpt>
      <trkpt lat="43.78225" lon="7.09856">
        <ele>650</ele>
        <time>2011-12-17T11:31:08.000Z</time>
      </trkpt>
      <trkpt lat="43.78226" lon="7.09875">
        <ele>649.59997558594</ele>
        <time>2011-12-17T11:31:14.000Z</time>
      </trkpt>
      <trkpt lat="43.78226" lon="7.09893">
        <ele>649.40002441406</ele>
        <time>2011-12-17T11:31:21.000Z</time>
      </trkpt>
      <trkpt lat="43.78226" lon="7.09906">
        <ele>649.20001220703</ele>
        <time>2011-12-17T11:31:27.000Z</time>
      </trkpt>
      <trkpt lat="43.78222" lon="7.09925">
        <ele>650.40002441406</ele>
        <time>2011-12-17T11:31:36.000Z</time>
      </trkpt>
      <trkpt lat="43.78217" lon="7.0994">
        <ele>651.79998779297</ele>
        <time>2011-12-17T11:31:44.000Z</time>
      </trkpt>
      <trkpt lat="43.78216" lon="7.09943">
        <ele>652.20001220703</ele>
        <time>2011-12-17T11:31:49.000Z</time>
      </trkpt>
      <trkpt lat="43.78211" lon="7.09947">
        <ele>653.59997558594</ele>
        <time>2011-12-17T11:32:24.000Z</time>
      </trkpt>
      <trkpt lat="43.7821" lon="7.0995">
        <ele>653.79998779297</ele>
        <time>2011-12-17T11:32:29.000Z</time>
      </trkpt>
      <trkpt lat="43.78207" lon="7.09963">
        <ele>654</ele>
        <time>2011-12-17T11:32:36.000Z</time>
      </trkpt>
      <trkpt lat="43.78202" lon="7.09975">
        <ele>655</ele>
        <time>2011-12-17T11:32:42.000Z</time>
      </trkpt>
      <trkpt lat="43.78197" lon="7.09989">
        <ele>655.40002441406</ele>
        <time>2011-12-17T11:32:49.000Z</time>
      </trkpt>
      <trkpt lat="43.78197" lon="7.09992">
        <ele>655.20001220703</ele>
        <time>2011-12-17T11:32:52.000Z</time>
      </trkpt>
      <trkpt lat="43.78196" lon="7.09995">
        <ele>655.40002441406</ele>
        <time>2011-12-17T11:32:57.000Z</time>
      </trkpt>
      <trkpt lat="43.78195" lon="7.09996">
        <ele>655.40002441406</ele>
        <time>2011-12-17T11:33:00.000Z</time>
      </trkpt>
      <trkpt lat="43.78191" lon="7.10011">
        <ele>655.20001220703</ele>
        <time>2011-12-17T11:33:08.000Z</time>
      </trkpt>
      <trkpt lat="43.78185" lon="7.10025">
        <ele>655</ele>
        <time>2011-12-17T11:33:15.000Z</time>
      </trkpt>
      <trkpt lat="43.78179" lon="7.1004">
        <ele>654.59997558594</ele>
        <time>2011-12-17T11:33:23.000Z</time>
      </trkpt>
      <trkpt lat="43.78177" lon="7.10043">
        <ele>654.59997558594</ele>
        <time>2011-12-17T11:33:28.000Z</time>
      </trkpt>
      <trkpt lat="43.78176" lon="7.10047">
        <ele>654.20001220703</ele>
        <time>2011-12-17T11:33:35.000Z</time>
      </trkpt>
      <trkpt lat="43.78173" lon="7.10056">
        <ele>653.59997558594</ele>
        <time>2011-12-17T11:33:43.000Z</time>
      </trkpt>
      <trkpt lat="43.78171" lon="7.10061">
        <ele>653.20001220703</ele>
        <time>2011-12-17T11:33:50.000Z</time>
      </trkpt>
      <trkpt lat="43.78169" lon="7.10065">
        <ele>653</ele>
        <time>2011-12-17T11:33:57.000Z</time>
      </trkpt>
      <trkpt lat="43.78175" lon="7.10078">
        <ele>650.59997558594</ele>
        <time>2011-12-17T11:34:21.000Z</time>
      </trkpt>
      <trkpt lat="43.7817" lon="7.10085">
        <ele>650.79998779297</ele>
        <time>2011-12-17T11:34:29.000Z</time>
      </trkpt>
      <trkpt lat="43.78165" lon="7.10099">
        <ele>656.40002441406</ele>
        <time>2011-12-17T11:34:58.000Z</time>
      </trkpt>
      <trkpt lat="43.78163" lon="7.10102">
        <ele>659.59997558594</ele>
        <time>2011-12-17T11:35:08.000Z</time>
      </trkpt>
      <trkpt lat="43.7816" lon="7.10111">
        <ele>665</ele>
        <time>2011-12-17T11:35:17.000Z</time>
      </trkpt>
      <trkpt lat="43.78158" lon="7.10115">
        <ele>668.20001220703</ele>
        <time>2011-12-17T11:35:22.000Z</time>
      </trkpt>
      <trkpt lat="43.7816" lon="7.10122">
        <ele>666.59997558594</ele>
        <time>2011-12-17T11:35:34.000Z</time>
      </trkpt>
      <trkpt lat="43.78158" lon="7.10127">
        <ele>671</ele>
        <time>2011-12-17T11:35:42.000Z</time>
      </trkpt>
      <trkpt lat="43.78158" lon="7.10131">
        <ele>671</ele>
        <time>2011-12-17T11:35:46.000Z</time>
      </trkpt>
      <trkpt lat="43.78158" lon="7.10136">
        <ele>671.40002441406</ele>
        <time>2011-12-17T11:35:51.000Z</time>
      </trkpt>
      <trkpt lat="43.78159" lon="7.10141">
        <ele>670.59997558594</ele>
        <time>2011-12-17T11:35:56.000Z</time>
      </trkpt>
      <trkpt lat="43.78158" lon="7.10145">
        <ele>672.59997558594</ele>
        <time>2011-12-17T11:36:01.000Z</time>
      </trkpt>
      <trkpt lat="43.78158" lon="7.10151">
        <ele>674.59997558594</ele>
        <time>2011-12-17T11:36:07.000Z</time>
      </trkpt>
      <trkpt lat="43.78156" lon="7.10157">
        <ele>677.79998779297</ele>
        <time>2011-12-17T11:36:15.000Z</time>
      </trkpt>
      <trkpt lat="43.78153" lon="7.10164">
        <ele>682</ele>
        <time>2011-12-17T11:36:22.000Z</time>
      </trkpt>
      <trkpt lat="43.78152" lon="7.10164">
        <ele>683.59997558594</ele>
        <time>2011-12-17T11:36:29.000Z</time>
      </trkpt>
      <trkpt lat="43.78149" lon="7.10162">
        <ele>687</ele>
        <time>2011-12-17T11:36:36.000Z</time>
      </trkpt>
      <trkpt lat="43.78148" lon="7.10161">
        <ele>687.59997558594</ele>
        <time>2011-12-17T11:36:41.000Z</time>
      </trkpt>
      <trkpt lat="43.78152" lon="7.10164">
        <ele>682.79998779297</ele>
        <time>2011-12-17T11:36:47.000Z</time>
      </trkpt>
      <trkpt lat="43.78153" lon="7.10167">
        <ele>682.20001220703</ele>
        <time>2011-12-17T11:36:52.000Z</time>
      </trkpt>
      <trkpt lat="43.78154" lon="7.10169">
        <ele>681.59997558594</ele>
        <time>2011-12-17T11:36:58.000Z</time>
      </trkpt>
      <trkpt lat="43.78156" lon="7.10173">
        <ele>680</ele>
        <time>2011-12-17T11:37:04.000Z</time>
      </trkpt>
      <trkpt lat="43.78154" lon="7.10176">
        <ele>682.40002441406</ele>
        <time>2011-12-17T11:37:08.000Z</time>
      </trkpt>
      <trkpt lat="43.78153" lon="7.10181">
        <ele>683.79998779297</ele>
        <time>2011-12-17T11:37:13.000Z</time>
      </trkpt>
      <trkpt lat="43.78155" lon="7.10185">
        <ele>682.59997558594</ele>
        <time>2011-12-17T11:37:20.000Z</time>
      </trkpt>
      <trkpt lat="43.78155" lon="7.10189">
        <ele>683.59997558594</ele>
        <time>2011-12-17T11:37:27.000Z</time>
      </trkpt>
      <trkpt lat="43.78155" lon="7.10192">
        <ele>683.40002441406</ele>
        <time>2011-12-17T11:37:41.000Z</time>
      </trkpt>
      <trkpt lat="43.78158" lon="7.10197">
        <ele>681.40002441406</ele>
        <time>2011-12-17T11:37:49.000Z</time>
      </trkpt>
      <trkpt lat="43.7816" lon="7.10202">
        <ele>680</ele>
        <time>2011-12-17T11:37:56.000Z</time>
      </trkpt>
      <trkpt lat="43.78161" lon="7.10204">
        <ele>679</ele>
        <time>2011-12-17T11:38:01.000Z</time>
      </trkpt>
      <trkpt lat="43.78164" lon="7.10207">
        <ele>676.59997558594</ele>
        <time>2011-12-17T11:38:08.000Z</time>
      </trkpt>
      <trkpt lat="43.78166" lon="7.10213">
        <ele>675.79998779297</ele>
        <time>2011-12-17T11:38:16.000Z</time>
      </trkpt>
      <trkpt lat="43.78165" lon="7.10214">
        <ele>676.40002441406</ele>
        <time>2011-12-17T11:38:27.000Z</time>
      </trkpt>
      <trkpt lat="43.78165" lon="7.1022">
        <ele>678</ele>
        <time>2011-12-17T11:38:41.000Z</time>
      </trkpt>
      <trkpt lat="43.78166" lon="7.10225">
        <ele>678.20001220703</ele>
        <time>2011-12-17T11:38:47.000Z</time>
      </trkpt>
      <trkpt lat="43.78166" lon="7.10231">
        <ele>679.20001220703</ele>
        <time>2011-12-17T11:38:54.000Z</time>
      </trkpt>
      <trkpt lat="43.78167" lon="7.10239">
        <ele>679.40002441406</ele>
        <time>2011-12-17T11:39:02.000Z</time>
      </trkpt>
      <trkpt lat="43.78167" lon="7.10245">
        <ele>680.59997558594</ele>
        <time>2011-12-17T11:39:09.000Z</time>
      </trkpt>
      <trkpt lat="43.78168" lon="7.1025">
        <ele>681.40002441406</ele>
        <time>2011-12-17T11:39:15.000Z</time>
      </trkpt>
      <trkpt lat="43.78167" lon="7.10257">
        <ele>683</ele>
        <time>2011-12-17T11:39:23.000Z</time>
      </trkpt>
      <trkpt lat="43.78167" lon="7.10264">
        <ele>684.40002441406</ele>
        <time>2011-12-17T11:39:31.000Z</time>
      </trkpt>
      <trkpt lat="43.78167" lon="7.10274">
        <ele>686.59997558594</ele>
        <time>2011-12-17T11:39:40.000Z</time>
      </trkpt>
      <trkpt lat="43.78166" lon="7.10284">
        <ele>688.59997558594</ele>
        <time>2011-12-17T11:39:50.000Z</time>
      </trkpt>
      <trkpt lat="43.78167" lon="7.10291">
        <ele>689.59997558594</ele>
        <time>2011-12-17T11:39:58.000Z</time>
      </trkpt>
      <trkpt lat="43.78167" lon="7.10299">
        <ele>691.40002441406</ele>
        <time>2011-12-17T11:40:07.000Z</time>
      </trkpt>
      <trkpt lat="43.78166" lon="7.10306">
        <ele>693.20001220703</ele>
        <time>2011-12-17T11:40:15.000Z</time>
      </trkpt>
      <trkpt lat="43.78166" lon="7.10313">
        <ele>694.59997558594</ele>
        <time>2011-12-17T11:40:21.000Z</time>
      </trkpt>
      <trkpt lat="43.78165" lon="7.10318">
        <ele>696.40002441406</ele>
        <time>2011-12-17T11:40:28.000Z</time>
      </trkpt>
      <trkpt lat="43.78165" lon="7.10325">
        <ele>697.79998779297</ele>
        <time>2011-12-17T11:40:35.000Z</time>
      </trkpt>
      <trkpt lat="43.78165" lon="7.10331">
        <ele>698.79998779297</ele>
        <time>2011-12-17T11:40:44.000Z</time>
      </trkpt>
      <trkpt lat="43.78165" lon="7.10339">
        <ele>699.59997558594</ele>
        <time>2011-12-17T11:40:54.000Z</time>
      </trkpt>
      <trkpt lat="43.78164" lon="7.10346">
        <ele>700.20001220703</ele>
        <time>2011-12-17T11:41:01.000Z</time>
      </trkpt>
      <trkpt lat="43.78163" lon="7.10353">
        <ele>701.40002441406</ele>
        <time>2011-12-17T11:41:10.000Z</time>
      </trkpt>
      <trkpt lat="43.78162" lon="7.1035">
        <ele>702</ele>
        <time>2011-12-17T11:41:15.000Z</time>
      </trkpt>
      <trkpt lat="43.7816" lon="7.10344">
        <ele>702.59997558594</ele>
        <time>2011-12-17T11:41:22.000Z</time>
      </trkpt>
      <trkpt lat="43.78158" lon="7.1034">
        <ele>703.79998779297</ele>
        <time>2011-12-17T11:41:29.000Z</time>
      </trkpt>
      <trkpt lat="43.78157" lon="7.10344">
        <ele>704.79998779297</ele>
        <time>2011-12-17T11:41:35.000Z</time>
      </trkpt>
      <trkpt lat="43.78156" lon="7.10351">
        <ele>705.59997558594</ele>
        <time>2011-12-17T11:41:43.000Z</time>
      </trkpt>
      <trkpt lat="43.78156" lon="7.10354">
        <ele>705.59997558594</ele>
        <time>2011-12-17T11:41:50.000Z</time>
      </trkpt>
      <trkpt lat="43.78156" lon="7.10358">
        <ele>706</ele>
        <time>2011-12-17T11:41:58.000Z</time>
      </trkpt>
      <trkpt lat="43.78156" lon="7.10361">
        <ele>706.20001220703</ele>
        <time>2011-12-17T11:42:04.000Z</time>
      </trkpt>
      <trkpt lat="43.78155" lon="7.10366">
        <ele>706.79998779297</ele>
        <time>2011-12-17T11:42:12.000Z</time>
      </trkpt>
      <trkpt lat="43.78154" lon="7.10373">
        <ele>707.79998779297</ele>
        <time>2011-12-17T11:42:21.000Z</time>
      </trkpt>
      <trkpt lat="43.78153" lon="7.10379">
        <ele>708.59997558594</ele>
        <time>2011-12-17T11:42:28.000Z</time>
      </trkpt>
      <trkpt lat="43.78153" lon="7.10385">
        <ele>708.79998779297</ele>
        <time>2011-12-17T11:42:37.000Z</time>
      </trkpt>
      <trkpt lat="43.78153" lon="7.10393">
        <ele>709.20001220703</ele>
        <time>2011-12-17T11:42:45.000Z</time>
      </trkpt>
      <trkpt lat="43.78153" lon="7.10405">
        <ele>709.59997558594</ele>
        <time>2011-12-17T11:42:57.000Z</time>
      </trkpt>
      <trkpt lat="43.78151" lon="7.10416">
        <ele>711</ele>
        <time>2011-12-17T11:43:06.000Z</time>
      </trkpt>
      <trkpt lat="43.78151" lon="7.10428">
        <ele>711.40002441406</ele>
        <time>2011-12-17T11:43:15.000Z</time>
      </trkpt>
      <trkpt lat="43.78149" lon="7.10439">
        <ele>712.40002441406</ele>
        <time>2011-12-17T11:43:25.000Z</time>
      </trkpt>
      <trkpt lat="43.78148" lon="7.10444">
        <ele>712.79998779297</ele>
        <time>2011-12-17T11:43:33.000Z</time>
      </trkpt>
      <trkpt lat="43.78146" lon="7.10451">
        <ele>713.59997558594</ele>
        <time>2011-12-17T11:44:00.000Z</time>
      </trkpt>
      <trkpt lat="43.78143" lon="7.10469">
        <ele>714.79998779297</ele>
        <time>2011-12-17T11:44:07.000Z</time>
      </trkpt>
      <trkpt lat="43.78139" lon="7.1049">
        <ele>716.59997558594</ele>
        <time>2011-12-17T11:44:15.000Z</time>
      </trkpt>
      <trkpt lat="43.78134" lon="7.10516">
        <ele>716.59997558594</ele>
        <time>2011-12-17T11:44:25.000Z</time>
      </trkpt>
      <trkpt lat="43.78132" lon="7.10531">
        <ele>716</ele>
        <time>2011-12-17T11:44:31.000Z</time>
      </trkpt>
      <trkpt lat="43.78129" lon="7.10553">
        <ele>714.79998779297</ele>
        <time>2011-12-17T11:44:39.000Z</time>
      </trkpt>
      <trkpt lat="43.78125" lon="7.10577">
        <ele>713.79998779297</ele>
        <time>2011-12-17T11:44:48.000Z</time>
      </trkpt>
      <trkpt lat="43.7812" lon="7.10591">
        <ele>713.40002441406</ele>
        <time>2011-12-17T11:44:54.000Z</time>
      </trkpt>
      <trkpt lat="43.7811" lon="7.10611">
        <ele>713.40002441406</ele>
        <time>2011-12-17T11:45:03.000Z</time>
      </trkpt>
      <trkpt lat="43.781" lon="7.10619">
        <ele>715.79998779297</ele>
        <time>2011-12-17T11:45:09.000Z</time>
      </trkpt>
      <trkpt lat="43.7809" lon="7.10626">
        <ele>719</ele>
        <time>2011-12-17T11:45:16.000Z</time>
      </trkpt>
      <trkpt lat="43.78079" lon="7.10627">
        <ele>721.59997558594</ele>
        <time>2011-12-17T11:45:23.000Z</time>
      </trkpt>
      <trkpt lat="43.78066" lon="7.10623">
        <ele>722.59997558594</ele>
        <time>2011-12-17T11:45:32.000Z</time>
      </trkpt>
      <trkpt lat="43.78054" lon="7.10615">
        <ele>724.59997558594</ele>
        <time>2011-12-17T11:45:40.000Z</time>
      </trkpt>
      <trkpt lat="43.78044" lon="7.10608">
        <ele>726.20001220703</ele>
        <time>2011-12-17T11:45:48.000Z</time>
      </trkpt>
      <trkpt lat="43.78036" lon="7.10602">
        <ele>727.79998779297</ele>
        <time>2011-12-17T11:45:53.000Z</time>
      </trkpt>
      <trkpt lat="43.78027" lon="7.1059">
        <ele>730.40002441406</ele>
        <time>2011-12-17T11:46:01.000Z</time>
      </trkpt>
      <trkpt lat="43.78013" lon="7.10577">
        <ele>733</ele>
        <time>2011-12-17T11:46:11.000Z</time>
      </trkpt>
      <trkpt lat="43.77994" lon="7.10565">
        <ele>735</ele>
        <time>2011-12-17T11:46:22.000Z</time>
      </trkpt>
      <trkpt lat="43.77976" lon="7.10559">
        <ele>735.79998779297</ele>
        <time>2011-12-17T11:46:32.000Z</time>
      </trkpt>
      <trkpt lat="43.77959" lon="7.10553">
        <ele>736.59997558594</ele>
        <time>2011-12-17T11:46:41.000Z</time>
      </trkpt>
      <trkpt lat="43.77943" lon="7.10552">
        <ele>736.59997558594</ele>
        <time>2011-12-17T11:46:49.000Z</time>
      </trkpt>
      <trkpt lat="43.77929" lon="7.1055">
        <ele>736.59997558594</ele>
        <time>2011-12-17T11:46:57.000Z</time>
      </trkpt>
      <trkpt lat="43.77914" lon="7.10549">
        <ele>737</ele>
        <time>2011-12-17T11:47:04.000Z</time>
      </trkpt>
      <trkpt lat="43.77894" lon="7.10549">
        <ele>737.79998779297</ele>
        <time>2011-12-17T11:47:13.000Z</time>
      </trkpt>
      <trkpt lat="43.77878" lon="7.10552">
        <ele>738</ele>
        <time>2011-12-17T11:47:21.000Z</time>
      </trkpt>
      <trkpt lat="43.77865" lon="7.10554">
        <ele>738.20001220703</ele>
        <time>2011-12-17T11:47:27.000Z</time>
      </trkpt>
      <trkpt lat="43.77846" lon="7.10555">
        <ele>738.79998779297</ele>
        <time>2011-12-17T11:47:35.000Z</time>
      </trkpt>
      <trkpt lat="43.77831" lon="7.10558">
        <ele>739</ele>
        <time>2011-12-17T11:47:41.000Z</time>
      </trkpt>
      <trkpt lat="43.77814" lon="7.10556">
        <ele>739.79998779297</ele>
        <time>2011-12-17T11:47:47.000Z</time>
      </trkpt>
      <trkpt lat="43.77802" lon="7.10559">
        <ele>739.59997558594</ele>
        <time>2011-12-17T11:47:52.000Z</time>
      </trkpt>
      <trkpt lat="43.77782" lon="7.10569">
        <ele>738</ele>
        <time>2011-12-17T11:48:00.000Z</time>
      </trkpt>
      <trkpt lat="43.7777" lon="7.10579">
        <ele>736.20001220703</ele>
        <time>2011-12-17T11:48:07.000Z</time>
      </trkpt>
      <trkpt lat="43.77757" lon="7.1059">
        <ele>734</ele>
        <time>2011-12-17T11:48:12.000Z</time>
      </trkpt>
      <trkpt lat="43.77737" lon="7.10599">
        <ele>731.40002441406</ele>
        <time>2011-12-17T11:48:17.000Z</time>
      </trkpt>
      <trkpt lat="43.77717" lon="7.10601">
        <ele>730</ele>
        <time>2011-12-17T11:48:21.000Z</time>
      </trkpt>
      <trkpt lat="43.77698" lon="7.10601">
        <ele>729.20001220703</ele>
        <time>2011-12-17T11:48:25.000Z</time>
      </trkpt>
      <trkpt lat="43.77681" lon="7.10609">
        <ele>726.59997558594</ele>
        <time>2011-12-17T11:48:29.000Z</time>
      </trkpt>
      <trkpt lat="43.77658" lon="7.10615">
        <ele>724</ele>
        <time>2011-12-17T11:48:34.000Z</time>
      </trkpt>
      <trkpt lat="43.77633" lon="7.1061">
        <ele>723.20001220703</ele>
        <time>2011-12-17T11:48:39.000Z</time>
      </trkpt>
      <trkpt lat="43.77607" lon="7.10601">
        <ele>722.79998779297</ele>
        <time>2011-12-17T11:48:44.000Z</time>
      </trkpt>
      <trkpt lat="43.77586" lon="7.10589">
        <ele>723.20001220703</ele>
        <time>2011-12-17T11:48:48.000Z</time>
      </trkpt>
      <trkpt lat="43.77563" lon="7.10567">
        <ele>724.20001220703</ele>
        <time>2011-12-17T11:48:55.000Z</time>
      </trkpt>
      <trkpt lat="43.77551" lon="7.10553">
        <ele>724.79998779297</ele>
        <time>2011-12-17T11:48:59.000Z</time>
      </trkpt>
      <trkpt lat="43.77528" lon="7.10542">
        <ele>723.79998779297</ele>
        <time>2011-12-17T11:49:05.000Z</time>
      </trkpt>
      <trkpt lat="43.77514" lon="7.10535">
        <ele>723.20001220703</ele>
        <time>2011-12-17T11:49:09.000Z</time>
      </trkpt>
      <trkpt lat="43.77491" lon="7.10518">
        <ele>722</ele>
        <time>2011-12-17T11:49:16.000Z</time>
      </trkpt>
      <trkpt lat="43.77466" lon="7.10494">
        <ele>721.59997558594</ele>
        <time>2011-12-17T11:49:24.000Z</time>
      </trkpt>
      <trkpt lat="43.77454" lon="7.10471">
        <ele>722.59997558594</ele>
        <time>2011-12-17T11:49:29.000Z</time>
      </trkpt>
      <trkpt lat="43.77427" lon="7.10454">
        <ele>720.79998779297</ele>
        <time>2011-12-17T11:49:36.000Z</time>
      </trkpt>
      <trkpt lat="43.77388" lon="7.10438">
        <ele>718</ele>
        <time>2011-12-17T11:49:46.000Z</time>
      </trkpt>
      <trkpt lat="43.7736" lon="7.10437">
        <ele>715.20001220703</ele>
        <time>2011-12-17T11:49:52.000Z</time>
      </trkpt>
      <trkpt lat="43.77355" lon="7.10437">
        <ele>714.79998779297</ele>
        <time>2011-12-17T11:49:53.000Z</time>
      </trkpt>
      <trkpt lat="43.77344" lon="7.10438">
        <ele>713.59997558594</ele>
        <time>2011-12-17T11:49:56.000Z</time>
      </trkpt>
      <trkpt lat="43.77323" lon="7.10431">
        <ele>712.59997558594</ele>
        <time>2011-12-17T11:50:01.000Z</time>
      </trkpt>
      <trkpt lat="43.77319" lon="7.10428">
        <ele>712.59997558594</ele>
        <time>2011-12-17T11:50:02.000Z</time>
      </trkpt>
      <trkpt lat="43.77296" lon="7.10421">
        <ele>712.40002441406</ele>
        <time>2011-12-17T11:50:07.000Z</time>
      </trkpt>
      <trkpt lat="43.77276" lon="7.10405">
        <ele>711.79998779297</ele>
        <time>2011-12-17T11:50:13.000Z</time>
      </trkpt>
      <trkpt lat="43.77272" lon="7.10397">
        <ele>711.59997558594</ele>
        <time>2011-12-17T11:50:15.000Z</time>
      </trkpt>
      <trkpt lat="43.77257" lon="7.10374">
        <ele>710.20001220703</ele>
        <time>2011-12-17T11:50:22.000Z</time>
      </trkpt>
      <trkpt lat="43.77244" lon="7.10368">
        <ele>709.79998779297</ele>
        <time>2011-12-17T11:50:28.000Z</time>
      </trkpt>
      <trkpt lat="43.77222" lon="7.1036">
        <ele>710</ele>
        <time>2011-12-17T11:50:36.000Z</time>
      </trkpt>
      <trkpt lat="43.77208" lon="7.10345">
        <ele>709.59997558594</ele>
        <time>2011-12-17T11:50:41.000Z</time>
      </trkpt>
      <trkpt lat="43.77194" lon="7.10332">
        <ele>709.40002441406</ele>
        <time>2011-12-17T11:50:46.000Z</time>
      </trkpt>
      <trkpt lat="43.77175" lon="7.1032">
        <ele>709.79998779297</ele>
        <time>2011-12-17T11:50:52.000Z</time>
      </trkpt>
      <trkpt lat="43.77153" lon="7.10311">
        <ele>709.79998779297</ele>
        <time>2011-12-17T11:50:58.000Z</time>
      </trkpt>
      <trkpt lat="43.7713" lon="7.10303">
        <ele>709.59997558594</ele>
        <time>2011-12-17T11:51:04.000Z</time>
      </trkpt>
      <trkpt lat="43.77107" lon="7.1029">
        <ele>708.79998779297</ele>
        <time>2011-12-17T11:51:10.000Z</time>
      </trkpt>
      <trkpt lat="43.77087" lon="7.10272">
        <ele>707.79998779297</ele>
        <time>2011-12-17T11:51:16.000Z</time>
      </trkpt>
      <trkpt lat="43.77073" lon="7.10262">
        <ele>707.20001220703</ele>
        <time>2011-12-17T11:51:21.000Z</time>
      </trkpt>
      <trkpt lat="43.77052" lon="7.10252">
        <ele>706.59997558594</ele>
        <time>2011-12-17T11:51:27.000Z</time>
      </trkpt>
      <trkpt lat="43.77031" lon="7.1024">
        <ele>706.20001220703</ele>
        <time>2011-12-17T11:51:32.000Z</time>
      </trkpt>
      <trkpt lat="43.77019" lon="7.10234">
        <ele>706</ele>
        <time>2011-12-17T11:51:36.000Z</time>
      </trkpt>
      <trkpt lat="43.77004" lon="7.10218">
        <ele>705.40002441406</ele>
        <time>2011-12-17T11:51:41.000Z</time>
      </trkpt>
      <trkpt lat="43.76983" lon="7.10194">
        <ele>703.40002441406</ele>
        <time>2011-12-17T11:51:48.000Z</time>
      </trkpt>
      <trkpt lat="43.76961" lon="7.10184">
        <ele>701.59997558594</ele>
        <time>2011-12-17T11:51:54.000Z</time>
      </trkpt>
      <trkpt lat="43.76934" lon="7.10184">
        <ele>699.79998779297</ele>
        <time>2011-12-17T11:52:00.000Z</time>
      </trkpt>
      <trkpt lat="43.76929" lon="7.10185">
        <ele>699.59997558594</ele>
        <time>2011-12-17T11:52:01.000Z</time>
      </trkpt>
      <trkpt lat="43.76903" lon="7.10192">
        <ele>698.20001220703</ele>
        <time>2011-12-17T11:52:06.000Z</time>
      </trkpt>
      <trkpt lat="43.76889" lon="7.10183">
        <ele>697.40002441406</ele>
        <time>2011-12-17T11:52:10.000Z</time>
      </trkpt>
      <trkpt lat="43.76873" lon="7.10174">
        <ele>696.59997558594</ele>
        <time>2011-12-17T11:52:14.000Z</time>
      </trkpt>
      <trkpt lat="43.76861" lon="7.10176">
        <ele>696</ele>
        <time>2011-12-17T11:52:17.000Z</time>
      </trkpt>
      <trkpt lat="43.76844" lon="7.10183">
        <ele>695.20001220703</ele>
        <time>2011-12-17T11:52:21.000Z</time>
      </trkpt>
      <trkpt lat="43.76826" lon="7.10183">
        <ele>694.59997558594</ele>
        <time>2011-12-17T11:52:25.000Z</time>
      </trkpt>
      <trkpt lat="43.76816" lon="7.10183">
        <ele>694.20001220703</ele>
        <time>2011-12-17T11:52:27.000Z</time>
      </trkpt>
      <trkpt lat="43.76802" lon="7.1018">
        <ele>693.79998779297</ele>
        <time>2011-12-17T11:52:30.000Z</time>
      </trkpt>
      <trkpt lat="43.76784" lon="7.1018">
        <ele>693.20001220703</ele>
        <time>2011-12-17T11:52:34.000Z</time>
      </trkpt>
      <trkpt lat="43.76761" lon="7.1019">
        <ele>692.40002441406</ele>
        <time>2011-12-17T11:52:39.000Z</time>
      </trkpt>
      <trkpt lat="43.76748" lon="7.10202">
        <ele>691.79998779297</ele>
        <time>2011-12-17T11:52:42.000Z</time>
      </trkpt>
      <trkpt lat="43.76724" lon="7.1021">
        <ele>690</ele>
        <time>2011-12-17T11:52:47.000Z</time>
      </trkpt>
      <trkpt lat="43.76709" lon="7.10205">
        <ele>688.79998779297</ele>
        <time>2011-12-17T11:52:50.000Z</time>
      </trkpt>
      <trkpt lat="43.76677" lon="7.10197">
        <ele>686.40002441406</ele>
        <time>2011-12-17T11:52:57.000Z</time>
      </trkpt>
      <trkpt lat="43.76658" lon="7.10199">
        <ele>684.59997558594</ele>
        <time>2011-12-17T11:53:01.000Z</time>
      </trkpt>
      <trkpt lat="43.7664" lon="7.10204">
        <ele>682.79998779297</ele>
        <time>2011-12-17T11:53:05.000Z</time>
      </trkpt>
      <trkpt lat="43.76614" lon="7.10205">
        <ele>679.79998779297</ele>
        <time>2011-12-17T11:53:11.000Z</time>
      </trkpt>
      <trkpt lat="43.76611" lon="7.10205">
        <ele>679.59997558594</ele>
        <time>2011-12-17T11:53:12.000Z</time>
      </trkpt>
      <trkpt lat="43.76609" lon="7.10205">
        <ele>679.40002441406</ele>
        <time>2011-12-17T11:53:18.000Z</time>
      </trkpt>
      <trkpt lat="43.76609" lon="7.10204">
        <ele>679.40002441406</ele>
        <time>2011-12-17T11:53:25.000Z</time>
      </trkpt>
      <trkpt lat="43.76609" lon="7.10204">
        <ele>679.40002441406</ele>
        <time>2011-12-17T11:53:33.000Z</time>
      </trkpt>
      <trkpt lat="43.7661" lon="7.10204">
        <ele>679.40002441406</ele>
        <time>2011-12-17T11:53:48.000Z</time>
      </trkpt>
      <trkpt lat="43.7661" lon="7.10203">
        <ele>679.40002441406</ele>
        <time>2011-12-17T11:54:13.000Z</time>
      </trkpt>
      <trkpt lat="43.7661" lon="7.10203">
        <ele>679.40002441406</ele>
        <time>2011-12-17T11:54:27.000Z</time>
      </trkpt>
      <trkpt lat="43.76605" lon="7.10204">
        <ele>679</ele>
        <time>2011-12-17T11:54:33.000Z</time>
      </trkpt>
      <trkpt lat="43.76587" lon="7.10206">
        <ele>677</ele>
        <time>2011-12-17T11:54:39.000Z</time>
      </trkpt>
      <trkpt lat="43.76558" lon="7.10202">
        <ele>674</ele>
        <time>2011-12-17T11:54:47.000Z</time>
      </trkpt>
      <trkpt lat="43.76539" lon="7.10197">
        <ele>672</ele>
        <time>2011-12-17T11:54:53.000Z</time>
      </trkpt>
      <trkpt lat="43.76523" lon="7.10198">
        <ele>670.40002441406</ele>
        <time>2011-12-17T11:54:57.000Z</time>
      </trkpt>
      <trkpt lat="43.76502" lon="7.102">
        <ele>668.20001220703</ele>
        <time>2011-12-17T11:55:02.000Z</time>
      </trkpt>
      <trkpt lat="43.76474" lon="7.10193">
        <ele>667</ele>
        <time>2011-12-17T11:55:08.000Z</time>
      </trkpt>
      <trkpt lat="43.76461" lon="7.10186">
        <ele>666.40002441406</ele>
        <time>2011-12-17T11:55:11.000Z</time>
      </trkpt>
      <trkpt lat="43.76437" lon="7.10176">
        <ele>665.59997558594</ele>
        <time>2011-12-17T11:55:16.000Z</time>
      </trkpt>
      <trkpt lat="43.76405" lon="7.10174">
        <ele>665</ele>
        <time>2011-12-17T11:55:23.000Z</time>
      </trkpt>
      <trkpt lat="43.76377" lon="7.10172">
        <ele>665.40002441406</ele>
        <time>2011-12-17T11:55:29.000Z</time>
      </trkpt>
      <trkpt lat="43.76372" lon="7.10171">
        <ele>665.40002441406</ele>
        <time>2011-12-17T11:55:30.000Z</time>
      </trkpt>
      <trkpt lat="43.76346" lon="7.10179">
        <ele>665.40002441406</ele>
        <time>2011-12-17T11:55:37.000Z</time>
      </trkpt>
      <trkpt lat="43.76309" lon="7.10186">
        <ele>665.20001220703</ele>
        <time>2011-12-17T11:55:46.000Z</time>
      </trkpt>
      <trkpt lat="43.76306" lon="7.10188">
        <ele>665.20001220703</ele>
        <time>2011-12-17T11:55:47.000Z</time>
      </trkpt>
      <trkpt lat="43.76284" lon="7.10202">
        <ele>664.40002441406</ele>
        <time>2011-12-17T11:55:53.000Z</time>
      </trkpt>
      <trkpt lat="43.7625" lon="7.10203">
        <ele>664.20001220703</ele>
        <time>2011-12-17T11:56:01.000Z</time>
      </trkpt>
      <trkpt lat="43.76219" lon="7.10198">
        <ele>665.20001220703</ele>
        <time>2011-12-17T11:56:09.000Z</time>
      </trkpt>
      <trkpt lat="43.76199" lon="7.10193">
        <ele>666</ele>
        <time>2011-12-17T11:56:15.000Z</time>
      </trkpt>
      <trkpt lat="43.7617" lon="7.10185">
        <ele>667</ele>
        <time>2011-12-17T11:56:23.000Z</time>
      </trkpt>
      <trkpt lat="43.76146" lon="7.10187">
        <ele>667</ele>
        <time>2011-12-17T11:56:30.000Z</time>
      </trkpt>
      <trkpt lat="43.7613" lon="7.10193">
        <ele>666.79998779297</ele>
        <time>2011-12-17T11:56:37.000Z</time>
      </trkpt>
      <trkpt lat="43.7611" lon="7.10202">
        <ele>666.20001220703</ele>
        <time>2011-12-17T11:56:44.000Z</time>
      </trkpt>
      <trkpt lat="43.76085" lon="7.10206">
        <ele>666</ele>
        <time>2011-12-17T11:56:51.000Z</time>
      </trkpt>
      <trkpt lat="43.76062" lon="7.10199">
        <ele>666.20001220703</ele>
        <time>2011-12-17T11:56:57.000Z</time>
      </trkpt>
      <trkpt lat="43.76042" lon="7.1019">
        <ele>666.20001220703</ele>
        <time>2011-12-17T11:57:02.000Z</time>
      </trkpt>
      <trkpt lat="43.76019" lon="7.10183">
        <ele>666</ele>
        <time>2011-12-17T11:57:08.000Z</time>
      </trkpt>
      <trkpt lat="43.76006" lon="7.10182">
        <ele>665.79998779297</ele>
        <time>2011-12-17T11:57:13.000Z</time>
      </trkpt>
      <trkpt lat="43.75988" lon="7.10184">
        <ele>666.40002441406</ele>
        <time>2011-12-17T11:57:21.000Z</time>
      </trkpt>
      <trkpt lat="43.75968" lon="7.10183">
        <ele>667.59997558594</ele>
        <time>2011-12-17T11:57:29.000Z</time>
      </trkpt>
      <trkpt lat="43.75949" lon="7.10182">
        <ele>669</ele>
        <time>2011-12-17T11:57:37.000Z</time>
      </trkpt>
      <trkpt lat="43.75932" lon="7.10178">
        <ele>670.40002441406</ele>
        <time>2011-12-17T11:57:45.000Z</time>
      </trkpt>
      <trkpt lat="43.7591" lon="7.10174">
        <ele>671.59997558594</ele>
        <time>2011-12-17T11:57:54.000Z</time>
      </trkpt>
      <trkpt lat="43.7589" lon="7.1016">
        <ele>673</ele>
        <time>2011-12-17T11:58:03.000Z</time>
      </trkpt>
      <trkpt lat="43.75876" lon="7.10152">
        <ele>674.40002441406</ele>
        <time>2011-12-17T11:58:10.000Z</time>
      </trkpt>
      <trkpt lat="43.75862" lon="7.10142">
        <ele>676</ele>
        <time>2011-12-17T11:58:18.000Z</time>
      </trkpt>
      <trkpt lat="43.7586" lon="7.10138">
        <ele>676.59997558594</ele>
        <time>2011-12-17T11:58:21.000Z</time>
      </trkpt>
      <trkpt lat="43.75859" lon="7.10137">
        <ele>676.79998779297</ele>
        <time>2011-12-17T11:58:28.000Z</time>
      </trkpt>
      <trkpt lat="43.75859" lon="7.10137">
        <ele>676.79998779297</ele>
        <time>2011-12-17T11:58:36.000Z</time>
      </trkpt>
      <trkpt lat="43.75861" lon="7.10139">
        <ele>676.40002441406</ele>
        <time>2011-12-17T11:58:41.000Z</time>
      </trkpt>
      <trkpt lat="43.75865" lon="7.10144">
        <ele>675.59997558594</ele>
        <time>2011-12-17T11:58:45.000Z</time>
      </trkpt>
      <trkpt lat="43.75871" lon="7.10148">
        <ele>675</ele>
        <time>2011-12-17T11:58:50.000Z</time>
      </trkpt>
      <trkpt lat="43.75874" lon="7.10148">
        <ele>674.79998779297</ele>
        <time>2011-12-17T11:58:54.000Z</time>
      </trkpt>
      <trkpt lat="43.75875" lon="7.10148">
        <ele>675</ele>
        <time>2011-12-17T11:59:00.000Z</time>
      </trkpt>
      <trkpt lat="43.75874" lon="7.10147">
        <ele>675</ele>
        <time>2011-12-17T11:59:05.000Z</time>
      </trkpt>
      <trkpt lat="43.75874" lon="7.10149">
        <ele>674.79998779297</ele>
        <time>2011-12-17T11:59:11.000Z</time>
      </trkpt>
      <trkpt lat="43.75874" lon="7.1015">
        <ele>674.59997558594</ele>
        <time>2011-12-17T11:59:17.000Z</time>
      </trkpt>
      <trkpt lat="43.75874" lon="7.10151">
        <ele>674.40002441406</ele>
        <time>2011-12-17T11:59:35.000Z</time>
      </trkpt>
      <trkpt lat="43.7587" lon="7.10151">
        <ele>674.59997558594</ele>
        <time>2011-12-17T12:00:54.000Z</time>
      </trkpt>
      <trkpt lat="43.75873" lon="7.10149">
        <ele>674.79998779297</ele>
        <time>2011-12-17T12:01:08.000Z</time>
      </trkpt>
      <trkpt lat="43.75873" lon="7.10148">
        <ele>674.79998779297</ele>
        <time>2011-12-17T12:01:17.000Z</time>
      </trkpt>
      <trkpt lat="43.75874" lon="7.10148">
        <ele>674.79998779297</ele>
        <time>2011-12-17T12:01:26.000Z</time>
      </trkpt>
      <trkpt lat="43.75875" lon="7.1015">
        <ele>674.59997558594</ele>
        <time>2011-12-17T12:01:41.000Z</time>
      </trkpt>
      <trkpt lat="43.75876" lon="7.10151">
        <ele>674.59997558594</ele>
        <time>2011-12-17T12:02:06.000Z</time>
      </trkpt>
      <trkpt lat="43.75876" lon="7.10151">
        <ele>674.40002441406</ele>
        <time>2011-12-17T12:02:23.000Z</time>
      </trkpt>
      <trkpt lat="43.75876" lon="7.10152">
        <ele>674.40002441406</ele>
        <time>2011-12-17T12:02:39.000Z</time>
      </trkpt>
      <trkpt lat="43.75876" lon="7.10152">
        <ele>674.40002441406</ele>
        <time>2011-12-17T12:02:54.000Z</time>
      </trkpt>
      <trkpt lat="43.75876" lon="7.10151">
        <ele>674.40002441406</ele>
        <time>2011-12-17T12:03:30.000Z</time>
      </trkpt>
      <trkpt lat="43.75875" lon="7.10151">
        <ele>674.40002441406</ele>
        <time>2011-12-17T12:03:54.000Z</time>
      </trkpt>
      <trkpt lat="43.75875" lon="7.10151">
        <ele>674.59997558594</ele>
        <time>2011-12-17T12:04:10.000Z</time>
      </trkpt>
      <trkpt lat="43.75875" lon="7.1015">
        <ele>674.59997558594</ele>
        <time>2011-12-17T12:04:29.000Z</time>
      </trkpt>
      <trkpt lat="43.75875" lon="7.1015">
        <ele>674.59997558594</ele>
        <time>2011-12-17T12:04:51.000Z</time>
      </trkpt>
      <trkpt lat="43.75875" lon="7.10151">
        <ele>674.40002441406</ele>
        <time>2011-12-17T12:05:32.000Z</time>
      </trkpt>
      <trkpt lat="43.75875" lon="7.10149">
        <ele>674.59997558594</ele>
        <time>2011-12-17T12:06:05.000Z</time>
      </trkpt>
      <trkpt lat="43.75875" lon="7.1015">
        <ele>674.59997558594</ele>
        <time>2011-12-17T12:06:27.000Z</time>
      </trkpt>
      <trkpt lat="43.75875" lon="7.10149">
        <ele>674.79998779297</ele>
        <time>2011-12-17T12:07:34.000Z</time>
      </trkpt>
      <trkpt lat="43.75875" lon="7.10149">
        <ele>674.79998779297</ele>
        <time>2011-12-17T12:08:22.000Z</time>
      </trkpt>
      <trkpt lat="43.75874" lon="7.10148">
        <ele>674.79998779297</ele>
        <time>2011-12-17T12:08:51.000Z</time>
      </trkpt>
      <trkpt lat="43.75875" lon="7.1015">
        <ele>674.59997558594</ele>
        <time>2011-12-17T12:09:46.000Z</time>
      </trkpt>
      <trkpt lat="43.75875" lon="7.10151">
        <ele>674.59997558594</ele>
        <time>2011-12-17T12:10:41.000Z</time>
      </trkpt>
      <trkpt lat="43.75875" lon="7.10149">
        <ele>674.79998779297</ele>
        <time>2011-12-17T12:11:18.000Z</time>
      </trkpt>
      <trkpt lat="43.75875" lon="7.10148">
        <ele>675</ele>
        <time>2011-12-17T12:12:15.000Z</time>
      </trkpt>
      <trkpt lat="43.75875" lon="7.10148">
        <ele>674.79998779297</ele>
        <time>2011-12-17T12:12:39.000Z</time>
      </trkpt>
      <trkpt lat="43.75875" lon="7.10148">
        <ele>674.79998779297</ele>
        <time>2011-12-17T12:13:13.000Z</time>
      </trkpt>
      <trkpt lat="43.75875" lon="7.10148">
        <ele>674.79998779297</ele>
        <time>2011-12-17T12:13:26.000Z</time>
      </trkpt>
      <trkpt lat="43.75875" lon="7.10147">
        <ele>675</ele>
        <time>2011-12-17T12:13:54.000Z</time>
      </trkpt>
      <trkpt lat="43.75875" lon="7.10147">
        <ele>675</ele>
        <time>2011-12-17T12:14:09.000Z</time>
      </trkpt>
      <trkpt lat="43.75875" lon="7.10147">
        <ele>675</ele>
        <time>2011-12-17T12:14:35.000Z</time>
      </trkpt>
      <trkpt lat="43.75875" lon="7.10147">
        <ele>675</ele>
        <time>2011-12-17T12:15:06.000Z</time>
      </trkpt>
      <trkpt lat="43.75874" lon="7.10148">
        <ele>675</ele>
        <time>2011-12-17T12:15:32.000Z</time>
      </trkpt>
      <trkpt lat="43.75874" lon="7.10148">
        <ele>675</ele>
        <time>2011-12-17T12:16:12.000Z</time>
      </trkpt>
      <trkpt lat="43.75874" lon="7.10146">
        <ele>675.20001220703</ele>
        <time>2011-12-17T12:19:34.000Z</time>
      </trkpt>
      <trkpt lat="43.75872" lon="7.10145">
        <ele>675.40002441406</ele>
        <time>2011-12-17T12:21:08.000Z</time>
      </trkpt>
      <trkpt lat="43.75874" lon="7.10147">
        <ele>675</ele>
        <time>2011-12-17T12:21:55.000Z</time>
      </trkpt>
      <trkpt lat="43.75874" lon="7.10147">
        <ele>675</ele>
        <time>2011-12-17T12:22:03.000Z</time>
      </trkpt>
      <trkpt lat="43.75874" lon="7.10148">
        <ele>674.79998779297</ele>
        <time>2011-12-17T12:22:11.000Z</time>
      </trkpt>
      <trkpt lat="43.75873" lon="7.1015">
        <ele>674.59997558594</ele>
        <time>2011-12-17T12:22:23.000Z</time>
      </trkpt>
      <trkpt lat="43.75869" lon="7.10151">
        <ele>674.59997558594</ele>
        <time>2011-12-17T12:22:28.000Z</time>
      </trkpt>
      <trkpt lat="43.75865" lon="7.10149">
        <ele>675</ele>
        <time>2011-12-17T12:22:32.000Z</time>
      </trkpt>
      <trkpt lat="43.7586" lon="7.10146">
        <ele>675.59997558594</ele>
        <time>2011-12-17T12:22:39.000Z</time>
      </trkpt>
      <trkpt lat="43.75856" lon="7.10142">
        <ele>676.20001220703</ele>
        <time>2011-12-17T12:22:42.000Z</time>
      </trkpt>
      <trkpt lat="43.75859" lon="7.10133">
        <ele>677.20001220703</ele>
        <time>2011-12-17T12:22:47.000Z</time>
      </trkpt>
      <trkpt lat="43.75864" lon="7.1013">
        <ele>677.40002441406</ele>
        <time>2011-12-17T12:22:50.000Z</time>
      </trkpt>
      <trkpt lat="43.75868" lon="7.10126">
        <ele>678</ele>
        <time>2011-12-17T12:22:56.000Z</time>
      </trkpt>
      <trkpt lat="43.75885" lon="7.10113">
        <ele>678.79998779297</ele>
        <time>2011-12-17T12:23:04.000Z</time>
      </trkpt>
      <trkpt lat="43.75899" lon="7.10101">
        <ele>679.40002441406</ele>
        <time>2011-12-17T12:23:10.000Z</time>
      </trkpt>
      <trkpt lat="43.75917" lon="7.10089">
        <ele>679.40002441406</ele>
        <time>2011-12-17T12:23:17.000Z</time>
      </trkpt>
      <trkpt lat="43.75928" lon="7.10071">
        <ele>680.40002441406</ele>
        <time>2011-12-17T12:23:23.000Z</time>
      </trkpt>
      <trkpt lat="43.75941" lon="7.10055">
        <ele>680.59997558594</ele>
        <time>2011-12-17T12:23:29.000Z</time>
      </trkpt>
      <trkpt lat="43.75952" lon="7.10036">
        <ele>681.20001220703</ele>
        <time>2011-12-17T12:23:35.000Z</time>
      </trkpt>
      <trkpt lat="43.75964" lon="7.10018">
        <ele>680.79998779297</ele>
        <time>2011-12-17T12:23:41.000Z</time>
      </trkpt>
      <trkpt lat="43.75973" lon="7.10002">
        <ele>680.59997558594</ele>
        <time>2011-12-17T12:23:46.000Z</time>
      </trkpt>
      <trkpt lat="43.75987" lon="7.0998">
        <ele>680.59997558594</ele>
        <time>2011-12-17T12:23:53.000Z</time>
      </trkpt>
      <trkpt lat="43.76004" lon="7.09963">
        <ele>679.59997558594</ele>
        <time>2011-12-17T12:24:00.000Z</time>
      </trkpt>
      <trkpt lat="43.76016" lon="7.09949">
        <ele>680.59997558594</ele>
        <time>2011-12-17T12:24:05.000Z</time>
      </trkpt>
      <trkpt lat="43.7603" lon="7.09936">
        <ele>681.40002441406</ele>
        <time>2011-12-17T12:24:11.000Z</time>
      </trkpt>
      <trkpt lat="43.76041" lon="7.09929">
        <ele>681.20001220703</ele>
        <time>2011-12-17T12:24:17.000Z</time>
      </trkpt>
      <trkpt lat="43.76042" lon="7.09926">
        <ele>681.40002441406</ele>
        <time>2011-12-17T12:24:23.000Z</time>
      </trkpt>
      <trkpt lat="43.76045" lon="7.09917">
        <ele>682.20001220703</ele>
        <time>2011-12-17T12:24:30.000Z</time>
      </trkpt>
      <trkpt lat="43.76047" lon="7.09915">
        <ele>682.40002441406</ele>
        <time>2011-12-17T12:24:33.000Z</time>
      </trkpt>
      <trkpt lat="43.76051" lon="7.09911">
        <ele>682.59997558594</ele>
        <time>2011-12-17T12:24:37.000Z</time>
      </trkpt>
      <trkpt lat="43.76058" lon="7.09904">
        <ele>683</ele>
        <time>2011-12-17T12:24:45.000Z</time>
      </trkpt>
      <trkpt lat="43.76062" lon="7.09896">
        <ele>683.79998779297</ele>
        <time>2011-12-17T12:24:52.000Z</time>
      </trkpt>
      <trkpt lat="43.76066" lon="7.0989">
        <ele>684.40002441406</ele>
        <time>2011-12-17T12:24:59.000Z</time>
      </trkpt>
      <trkpt lat="43.76069" lon="7.09884">
        <ele>684.79998779297</ele>
        <time>2011-12-17T12:25:04.000Z</time>
      </trkpt>
      <trkpt lat="43.76071" lon="7.09879">
        <ele>685.40002441406</ele>
        <time>2011-12-17T12:25:08.000Z</time>
      </trkpt>
      <trkpt lat="43.76074" lon="7.0987">
        <ele>686.20001220703</ele>
        <time>2011-12-17T12:25:15.000Z</time>
      </trkpt>
      <trkpt lat="43.76079" lon="7.09858">
        <ele>687.20001220703</ele>
        <time>2011-12-17T12:25:24.000Z</time>
      </trkpt>
      <trkpt lat="43.76081" lon="7.09854">
        <ele>687.59997558594</ele>
        <time>2011-12-17T12:25:30.000Z</time>
      </trkpt>
      <trkpt lat="43.76084" lon="7.0985">
        <ele>687.79998779297</ele>
        <time>2011-12-17T12:25:34.000Z</time>
      </trkpt>
      <trkpt lat="43.76093" lon="7.09839">
        <ele>688.59997558594</ele>
        <time>2011-12-17T12:25:40.000Z</time>
      </trkpt>
      <trkpt lat="43.76104" lon="7.09828">
        <ele>688.79998779297</ele>
        <time>2011-12-17T12:25:45.000Z</time>
      </trkpt>
      <trkpt lat="43.76112" lon="7.0982">
        <ele>689</ele>
        <time>2011-12-17T12:25:50.000Z</time>
      </trkpt>
      <trkpt lat="43.76122" lon="7.0981">
        <ele>689.20001220703</ele>
        <time>2011-12-17T12:25:56.000Z</time>
      </trkpt>
      <trkpt lat="43.76129" lon="7.09804">
        <ele>689.20001220703</ele>
        <time>2011-12-17T12:26:01.000Z</time>
      </trkpt>
      <trkpt lat="43.76133" lon="7.09801">
        <ele>689</ele>
        <time>2011-12-17T12:26:06.000Z</time>
      </trkpt>
      <trkpt lat="43.76141" lon="7.09795">
        <ele>688.79998779297</ele>
        <time>2011-12-17T12:26:11.000Z</time>
      </trkpt>
      <trkpt lat="43.76148" lon="7.09786">
        <ele>688.79998779297</ele>
        <time>2011-12-17T12:26:17.000Z</time>
      </trkpt>
      <trkpt lat="43.76146" lon="7.09781">
        <ele>689.59997558594</ele>
        <time>2011-12-17T12:26:22.000Z</time>
      </trkpt>
      <trkpt lat="43.76144" lon="7.09777">
        <ele>690.20001220703</ele>
        <time>2011-12-17T12:26:25.000Z</time>
      </trkpt>
      <trkpt lat="43.76139" lon="7.09771">
        <ele>691.20001220703</ele>
        <time>2011-12-17T12:26:31.000Z</time>
      </trkpt>
      <trkpt lat="43.76136" lon="7.09768">
        <ele>692</ele>
        <time>2011-12-17T12:26:35.000Z</time>
      </trkpt>
      <trkpt lat="43.76132" lon="7.09765">
        <ele>692.79998779297</ele>
        <time>2011-12-17T12:26:40.000Z</time>
      </trkpt>
      <trkpt lat="43.76125" lon="7.0976">
        <ele>694</ele>
        <time>2011-12-17T12:26:48.000Z</time>
      </trkpt>
      <trkpt lat="43.76122" lon="7.09758">
        <ele>694.59997558594</ele>
        <time>2011-12-17T12:26:51.000Z</time>
      </trkpt>
      <trkpt lat="43.76122" lon="7.09752">
        <ele>695.20001220703</ele>
        <time>2011-12-17T12:26:56.000Z</time>
      </trkpt>
      <trkpt lat="43.76123" lon="7.09741">
        <ele>696.40002441406</ele>
        <time>2011-12-17T12:27:04.000Z</time>
      </trkpt>
      <trkpt lat="43.76126" lon="7.09734">
        <ele>697</ele>
        <time>2011-12-17T12:27:11.000Z</time>
      </trkpt>
      <trkpt lat="43.7613" lon="7.09724">
        <ele>697.59997558594</ele>
        <time>2011-12-17T12:27:19.000Z</time>
      </trkpt>
      <trkpt lat="43.76132" lon="7.09714">
        <ele>698.40002441406</ele>
        <time>2011-12-17T12:27:27.000Z</time>
      </trkpt>
      <trkpt lat="43.76134" lon="7.09705">
        <ele>699.40002441406</ele>
        <time>2011-12-17T12:27:34.000Z</time>
      </trkpt>
      <trkpt lat="43.76136" lon="7.09696">
        <ele>700</ele>
        <time>2011-12-17T12:27:41.000Z</time>
      </trkpt>
      <trkpt lat="43.76137" lon="7.09693">
        <ele>700.20001220703</ele>
        <time>2011-12-17T12:27:46.000Z</time>
      </trkpt>
      <trkpt lat="43.76145" lon="7.09679">
        <ele>700.40002441406</ele>
        <time>2011-12-17T12:27:52.000Z</time>
      </trkpt>
      <trkpt lat="43.76147" lon="7.09677">
        <ele>700.40002441406</ele>
        <time>2011-12-17T12:27:54.000Z</time>
      </trkpt>
      <trkpt lat="43.76152" lon="7.09672">
        <ele>700.20001220703</ele>
        <time>2011-12-17T12:28:00.000Z</time>
      </trkpt>
      <trkpt lat="43.76158" lon="7.09663">
        <ele>700</ele>
        <time>2011-12-17T12:28:04.000Z</time>
      </trkpt>
      <trkpt lat="43.76159" lon="7.09663">
        <ele>699.79998779297</ele>
        <time>2011-12-17T12:28:05.000Z</time>
      </trkpt>
      <trkpt lat="43.76165" lon="7.09652">
        <ele>700</ele>
        <time>2011-12-17T12:28:11.000Z</time>
      </trkpt>
      <trkpt lat="43.76165" lon="7.0965">
        <ele>700</ele>
        <time>2011-12-17T12:28:13.000Z</time>
      </trkpt>
      <trkpt lat="43.76168" lon="7.09643">
        <ele>700.40002441406</ele>
        <time>2011-12-17T12:28:21.000Z</time>
      </trkpt>
      <trkpt lat="43.76174" lon="7.09636">
        <ele>700.79998779297</ele>
        <time>2011-12-17T12:28:28.000Z</time>
      </trkpt>
      <trkpt lat="43.76177" lon="7.0963">
        <ele>701.20001220703</ele>
        <time>2011-12-17T12:28:32.000Z</time>
      </trkpt>
      <trkpt lat="43.76178" lon="7.09612">
        <ele>703</ele>
        <time>2011-12-17T12:28:39.000Z</time>
      </trkpt>
      <trkpt lat="43.76179" lon="7.09601">
        <ele>704</ele>
        <time>2011-12-17T12:28:44.000Z</time>
      </trkpt>
      <trkpt lat="43.7618" lon="7.09593">
        <ele>704.79998779297</ele>
        <time>2011-12-17T12:28:47.000Z</time>
      </trkpt>
      <trkpt lat="43.76181" lon="7.09584">
        <ele>705.40002441406</ele>
        <time>2011-12-17T12:28:52.000Z</time>
      </trkpt>
      <trkpt lat="43.76181" lon="7.0958">
        <ele>705.79998779297</ele>
        <time>2011-12-17T12:28:56.000Z</time>
      </trkpt>
      <trkpt lat="43.7618" lon="7.09574">
        <ele>706.40002441406</ele>
        <time>2011-12-17T12:29:02.000Z</time>
      </trkpt>
      <trkpt lat="43.76178" lon="7.09565">
        <ele>707.20001220703</ele>
        <time>2011-12-17T12:29:10.000Z</time>
      </trkpt>
      <trkpt lat="43.76178" lon="7.09557">
        <ele>707.79998779297</ele>
        <time>2011-12-17T12:29:17.000Z</time>
      </trkpt>
      <trkpt lat="43.76177" lon="7.09547">
        <ele>708.59997558594</ele>
        <time>2011-12-17T12:29:24.000Z</time>
      </trkpt>
      <trkpt lat="43.76177" lon="7.09542">
        <ele>709</ele>
        <time>2011-12-17T12:29:30.000Z</time>
      </trkpt>
      <trkpt lat="43.76178" lon="7.09534">
        <ele>709.40002441406</ele>
        <time>2011-12-17T12:29:37.000Z</time>
      </trkpt>
      <trkpt lat="43.76177" lon="7.09524">
        <ele>710.20001220703</ele>
        <time>2011-12-17T12:29:44.000Z</time>
      </trkpt>
      <trkpt lat="43.76176" lon="7.09522">
        <ele>710.59997558594</ele>
        <time>2011-12-17T12:29:46.000Z</time>
      </trkpt>
      <trkpt lat="43.76176" lon="7.09516">
        <ele>711</ele>
        <time>2011-12-17T12:29:50.000Z</time>
      </trkpt>
      <trkpt lat="43.76175" lon="7.09505">
        <ele>711.79998779297</ele>
        <time>2011-12-17T12:29:58.000Z</time>
      </trkpt>
      <trkpt lat="43.76175" lon="7.09499">
        <ele>712.20001220703</ele>
        <time>2011-12-17T12:30:02.000Z</time>
      </trkpt>
      <trkpt lat="43.76173" lon="7.09485">
        <ele>713.20001220703</ele>
        <time>2011-12-17T12:30:12.000Z</time>
      </trkpt>
      <trkpt lat="43.76172" lon="7.09474">
        <ele>713.79998779297</ele>
        <time>2011-12-17T12:30:21.000Z</time>
      </trkpt>
      <trkpt lat="43.7617" lon="7.09463">
        <ele>714.40002441406</ele>
        <time>2011-12-17T12:30:29.000Z</time>
      </trkpt>
      <trkpt lat="43.76169" lon="7.09456">
        <ele>714.79998779297</ele>
        <time>2011-12-17T12:30:36.000Z</time>
      </trkpt>
      <trkpt lat="43.76167" lon="7.09454">
        <ele>715.20001220703</ele>
        <time>2011-12-17T12:30:43.000Z</time>
      </trkpt>
      <trkpt lat="43.76164" lon="7.09448">
        <ele>716</ele>
        <time>2011-12-17T12:30:51.000Z</time>
      </trkpt>
      <trkpt lat="43.76161" lon="7.09442">
        <ele>717</ele>
        <time>2011-12-17T12:30:58.000Z</time>
      </trkpt>
      <trkpt lat="43.76158" lon="7.09434">
        <ele>718.40002441406</ele>
        <time>2011-12-17T12:31:06.000Z</time>
      </trkpt>
      <trkpt lat="43.76155" lon="7.09427">
        <ele>719.40002441406</ele>
        <time>2011-12-17T12:31:14.000Z</time>
      </trkpt>
      <trkpt lat="43.76155" lon="7.0942">
        <ele>719.59997558594</ele>
        <time>2011-12-17T12:31:22.000Z</time>
      </trkpt>
      <trkpt lat="43.76154" lon="7.09415">
        <ele>720.20001220703</ele>
        <time>2011-12-17T12:31:27.000Z</time>
      </trkpt>
      <trkpt lat="43.7615" lon="7.09399">
        <ele>722.40002441406</ele>
        <time>2011-12-17T12:31:34.000Z</time>
      </trkpt>
      <trkpt lat="43.76148" lon="7.09395">
        <ele>723.20001220703</ele>
        <time>2011-12-17T12:31:39.000Z</time>
      </trkpt>
      <trkpt lat="43.76147" lon="7.09394">
        <ele>723.79998779297</ele>
        <time>2011-12-17T12:31:45.000Z</time>
      </trkpt>
      <trkpt lat="43.76145" lon="7.09389">
        <ele>724.40002441406</ele>
        <time>2011-12-17T12:31:52.000Z</time>
      </trkpt>
      <trkpt lat="43.76143" lon="7.09382">
        <ele>725.40002441406</ele>
        <time>2011-12-17T12:31:59.000Z</time>
      </trkpt>
      <trkpt lat="43.76141" lon="7.09374">
        <ele>726.40002441406</ele>
        <time>2011-12-17T12:32:06.000Z</time>
      </trkpt>
      <trkpt lat="43.76139" lon="7.09369">
        <ele>727.20001220703</ele>
        <time>2011-12-17T12:32:12.000Z</time>
      </trkpt>
      <trkpt lat="43.76138" lon="7.09363">
        <ele>728.20001220703</ele>
        <time>2011-12-17T12:32:18.000Z</time>
      </trkpt>
      <trkpt lat="43.76136" lon="7.09355">
        <ele>729.20001220703</ele>
        <time>2011-12-17T12:32:26.000Z</time>
      </trkpt>
      <trkpt lat="43.76136" lon="7.09346">
        <ele>729.79998779297</ele>
        <time>2011-12-17T12:32:34.000Z</time>
      </trkpt>
      <trkpt lat="43.76136" lon="7.09342">
        <ele>730.20001220703</ele>
        <time>2011-12-17T12:32:39.000Z</time>
      </trkpt>
      <trkpt lat="43.76134" lon="7.09337">
        <ele>731</ele>
        <time>2011-12-17T12:32:46.000Z</time>
      </trkpt>
      <trkpt lat="43.76132" lon="7.09328">
        <ele>732.20001220703</ele>
        <time>2011-12-17T12:32:56.000Z</time>
      </trkpt>
      <trkpt lat="43.76129" lon="7.09322">
        <ele>733.40002441406</ele>
        <time>2011-12-17T12:33:06.000Z</time>
      </trkpt>
      <trkpt lat="43.76126" lon="7.09316">
        <ele>734.40002441406</ele>
        <time>2011-12-17T12:33:14.000Z</time>
      </trkpt>
      <trkpt lat="43.76123" lon="7.09312">
        <ele>735.40002441406</ele>
        <time>2011-12-17T12:33:20.000Z</time>
      </trkpt>
      <trkpt lat="43.76122" lon="7.09303">
        <ele>736.20001220703</ele>
        <time>2011-12-17T12:33:27.000Z</time>
      </trkpt>
      <trkpt lat="43.7612" lon="7.09296">
        <ele>737.20001220703</ele>
        <time>2011-12-17T12:33:35.000Z</time>
      </trkpt>
      <trkpt lat="43.76122" lon="7.09289">
        <ele>737.40002441406</ele>
        <time>2011-12-17T12:33:43.000Z</time>
      </trkpt>
      <trkpt lat="43.76121" lon="7.09281">
        <ele>738</ele>
        <time>2011-12-17T12:33:51.000Z</time>
      </trkpt>
      <trkpt lat="43.76122" lon="7.09279">
        <ele>738</ele>
        <time>2011-12-17T12:34:04.000Z</time>
      </trkpt>
      <trkpt lat="43.76125" lon="7.09276">
        <ele>737.40002441406</ele>
        <time>2011-12-17T12:34:10.000Z</time>
      </trkpt>
      <trkpt lat="43.76126" lon="7.09275">
        <ele>737</ele>
        <time>2011-12-17T12:34:12.000Z</time>
      </trkpt>
      <trkpt lat="43.76129" lon="7.09268">
        <ele>736.59997558594</ele>
        <time>2011-12-17T12:34:16.000Z</time>
      </trkpt>
      <trkpt lat="43.76131" lon="7.0926">
        <ele>736.79998779297</ele>
        <time>2011-12-17T12:34:22.000Z</time>
      </trkpt>
      <trkpt lat="43.76134" lon="7.09243">
        <ele>737.40002441406</ele>
        <time>2011-12-17T12:34:28.000Z</time>
      </trkpt>
      <trkpt lat="43.76131" lon="7.09234">
        <ele>738.79998779297</ele>
        <time>2011-12-17T12:34:35.000Z</time>
      </trkpt>
      <trkpt lat="43.7613" lon="7.0923">
        <ele>739.40002441406</ele>
        <time>2011-12-17T12:34:38.000Z</time>
      </trkpt>
      <trkpt lat="43.76128" lon="7.09225">
        <ele>740.20001220703</ele>
        <time>2011-12-17T12:34:43.000Z</time>
      </trkpt>
      <trkpt lat="43.76127" lon="7.09221">
        <ele>741</ele>
        <time>2011-12-17T12:34:47.000Z</time>
      </trkpt>
      <trkpt lat="43.76124" lon="7.09208">
        <ele>742.79998779297</ele>
        <time>2011-12-17T12:34:57.000Z</time>
      </trkpt>
      <trkpt lat="43.76123" lon="7.09201">
        <ele>743.59997558594</ele>
        <time>2011-12-17T12:35:03.000Z</time>
      </trkpt>
      <trkpt lat="43.76121" lon="7.09193">
        <ele>744.59997558594</ele>
        <time>2011-12-17T12:35:10.000Z</time>
      </trkpt>
      <trkpt lat="43.76119" lon="7.09184">
        <ele>745.59997558594</ele>
        <time>2011-12-17T12:35:18.000Z</time>
      </trkpt>
      <trkpt lat="43.76119" lon="7.09177">
        <ele>746.20001220703</ele>
        <time>2011-12-17T12:35:26.000Z</time>
      </trkpt>
      <trkpt lat="43.76117" lon="7.09173">
        <ele>746.79998779297</ele>
        <time>2011-12-17T12:35:32.000Z</time>
      </trkpt>
      <trkpt lat="43.76115" lon="7.09169">
        <ele>747.40002441406</ele>
        <time>2011-12-17T12:35:39.000Z</time>
      </trkpt>
      <trkpt lat="43.76114" lon="7.09162">
        <ele>748.20001220703</ele>
        <time>2011-12-17T12:35:48.000Z</time>
      </trkpt>
      <trkpt lat="43.76114" lon="7.09155">
        <ele>748.79998779297</ele>
        <time>2011-12-17T12:35:55.000Z</time>
      </trkpt>
      <trkpt lat="43.76114" lon="7.09154">
        <ele>748.79998779297</ele>
        <time>2011-12-17T12:36:01.000Z</time>
      </trkpt>
      <trkpt lat="43.76114" lon="7.09146">
        <ele>749.20001220703</ele>
        <time>2011-12-17T12:36:07.000Z</time>
      </trkpt>
      <trkpt lat="43.76114" lon="7.09137">
        <ele>749.79998779297</ele>
        <time>2011-12-17T12:36:14.000Z</time>
      </trkpt>
      <trkpt lat="43.76113" lon="7.09132">
        <ele>750.40002441406</ele>
        <time>2011-12-17T12:36:20.000Z</time>
      </trkpt>
      <trkpt lat="43.7611" lon="7.09125">
        <ele>751.20001220703</ele>
        <time>2011-12-17T12:36:27.000Z</time>
      </trkpt>
      <trkpt lat="43.76108" lon="7.09119">
        <ele>751.79998779297</ele>
        <time>2011-12-17T12:36:34.000Z</time>
      </trkpt>
      <trkpt lat="43.76107" lon="7.09113">
        <ele>752.20001220703</ele>
        <time>2011-12-17T12:36:41.000Z</time>
      </trkpt>
      <trkpt lat="43.76106" lon="7.09109">
        <ele>752.40002441406</ele>
        <time>2011-12-17T12:36:48.000Z</time>
      </trkpt>
      <trkpt lat="43.76106" lon="7.09108">
        <ele>752.40002441406</ele>
        <time>2011-12-17T12:37:03.000Z</time>
      </trkpt>
      <trkpt lat="43.76104" lon="7.09103">
        <ele>753</ele>
        <time>2011-12-17T12:37:18.000Z</time>
      </trkpt>
      <trkpt lat="43.76102" lon="7.09098">
        <ele>753.40002441406</ele>
        <time>2011-12-17T12:37:24.000Z</time>
      </trkpt>
      <trkpt lat="43.76099" lon="7.09092">
        <ele>753.79998779297</ele>
        <time>2011-12-17T12:37:30.000Z</time>
      </trkpt>
      <trkpt lat="43.76095" lon="7.09084">
        <ele>754.40002441406</ele>
        <time>2011-12-17T12:37:38.000Z</time>
      </trkpt>
      <trkpt lat="43.76092" lon="7.09079">
        <ele>754.79998779297</ele>
        <time>2011-12-17T12:37:45.000Z</time>
      </trkpt>
      <trkpt lat="43.76092" lon="7.09075">
        <ele>755</ele>
        <time>2011-12-17T12:37:50.000Z</time>
      </trkpt>
      <trkpt lat="43.76088" lon="7.09065">
        <ele>755.79998779297</ele>
        <time>2011-12-17T12:37:57.000Z</time>
      </trkpt>
      <trkpt lat="43.76087" lon="7.09059">
        <ele>756.20001220703</ele>
        <time>2011-12-17T12:38:06.000Z</time>
      </trkpt>
      <trkpt lat="43.76084" lon="7.09054">
        <ele>756.40002441406</ele>
        <time>2011-12-17T12:38:14.000Z</time>
      </trkpt>
      <trkpt lat="43.76082" lon="7.09048">
        <ele>757</ele>
        <time>2011-12-17T12:38:21.000Z</time>
      </trkpt>
      <trkpt lat="43.7608" lon="7.09037">
        <ele>758</ele>
        <time>2011-12-17T12:38:30.000Z</time>
      </trkpt>
      <trkpt lat="43.7608" lon="7.09033">
        <ele>758.40002441406</ele>
        <time>2011-12-17T12:38:36.000Z</time>
      </trkpt>
      <trkpt lat="43.76076" lon="7.09017">
        <ele>760</ele>
        <time>2011-12-17T12:38:45.000Z</time>
      </trkpt>
      <trkpt lat="43.76075" lon="7.0901">
        <ele>760.59997558594</ele>
        <time>2011-12-17T12:38:49.000Z</time>
      </trkpt>
      <trkpt lat="43.76075" lon="7.09002">
        <ele>761</ele>
        <time>2011-12-17T12:38:54.000Z</time>
      </trkpt>
      <trkpt lat="43.76071" lon="7.08993">
        <ele>762.20001220703</ele>
        <time>2011-12-17T12:39:02.000Z</time>
      </trkpt>
      <trkpt lat="43.76068" lon="7.08984">
        <ele>763.40002441406</ele>
        <time>2011-12-17T12:39:09.000Z</time>
      </trkpt>
      <trkpt lat="43.76067" lon="7.0898">
        <ele>763.79998779297</ele>
        <time>2011-12-17T12:39:12.000Z</time>
      </trkpt>
      <trkpt lat="43.76065" lon="7.08967">
        <ele>765.20001220703</ele>
        <time>2011-12-17T12:39:21.000Z</time>
      </trkpt>
      <trkpt lat="43.76059" lon="7.08961">
        <ele>766.40002441406</ele>
        <time>2011-12-17T12:39:29.000Z</time>
      </trkpt>
      <trkpt lat="43.76056" lon="7.08956">
        <ele>767.20001220703</ele>
        <time>2011-12-17T12:39:36.000Z</time>
      </trkpt>
      <trkpt lat="43.76053" lon="7.08951">
        <ele>767.79998779297</ele>
        <time>2011-12-17T12:39:41.000Z</time>
      </trkpt>
      <trkpt lat="43.76051" lon="7.08934">
        <ele>768.79998779297</ele>
        <time>2011-12-17T12:39:47.000Z</time>
      </trkpt>
      <trkpt lat="43.76047" lon="7.08923">
        <ele>769.79998779297</ele>
        <time>2011-12-17T12:39:52.000Z</time>
      </trkpt>
      <trkpt lat="43.76045" lon="7.0892">
        <ele>770</ele>
        <time>2011-12-17T12:39:57.000Z</time>
      </trkpt>
      <trkpt lat="43.76042" lon="7.08917">
        <ele>770.40002441406</ele>
        <time>2011-12-17T12:40:04.000Z</time>
      </trkpt>
      <trkpt lat="43.76039" lon="7.08913">
        <ele>771</ele>
        <time>2011-12-17T12:40:10.000Z</time>
      </trkpt>
      <trkpt lat="43.76037" lon="7.08906">
        <ele>771.59997558594</ele>
        <time>2011-12-17T12:40:17.000Z</time>
      </trkpt>
      <trkpt lat="43.76033" lon="7.08897">
        <ele>772.40002441406</ele>
        <time>2011-12-17T12:40:27.000Z</time>
      </trkpt>
      <trkpt lat="43.76029" lon="7.08892">
        <ele>773</ele>
        <time>2011-12-17T12:40:35.000Z</time>
      </trkpt>
      <trkpt lat="43.76026" lon="7.08889">
        <ele>773.20001220703</ele>
        <time>2011-12-17T12:40:42.000Z</time>
      </trkpt>
      <trkpt lat="43.76024" lon="7.08886">
        <ele>773.40002441406</ele>
        <time>2011-12-17T12:40:49.000Z</time>
      </trkpt>
      <trkpt lat="43.76022" lon="7.0888">
        <ele>773.59997558594</ele>
        <time>2011-12-17T12:40:56.000Z</time>
      </trkpt>
      <trkpt lat="43.76019" lon="7.08872">
        <ele>774</ele>
        <time>2011-12-17T12:41:03.000Z</time>
      </trkpt>
      <trkpt lat="43.76015" lon="7.08867">
        <ele>774.20001220703</ele>
        <time>2011-12-17T12:41:10.000Z</time>
      </trkpt>
      <trkpt lat="43.76012" lon="7.08859">
        <ele>774.40002441406</ele>
        <time>2011-12-17T12:41:16.000Z</time>
      </trkpt>
      <trkpt lat="43.76009" lon="7.08851">
        <ele>774.40002441406</ele>
        <time>2011-12-17T12:41:22.000Z</time>
      </trkpt>
      <trkpt lat="43.76005" lon="7.0884">
        <ele>774.20001220703</ele>
        <time>2011-12-17T12:41:31.000Z</time>
      </trkpt>
      <trkpt lat="43.76002" lon="7.08834">
        <ele>774.20001220703</ele>
        <time>2011-12-17T12:41:37.000Z</time>
      </trkpt>
      <trkpt lat="43.75998" lon="7.08827">
        <ele>774.59997558594</ele>
        <time>2011-12-17T12:41:44.000Z</time>
      </trkpt>
      <trkpt lat="43.75992" lon="7.08824">
        <ele>775.20001220703</ele>
        <time>2011-12-17T12:41:51.000Z</time>
      </trkpt>
      <trkpt lat="43.75986" lon="7.08818">
        <ele>776.20001220703</ele>
        <time>2011-12-17T12:41:59.000Z</time>
      </trkpt>
      <trkpt lat="43.75984" lon="7.08816">
        <ele>776.40002441406</ele>
        <time>2011-12-17T12:42:01.000Z</time>
      </trkpt>
      <trkpt lat="43.75979" lon="7.08815">
        <ele>777</ele>
        <time>2011-12-17T12:42:05.000Z</time>
      </trkpt>
      <trkpt lat="43.75972" lon="7.08811">
        <ele>777.79998779297</ele>
        <time>2011-12-17T12:42:13.000Z</time>
      </trkpt>
      <trkpt lat="43.75967" lon="7.08806">
        <ele>778.40002441406</ele>
        <time>2011-12-17T12:42:20.000Z</time>
      </trkpt>
      <trkpt lat="43.75968" lon="7.08806">
        <ele>778.40002441406</ele>
        <time>2011-12-17T12:42:27.000Z</time>
      </trkpt>
      <trkpt lat="43.75969" lon="7.08803">
        <ele>778.40002441406</ele>
        <time>2011-12-17T12:42:47.000Z</time>
      </trkpt>
      <trkpt lat="43.75967" lon="7.08799">
        <ele>778.79998779297</ele>
        <time>2011-12-17T12:42:53.000Z</time>
      </trkpt>
      <trkpt lat="43.75964" lon="7.08794">
        <ele>779.20001220703</ele>
        <time>2011-12-17T12:42:57.000Z</time>
      </trkpt>
      <trkpt lat="43.7596" lon="7.08787">
        <ele>779.79998779297</ele>
        <time>2011-12-17T12:43:01.000Z</time>
      </trkpt>
      <trkpt lat="43.75953" lon="7.08788">
        <ele>780.20001220703</ele>
        <time>2011-12-17T12:43:07.000Z</time>
      </trkpt>
      <trkpt lat="43.75952" lon="7.08788">
        <ele>780.40002441406</ele>
        <time>2011-12-17T12:43:13.000Z</time>
      </trkpt>
      <trkpt lat="43.75949" lon="7.08785">
        <ele>780.79998779297</ele>
        <time>2011-12-17T12:43:19.000Z</time>
      </trkpt>
      <trkpt lat="43.75945" lon="7.08785">
        <ele>781</ele>
        <time>2011-12-17T12:43:25.000Z</time>
      </trkpt>
      <trkpt lat="43.75944" lon="7.08787">
        <ele>781</ele>
        <time>2011-12-17T12:43:32.000Z</time>
      </trkpt>
      <trkpt lat="43.75944" lon="7.08787">
        <ele>781</ele>
        <time>2011-12-17T12:43:42.000Z</time>
      </trkpt>
      <trkpt lat="43.75943" lon="7.08788">
        <ele>781</ele>
        <time>2011-12-17T12:43:55.000Z</time>
      </trkpt>
      <trkpt lat="43.75943" lon="7.08788">
        <ele>781.20001220703</ele>
        <time>2011-12-17T12:44:04.000Z</time>
      </trkpt>
      <trkpt lat="43.75943" lon="7.08787">
        <ele>781.20001220703</ele>
        <time>2011-12-17T12:44:16.000Z</time>
      </trkpt>
      <trkpt lat="43.75938" lon="7.08787">
        <ele>781.59997558594</ele>
        <time>2011-12-17T12:44:29.000Z</time>
      </trkpt>
      <trkpt lat="43.75934" lon="7.08785">
        <ele>781.79998779297</ele>
        <time>2011-12-17T12:44:32.000Z</time>
      </trkpt>
      <trkpt lat="43.75929" lon="7.08778">
        <ele>782.40002441406</ele>
        <time>2011-12-17T12:44:37.000Z</time>
      </trkpt>
      <trkpt lat="43.75921" lon="7.08779">
        <ele>783</ele>
        <time>2011-12-17T12:44:42.000Z</time>
      </trkpt>
      <trkpt lat="43.7592" lon="7.08779">
        <ele>783</ele>
        <time>2011-12-17T12:44:43.000Z</time>
      </trkpt>
      <trkpt lat="43.75916" lon="7.08779">
        <ele>783.20001220703</ele>
        <time>2011-12-17T12:44:48.000Z</time>
      </trkpt>
      <trkpt lat="43.75915" lon="7.08777">
        <ele>783.40002441406</ele>
        <time>2011-12-17T12:44:57.000Z</time>
      </trkpt>
      <trkpt lat="43.75915" lon="7.08773">
        <ele>783.40002441406</ele>
        <time>2011-12-17T12:45:03.000Z</time>
      </trkpt>
      <trkpt lat="43.75914" lon="7.08769">
        <ele>783.40002441406</ele>
        <time>2011-12-17T12:45:10.000Z</time>
      </trkpt>
      <trkpt lat="43.75911" lon="7.08767">
        <ele>783.40002441406</ele>
        <time>2011-12-17T12:45:16.000Z</time>
      </trkpt>
      <trkpt lat="43.75901" lon="7.08768">
        <ele>783</ele>
        <time>2011-12-17T12:45:22.000Z</time>
      </trkpt>
      <trkpt lat="43.75895" lon="7.08765">
        <ele>783</ele>
        <time>2011-12-17T12:45:27.000Z</time>
      </trkpt>
      <trkpt lat="43.75887" lon="7.08764">
        <ele>782.59997558594</ele>
        <time>2011-12-17T12:45:31.000Z</time>
      </trkpt>
      <trkpt lat="43.7588" lon="7.08757">
        <ele>782.59997558594</ele>
        <time>2011-12-17T12:45:35.000Z</time>
      </trkpt>
      <trkpt lat="43.7587" lon="7.08745">
        <ele>782.79998779297</ele>
        <time>2011-12-17T12:45:42.000Z</time>
      </trkpt>
      <trkpt lat="43.75868" lon="7.08743">
        <ele>782.79998779297</ele>
        <time>2011-12-17T12:45:48.000Z</time>
      </trkpt>
      <trkpt lat="43.75862" lon="7.0874">
        <ele>783</ele>
        <time>2011-12-17T12:45:53.000Z</time>
      </trkpt>
      <trkpt lat="43.75854" lon="7.08727">
        <ele>783.79998779297</ele>
        <time>2011-12-17T12:45:58.000Z</time>
      </trkpt>
      <trkpt lat="43.7585" lon="7.08708">
        <ele>785.40002441406</ele>
        <time>2011-12-17T12:46:04.000Z</time>
      </trkpt>
      <trkpt lat="43.75846" lon="7.08683">
        <ele>787.20001220703</ele>
        <time>2011-12-17T12:46:12.000Z</time>
      </trkpt>
      <trkpt lat="43.75839" lon="7.08668">
        <ele>788.20001220703</ele>
        <time>2011-12-17T12:46:18.000Z</time>
      </trkpt>
      <trkpt lat="43.75844" lon="7.08663">
        <ele>789</ele>
        <time>2011-12-17T12:46:23.000Z</time>
      </trkpt>
      <trkpt lat="43.75846" lon="7.08663">
        <ele>789.20001220703</ele>
        <time>2011-12-17T12:46:24.000Z</time>
      </trkpt>
      <trkpt lat="43.75868" lon="7.08658">
        <ele>791</ele>
        <time>2011-12-17T12:46:35.000Z</time>
      </trkpt>
      <trkpt lat="43.75883" lon="7.08663">
        <ele>791.40002441406</ele>
        <time>2011-12-17T12:46:43.000Z</time>
      </trkpt>
      <trkpt lat="43.75899" lon="7.08678">
        <ele>790.79998779297</ele>
        <time>2011-12-17T12:46:51.000Z</time>
      </trkpt>
      <trkpt lat="43.75912" lon="7.08677">
        <ele>791.59997558594</ele>
        <time>2011-12-17T12:46:57.000Z</time>
      </trkpt>
      <trkpt lat="43.75927" lon="7.08662">
        <ele>792.59997558594</ele>
        <time>2011-12-17T12:47:04.000Z</time>
      </trkpt>
      <trkpt lat="43.75943" lon="7.08642">
        <ele>793.40002441406</ele>
        <time>2011-12-17T12:47:12.000Z</time>
      </trkpt>
      <trkpt lat="43.75961" lon="7.08622">
        <ele>793.79998779297</ele>
        <time>2011-12-17T12:47:21.000Z</time>
      </trkpt>
      <trkpt lat="43.75977" lon="7.08606">
        <ele>794</ele>
        <time>2011-12-17T12:47:29.000Z</time>
      </trkpt>
      <trkpt lat="43.7599" lon="7.08579">
        <ele>795.59997558594</ele>
        <time>2011-12-17T12:47:38.000Z</time>
      </trkpt>
      <trkpt lat="43.75996" lon="7.08557">
        <ele>799.20001220703</ele>
        <time>2011-12-17T12:47:45.000Z</time>
      </trkpt>
      <trkpt lat="43.76003" lon="7.0854">
        <ele>801.79998779297</ele>
        <time>2011-12-17T12:47:51.000Z</time>
      </trkpt>
      <trkpt lat="43.76014" lon="7.08524">
        <ele>804.20001220703</ele>
        <time>2011-12-17T12:47:58.000Z</time>
      </trkpt>
      <trkpt lat="43.76028" lon="7.08507">
        <ele>806.40002441406</ele>
        <time>2011-12-17T12:48:06.000Z</time>
      </trkpt>
      <trkpt lat="43.76041" lon="7.08487">
        <ele>808.40002441406</ele>
        <time>2011-12-17T12:48:14.000Z</time>
      </trkpt>
      <trkpt lat="43.76052" lon="7.08466">
        <ele>810.79998779297</ele>
        <time>2011-12-17T12:48:22.000Z</time>
      </trkpt>
      <trkpt lat="43.76057" lon="7.08447">
        <ele>813.20001220703</ele>
        <time>2011-12-17T12:48:28.000Z</time>
      </trkpt>
      <trkpt lat="43.76058" lon="7.08425">
        <ele>816.20001220703</ele>
        <time>2011-12-17T12:48:35.000Z</time>
      </trkpt>
      <trkpt lat="43.76061" lon="7.08409">
        <ele>818.40002441406</ele>
        <time>2011-12-17T12:48:41.000Z</time>
      </trkpt>
      <trkpt lat="43.76063" lon="7.08404">
        <ele>819</ele>
        <time>2011-12-17T12:48:43.000Z</time>
      </trkpt>
      <trkpt lat="43.76075" lon="7.0839">
        <ele>820.40002441406</ele>
        <time>2011-12-17T12:48:51.000Z</time>
      </trkpt>
      <trkpt lat="43.76089" lon="7.08391">
        <ele>820.20001220703</ele>
        <time>2011-12-17T12:48:57.000Z</time>
      </trkpt>
      <trkpt lat="43.761" lon="7.08405">
        <ele>819.59997558594</ele>
        <time>2011-12-17T12:49:03.000Z</time>
      </trkpt>
      <trkpt lat="43.7611" lon="7.08421">
        <ele>818.59997558594</ele>
        <time>2011-12-17T12:49:10.000Z</time>
      </trkpt>
      <trkpt lat="43.76121" lon="7.08442">
        <ele>817.79998779297</ele>
        <time>2011-12-17T12:49:18.000Z</time>
      </trkpt>
      <trkpt lat="43.76131" lon="7.08461">
        <ele>817</ele>
        <time>2011-12-17T12:49:25.000Z</time>
      </trkpt>
      <trkpt lat="43.76147" lon="7.08484">
        <ele>816.59997558594</ele>
        <time>2011-12-17T12:49:34.000Z</time>
      </trkpt>
      <trkpt lat="43.76163" lon="7.08499">
        <ele>817.59997558594</ele>
        <time>2011-12-17T12:49:42.000Z</time>
      </trkpt>
      <trkpt lat="43.76174" lon="7.08505">
        <ele>818.59997558594</ele>
        <time>2011-12-17T12:49:48.000Z</time>
      </trkpt>
      <trkpt lat="43.76195" lon="7.0852">
        <ele>820.40002441406</ele>
        <time>2011-12-17T12:49:59.000Z</time>
      </trkpt>
      <trkpt lat="43.76217" lon="7.0853">
        <ele>822.40002441406</ele>
        <time>2011-12-17T12:50:09.000Z</time>
      </trkpt>
      <trkpt lat="43.76232" lon="7.08537">
        <ele>824</ele>
        <time>2011-12-17T12:50:16.000Z</time>
      </trkpt>
      <trkpt lat="43.76252" lon="7.08548">
        <ele>825.59997558594</ele>
        <time>2011-12-17T12:50:25.000Z</time>
      </trkpt>
      <trkpt lat="43.76266" lon="7.08555">
        <ele>826</ele>
        <time>2011-12-17T12:50:33.000Z</time>
      </trkpt>
      <trkpt lat="43.76274" lon="7.08553">
        <ele>826.59997558594</ele>
        <time>2011-12-17T12:50:38.000Z</time>
      </trkpt>
      <trkpt lat="43.76277" lon="7.08551">
        <ele>827</ele>
        <time>2011-12-17T12:50:40.000Z</time>
      </trkpt>
      <trkpt lat="43.76283" lon="7.0855">
        <ele>827.20001220703</ele>
        <time>2011-12-17T12:50:44.000Z</time>
      </trkpt>
      <trkpt lat="43.76293" lon="7.08545">
        <ele>828.40002441406</ele>
        <time>2011-12-17T12:50:52.000Z</time>
      </trkpt>
      <trkpt lat="43.76304" lon="7.08541">
        <ele>829.20001220703</ele>
        <time>2011-12-17T12:50:59.000Z</time>
      </trkpt>
      <trkpt lat="43.76316" lon="7.08538">
        <ele>830.20001220703</ele>
        <time>2011-12-17T12:51:07.000Z</time>
      </trkpt>
      <trkpt lat="43.76325" lon="7.08531">
        <ele>831.59997558594</ele>
        <time>2011-12-17T12:51:14.000Z</time>
      </trkpt>
      <trkpt lat="43.76341" lon="7.08521">
        <ele>832.59997558594</ele>
        <time>2011-12-17T12:51:23.000Z</time>
      </trkpt>
      <trkpt lat="43.76342" lon="7.08502">
        <ele>834.59997558594</ele>
        <time>2011-12-17T12:51:29.000Z</time>
      </trkpt>
      <trkpt lat="43.76335" lon="7.08491">
        <ele>836.40002441406</ele>
        <time>2011-12-17T12:51:34.000Z</time>
      </trkpt>
      <trkpt lat="43.76317" lon="7.08472">
        <ele>837.79998779297</ele>
        <time>2011-12-17T12:51:43.000Z</time>
      </trkpt>
      <trkpt lat="43.76312" lon="7.08465">
        <ele>838.59997558594</ele>
        <time>2011-12-17T12:51:48.000Z</time>
      </trkpt>
      <trkpt lat="43.76311" lon="7.08465">
        <ele>838.40002441406</ele>
        <time>2011-12-17T12:51:57.000Z</time>
      </trkpt>
      <trkpt lat="43.76312" lon="7.08465">
        <ele>838.59997558594</ele>
        <time>2011-12-17T12:52:08.000Z</time>
      </trkpt>
      <trkpt lat="43.7631" lon="7.08464">
        <ele>838.59997558594</ele>
        <time>2011-12-17T12:52:15.000Z</time>
      </trkpt>
      <trkpt lat="43.76308" lon="7.08462">
        <ele>838.79998779297</ele>
        <time>2011-12-17T12:52:17.000Z</time>
      </trkpt>
      <trkpt lat="43.76298" lon="7.08456">
        <ele>839</ele>
        <time>2011-12-17T12:52:21.000Z</time>
      </trkpt>
      <trkpt lat="43.7628" lon="7.08441">
        <ele>840</ele>
        <time>2011-12-17T12:52:31.000Z</time>
      </trkpt>
      <trkpt lat="43.76263" lon="7.08427">
        <ele>841.20001220703</ele>
        <time>2011-12-17T12:52:41.000Z</time>
      </trkpt>
      <trkpt lat="43.76244" lon="7.08415">
        <ele>841.40002441406</ele>
        <time>2011-12-17T12:52:51.000Z</time>
      </trkpt>
      <trkpt lat="43.76229" lon="7.08401">
        <ele>841.40002441406</ele>
        <time>2011-12-17T12:53:00.000Z</time>
      </trkpt>
      <trkpt lat="43.76213" lon="7.08385">
        <ele>842</ele>
        <time>2011-12-17T12:53:10.000Z</time>
      </trkpt>
      <trkpt lat="43.76202" lon="7.08367">
        <ele>843.59997558594</ele>
        <time>2011-12-17T12:53:19.000Z</time>
      </trkpt>
      <trkpt lat="43.76194" lon="7.08347">
        <ele>846</ele>
        <time>2011-12-17T12:53:27.000Z</time>
      </trkpt>
      <trkpt lat="43.76187" lon="7.08327">
        <ele>848.40002441406</ele>
        <time>2011-12-17T12:53:36.000Z</time>
      </trkpt>
      <trkpt lat="43.76181" lon="7.08311">
        <ele>850.20001220703</ele>
        <time>2011-12-17T12:53:43.000Z</time>
      </trkpt>
      <trkpt lat="43.76175" lon="7.08293">
        <ele>852.20001220703</ele>
        <time>2011-12-17T12:53:51.000Z</time>
      </trkpt>
      <trkpt lat="43.76168" lon="7.08273">
        <ele>854.40002441406</ele>
        <time>2011-12-17T12:54:00.000Z</time>
      </trkpt>
      <trkpt lat="43.76158" lon="7.08248">
        <ele>857</ele>
        <time>2011-12-17T12:54:11.000Z</time>
      </trkpt>
      <trkpt lat="43.7615" lon="7.08234">
        <ele>858.79998779297</ele>
        <time>2011-12-17T12:54:17.000Z</time>
      </trkpt>
      <trkpt lat="43.76142" lon="7.08222">
        <ele>860</ele>
        <time>2011-12-17T12:54:24.000Z</time>
      </trkpt>
      <trkpt lat="43.76134" lon="7.0821">
        <ele>861.59997558594</ele>
        <time>2011-12-17T12:54:31.000Z</time>
      </trkpt>
      <trkpt lat="43.76123" lon="7.08193">
        <ele>863.79998779297</ele>
        <time>2011-12-17T12:54:39.000Z</time>
      </trkpt>
      <trkpt lat="43.76112" lon="7.0818">
        <ele>865</ele>
        <time>2011-12-17T12:54:46.000Z</time>
      </trkpt>
      <trkpt lat="43.76097" lon="7.08161">
        <ele>867</ele>
        <time>2011-12-17T12:54:57.000Z</time>
      </trkpt>
      <trkpt lat="43.76086" lon="7.08149">
        <ele>867.59997558594</ele>
        <time>2011-12-17T12:55:04.000Z</time>
      </trkpt>
      <trkpt lat="43.76077" lon="7.0814">
        <ele>869</ele>
        <time>2011-12-17T12:55:10.000Z</time>
      </trkpt>
      <trkpt lat="43.76075" lon="7.08139">
        <ele>869.40002441406</ele>
        <time>2011-12-17T12:55:11.000Z</time>
      </trkpt>
      <trkpt lat="43.76062" lon="7.08133">
        <ele>871.20001220703</ele>
        <time>2011-12-17T12:55:19.000Z</time>
      </trkpt>
      <trkpt lat="43.76048" lon="7.08138">
        <ele>871</ele>
        <time>2011-12-17T12:55:26.000Z</time>
      </trkpt>
      <trkpt lat="43.76035" lon="7.08149">
        <ele>869.59997558594</ele>
        <time>2011-12-17T12:55:33.000Z</time>
      </trkpt>
      <trkpt lat="43.76018" lon="7.08164">
        <ele>867.59997558594</ele>
        <time>2011-12-17T12:55:41.000Z</time>
      </trkpt>
      <trkpt lat="43.75999" lon="7.08174">
        <ele>866.79998779297</ele>
        <time>2011-12-17T12:55:49.000Z</time>
      </trkpt>
      <trkpt lat="43.75977" lon="7.08186">
        <ele>866.40002441406</ele>
        <time>2011-12-17T12:55:59.000Z</time>
      </trkpt>
      <trkpt lat="43.75962" lon="7.08192">
        <ele>867</ele>
        <time>2011-12-17T12:56:06.000Z</time>
      </trkpt>
      <trkpt lat="43.75942" lon="7.08192">
        <ele>868.59997558594</ele>
        <time>2011-12-17T12:56:15.000Z</time>
      </trkpt>
      <trkpt lat="43.75927" lon="7.08186">
        <ele>871.20001220703</ele>
        <time>2011-12-17T12:56:22.000Z</time>
      </trkpt>
      <trkpt lat="43.75911" lon="7.08185">
        <ele>872.20001220703</ele>
        <time>2011-12-17T12:56:30.000Z</time>
      </trkpt>
      <trkpt lat="43.75897" lon="7.08178">
        <ele>873.59997558594</ele>
        <time>2011-12-17T12:56:38.000Z</time>
      </trkpt>
      <trkpt lat="43.75887" lon="7.08173">
        <ele>874.79998779297</ele>
        <time>2011-12-17T12:56:45.000Z</time>
      </trkpt>
      <trkpt lat="43.75876" lon="7.08166">
        <ele>876.20001220703</ele>
        <time>2011-12-17T12:56:50.000Z</time>
      </trkpt>
      <trkpt lat="43.75864" lon="7.08156">
        <ele>878.20001220703</ele>
        <time>2011-12-17T12:56:56.000Z</time>
      </trkpt>
      <trkpt lat="43.75852" lon="7.08148">
        <ele>879.79998779297</ele>
        <time>2011-12-17T12:57:01.000Z</time>
      </trkpt>
      <trkpt lat="43.75844" lon="7.08143">
        <ele>880.79998779297</ele>
        <time>2011-12-17T12:57:06.000Z</time>
      </trkpt>
      <trkpt lat="43.75832" lon="7.08131">
        <ele>883.20001220703</ele>
        <time>2011-12-17T12:57:14.000Z</time>
      </trkpt>
      <trkpt lat="43.75822" lon="7.08124">
        <ele>883.79998779297</ele>
        <time>2011-12-17T12:57:21.000Z</time>
      </trkpt>
      <trkpt lat="43.7581" lon="7.08114">
        <ele>885</ele>
        <time>2011-12-17T12:57:30.000Z</time>
      </trkpt>
      <trkpt lat="43.75801" lon="7.08104">
        <ele>886.20001220703</ele>
        <time>2011-12-17T12:57:38.000Z</time>
      </trkpt>
      <trkpt lat="43.75789" lon="7.08094">
        <ele>887.20001220703</ele>
        <time>2011-12-17T12:57:46.000Z</time>
      </trkpt>
      <trkpt lat="43.75777" lon="7.08086">
        <ele>887.79998779297</ele>
        <time>2011-12-17T12:57:54.000Z</time>
      </trkpt>
      <trkpt lat="43.75774" lon="7.08083">
        <ele>888</ele>
        <time>2011-12-17T12:57:57.000Z</time>
      </trkpt>
      <trkpt lat="43.75764" lon="7.08078">
        <ele>888.20001220703</ele>
        <time>2011-12-17T12:58:05.000Z</time>
      </trkpt>
      <trkpt lat="43.75752" lon="7.08068">
        <ele>889.20001220703</ele>
        <time>2011-12-17T12:58:13.000Z</time>
      </trkpt>
      <trkpt lat="43.7574" lon="7.08056">
        <ele>890.20001220703</ele>
        <time>2011-12-17T12:58:21.000Z</time>
      </trkpt>
      <trkpt lat="43.75728" lon="7.08044">
        <ele>890.79998779297</ele>
        <time>2011-12-17T12:58:30.000Z</time>
      </trkpt>
      <trkpt lat="43.75722" lon="7.0804">
        <ele>891</ele>
        <time>2011-12-17T12:58:36.000Z</time>
      </trkpt>
      <trkpt lat="43.75715" lon="7.08035">
        <ele>891</ele>
        <time>2011-12-17T12:58:44.000Z</time>
      </trkpt>
      <trkpt lat="43.75706" lon="7.08028">
        <ele>891</ele>
        <time>2011-12-17T12:58:56.000Z</time>
      </trkpt>
      <trkpt lat="43.75701" lon="7.08022">
        <ele>891.40002441406</ele>
        <time>2011-12-17T12:59:04.000Z</time>
      </trkpt>
      <trkpt lat="43.75694" lon="7.08015">
        <ele>891.59997558594</ele>
        <time>2011-12-17T12:59:12.000Z</time>
      </trkpt>
      <trkpt lat="43.75688" lon="7.08004">
        <ele>892.40002441406</ele>
        <time>2011-12-17T12:59:20.000Z</time>
      </trkpt>
      <trkpt lat="43.75685" lon="7.07989">
        <ele>893.59997558594</ele>
        <time>2011-12-17T12:59:28.000Z</time>
      </trkpt>
      <trkpt lat="43.75683" lon="7.07977">
        <ele>894.59997558594</ele>
        <time>2011-12-17T12:59:34.000Z</time>
      </trkpt>
      <trkpt lat="43.75683" lon="7.07957">
        <ele>896.40002441406</ele>
        <time>2011-12-17T12:59:42.000Z</time>
      </trkpt>
      <trkpt lat="43.75682" lon="7.07939">
        <ele>898</ele>
        <time>2011-12-17T12:59:49.000Z</time>
      </trkpt>
      <trkpt lat="43.75679" lon="7.07913">
        <ele>899.79998779297</ele>
        <time>2011-12-17T13:00:00.000Z</time>
      </trkpt>
      <trkpt lat="43.75677" lon="7.07892">
        <ele>900.40002441406</ele>
        <time>2011-12-17T13:00:09.000Z</time>
      </trkpt>
      <trkpt lat="43.75677" lon="7.07883">
        <ele>900.79998779297</ele>
        <time>2011-12-17T13:00:13.000Z</time>
      </trkpt>
      <trkpt lat="43.75676" lon="7.07864">
        <ele>901.40002441406</ele>
        <time>2011-12-17T13:00:21.000Z</time>
      </trkpt>
      <trkpt lat="43.75675" lon="7.07844">
        <ele>902.20001220703</ele>
        <time>2011-12-17T13:00:29.000Z</time>
      </trkpt>
      <trkpt lat="43.75674" lon="7.0782">
        <ele>903.20001220703</ele>
        <time>2011-12-17T13:00:38.000Z</time>
      </trkpt>
      <trkpt lat="43.75674" lon="7.07791">
        <ele>904.59997558594</ele>
        <time>2011-12-17T13:00:48.000Z</time>
      </trkpt>
      <trkpt lat="43.75675" lon="7.07761">
        <ele>906.40002441406</ele>
        <time>2011-12-17T13:00:59.000Z</time>
      </trkpt>
      <trkpt lat="43.75678" lon="7.07741">
        <ele>907.59997558594</ele>
        <time>2011-12-17T13:01:07.000Z</time>
      </trkpt>
      <trkpt lat="43.75683" lon="7.07715">
        <ele>909</ele>
        <time>2011-12-17T13:01:17.000Z</time>
      </trkpt>
      <trkpt lat="43.75688" lon="7.07696">
        <ele>910.20001220703</ele>
        <time>2011-12-17T13:01:25.000Z</time>
      </trkpt>
      <trkpt lat="43.75696" lon="7.07674">
        <ele>912.40002441406</ele>
        <time>2011-12-17T13:01:34.000Z</time>
      </trkpt>
      <trkpt lat="43.75705" lon="7.07649">
        <ele>914.79998779297</ele>
        <time>2011-12-17T13:01:45.000Z</time>
      </trkpt>
      <trkpt lat="43.75713" lon="7.07625">
        <ele>916.79998779297</ele>
        <time>2011-12-17T13:01:55.000Z</time>
      </trkpt>
      <trkpt lat="43.7572" lon="7.07605">
        <ele>918.40002441406</ele>
        <time>2011-12-17T13:02:03.000Z</time>
      </trkpt>
      <trkpt lat="43.75724" lon="7.07578">
        <ele>919.79998779297</ele>
        <time>2011-12-17T13:02:13.000Z</time>
      </trkpt>
      <trkpt lat="43.75727" lon="7.07549">
        <ele>921.59997558594</ele>
        <time>2011-12-17T13:02:24.000Z</time>
      </trkpt>
      <trkpt lat="43.75729" lon="7.07525">
        <ele>923.40002441406</ele>
        <time>2011-12-17T13:02:33.000Z</time>
      </trkpt>
      <trkpt lat="43.75727" lon="7.07508">
        <ele>923.59997558594</ele>
        <time>2011-12-17T13:02:40.000Z</time>
      </trkpt>
      <trkpt lat="43.75723" lon="7.07485">
        <ele>923.79998779297</ele>
        <time>2011-12-17T13:02:49.000Z</time>
      </trkpt>
      <trkpt lat="43.7572" lon="7.07466">
        <ele>924.40002441406</ele>
        <time>2011-12-17T13:02:56.000Z</time>
      </trkpt>
      <trkpt lat="43.75722" lon="7.0745">
        <ele>926</ele>
        <time>2011-12-17T13:03:02.000Z</time>
      </trkpt>
      <trkpt lat="43.75725" lon="7.07447">
        <ele>926.79998779297</ele>
        <time>2011-12-17T13:03:05.000Z</time>
      </trkpt>
      <trkpt lat="43.75728" lon="7.07446">
        <ele>927.59997558594</ele>
        <time>2011-12-17T13:03:11.000Z</time>
      </trkpt>
      <trkpt lat="43.75728" lon="7.07448">
        <ele>927.59997558594</ele>
        <time>2011-12-17T13:03:26.000Z</time>
      </trkpt>
      <trkpt lat="43.75731" lon="7.0745">
        <ele>928.20001220703</ele>
        <time>2011-12-17T13:03:44.000Z</time>
      </trkpt>
      <trkpt lat="43.7574" lon="7.07458">
        <ele>929.79998779297</ele>
        <time>2011-12-17T13:03:51.000Z</time>
      </trkpt>
      <trkpt lat="43.75751" lon="7.07479">
        <ele>931.59997558594</ele>
        <time>2011-12-17T13:04:01.000Z</time>
      </trkpt>
      <trkpt lat="43.75761" lon="7.07507">
        <ele>932.20001220703</ele>
        <time>2011-12-17T13:04:12.000Z</time>
      </trkpt>
      <trkpt lat="43.75767" lon="7.07531">
        <ele>932.40002441406</ele>
        <time>2011-12-17T13:04:21.000Z</time>
      </trkpt>
      <trkpt lat="43.75773" lon="7.07552">
        <ele>932.59997558594</ele>
        <time>2011-12-17T13:04:30.000Z</time>
      </trkpt>
      <trkpt lat="43.7578" lon="7.0758">
        <ele>932.59997558594</ele>
        <time>2011-12-17T13:04:41.000Z</time>
      </trkpt>
      <trkpt lat="43.75786" lon="7.07604">
        <ele>933.40002441406</ele>
        <time>2011-12-17T13:04:50.000Z</time>
      </trkpt>
      <trkpt lat="43.75791" lon="7.07632">
        <ele>934.20001220703</ele>
        <time>2011-12-17T13:04:59.000Z</time>
      </trkpt>
      <trkpt lat="43.75799" lon="7.0766">
        <ele>935.40002441406</ele>
        <time>2011-12-17T13:05:09.000Z</time>
      </trkpt>
      <trkpt lat="43.75811" lon="7.07678">
        <ele>937.20001220703</ele>
        <time>2011-12-17T13:05:17.000Z</time>
      </trkpt>
      <trkpt lat="43.75824" lon="7.0769">
        <ele>939</ele>
        <time>2011-12-17T13:05:25.000Z</time>
      </trkpt>
      <trkpt lat="43.75835" lon="7.07697">
        <ele>940.20001220703</ele>
        <time>2011-12-17T13:05:33.000Z</time>
      </trkpt>
      <trkpt lat="43.75836" lon="7.07698">
        <ele>940.40002441406</ele>
        <time>2011-12-17T13:05:38.000Z</time>
      </trkpt>
      <trkpt lat="43.75853" lon="7.07703">
        <ele>941.20001220703</ele>
        <time>2011-12-17T13:05:47.000Z</time>
      </trkpt>
      <trkpt lat="43.75871" lon="7.07705">
        <ele>942.20001220703</ele>
        <time>2011-12-17T13:05:56.000Z</time>
      </trkpt>
      <trkpt lat="43.75888" lon="7.07699">
        <ele>943.79998779297</ele>
        <time>2011-12-17T13:06:04.000Z</time>
      </trkpt>
      <trkpt lat="43.759" lon="7.07684">
        <ele>945.59997558594</ele>
        <time>2011-12-17T13:06:12.000Z</time>
      </trkpt>
      <trkpt lat="43.75911" lon="7.07665">
        <ele>947.59997558594</ele>
        <time>2011-12-17T13:06:21.000Z</time>
      </trkpt>
      <trkpt lat="43.75918" lon="7.07648">
        <ele>949.20001220703</ele>
        <time>2011-12-17T13:06:29.000Z</time>
      </trkpt>
      <trkpt lat="43.75928" lon="7.07632">
        <ele>950.20001220703</ele>
        <time>2011-12-17T13:06:37.000Z</time>
      </trkpt>
      <trkpt lat="43.7594" lon="7.07615">
        <ele>951.59997558594</ele>
        <time>2011-12-17T13:06:45.000Z</time>
      </trkpt>
      <trkpt lat="43.75952" lon="7.07595">
        <ele>953.20001220703</ele>
        <time>2011-12-17T13:06:54.000Z</time>
      </trkpt>
      <trkpt lat="43.75964" lon="7.07576">
        <ele>955</ele>
        <time>2011-12-17T13:07:03.000Z</time>
      </trkpt>
      <trkpt lat="43.75976" lon="7.07563">
        <ele>956.59997558594</ele>
        <time>2011-12-17T13:07:10.000Z</time>
      </trkpt>
      <trkpt lat="43.75993" lon="7.0755">
        <ele>958.40002441406</ele>
        <time>2011-12-17T13:07:19.000Z</time>
      </trkpt>
      <trkpt lat="43.76007" lon="7.07546">
        <ele>959.40002441406</ele>
        <time>2011-12-17T13:07:26.000Z</time>
      </trkpt>
      <trkpt lat="43.76021" lon="7.07541">
        <ele>960.40002441406</ele>
        <time>2011-12-17T13:07:34.000Z</time>
      </trkpt>
      <trkpt lat="43.76037" lon="7.07534">
        <ele>961.59997558594</ele>
        <time>2011-12-17T13:07:43.000Z</time>
      </trkpt>
      <trkpt lat="43.76054" lon="7.07523">
        <ele>962.79998779297</ele>
        <time>2011-12-17T13:07:52.000Z</time>
      </trkpt>
      <trkpt lat="43.76069" lon="7.07512">
        <ele>963.59997558594</ele>
        <time>2011-12-17T13:08:00.000Z</time>
      </trkpt>
      <trkpt lat="43.7608" lon="7.07505">
        <ele>963.79998779297</ele>
        <time>2011-12-17T13:08:08.000Z</time>
      </trkpt>
      <trkpt lat="43.76081" lon="7.07504">
        <ele>963.79998779297</ele>
        <time>2011-12-17T13:08:09.000Z</time>
      </trkpt>
      <trkpt lat="43.7608" lon="7.07502">
        <ele>964</ele>
        <time>2011-12-17T13:08:13.000Z</time>
      </trkpt>
      <trkpt lat="43.76079" lon="7.07504">
        <ele>963.79998779297</ele>
        <time>2011-12-17T13:08:39.000Z</time>
      </trkpt>
      <trkpt lat="43.76078" lon="7.07505">
        <ele>963.79998779297</ele>
        <time>2011-12-17T13:08:50.000Z</time>
      </trkpt>
      <trkpt lat="43.76077" lon="7.07506">
        <ele>963.79998779297</ele>
        <time>2011-12-17T13:09:21.000Z</time>
      </trkpt>
      <trkpt lat="43.76078" lon="7.07504">
        <ele>963.79998779297</ele>
        <time>2011-12-17T13:09:38.000Z</time>
      </trkpt>
      <trkpt lat="43.76077" lon="7.07501">
        <ele>964</ele>
        <time>2011-12-17T13:09:46.000Z</time>
      </trkpt>
      <trkpt lat="43.76067" lon="7.07492">
        <ele>964</ele>
        <time>2011-12-17T13:09:53.000Z</time>
      </trkpt>
      <trkpt lat="43.76066" lon="7.07491">
        <ele>964</ele>
        <time>2011-12-17T13:09:54.000Z</time>
      </trkpt>
      <trkpt lat="43.76064" lon="7.0749">
        <ele>964</ele>
        <time>2011-12-17T13:10:01.000Z</time>
      </trkpt>
      <trkpt lat="43.76063" lon="7.07488">
        <ele>964</ele>
        <time>2011-12-17T13:10:06.000Z</time>
      </trkpt>
      <trkpt lat="43.76059" lon="7.07486">
        <ele>964</ele>
        <time>2011-12-17T13:10:12.000Z</time>
      </trkpt>
      <trkpt lat="43.76057" lon="7.07484">
        <ele>964</ele>
        <time>2011-12-17T13:10:20.000Z</time>
      </trkpt>
      <trkpt lat="43.76058" lon="7.07483">
        <ele>964</ele>
        <time>2011-12-17T13:10:26.000Z</time>
      </trkpt>
      <trkpt lat="43.76058" lon="7.07484">
        <ele>964</ele>
        <time>2011-12-17T13:10:32.000Z</time>
      </trkpt>
      <trkpt lat="43.76058" lon="7.07486">
        <ele>964</ele>
        <time>2011-12-17T13:10:43.000Z</time>
      </trkpt>
      <trkpt lat="43.76065" lon="7.07484">
        <ele>963.79998779297</ele>
        <time>2011-12-17T13:12:49.000Z</time>
      </trkpt>
      <trkpt lat="43.76065" lon="7.07478">
        <ele>963.79998779297</ele>
        <time>2011-12-17T13:14:07.000Z</time>
      </trkpt>
      <trkpt lat="43.7605" lon="7.07467">
        <ele>964</ele>
        <time>2011-12-17T13:17:18.000Z</time>
      </trkpt>
      <trkpt lat="43.76049" lon="7.07467">
        <ele>964</ele>
        <time>2011-12-17T13:17:46.000Z</time>
      </trkpt>
      <trkpt lat="43.76048" lon="7.07467">
        <ele>964</ele>
        <time>2011-12-17T13:18:14.000Z</time>
      </trkpt>
      <trkpt lat="43.76048" lon="7.07469">
        <ele>964</ele>
        <time>2011-12-17T13:18:54.000Z</time>
      </trkpt>
      <trkpt lat="43.76047" lon="7.0747">
        <ele>964</ele>
        <time>2011-12-17T13:19:20.000Z</time>
      </trkpt>
      <trkpt lat="43.76056" lon="7.07468">
        <ele>963.79998779297</ele>
        <time>2011-12-17T13:19:36.000Z</time>
      </trkpt>
      <trkpt lat="43.76062" lon="7.07467">
        <ele>963.79998779297</ele>
        <time>2011-12-17T13:19:55.000Z</time>
      </trkpt>
      <trkpt lat="43.76065" lon="7.07468">
        <ele>963.79998779297</ele>
        <time>2011-12-17T13:20:14.000Z</time>
      </trkpt>
      <trkpt lat="43.76068" lon="7.0747">
        <ele>963.79998779297</ele>
        <time>2011-12-17T13:20:37.000Z</time>
      </trkpt>
      <trkpt lat="43.76069" lon="7.07469">
        <ele>963.79998779297</ele>
        <time>2011-12-17T13:20:51.000Z</time>
      </trkpt>
      <trkpt lat="43.76063" lon="7.07476">
        <ele>963.79998779297</ele>
        <time>2011-12-17T13:21:14.000Z</time>
      </trkpt>
      <trkpt lat="43.76052" lon="7.07481">
        <ele>964</ele>
        <time>2011-12-17T13:23:29.000Z</time>
      </trkpt>
      <trkpt lat="43.76055" lon="7.07483">
        <ele>964</ele>
        <time>2011-12-17T13:24:14.000Z</time>
      </trkpt>
      <trkpt lat="43.76053" lon="7.07486">
        <ele>964</ele>
        <time>2011-12-17T13:24:57.000Z</time>
      </trkpt>
      <trkpt lat="43.76054" lon="7.07483">
        <ele>964</ele>
        <time>2011-12-17T13:25:04.000Z</time>
      </trkpt>
      <trkpt lat="43.76058" lon="7.07479">
        <ele>964</ele>
        <time>2011-12-17T13:25:10.000Z</time>
      </trkpt>
      <trkpt lat="43.76059" lon="7.07472">
        <ele>963.79998779297</ele>
        <time>2011-12-17T13:25:14.000Z</time>
      </trkpt>
      <trkpt lat="43.76056" lon="7.07462">
        <ele>963.79998779297</ele>
        <time>2011-12-17T13:25:18.000Z</time>
      </trkpt>
      <trkpt lat="43.76043" lon="7.07424">
        <ele>964</ele>
        <time>2011-12-17T13:25:29.000Z</time>
      </trkpt>
      <trkpt lat="43.76035" lon="7.07409">
        <ele>964.20001220703</ele>
        <time>2011-12-17T13:25:34.000Z</time>
      </trkpt>
      <trkpt lat="43.76021" lon="7.07383">
        <ele>964.59997558594</ele>
        <time>2011-12-17T13:25:42.000Z</time>
      </trkpt>
      <trkpt lat="43.7601" lon="7.07372">
        <ele>965.20001220703</ele>
        <time>2011-12-17T13:25:48.000Z</time>
      </trkpt>
      <trkpt lat="43.75994" lon="7.0737">
        <ele>965.59997558594</ele>
        <time>2011-12-17T13:25:55.000Z</time>
      </trkpt>
      <trkpt lat="43.75978" lon="7.07364">
        <ele>966</ele>
        <time>2011-12-17T13:26:03.000Z</time>
      </trkpt>
      <trkpt lat="43.75963" lon="7.07363">
        <ele>966.20001220703</ele>
        <time>2011-12-17T13:26:09.000Z</time>
      </trkpt>
      <trkpt lat="43.75941" lon="7.07367">
        <ele>966.40002441406</ele>
        <time>2011-12-17T13:26:17.000Z</time>
      </trkpt>
      <trkpt lat="43.75926" lon="7.07367">
        <ele>966.59997558594</ele>
        <time>2011-12-17T13:26:23.000Z</time>
      </trkpt>
      <trkpt lat="43.75915" lon="7.07365">
        <ele>966.59997558594</ele>
        <time>2011-12-17T13:26:28.000Z</time>
      </trkpt>
      <trkpt lat="43.75905" lon="7.0735">
        <ele>965.59997558594</ele>
        <time>2011-12-17T13:26:34.000Z</time>
      </trkpt>
      <trkpt lat="43.75894" lon="7.07344">
        <ele>964.40002441406</ele>
        <time>2011-12-17T13:26:39.000Z</time>
      </trkpt>
      <trkpt lat="43.75891" lon="7.07342">
        <ele>964</ele>
        <time>2011-12-17T13:26:41.000Z</time>
      </trkpt>
      <trkpt lat="43.75879" lon="7.07335">
        <ele>962.59997558594</ele>
        <time>2011-12-17T13:26:47.000Z</time>
      </trkpt>
      <trkpt lat="43.75873" lon="7.07326">
        <ele>961.79998779297</ele>
        <time>2011-12-17T13:26:51.000Z</time>
      </trkpt>
      <trkpt lat="43.75868" lon="7.07319">
        <ele>961.20001220703</ele>
        <time>2011-12-17T13:26:54.000Z</time>
      </trkpt>
      <trkpt lat="43.75867" lon="7.07316">
        <ele>961</ele>
        <time>2011-12-17T13:27:02.000Z</time>
      </trkpt>
      <trkpt lat="43.75865" lon="7.07317">
        <ele>960.79998779297</ele>
        <time>2011-12-17T13:27:25.000Z</time>
      </trkpt>
      <trkpt lat="43.75864" lon="7.07318">
        <ele>960.59997558594</ele>
        <time>2011-12-17T13:27:32.000Z</time>
      </trkpt>
      <trkpt lat="43.7586" lon="7.07316">
        <ele>960</ele>
        <time>2011-12-17T13:27:38.000Z</time>
      </trkpt>
      <trkpt lat="43.75858" lon="7.07317">
        <ele>959.79998779297</ele>
        <time>2011-12-17T13:27:46.000Z</time>
      </trkpt>
      <trkpt lat="43.75855" lon="7.07317">
        <ele>959.40002441406</ele>
        <time>2011-12-17T13:27:53.000Z</time>
      </trkpt>
      <trkpt lat="43.75853" lon="7.07316">
        <ele>959.20001220703</ele>
        <time>2011-12-17T13:28:00.000Z</time>
      </trkpt>
      <trkpt lat="43.7585" lon="7.07311">
        <ele>958.79998779297</ele>
        <time>2011-12-17T13:28:06.000Z</time>
      </trkpt>
      <trkpt lat="43.75844" lon="7.07303">
        <ele>958.20001220703</ele>
        <time>2011-12-17T13:28:14.000Z</time>
      </trkpt>
      <trkpt lat="43.75843" lon="7.07297">
        <ele>958</ele>
        <time>2011-12-17T13:28:20.000Z</time>
      </trkpt>
      <trkpt lat="43.75844" lon="7.07293">
        <ele>958.40002441406</ele>
        <time>2011-12-17T13:28:25.000Z</time>
      </trkpt>
      <trkpt lat="43.75841" lon="7.07287">
        <ele>958.20001220703</ele>
        <time>2011-12-17T13:28:31.000Z</time>
      </trkpt>
      <trkpt lat="43.75837" lon="7.07281">
        <ele>957.79998779297</ele>
        <time>2011-12-17T13:28:39.000Z</time>
      </trkpt>
      <trkpt lat="43.75834" lon="7.07278">
        <ele>957.40002441406</ele>
        <time>2011-12-17T13:28:46.000Z</time>
      </trkpt>
      <trkpt lat="43.75833" lon="7.07275">
        <ele>957.40002441406</ele>
        <time>2011-12-17T13:28:55.000Z</time>
      </trkpt>
      <trkpt lat="43.75829" lon="7.0727">
        <ele>956.59997558594</ele>
        <time>2011-12-17T13:29:00.000Z</time>
      </trkpt>
      <trkpt lat="43.75823" lon="7.07262">
        <ele>955.79998779297</ele>
        <time>2011-12-17T13:29:04.000Z</time>
      </trkpt>
      <trkpt lat="43.7582" lon="7.07262">
        <ele>955.20001220703</ele>
        <time>2011-12-17T13:29:10.000Z</time>
      </trkpt>
      <trkpt lat="43.75818" lon="7.0726">
        <ele>954.79998779297</ele>
        <time>2011-12-17T13:29:15.000Z</time>
      </trkpt>
      <trkpt lat="43.75816" lon="7.0726">
        <ele>954.59997558594</ele>
        <time>2011-12-17T13:29:20.000Z</time>
      </trkpt>
      <trkpt lat="43.75811" lon="7.07259">
        <ele>953.59997558594</ele>
        <time>2011-12-17T13:29:27.000Z</time>
      </trkpt>
      <trkpt lat="43.75808" lon="7.07253">
        <ele>953.20001220703</ele>
        <time>2011-12-17T13:29:33.000Z</time>
      </trkpt>
      <trkpt lat="43.75804" lon="7.07251">
        <ele>952.59997558594</ele>
        <time>2011-12-17T13:29:39.000Z</time>
      </trkpt>
      <trkpt lat="43.758" lon="7.07248">
        <ele>952.20001220703</ele>
        <time>2011-12-17T13:29:45.000Z</time>
      </trkpt>
      <trkpt lat="43.75796" lon="7.07246">
        <ele>951.59997558594</ele>
        <time>2011-12-17T13:29:51.000Z</time>
      </trkpt>
      <trkpt lat="43.75791" lon="7.0724">
        <ele>951.40002441406</ele>
        <time>2011-12-17T13:29:56.000Z</time>
      </trkpt>
      <trkpt lat="43.7579" lon="7.07237">
        <ele>951.40002441406</ele>
        <time>2011-12-17T13:29:57.000Z</time>
      </trkpt>
      <trkpt lat="43.75777" lon="7.07231">
        <ele>949.79998779297</ele>
        <time>2011-12-17T13:30:03.000Z</time>
      </trkpt>
      <trkpt lat="43.75766" lon="7.07224">
        <ele>948.40002441406</ele>
        <time>2011-12-17T13:30:07.000Z</time>
      </trkpt>
      <trkpt lat="43.75757" lon="7.07216">
        <ele>947.79998779297</ele>
        <time>2011-12-17T13:30:11.000Z</time>
      </trkpt>
      <trkpt lat="43.75758" lon="7.07215">
        <ele>948</ele>
        <time>2011-12-17T13:30:17.000Z</time>
      </trkpt>
      <trkpt lat="43.75761" lon="7.07221">
        <ele>948</ele>
        <time>2011-12-17T13:30:22.000Z</time>
      </trkpt>
      <trkpt lat="43.75759" lon="7.07222">
        <ele>947.40002441406</ele>
        <time>2011-12-17T13:30:24.000Z</time>
      </trkpt>
      <trkpt lat="43.75739" lon="7.07234">
        <ele>943.59997558594</ele>
        <time>2011-12-17T13:30:30.000Z</time>
      </trkpt>
      <trkpt lat="43.75736" lon="7.07236">
        <ele>943</ele>
        <time>2011-12-17T13:30:31.000Z</time>
      </trkpt>
      <trkpt lat="43.75732" lon="7.07236">
        <ele>942.40002441406</ele>
        <time>2011-12-17T13:30:36.000Z</time>
      </trkpt>
      <trkpt lat="43.7573" lon="7.07237">
        <ele>942.20001220703</ele>
        <time>2011-12-17T13:30:44.000Z</time>
      </trkpt>
      <trkpt lat="43.75731" lon="7.07239">
        <ele>942.20001220703</ele>
        <time>2011-12-17T13:30:58.000Z</time>
      </trkpt>
      <trkpt lat="43.75732" lon="7.07237">
        <ele>942.40002441406</ele>
        <time>2011-12-17T13:31:09.000Z</time>
      </trkpt>
      <trkpt lat="43.75733" lon="7.07233">
        <ele>942.79998779297</ele>
        <time>2011-12-17T13:31:32.000Z</time>
      </trkpt>
      <trkpt lat="43.75732" lon="7.07231">
        <ele>943.20001220703</ele>
        <time>2011-12-17T13:31:34.000Z</time>
      </trkpt>
      <trkpt lat="43.75737" lon="7.0721">
        <ele>946</ele>
        <time>2011-12-17T13:31:40.000Z</time>
      </trkpt>
      <trkpt lat="43.75734" lon="7.07193">
        <ele>947.59997558594</ele>
        <time>2011-12-17T13:31:45.000Z</time>
      </trkpt>
      <trkpt lat="43.75721" lon="7.07191">
        <ele>946.79998779297</ele>
        <time>2011-12-17T13:31:50.000Z</time>
      </trkpt>
      <trkpt lat="43.75698" lon="7.07194">
        <ele>944.20001220703</ele>
        <time>2011-12-17T13:31:57.000Z</time>
      </trkpt>
      <trkpt lat="43.7567" lon="7.07194">
        <ele>941.40002441406</ele>
        <time>2011-12-17T13:32:06.000Z</time>
      </trkpt>
      <trkpt lat="43.75654" lon="7.07181">
        <ele>941.59997558594</ele>
        <time>2011-12-17T13:32:12.000Z</time>
      </trkpt>
      <trkpt lat="43.75646" lon="7.07163">
        <ele>943</ele>
        <time>2011-12-17T13:32:17.000Z</time>
      </trkpt>
      <trkpt lat="43.75642" lon="7.07136">
        <ele>945</ele>
        <time>2011-12-17T13:32:25.000Z</time>
      </trkpt>
      <trkpt lat="43.75641" lon="7.0711">
        <ele>947</ele>
        <time>2011-12-17T13:32:33.000Z</time>
      </trkpt>
      <trkpt lat="43.75631" lon="7.07088">
        <ele>947.79998779297</ele>
        <time>2011-12-17T13:32:42.000Z</time>
      </trkpt>
      <trkpt lat="43.75617" lon="7.07062">
        <ele>947.20001220703</ele>
        <time>2011-12-17T13:32:51.000Z</time>
      </trkpt>
      <trkpt lat="43.75607" lon="7.07034">
        <ele>947.20001220703</ele>
        <time>2011-12-17T13:32:59.000Z</time>
      </trkpt>
      <trkpt lat="43.75594" lon="7.07003">
        <ele>947</ele>
        <time>2011-12-17T13:33:07.000Z</time>
      </trkpt>
      <trkpt lat="43.75578" lon="7.06976">
        <ele>947.20001220703</ele>
        <time>2011-12-17T13:33:15.000Z</time>
      </trkpt>
      <trkpt lat="43.75566" lon="7.06957">
        <ele>947</ele>
        <time>2011-12-17T13:33:22.000Z</time>
      </trkpt>
      <trkpt lat="43.75556" lon="7.06936">
        <ele>946.79998779297</ele>
        <time>2011-12-17T13:33:30.000Z</time>
      </trkpt>
      <trkpt lat="43.7555" lon="7.06922">
        <ele>946.79998779297</ele>
        <time>2011-12-17T13:33:36.000Z</time>
      </trkpt>
      <trkpt lat="43.75546" lon="7.06898">
        <ele>947</ele>
        <time>2011-12-17T13:33:43.000Z</time>
      </trkpt>
      <trkpt lat="43.75542" lon="7.06862">
        <ele>947.40002441406</ele>
        <time>2011-12-17T13:33:50.000Z</time>
      </trkpt>
      <trkpt lat="43.75537" lon="7.06828">
        <ele>947.59997558594</ele>
        <time>2011-12-17T13:33:57.000Z</time>
      </trkpt>
      <trkpt lat="43.75524" lon="7.06816">
        <ele>946.40002441406</ele>
        <time>2011-12-17T13:34:02.000Z</time>
      </trkpt>
      <trkpt lat="43.75515" lon="7.06805">
        <ele>945.59997558594</ele>
        <time>2011-12-17T13:34:07.000Z</time>
      </trkpt>
      <trkpt lat="43.75508" lon="7.06789">
        <ele>945.40002441406</ele>
        <time>2011-12-17T13:34:14.000Z</time>
      </trkpt>
      <trkpt lat="43.75507" lon="7.06785">
        <ele>945.40002441406</ele>
        <time>2011-12-17T13:34:20.000Z</time>
      </trkpt>
      <trkpt lat="43.75507" lon="7.06789">
        <ele>945.40002441406</ele>
        <time>2011-12-17T13:34:36.000Z</time>
      </trkpt>
      <trkpt lat="43.75507" lon="7.06788">
        <ele>945.40002441406</ele>
        <time>2011-12-17T13:34:47.000Z</time>
      </trkpt>
      <trkpt lat="43.75505" lon="7.0679">
        <ele>945.20001220703</ele>
        <time>2011-12-17T13:34:56.000Z</time>
      </trkpt>
      <trkpt lat="43.75506" lon="7.06789">
        <ele>945.20001220703</ele>
        <time>2011-12-17T13:35:14.000Z</time>
      </trkpt>
      <trkpt lat="43.75507" lon="7.06792">
        <ele>945.20001220703</ele>
        <time>2011-12-17T13:35:29.000Z</time>
      </trkpt>
      <trkpt lat="43.75514" lon="7.06803">
        <ele>945.59997558594</ele>
        <time>2011-12-17T13:35:35.000Z</time>
      </trkpt>
      <trkpt lat="43.75521" lon="7.06801">
        <ele>946.40002441406</ele>
        <time>2011-12-17T13:35:40.000Z</time>
      </trkpt>
      <trkpt lat="43.75531" lon="7.06803">
        <ele>947.40002441406</ele>
        <time>2011-12-17T13:35:45.000Z</time>
      </trkpt>
      <trkpt lat="43.75534" lon="7.06806">
        <ele>947.59997558594</ele>
        <time>2011-12-17T13:35:49.000Z</time>
      </trkpt>
      <trkpt lat="43.75535" lon="7.06807">
        <ele>947.79998779297</ele>
        <time>2011-12-17T13:35:54.000Z</time>
      </trkpt>
      <trkpt lat="43.75538" lon="7.06807">
        <ele>948.20001220703</ele>
        <time>2011-12-17T13:35:57.000Z</time>
      </trkpt>
      <trkpt lat="43.75541" lon="7.06805">
        <ele>948.40002441406</ele>
        <time>2011-12-17T13:36:01.000Z</time>
      </trkpt>
      <trkpt lat="43.75549" lon="7.06794">
        <ele>949.40002441406</ele>
        <time>2011-12-17T13:36:07.000Z</time>
      </trkpt>
      <trkpt lat="43.7555" lon="7.06793">
        <ele>949.59997558594</ele>
        <time>2011-12-17T13:36:09.000Z</time>
      </trkpt>
      <trkpt lat="43.75551" lon="7.06793">
        <ele>949.79998779297</ele>
        <time>2011-12-17T13:36:11.000Z</time>
      </trkpt>
      <trkpt lat="43.75557" lon="7.06787">
        <ele>950.40002441406</ele>
        <time>2011-12-17T13:36:17.000Z</time>
      </trkpt>
      <trkpt lat="43.75559" lon="7.06775">
        <ele>950.59997558594</ele>
        <time>2011-12-17T13:36:22.000Z</time>
      </trkpt>
      <trkpt lat="43.75558" lon="7.06772">
        <ele>950.59997558594</ele>
        <time>2011-12-17T13:36:23.000Z</time>
      </trkpt>
      <trkpt lat="43.75552" lon="7.06738">
        <ele>951</ele>
        <time>2011-12-17T13:36:33.000Z</time>
      </trkpt>
      <trkpt lat="43.75545" lon="7.06718">
        <ele>951.79998779297</ele>
        <time>2011-12-17T13:36:40.000Z</time>
      </trkpt>
      <trkpt lat="43.7554" lon="7.067">
        <ele>952.79998779297</ele>
        <time>2011-12-17T13:36:48.000Z</time>
      </trkpt>
      <trkpt lat="43.75535" lon="7.06688">
        <ele>953.40002441406</ele>
        <time>2011-12-17T13:36:55.000Z</time>
      </trkpt>
      <trkpt lat="43.75528" lon="7.06678">
        <ele>953.79998779297</ele>
        <time>2011-12-17T13:37:01.000Z</time>
      </trkpt>
      <trkpt lat="43.75523" lon="7.06665">
        <ele>954.59997558594</ele>
        <time>2011-12-17T13:37:08.000Z</time>
      </trkpt>
      <trkpt lat="43.75516" lon="7.06654">
        <ele>955.20001220703</ele>
        <time>2011-12-17T13:37:15.000Z</time>
      </trkpt>
      <trkpt lat="43.75505" lon="7.06642">
        <ele>955.79998779297</ele>
        <time>2011-12-17T13:37:23.000Z</time>
      </trkpt>
      <trkpt lat="43.75499" lon="7.06633">
        <ele>956.40002441406</ele>
        <time>2011-12-17T13:37:28.000Z</time>
      </trkpt>
      <trkpt lat="43.75497" lon="7.06618">
        <ele>957.20001220703</ele>
        <time>2011-12-17T13:37:34.000Z</time>
      </trkpt>
      <trkpt lat="43.75493" lon="7.06597">
        <ele>958.40002441406</ele>
        <time>2011-12-17T13:37:41.000Z</time>
      </trkpt>
      <trkpt lat="43.75488" lon="7.06581">
        <ele>959.20001220703</ele>
        <time>2011-12-17T13:37:47.000Z</time>
      </trkpt>
      <trkpt lat="43.75476" lon="7.06571">
        <ele>958.79998779297</ele>
        <time>2011-12-17T13:37:52.000Z</time>
      </trkpt>
      <trkpt lat="43.75461" lon="7.0656">
        <ele>958.59997558594</ele>
        <time>2011-12-17T13:37:58.000Z</time>
      </trkpt>
      <trkpt lat="43.75441" lon="7.06545">
        <ele>958.59997558594</ele>
        <time>2011-12-17T13:38:03.000Z</time>
      </trkpt>
      <trkpt lat="43.75417" lon="7.06521">
        <ele>960</ele>
        <time>2011-12-17T13:38:09.000Z</time>
      </trkpt>
      <trkpt lat="43.7541" lon="7.06511">
        <ele>961.20001220703</ele>
        <time>2011-12-17T13:38:13.000Z</time>
      </trkpt>
      <trkpt lat="43.75401" lon="7.06496">
        <ele>962.59997558594</ele>
        <time>2011-12-17T13:38:20.000Z</time>
      </trkpt>
      <trkpt lat="43.75395" lon="7.06483">
        <ele>964</ele>
        <time>2011-12-17T13:38:26.000Z</time>
      </trkpt>
      <trkpt lat="43.75393" lon="7.0648">
        <ele>964.40002441406</ele>
        <time>2011-12-17T13:38:28.000Z</time>
      </trkpt>
      <trkpt lat="43.75392" lon="7.06472">
        <ele>965</ele>
        <time>2011-12-17T13:38:34.000Z</time>
      </trkpt>
      <trkpt lat="43.75392" lon="7.06469">
        <ele>965.40002441406</ele>
        <time>2011-12-17T13:38:38.000Z</time>
      </trkpt>
      <trkpt lat="43.75389" lon="7.06468">
        <ele>965.40002441406</ele>
        <time>2011-12-17T13:38:40.000Z</time>
      </trkpt>
      <trkpt lat="43.75373" lon="7.06461">
        <ele>966.59997558594</ele>
        <time>2011-12-17T13:38:48.000Z</time>
      </trkpt>
      <trkpt lat="43.75362" lon="7.06455">
        <ele>967.40002441406</ele>
        <time>2011-12-17T13:38:54.000Z</time>
      </trkpt>
      <trkpt lat="43.7535" lon="7.06443">
        <ele>969</ele>
        <time>2011-12-17T13:39:03.000Z</time>
      </trkpt>
      <trkpt lat="43.75349" lon="7.06442">
        <ele>969</ele>
        <time>2011-12-17T13:39:04.000Z</time>
      </trkpt>
      <trkpt lat="43.75338" lon="7.06434">
        <ele>970.20001220703</ele>
        <time>2011-12-17T13:39:13.000Z</time>
      </trkpt>
      <trkpt lat="43.7533" lon="7.06421">
        <ele>971.59997558594</ele>
        <time>2011-12-17T13:39:21.000Z</time>
      </trkpt>
      <trkpt lat="43.75321" lon="7.06412">
        <ele>971.79998779297</ele>
        <time>2011-12-17T13:39:27.000Z</time>
      </trkpt>
      <trkpt lat="43.7531" lon="7.06399">
        <ele>972.20001220703</ele>
        <time>2011-12-17T13:39:34.000Z</time>
      </trkpt>
      <trkpt lat="43.75299" lon="7.06396">
        <ele>972</ele>
        <time>2011-12-17T13:39:40.000Z</time>
      </trkpt>
      <trkpt lat="43.75284" lon="7.06389">
        <ele>971.79998779297</ele>
        <time>2011-12-17T13:39:49.000Z</time>
      </trkpt>
      <trkpt lat="43.75275" lon="7.06382">
        <ele>972</ele>
        <time>2011-12-17T13:39:56.000Z</time>
      </trkpt>
      <trkpt lat="43.75265" lon="7.06374">
        <ele>972.20001220703</ele>
        <time>2011-12-17T13:40:03.000Z</time>
      </trkpt>
      <trkpt lat="43.75264" lon="7.06372">
        <ele>972.20001220703</ele>
        <time>2011-12-17T13:40:04.000Z</time>
      </trkpt>
      <trkpt lat="43.75264" lon="7.06372">
        <ele>972.20001220703</ele>
        <time>2011-12-17T13:40:13.000Z</time>
      </trkpt>
      <trkpt lat="43.75266" lon="7.06369">
        <ele>972.40002441406</ele>
        <time>2011-12-17T13:40:23.000Z</time>
      </trkpt>
      <trkpt lat="43.75264" lon="7.06355">
        <ele>973.20001220703</ele>
        <time>2011-12-17T13:40:27.000Z</time>
      </trkpt>
      <trkpt lat="43.75262" lon="7.06344">
        <ele>973.79998779297</ele>
        <time>2011-12-17T13:40:30.000Z</time>
      </trkpt>
      <trkpt lat="43.75254" lon="7.06331">
        <ele>974.20001220703</ele>
        <time>2011-12-17T13:40:35.000Z</time>
      </trkpt>
      <trkpt lat="43.75254" lon="7.06308">
        <ele>974.20001220703</ele>
        <time>2011-12-17T13:40:40.000Z</time>
      </trkpt>
      <trkpt lat="43.75247" lon="7.06296">
        <ele>973.79998779297</ele>
        <time>2011-12-17T13:40:44.000Z</time>
      </trkpt>
      <trkpt lat="43.75237" lon="7.06276">
        <ele>972.59997558594</ele>
        <time>2011-12-17T13:40:50.000Z</time>
      </trkpt>
      <trkpt lat="43.75233" lon="7.06257">
        <ele>972.20001220703</ele>
        <time>2011-12-17T13:40:56.000Z</time>
      </trkpt>
      <trkpt lat="43.75226" lon="7.06242">
        <ele>971.40002441406</ele>
        <time>2011-12-17T13:41:01.000Z</time>
      </trkpt>
      <trkpt lat="43.75223" lon="7.06226">
        <ele>971.20001220703</ele>
        <time>2011-12-17T13:41:06.000Z</time>
      </trkpt>
      <trkpt lat="43.75217" lon="7.06214">
        <ele>970.59997558594</ele>
        <time>2011-12-17T13:41:10.000Z</time>
      </trkpt>
      <trkpt lat="43.75203" lon="7.06194">
        <ele>969.20001220703</ele>
        <time>2011-12-17T13:41:15.000Z</time>
      </trkpt>
      <trkpt lat="43.75192" lon="7.06177">
        <ele>968</ele>
        <time>2011-12-17T13:41:19.000Z</time>
      </trkpt>
      <trkpt lat="43.7518" lon="7.06162">
        <ele>966.59997558594</ele>
        <time>2011-12-17T13:41:23.000Z</time>
      </trkpt>
      <trkpt lat="43.75164" lon="7.0614">
        <ele>965.79998779297</ele>
        <time>2011-12-17T13:41:29.000Z</time>
      </trkpt>
      <trkpt lat="43.75158" lon="7.06131">
        <ele>965.40002441406</ele>
        <time>2011-12-17T13:41:31.000Z</time>
      </trkpt>
      <trkpt lat="43.75138" lon="7.06106">
        <ele>964.40002441406</ele>
        <time>2011-12-17T13:41:38.000Z</time>
      </trkpt>
      <trkpt lat="43.75136" lon="7.06105">
        <ele>964.20001220703</ele>
        <time>2011-12-17T13:41:41.000Z</time>
      </trkpt>
      <trkpt lat="43.75136" lon="7.06108">
        <ele>964.20001220703</ele>
        <time>2011-12-17T13:41:52.000Z</time>
      </trkpt>
      <trkpt lat="43.75137" lon="7.06108">
        <ele>964.20001220703</ele>
        <time>2011-12-17T13:42:01.000Z</time>
      </trkpt>
      <trkpt lat="43.75137" lon="7.06108">
        <ele>964.40002441406</ele>
        <time>2011-12-17T13:42:12.000Z</time>
      </trkpt>
      <trkpt lat="43.7514" lon="7.06109">
        <ele>964.59997558594</ele>
        <time>2011-12-17T13:42:18.000Z</time>
      </trkpt>
      <trkpt lat="43.7514" lon="7.06107">
        <ele>964.59997558594</ele>
        <time>2011-12-17T13:42:25.000Z</time>
      </trkpt>
      <trkpt lat="43.7514" lon="7.06108">
        <ele>964.59997558594</ele>
        <time>2011-12-17T13:42:31.000Z</time>
      </trkpt>
      <trkpt lat="43.75139" lon="7.06108">
        <ele>964.40002441406</ele>
        <time>2011-12-17T13:42:43.000Z</time>
      </trkpt>
      <trkpt lat="43.75139" lon="7.06107">
        <ele>964.40002441406</ele>
        <time>2011-12-17T13:43:11.000Z</time>
      </trkpt>
      <trkpt lat="43.7514" lon="7.06107">
        <ele>964.59997558594</ele>
        <time>2011-12-17T13:43:25.000Z</time>
      </trkpt>
      <trkpt lat="43.75141" lon="7.06108">
        <ele>964.79998779297</ele>
        <time>2011-12-17T13:43:48.000Z</time>
      </trkpt>
      <trkpt lat="43.75142" lon="7.06107">
        <ele>964.79998779297</ele>
        <time>2011-12-17T13:43:53.000Z</time>
      </trkpt>
      <trkpt lat="43.7514" lon="7.06106">
        <ele>964.59997558594</ele>
        <time>2011-12-17T13:44:30.000Z</time>
      </trkpt>
      <trkpt lat="43.75141" lon="7.06106">
        <ele>964.79998779297</ele>
        <time>2011-12-17T13:44:44.000Z</time>
      </trkpt>
      <trkpt lat="43.7514" lon="7.06105">
        <ele>964.59997558594</ele>
        <time>2011-12-17T13:45:03.000Z</time>
      </trkpt>
      <trkpt lat="43.75141" lon="7.06105">
        <ele>964.79998779297</ele>
        <time>2011-12-17T13:45:44.000Z</time>
      </trkpt>
      <trkpt lat="43.75139" lon="7.06107">
        <ele>964.40002441406</ele>
        <time>2011-12-17T13:46:35.000Z</time>
      </trkpt>
      <trkpt lat="43.75139" lon="7.06108">
        <ele>964.40002441406</ele>
        <time>2011-12-17T13:46:43.000Z</time>
      </trkpt>
      <trkpt lat="43.75139" lon="7.06109">
        <ele>964.40002441406</ele>
        <time>2011-12-17T13:46:53.000Z</time>
      </trkpt>
      <trkpt lat="43.75142" lon="7.06109">
        <ele>964.59997558594</ele>
        <time>2011-12-17T13:47:04.000Z</time>
      </trkpt>
      <trkpt lat="43.75141" lon="7.06108">
        <ele>964.59997558594</ele>
        <time>2011-12-17T13:47:17.000Z</time>
      </trkpt>
      <trkpt lat="43.75141" lon="7.06108">
        <ele>964.59997558594</ele>
        <time>2011-12-17T13:47:30.000Z</time>
      </trkpt>
      <trkpt lat="43.75141" lon="7.06108">
        <ele>964.59997558594</ele>
        <time>2011-12-17T13:47:40.000Z</time>
      </trkpt>
      <trkpt lat="43.75141" lon="7.06109">
        <ele>964.59997558594</ele>
        <time>2011-12-17T13:47:46.000Z</time>
      </trkpt>
      <trkpt lat="43.7514" lon="7.06108">
        <ele>964.59997558594</ele>
        <time>2011-12-17T13:47:56.000Z</time>
      </trkpt>
      <trkpt lat="43.75141" lon="7.06109">
        <ele>964.59997558594</ele>
        <time>2011-12-17T13:48:03.000Z</time>
      </trkpt>
      <trkpt lat="43.75142" lon="7.06109">
        <ele>964.59997558594</ele>
        <time>2011-12-17T13:48:14.000Z</time>
      </trkpt>
      <trkpt lat="43.75142" lon="7.0611">
        <ele>964.59997558594</ele>
        <time>2011-12-17T13:48:19.000Z</time>
      </trkpt>
      <trkpt lat="43.75141" lon="7.06109">
        <ele>964.59997558594</ele>
        <time>2011-12-17T13:48:28.000Z</time>
      </trkpt>
      <trkpt lat="43.7514" lon="7.06109">
        <ele>964.59997558594</ele>
        <time>2011-12-17T13:48:34.000Z</time>
      </trkpt>
      <trkpt lat="43.75141" lon="7.06108">
        <ele>964.59997558594</ele>
        <time>2011-12-17T13:48:42.000Z</time>
      </trkpt>
      <trkpt lat="43.75139" lon="7.06109">
        <ele>964.40002441406</ele>
        <time>2011-12-17T13:48:50.000Z</time>
      </trkpt>
      <trkpt lat="43.7514" lon="7.06109">
        <ele>964.59997558594</ele>
        <time>2011-12-17T13:48:55.000Z</time>
      </trkpt>
      <trkpt lat="43.75141" lon="7.06109">
        <ele>964.59997558594</ele>
        <time>2011-12-17T13:49:00.000Z</time>
      </trkpt>
      <trkpt lat="43.75142" lon="7.0611">
        <ele>964.59997558594</ele>
        <time>2011-12-17T13:49:08.000Z</time>
      </trkpt>
      <trkpt lat="43.75143" lon="7.06112">
        <ele>964.59997558594</ele>
        <time>2011-12-17T13:49:29.000Z</time>
      </trkpt>
      <trkpt lat="43.75143" lon="7.06114">
        <ele>964.59997558594</ele>
        <time>2011-12-17T13:49:35.000Z</time>
      </trkpt>
      <trkpt lat="43.75143" lon="7.06114">
        <ele>964.59997558594</ele>
        <time>2011-12-17T13:49:40.000Z</time>
      </trkpt>
      <trkpt lat="43.75142" lon="7.06115">
        <ele>964.40002441406</ele>
        <time>2011-12-17T13:49:46.000Z</time>
      </trkpt>
      <trkpt lat="43.75141" lon="7.06114">
        <ele>964.40002441406</ele>
        <time>2011-12-17T13:49:53.000Z</time>
      </trkpt>
      <trkpt lat="43.75141" lon="7.06112">
        <ele>964.59997558594</ele>
        <time>2011-12-17T13:50:01.000Z</time>
      </trkpt>
      <trkpt lat="43.75141" lon="7.0611">
        <ele>964.59997558594</ele>
        <time>2011-12-17T13:50:40.000Z</time>
      </trkpt>
      <trkpt lat="43.75141" lon="7.06108">
        <ele>964.59997558594</ele>
        <time>2011-12-17T13:50:50.000Z</time>
      </trkpt>
      <trkpt lat="43.75142" lon="7.06107">
        <ele>964.79998779297</ele>
        <time>2011-12-17T13:51:03.000Z</time>
      </trkpt>
      <trkpt lat="43.75142" lon="7.06107">
        <ele>964.79998779297</ele>
        <time>2011-12-17T13:51:09.000Z</time>
      </trkpt>
      <trkpt lat="43.75142" lon="7.06108">
        <ele>964.79998779297</ele>
        <time>2011-12-17T13:51:21.000Z</time>
      </trkpt>
      <trkpt lat="43.75142" lon="7.0611">
        <ele>964.59997558594</ele>
        <time>2011-12-17T13:51:29.000Z</time>
      </trkpt>
      <trkpt lat="43.75141" lon="7.06108">
        <ele>964.59997558594</ele>
        <time>2011-12-17T13:51:46.000Z</time>
      </trkpt>
      <trkpt lat="43.75142" lon="7.06108">
        <ele>964.79998779297</ele>
        <time>2011-12-17T13:51:54.000Z</time>
      </trkpt>
      <trkpt lat="43.75142" lon="7.06107">
        <ele>964.79998779297</ele>
        <time>2011-12-17T13:52:00.000Z</time>
      </trkpt>
      <trkpt lat="43.75143" lon="7.06108">
        <ele>964.79998779297</ele>
        <time>2011-12-17T13:52:07.000Z</time>
      </trkpt>
      <trkpt lat="43.75143" lon="7.06108">
        <ele>964.79998779297</ele>
        <time>2011-12-17T13:52:19.000Z</time>
      </trkpt>
      <trkpt lat="43.75141" lon="7.06107">
        <ele>964.59997558594</ele>
        <time>2011-12-17T13:52:26.000Z</time>
      </trkpt>
      <trkpt lat="43.75139" lon="7.06105">
        <ele>964.59997558594</ele>
        <time>2011-12-17T13:52:33.000Z</time>
      </trkpt>
      <trkpt lat="43.75138" lon="7.06108">
        <ele>964.40002441406</ele>
        <time>2011-12-17T13:52:40.000Z</time>
      </trkpt>
      <trkpt lat="43.75139" lon="7.0611">
        <ele>964.40002441406</ele>
        <time>2011-12-17T13:52:53.000Z</time>
      </trkpt>
      <trkpt lat="43.75138" lon="7.06108">
        <ele>964.40002441406</ele>
        <time>2011-12-17T13:52:58.000Z</time>
      </trkpt>
      <trkpt lat="43.75139" lon="7.06108">
        <ele>964.40002441406</ele>
        <time>2011-12-17T13:53:03.000Z</time>
      </trkpt>
      <trkpt lat="43.75139" lon="7.06107">
        <ele>964.40002441406</ele>
        <time>2011-12-17T13:53:15.000Z</time>
      </trkpt>
      <trkpt lat="43.75139" lon="7.06107">
        <ele>964.40002441406</ele>
        <time>2011-12-17T13:53:26.000Z</time>
      </trkpt>
      <trkpt lat="43.75138" lon="7.06106">
        <ele>964.40002441406</ele>
        <time>2011-12-17T13:53:35.000Z</time>
      </trkpt>
      <trkpt lat="43.75128" lon="7.06098">
        <ele>963.79998779297</ele>
        <time>2011-12-17T13:53:41.000Z</time>
      </trkpt>
      <trkpt lat="43.75117" lon="7.06084">
        <ele>963.20001220703</ele>
        <time>2011-12-17T13:53:47.000Z</time>
      </trkpt>
      <trkpt lat="43.75107" lon="7.06078">
        <ele>962.59997558594</ele>
        <time>2011-12-17T13:53:51.000Z</time>
      </trkpt>
      <trkpt lat="43.75103" lon="7.06074">
        <ele>962.59997558594</ele>
        <time>2011-12-17T13:53:53.000Z</time>
      </trkpt>
      <trkpt lat="43.75096" lon="7.0607">
        <ele>962.20001220703</ele>
        <time>2011-12-17T13:53:58.000Z</time>
      </trkpt>
      <trkpt lat="43.75088" lon="7.06065">
        <ele>961.79998779297</ele>
        <time>2011-12-17T13:54:02.000Z</time>
      </trkpt>
      <trkpt lat="43.75082" lon="7.06058">
        <ele>961.59997558594</ele>
        <time>2011-12-17T13:54:05.000Z</time>
      </trkpt>
      <trkpt lat="43.75065" lon="7.06045">
        <ele>959.59997558594</ele>
        <time>2011-12-17T13:54:11.000Z</time>
      </trkpt>
      <trkpt lat="43.75053" lon="7.06032">
        <ele>958.20001220703</ele>
        <time>2011-12-17T13:54:16.000Z</time>
      </trkpt>
      <trkpt lat="43.75041" lon="7.06025">
        <ele>956.59997558594</ele>
        <time>2011-12-17T13:54:20.000Z</time>
      </trkpt>
      <trkpt lat="43.75029" lon="7.06012">
        <ele>955.40002441406</ele>
        <time>2011-12-17T13:54:26.000Z</time>
      </trkpt>
      <trkpt lat="43.75027" lon="7.05997">
        <ele>956.20001220703</ele>
        <time>2011-12-17T13:54:31.000Z</time>
      </trkpt>
      <trkpt lat="43.75025" lon="7.05973">
        <ele>957.59997558594</ele>
        <time>2011-12-17T13:54:38.000Z</time>
      </trkpt>
      <trkpt lat="43.75023" lon="7.05953">
        <ele>958.79998779297</ele>
        <time>2011-12-17T13:54:43.000Z</time>
      </trkpt>
      <trkpt lat="43.75016" lon="7.05936">
        <ele>959.40002441406</ele>
        <time>2011-12-17T13:54:48.000Z</time>
      </trkpt>
      <trkpt lat="43.75011" lon="7.05921">
        <ele>960</ele>
        <time>2011-12-17T13:54:54.000Z</time>
      </trkpt>
      <trkpt lat="43.75007" lon="7.0591">
        <ele>960.20001220703</ele>
        <time>2011-12-17T13:54:59.000Z</time>
      </trkpt>
      <trkpt lat="43.75003" lon="7.05891">
        <ele>961.20001220703</ele>
        <time>2011-12-17T13:55:06.000Z</time>
      </trkpt>
      <trkpt lat="43.75002" lon="7.05873">
        <ele>962.40002441406</ele>
        <time>2011-12-17T13:55:13.000Z</time>
      </trkpt>
      <trkpt lat="43.74996" lon="7.05858">
        <ele>962.79998779297</ele>
        <time>2011-12-17T13:55:18.000Z</time>
      </trkpt>
      <trkpt lat="43.74991" lon="7.05835">
        <ele>964</ele>
        <time>2011-12-17T13:55:25.000Z</time>
      </trkpt>
      <trkpt lat="43.74985" lon="7.0581">
        <ele>964.20001220703</ele>
        <time>2011-12-17T13:55:33.000Z</time>
      </trkpt>
      <trkpt lat="43.74974" lon="7.05795">
        <ele>963.79998779297</ele>
        <time>2011-12-17T13:55:40.000Z</time>
      </trkpt>
      <trkpt lat="43.74962" lon="7.05781">
        <ele>963.40002441406</ele>
        <time>2011-12-17T13:55:46.000Z</time>
      </trkpt>
      <trkpt lat="43.74961" lon="7.05779">
        <ele>963.40002441406</ele>
        <time>2011-12-17T13:55:47.000Z</time>
      </trkpt>
      <trkpt lat="43.74956" lon="7.05754">
        <ele>964.20001220703</ele>
        <time>2011-12-17T13:55:55.000Z</time>
      </trkpt>
      <trkpt lat="43.74963" lon="7.05737">
        <ele>965.40002441406</ele>
        <time>2011-12-17T13:56:00.000Z</time>
      </trkpt>
      <trkpt lat="43.74972" lon="7.05719">
        <ele>966.79998779297</ele>
        <time>2011-12-17T13:56:07.000Z</time>
      </trkpt>
      <trkpt lat="43.7498" lon="7.05702">
        <ele>968</ele>
        <time>2011-12-17T13:56:15.000Z</time>
      </trkpt>
      <trkpt lat="43.74994" lon="7.05681">
        <ele>969.40002441406</ele>
        <time>2011-12-17T13:56:26.000Z</time>
      </trkpt>
      <trkpt lat="43.75007" lon="7.05679">
        <ele>969.79998779297</ele>
        <time>2011-12-17T13:56:32.000Z</time>
      </trkpt>
      <trkpt lat="43.75021" lon="7.05671">
        <ele>970.40002441406</ele>
        <time>2011-12-17T13:56:40.000Z</time>
      </trkpt>
      <trkpt lat="43.75034" lon="7.05659">
        <ele>971</ele>
        <time>2011-12-17T13:56:49.000Z</time>
      </trkpt>
      <trkpt lat="43.75044" lon="7.0564">
        <ele>971.40002441406</ele>
        <time>2011-12-17T13:56:58.000Z</time>
      </trkpt>
      <trkpt lat="43.7505" lon="7.05622">
        <ele>971.59997558594</ele>
        <time>2011-12-17T13:57:06.000Z</time>
      </trkpt>
      <trkpt lat="43.75065" lon="7.05607">
        <ele>971.40002441406</ele>
        <time>2011-12-17T13:57:14.000Z</time>
      </trkpt>
      <trkpt lat="43.75085" lon="7.05584">
        <ele>970.79998779297</ele>
        <time>2011-12-17T13:57:23.000Z</time>
      </trkpt>
      <trkpt lat="43.75104" lon="7.05567">
        <ele>969.40002441406</ele>
        <time>2011-12-17T13:57:30.000Z</time>
      </trkpt>
      <trkpt lat="43.75124" lon="7.05553">
        <ele>968</ele>
        <time>2011-12-17T13:57:37.000Z</time>
      </trkpt>
      <trkpt lat="43.75143" lon="7.05539">
        <ele>966.79998779297</ele>
        <time>2011-12-17T13:57:43.000Z</time>
      </trkpt>
      <trkpt lat="43.75159" lon="7.05516">
        <ele>966.20001220703</ele>
        <time>2011-12-17T13:57:48.000Z</time>
      </trkpt>
      <trkpt lat="43.75172" lon="7.05496">
        <ele>965.79998779297</ele>
        <time>2011-12-17T13:57:52.000Z</time>
      </trkpt>
      <trkpt lat="43.75181" lon="7.05482">
        <ele>966.20001220703</ele>
        <time>2011-12-17T13:57:55.000Z</time>
      </trkpt>
      <trkpt lat="43.75207" lon="7.05461">
        <ele>965.79998779297</ele>
        <time>2011-12-17T13:58:02.000Z</time>
      </trkpt>
      <trkpt lat="43.75232" lon="7.05441">
        <ele>966</ele>
        <time>2011-12-17T13:58:09.000Z</time>
      </trkpt>
      <trkpt lat="43.7525" lon="7.05418">
        <ele>967</ele>
        <time>2011-12-17T13:58:17.000Z</time>
      </trkpt>
      <trkpt lat="43.75263" lon="7.05402">
        <ele>967</ele>
        <time>2011-12-17T13:58:24.000Z</time>
      </trkpt>
      <trkpt lat="43.75269" lon="7.05382">
        <ele>967.59997558594</ele>
        <time>2011-12-17T13:58:30.000Z</time>
      </trkpt>
      <trkpt lat="43.75277" lon="7.05361">
        <ele>968.20001220703</ele>
        <time>2011-12-17T13:58:38.000Z</time>
      </trkpt>
      <trkpt lat="43.75283" lon="7.05346">
        <ele>968.59997558594</ele>
        <time>2011-12-17T13:58:45.000Z</time>
      </trkpt>
      <trkpt lat="43.75289" lon="7.05318">
        <ele>969.40002441406</ele>
        <time>2011-12-17T13:58:54.000Z</time>
      </trkpt>
      <trkpt lat="43.75298" lon="7.05296">
        <ele>969.79998779297</ele>
        <time>2011-12-17T13:59:01.000Z</time>
      </trkpt>
      <trkpt lat="43.75313" lon="7.05275">
        <ele>970.20001220703</ele>
        <time>2011-12-17T13:59:07.000Z</time>
      </trkpt>
      <trkpt lat="43.75333" lon="7.05244">
        <ele>971</ele>
        <time>2011-12-17T13:59:16.000Z</time>
      </trkpt>
      <trkpt lat="43.75349" lon="7.0522">
        <ele>971</ele>
        <time>2011-12-17T13:59:24.000Z</time>
      </trkpt>
      <trkpt lat="43.75365" lon="7.05196">
        <ele>971.20001220703</ele>
        <time>2011-12-17T13:59:32.000Z</time>
      </trkpt>
      <trkpt lat="43.75374" lon="7.0518">
        <ele>971.40002441406</ele>
        <time>2011-12-17T13:59:38.000Z</time>
      </trkpt>
      <trkpt lat="43.75388" lon="7.05156">
        <ele>971.79998779297</ele>
        <time>2011-12-17T13:59:44.000Z</time>
      </trkpt>
      <trkpt lat="43.75405" lon="7.05139">
        <ele>972.20001220703</ele>
        <time>2011-12-17T13:59:49.000Z</time>
      </trkpt>
      <trkpt lat="43.75423" lon="7.05132">
        <ele>972.20001220703</ele>
        <time>2011-12-17T13:59:55.000Z</time>
      </trkpt>
      <trkpt lat="43.75434" lon="7.05119">
        <ele>971.79998779297</ele>
        <time>2011-12-17T14:00:01.000Z</time>
      </trkpt>
      <trkpt lat="43.75438" lon="7.05106">
        <ele>971.59997558594</ele>
        <time>2011-12-17T14:00:06.000Z</time>
      </trkpt>
      <trkpt lat="43.75447" lon="7.05089">
        <ele>971.40002441406</ele>
        <time>2011-12-17T14:00:11.000Z</time>
      </trkpt>
      <trkpt lat="43.75452" lon="7.05061">
        <ele>971.59997558594</ele>
        <time>2011-12-17T14:00:17.000Z</time>
      </trkpt>
      <trkpt lat="43.75458" lon="7.05021">
        <ele>972.20001220703</ele>
        <time>2011-12-17T14:00:25.000Z</time>
      </trkpt>
      <trkpt lat="43.75462" lon="7.04992">
        <ele>972.20001220703</ele>
        <time>2011-12-17T14:00:31.000Z</time>
      </trkpt>
      <trkpt lat="43.75474" lon="7.04976">
        <ele>971.79998779297</ele>
        <time>2011-12-17T14:00:37.000Z</time>
      </trkpt>
      <trkpt lat="43.75487" lon="7.04965">
        <ele>971.40002441406</ele>
        <time>2011-12-17T14:00:44.000Z</time>
      </trkpt>
      <trkpt lat="43.75497" lon="7.04948">
        <ele>970.79998779297</ele>
        <time>2011-12-17T14:00:50.000Z</time>
      </trkpt>
      <trkpt lat="43.75501" lon="7.04926">
        <ele>970</ele>
        <time>2011-12-17T14:00:55.000Z</time>
      </trkpt>
      <trkpt lat="43.75504" lon="7.04894">
        <ele>968.40002441406</ele>
        <time>2011-12-17T14:01:00.000Z</time>
      </trkpt>
      <trkpt lat="43.75504" lon="7.04887">
        <ele>968.20001220703</ele>
        <time>2011-12-17T14:01:01.000Z</time>
      </trkpt>
      <trkpt lat="43.75511" lon="7.04859">
        <ele>966.40002441406</ele>
        <time>2011-12-17T14:01:05.000Z</time>
      </trkpt>
      <trkpt lat="43.75528" lon="7.04815">
        <ele>964.40002441406</ele>
        <time>2011-12-17T14:01:12.000Z</time>
      </trkpt>
      <trkpt lat="43.75532" lon="7.04802">
        <ele>964.40002441406</ele>
        <time>2011-12-17T14:01:14.000Z</time>
      </trkpt>
      <trkpt lat="43.7555" lon="7.04763">
        <ele>964.79998779297</ele>
        <time>2011-12-17T14:01:21.000Z</time>
      </trkpt>
      <trkpt lat="43.75557" lon="7.04749">
        <ele>965</ele>
        <time>2011-12-17T14:01:24.000Z</time>
      </trkpt>
      <trkpt lat="43.75573" lon="7.04725">
        <ele>964.59997558594</ele>
        <time>2011-12-17T14:01:30.000Z</time>
      </trkpt>
      <trkpt lat="43.75578" lon="7.04717">
        <ele>964.40002441406</ele>
        <time>2011-12-17T14:01:32.000Z</time>
      </trkpt>
      <trkpt lat="43.75603" lon="7.04685">
        <ele>965.40002441406</ele>
        <time>2011-12-17T14:01:42.000Z</time>
      </trkpt>
      <trkpt lat="43.75623" lon="7.04662">
        <ele>966.59997558594</ele>
        <time>2011-12-17T14:01:50.000Z</time>
      </trkpt>
      <trkpt lat="43.75645" lon="7.04641">
        <ele>967.20001220703</ele>
        <time>2011-12-17T14:01:58.000Z</time>
      </trkpt>
      <trkpt lat="43.7566" lon="7.04626">
        <ele>967.79998779297</ele>
        <time>2011-12-17T14:02:05.000Z</time>
      </trkpt>
      <trkpt lat="43.75671" lon="7.04614">
        <ele>968.40002441406</ele>
        <time>2011-12-17T14:02:12.000Z</time>
      </trkpt>
      <trkpt lat="43.75688" lon="7.04597">
        <ele>969.59997558594</ele>
        <time>2011-12-17T14:02:21.000Z</time>
      </trkpt>
      <trkpt lat="43.75708" lon="7.04574">
        <ele>971.20001220703</ele>
        <time>2011-12-17T14:02:30.000Z</time>
      </trkpt>
      <trkpt lat="43.75719" lon="7.04562">
        <ele>971.59997558594</ele>
        <time>2011-12-17T14:02:36.000Z</time>
      </trkpt>
      <trkpt lat="43.75731" lon="7.04548">
        <ele>972</ele>
        <time>2011-12-17T14:02:42.000Z</time>
      </trkpt>
      <trkpt lat="43.75747" lon="7.04531">
        <ele>972.40002441406</ele>
        <time>2011-12-17T14:02:49.000Z</time>
      </trkpt>
      <trkpt lat="43.75754" lon="7.04518">
        <ele>972.20001220703</ele>
        <time>2011-12-17T14:02:54.000Z</time>
      </trkpt>
      <trkpt lat="43.7577" lon="7.04497">
        <ele>972.59997558594</ele>
        <time>2011-12-17T14:03:02.000Z</time>
      </trkpt>
      <trkpt lat="43.75781" lon="7.04482">
        <ele>972.79998779297</ele>
        <time>2011-12-17T14:03:08.000Z</time>
      </trkpt>
      <trkpt lat="43.75797" lon="7.0446">
        <ele>972.79998779297</ele>
        <time>2011-12-17T14:03:15.000Z</time>
      </trkpt>
      <trkpt lat="43.75813" lon="7.04435">
        <ele>972.59997558594</ele>
        <time>2011-12-17T14:03:22.000Z</time>
      </trkpt>
      <trkpt lat="43.75828" lon="7.04411">
        <ele>972</ele>
        <time>2011-12-17T14:03:27.000Z</time>
      </trkpt>
      <trkpt lat="43.75831" lon="7.04407">
        <ele>972</ele>
        <time>2011-12-17T14:03:28.000Z</time>
      </trkpt>
      <trkpt lat="43.7586" lon="7.04378">
        <ele>972</ele>
        <time>2011-12-17T14:03:37.000Z</time>
      </trkpt>
      <trkpt lat="43.75888" lon="7.04365">
        <ele>972.20001220703</ele>
        <time>2011-12-17T14:03:45.000Z</time>
      </trkpt>
      <trkpt lat="43.75918" lon="7.04354">
        <ele>972.40002441406</ele>
        <time>2011-12-17T14:03:53.000Z</time>
      </trkpt>
      <trkpt lat="43.75939" lon="7.04346">
        <ele>972.20001220703</ele>
        <time>2011-12-17T14:03:58.000Z</time>
      </trkpt>
      <trkpt lat="43.75951" lon="7.04343">
        <ele>972</ele>
        <time>2011-12-17T14:04:01.000Z</time>
      </trkpt>
      <trkpt lat="43.75962" lon="7.0434">
        <ele>971.79998779297</ele>
        <time>2011-12-17T14:04:04.000Z</time>
      </trkpt>
      <trkpt lat="43.75978" lon="7.04329">
        <ele>971.40002441406</ele>
        <time>2011-12-17T14:04:08.000Z</time>
      </trkpt>
      <trkpt lat="43.76011" lon="7.04289">
        <ele>969.79998779297</ele>
        <time>2011-12-17T14:04:18.000Z</time>
      </trkpt>
      <trkpt lat="43.76031" lon="7.04264">
        <ele>969.20001220703</ele>
        <time>2011-12-17T14:04:24.000Z</time>
      </trkpt>
      <trkpt lat="43.76037" lon="7.04256">
        <ele>969.20001220703</ele>
        <time>2011-12-17T14:04:26.000Z</time>
      </trkpt>
      <trkpt lat="43.76041" lon="7.04238">
        <ele>969</ele>
        <time>2011-12-17T14:04:30.000Z</time>
      </trkpt>
      <trkpt lat="43.76032" lon="7.04219">
        <ele>968.59997558594</ele>
        <time>2011-12-17T14:04:35.000Z</time>
      </trkpt>
      <trkpt lat="43.76024" lon="7.04195">
        <ele>968.20001220703</ele>
        <time>2011-12-17T14:04:39.000Z</time>
      </trkpt>
      <trkpt lat="43.76014" lon="7.04189">
        <ele>968</ele>
        <time>2011-12-17T14:04:42.000Z</time>
      </trkpt>
      <trkpt lat="43.76005" lon="7.04201">
        <ele>968</ele>
        <time>2011-12-17T14:04:45.000Z</time>
      </trkpt>
      <trkpt lat="43.75995" lon="7.04199">
        <ele>967.79998779297</ele>
        <time>2011-12-17T14:04:48.000Z</time>
      </trkpt>
      <trkpt lat="43.75991" lon="7.04195">
        <ele>967.79998779297</ele>
        <time>2011-12-17T14:04:49.000Z</time>
      </trkpt>
      <trkpt lat="43.75973" lon="7.04168">
        <ele>967.40002441406</ele>
        <time>2011-12-17T14:04:54.000Z</time>
      </trkpt>
      <trkpt lat="43.75958" lon="7.0415">
        <ele>966.79998779297</ele>
        <time>2011-12-17T14:04:58.000Z</time>
      </trkpt>
      <trkpt lat="43.75943" lon="7.04132">
        <ele>966.40002441406</ele>
        <time>2011-12-17T14:05:04.000Z</time>
      </trkpt>
      <trkpt lat="43.75923" lon="7.0411">
        <ele>965.40002441406</ele>
        <time>2011-12-17T14:05:11.000Z</time>
      </trkpt>
      <trkpt lat="43.75907" lon="7.041">
        <ele>964.79998779297</ele>
        <time>2011-12-17T14:05:16.000Z</time>
      </trkpt>
      <trkpt lat="43.75889" lon="7.04083">
        <ele>964</ele>
        <time>2011-12-17T14:05:21.000Z</time>
      </trkpt>
      <trkpt lat="43.75876" lon="7.04077">
        <ele>963.79998779297</ele>
        <time>2011-12-17T14:05:24.000Z</time>
      </trkpt>
      <trkpt lat="43.75856" lon="7.04052">
        <ele>963.20001220703</ele>
        <time>2011-12-17T14:05:29.000Z</time>
      </trkpt>
      <trkpt lat="43.7585" lon="7.04029">
        <ele>962.40002441406</ele>
        <time>2011-12-17T14:05:33.000Z</time>
      </trkpt>
      <trkpt lat="43.75837" lon="7.04016">
        <ele>961.59997558594</ele>
        <time>2011-12-17T14:05:37.000Z</time>
      </trkpt>
      <trkpt lat="43.75829" lon="7.04001">
        <ele>961</ele>
        <time>2011-12-17T14:05:40.000Z</time>
      </trkpt>
      <trkpt lat="43.75826" lon="7.03989">
        <ele>961</ele>
        <time>2011-12-17T14:05:42.000Z</time>
      </trkpt>
      <trkpt lat="43.7582" lon="7.03961">
        <ele>961</ele>
        <time>2011-12-17T14:05:47.000Z</time>
      </trkpt>
      <trkpt lat="43.75825" lon="7.03936">
        <ele>961.40002441406</ele>
        <time>2011-12-17T14:05:51.000Z</time>
      </trkpt>
      <trkpt lat="43.7582" lon="7.03908">
        <ele>961.40002441406</ele>
        <time>2011-12-17T14:05:56.000Z</time>
      </trkpt>
      <trkpt lat="43.75814" lon="7.03882">
        <ele>961</ele>
        <time>2011-12-17T14:06:02.000Z</time>
      </trkpt>
      <trkpt lat="43.75802" lon="7.03857">
        <ele>960.20001220703</ele>
        <time>2011-12-17T14:06:08.000Z</time>
      </trkpt>
      <trkpt lat="43.75802" lon="7.03844">
        <ele>960.20001220703</ele>
        <time>2011-12-17T14:06:11.000Z</time>
      </trkpt>
      <trkpt lat="43.75808" lon="7.03836">
        <ele>960.40002441406</ele>
        <time>2011-12-17T14:06:15.000Z</time>
      </trkpt>
      <trkpt lat="43.7581" lon="7.03833">
        <ele>960.59997558594</ele>
        <time>2011-12-17T14:06:17.000Z</time>
      </trkpt>
      <trkpt lat="43.75813" lon="7.0383">
        <ele>960.59997558594</ele>
        <time>2011-12-17T14:06:24.000Z</time>
      </trkpt>
      <trkpt lat="43.75816" lon="7.03825">
        <ele>960.79998779297</ele>
        <time>2011-12-17T14:06:31.000Z</time>
      </trkpt>
      <trkpt lat="43.75818" lon="7.03824">
        <ele>960.79998779297</ele>
        <time>2011-12-17T14:06:35.000Z</time>
      </trkpt>
      <trkpt lat="43.75827" lon="7.0382">
        <ele>961</ele>
        <time>2011-12-17T14:06:42.000Z</time>
      </trkpt>
      <trkpt lat="43.75843" lon="7.03811">
        <ele>960.79998779297</ele>
        <time>2011-12-17T14:06:49.000Z</time>
      </trkpt>
      <trkpt lat="43.75858" lon="7.0379">
        <ele>959.20001220703</ele>
        <time>2011-12-17T14:06:55.000Z</time>
      </trkpt>
      <trkpt lat="43.7586" lon="7.03785">
        <ele>959</ele>
        <time>2011-12-17T14:06:56.000Z</time>
      </trkpt>
      <trkpt lat="43.75858" lon="7.03767">
        <ele>957.79998779297</ele>
        <time>2011-12-17T14:07:00.000Z</time>
      </trkpt>
      <trkpt lat="43.75855" lon="7.03759">
        <ele>957.40002441406</ele>
        <time>2011-12-17T14:07:02.000Z</time>
      </trkpt>
      <trkpt lat="43.75845" lon="7.03727">
        <ele>955</ele>
        <time>2011-12-17T14:07:08.000Z</time>
      </trkpt>
      <trkpt lat="43.75832" lon="7.03713">
        <ele>954</ele>
        <time>2011-12-17T14:07:12.000Z</time>
      </trkpt>
      <trkpt lat="43.75814" lon="7.03689">
        <ele>952.20001220703</ele>
        <time>2011-12-17T14:07:18.000Z</time>
      </trkpt>
      <trkpt lat="43.75813" lon="7.03683">
        <ele>951.59997558594</ele>
        <time>2011-12-17T14:07:19.000Z</time>
      </trkpt>
      <trkpt lat="43.75812" lon="7.03641">
        <ele>949</ele>
        <time>2011-12-17T14:07:25.000Z</time>
      </trkpt>
      <trkpt lat="43.75816" lon="7.03617">
        <ele>948</ele>
        <time>2011-12-17T14:07:29.000Z</time>
      </trkpt>
      <trkpt lat="43.75817" lon="7.03602">
        <ele>947.40002441406</ele>
        <time>2011-12-17T14:07:32.000Z</time>
      </trkpt>
      <trkpt lat="43.75826" lon="7.03569">
        <ele>945.40002441406</ele>
        <time>2011-12-17T14:07:38.000Z</time>
      </trkpt>
      <trkpt lat="43.75833" lon="7.03535">
        <ele>943.20001220703</ele>
        <time>2011-12-17T14:07:43.000Z</time>
      </trkpt>
      <trkpt lat="43.75835" lon="7.03521">
        <ele>942.20001220703</ele>
        <time>2011-12-17T14:07:47.000Z</time>
      </trkpt>
      <trkpt lat="43.75837" lon="7.03496">
        <ele>940.79998779297</ele>
        <time>2011-12-17T14:07:51.000Z</time>
      </trkpt>
      <trkpt lat="43.75828" lon="7.03469">
        <ele>940.59997558594</ele>
        <time>2011-12-17T14:07:55.000Z</time>
      </trkpt>
      <trkpt lat="43.75822" lon="7.03467">
        <ele>941</ele>
        <time>2011-12-17T14:07:56.000Z</time>
      </trkpt>
      <trkpt lat="43.75798" lon="7.03454">
        <ele>942.20001220703</ele>
        <time>2011-12-17T14:08:01.000Z</time>
      </trkpt>
      <trkpt lat="43.75774" lon="7.03428">
        <ele>942.40002441406</ele>
        <time>2011-12-17T14:08:09.000Z</time>
      </trkpt>
      <trkpt lat="43.75757" lon="7.03401">
        <ele>942.40002441406</ele>
        <time>2011-12-17T14:08:15.000Z</time>
      </trkpt>
      <trkpt lat="43.7574" lon="7.03383">
        <ele>942.79998779297</ele>
        <time>2011-12-17T14:08:19.000Z</time>
      </trkpt>
      <trkpt lat="43.75727" lon="7.03366">
        <ele>942.79998779297</ele>
        <time>2011-12-17T14:08:23.000Z</time>
      </trkpt>
      <trkpt lat="43.75726" lon="7.03356">
        <ele>942.79998779297</ele>
        <time>2011-12-17T14:08:25.000Z</time>
      </trkpt>
      <trkpt lat="43.75725" lon="7.03346">
        <ele>942.79998779297</ele>
        <time>2011-12-17T14:08:27.000Z</time>
      </trkpt>
      <trkpt lat="43.75716" lon="7.03321">
        <ele>943</ele>
        <time>2011-12-17T14:08:32.000Z</time>
      </trkpt>
      <trkpt lat="43.75706" lon="7.03309">
        <ele>943.40002441406</ele>
        <time>2011-12-17T14:08:35.000Z</time>
      </trkpt>
      <trkpt lat="43.75697" lon="7.03298">
        <ele>943.79998779297</ele>
        <time>2011-12-17T14:08:38.000Z</time>
      </trkpt>
      <trkpt lat="43.75684" lon="7.03263">
        <ele>944.40002441406</ele>
        <time>2011-12-17T14:08:46.000Z</time>
      </trkpt>
      <trkpt lat="43.75672" lon="7.03243">
        <ele>944.79998779297</ele>
        <time>2011-12-17T14:08:52.000Z</time>
      </trkpt>
      <trkpt lat="43.75657" lon="7.03218">
        <ele>944.79998779297</ele>
        <time>2011-12-17T14:09:00.000Z</time>
      </trkpt>
      <trkpt lat="43.75651" lon="7.03202">
        <ele>945</ele>
        <time>2011-12-17T14:09:05.000Z</time>
      </trkpt>
      <trkpt lat="43.75646" lon="7.03182">
        <ele>944.79998779297</ele>
        <time>2011-12-17T14:09:11.000Z</time>
      </trkpt>
      <trkpt lat="43.75642" lon="7.03159">
        <ele>945</ele>
        <time>2011-12-17T14:09:18.000Z</time>
      </trkpt>
      <trkpt lat="43.75638" lon="7.03135">
        <ele>945.59997558594</ele>
        <time>2011-12-17T14:09:24.000Z</time>
      </trkpt>
      <trkpt lat="43.75638" lon="7.03114">
        <ele>945.79998779297</ele>
        <time>2011-12-17T14:09:29.000Z</time>
      </trkpt>
      <trkpt lat="43.75639" lon="7.03083">
        <ele>946.40002441406</ele>
        <time>2011-12-17T14:09:35.000Z</time>
      </trkpt>
      <trkpt lat="43.75634" lon="7.03052">
        <ele>945.20001220703</ele>
        <time>2011-12-17T14:09:41.000Z</time>
      </trkpt>
      <trkpt lat="43.75621" lon="7.03031">
        <ele>944.59997558594</ele>
        <time>2011-12-17T14:09:46.000Z</time>
      </trkpt>
      <trkpt lat="43.75617" lon="7.0302">
        <ele>944.40002441406</ele>
        <time>2011-12-17T14:09:48.000Z</time>
      </trkpt>
      <trkpt lat="43.75595" lon="7.02989">
        <ele>943.79998779297</ele>
        <time>2011-12-17T14:09:56.000Z</time>
      </trkpt>
      <trkpt lat="43.7559" lon="7.02983">
        <ele>943.79998779297</ele>
        <time>2011-12-17T14:09:58.000Z</time>
      </trkpt>
      <trkpt lat="43.75592" lon="7.02969">
        <ele>943.79998779297</ele>
        <time>2011-12-17T14:10:02.000Z</time>
      </trkpt>
      <trkpt lat="43.75601" lon="7.02963">
        <ele>943.59997558594</ele>
        <time>2011-12-17T14:10:05.000Z</time>
      </trkpt>
      <trkpt lat="43.75621" lon="7.02951">
        <ele>943.20001220703</ele>
        <time>2011-12-17T14:10:11.000Z</time>
      </trkpt>
      <trkpt lat="43.75644" lon="7.02922">
        <ele>942.59997558594</ele>
        <time>2011-12-17T14:10:19.000Z</time>
      </trkpt>
      <trkpt lat="43.7566" lon="7.02916">
        <ele>942.20001220703</ele>
        <time>2011-12-17T14:10:23.000Z</time>
      </trkpt>
      <trkpt lat="43.75674" lon="7.02913">
        <ele>941.59997558594</ele>
        <time>2011-12-17T14:10:26.000Z</time>
      </trkpt>
      <trkpt lat="43.75688" lon="7.02907">
        <ele>940.79998779297</ele>
        <time>2011-12-17T14:10:29.000Z</time>
      </trkpt>
      <trkpt lat="43.75697" lon="7.02904">
        <ele>940.20001220703</ele>
        <time>2011-12-17T14:10:31.000Z</time>
      </trkpt>
      <trkpt lat="43.7571" lon="7.02887">
        <ele>939.59997558594</ele>
        <time>2011-12-17T14:10:35.000Z</time>
      </trkpt>
      <trkpt lat="43.75711" lon="7.02874">
        <ele>939.40002441406</ele>
        <time>2011-12-17T14:10:37.000Z</time>
      </trkpt>
      <trkpt lat="43.75715" lon="7.02825">
        <ele>939</ele>
        <time>2011-12-17T14:10:45.000Z</time>
      </trkpt>
      <trkpt lat="43.75718" lon="7.02796">
        <ele>939.40002441406</ele>
        <time>2011-12-17T14:10:51.000Z</time>
      </trkpt>
      <trkpt lat="43.75714" lon="7.02765">
        <ele>939.79998779297</ele>
        <time>2011-12-17T14:10:58.000Z</time>
      </trkpt>
      <trkpt lat="43.75719" lon="7.02745">
        <ele>939.79998779297</ele>
        <time>2011-12-17T14:11:03.000Z</time>
      </trkpt>
      <trkpt lat="43.75736" lon="7.02739">
        <ele>939.59997558594</ele>
        <time>2011-12-17T14:11:09.000Z</time>
      </trkpt>
      <trkpt lat="43.7575" lon="7.0273">
        <ele>939.20001220703</ele>
        <time>2011-12-17T14:11:15.000Z</time>
      </trkpt>
      <trkpt lat="43.75762" lon="7.02721">
        <ele>939.59997558594</ele>
        <time>2011-12-17T14:11:21.000Z</time>
      </trkpt>
      <trkpt lat="43.75762" lon="7.02704">
        <ele>939.59997558594</ele>
        <time>2011-12-17T14:11:25.000Z</time>
      </trkpt>
      <trkpt lat="43.75752" lon="7.02681">
        <ele>939.79998779297</ele>
        <time>2011-12-17T14:11:30.000Z</time>
      </trkpt>
      <trkpt lat="43.75748" lon="7.02659">
        <ele>940</ele>
        <time>2011-12-17T14:11:35.000Z</time>
      </trkpt>
      <trkpt lat="43.75734" lon="7.02636">
        <ele>940.20001220703</ele>
        <time>2011-12-17T14:11:42.000Z</time>
      </trkpt>
      <trkpt lat="43.75712" lon="7.02607">
        <ele>940.40002441406</ele>
        <time>2011-12-17T14:11:51.000Z</time>
      </trkpt>
      <trkpt lat="43.75692" lon="7.02585">
        <ele>940.79998779297</ele>
        <time>2011-12-17T14:11:59.000Z</time>
      </trkpt>
      <trkpt lat="43.75672" lon="7.02564">
        <ele>940.79998779297</ele>
        <time>2011-12-17T14:12:07.000Z</time>
      </trkpt>
      <trkpt lat="43.75649" lon="7.02546">
        <ele>941.59997558594</ele>
        <time>2011-12-17T14:12:16.000Z</time>
      </trkpt>
      <trkpt lat="43.75624" lon="7.02531">
        <ele>942.79998779297</ele>
        <time>2011-12-17T14:12:26.000Z</time>
      </trkpt>
      <trkpt lat="43.75604" lon="7.02514">
        <ele>943.40002441406</ele>
        <time>2011-12-17T14:12:34.000Z</time>
      </trkpt>
      <trkpt lat="43.75581" lon="7.02491">
        <ele>943.79998779297</ele>
        <time>2011-12-17T14:12:44.000Z</time>
      </trkpt>
      <trkpt lat="43.75564" lon="7.0248">
        <ele>944</ele>
        <time>2011-12-17T14:12:51.000Z</time>
      </trkpt>
      <trkpt lat="43.7555" lon="7.02478">
        <ele>944.59997558594</ele>
        <time>2011-12-17T14:12:56.000Z</time>
      </trkpt>
      <trkpt lat="43.75536" lon="7.02474">
        <ele>945</ele>
        <time>2011-12-17T14:13:02.000Z</time>
      </trkpt>
      <trkpt lat="43.75521" lon="7.0246">
        <ele>945.20001220703</ele>
        <time>2011-12-17T14:13:08.000Z</time>
      </trkpt>
      <trkpt lat="43.75502" lon="7.02453">
        <ele>945.79998779297</ele>
        <time>2011-12-17T14:13:16.000Z</time>
      </trkpt>
      <trkpt lat="43.75484" lon="7.02442">
        <ele>945.59997558594</ele>
        <time>2011-12-17T14:13:24.000Z</time>
      </trkpt>
      <trkpt lat="43.75471" lon="7.02427">
        <ele>945.20001220703</ele>
        <time>2011-12-17T14:13:29.000Z</time>
      </trkpt>
      <trkpt lat="43.75449" lon="7.02408">
        <ele>944.79998779297</ele>
        <time>2011-12-17T14:13:36.000Z</time>
      </trkpt>
      <trkpt lat="43.75427" lon="7.02379">
        <ele>944</ele>
        <time>2011-12-17T14:13:44.000Z</time>
      </trkpt>
      <trkpt lat="43.7541" lon="7.02347">
        <ele>943.59997558594</ele>
        <time>2011-12-17T14:13:52.000Z</time>
      </trkpt>
      <trkpt lat="43.75397" lon="7.02316">
        <ele>944</ele>
        <time>2011-12-17T14:13:59.000Z</time>
      </trkpt>
      <trkpt lat="43.75382" lon="7.02295">
        <ele>944.40002441406</ele>
        <time>2011-12-17T14:14:05.000Z</time>
      </trkpt>
      <trkpt lat="43.75371" lon="7.02262">
        <ele>944.40002441406</ele>
        <time>2011-12-17T14:14:12.000Z</time>
      </trkpt>
      <trkpt lat="43.75366" lon="7.02237">
        <ele>944.20001220703</ele>
        <time>2011-12-17T14:14:17.000Z</time>
      </trkpt>
      <trkpt lat="43.7537" lon="7.02211">
        <ele>943.59997558594</ele>
        <time>2011-12-17T14:14:22.000Z</time>
      </trkpt>
      <trkpt lat="43.7537" lon="7.02173">
        <ele>942.79998779297</ele>
        <time>2011-12-17T14:14:29.000Z</time>
      </trkpt>
      <trkpt lat="43.75365" lon="7.02149">
        <ele>942.59997558594</ele>
        <time>2011-12-17T14:14:34.000Z</time>
      </trkpt>
      <trkpt lat="43.75364" lon="7.02128">
        <ele>942.40002441406</ele>
        <time>2011-12-17T14:14:39.000Z</time>
      </trkpt>
      <trkpt lat="43.7536" lon="7.02102">
        <ele>942.20001220703</ele>
        <time>2011-12-17T14:14:44.000Z</time>
      </trkpt>
      <trkpt lat="43.75349" lon="7.02059">
        <ele>942.40002441406</ele>
        <time>2011-12-17T14:14:53.000Z</time>
      </trkpt>
      <trkpt lat="43.75341" lon="7.02015">
        <ele>943.40002441406</ele>
        <time>2011-12-17T14:15:02.000Z</time>
      </trkpt>
      <trkpt lat="43.75338" lon="7.01976">
        <ele>944.20001220703</ele>
        <time>2011-12-17T14:15:11.000Z</time>
      </trkpt>
      <trkpt lat="43.75336" lon="7.01943">
        <ele>944.59997558594</ele>
        <time>2011-12-17T14:15:19.000Z</time>
      </trkpt>
      <trkpt lat="43.75336" lon="7.01915">
        <ele>945</ele>
        <time>2011-12-17T14:15:26.000Z</time>
      </trkpt>
      <trkpt lat="43.75343" lon="7.01896">
        <ele>944.79998779297</ele>
        <time>2011-12-17T14:15:31.000Z</time>
      </trkpt>
      <trkpt lat="43.75346" lon="7.01879">
        <ele>944.79998779297</ele>
        <time>2011-12-17T14:15:35.000Z</time>
      </trkpt>
      <trkpt lat="43.75351" lon="7.01855">
        <ele>944.59997558594</ele>
        <time>2011-12-17T14:15:42.000Z</time>
      </trkpt>
      <trkpt lat="43.75356" lon="7.01843">
        <ele>944.40002441406</ele>
        <time>2011-12-17T14:15:46.000Z</time>
      </trkpt>
      <trkpt lat="43.75365" lon="7.01838">
        <ele>944.20001220703</ele>
        <time>2011-12-17T14:15:51.000Z</time>
      </trkpt>
      <trkpt lat="43.75365" lon="7.01838">
        <ele>944.20001220703</ele>
        <time>2011-12-17T14:16:05.000Z</time>
      </trkpt>
      <trkpt lat="43.75366" lon="7.01836">
        <ele>944.20001220703</ele>
        <time>2011-12-17T14:16:11.000Z</time>
      </trkpt>
      <trkpt lat="43.75365" lon="7.01832">
        <ele>944</ele>
        <time>2011-12-17T14:16:34.000Z</time>
      </trkpt>
      <trkpt lat="43.75365" lon="7.01831">
        <ele>943.79998779297</ele>
        <time>2011-12-17T14:16:54.000Z</time>
      </trkpt>
      <trkpt lat="43.75365" lon="7.01831">
        <ele>944</ele>
        <time>2011-12-17T14:17:14.000Z</time>
      </trkpt>
      <trkpt lat="43.75363" lon="7.01831">
        <ele>944</ele>
        <time>2011-12-17T14:17:21.000Z</time>
      </trkpt>
      <trkpt lat="43.75359" lon="7.01827">
        <ele>943.40002441406</ele>
        <time>2011-12-17T14:17:25.000Z</time>
      </trkpt>
      <trkpt lat="43.75346" lon="7.01811">
        <ele>941.40002441406</ele>
        <time>2011-12-17T14:17:32.000Z</time>
      </trkpt>
      <trkpt lat="43.75335" lon="7.01787">
        <ele>937.79998779297</ele>
        <time>2011-12-17T14:17:37.000Z</time>
      </trkpt>
      <trkpt lat="43.75327" lon="7.01773">
        <ele>936.40002441406</ele>
        <time>2011-12-17T14:17:41.000Z</time>
      </trkpt>
      <trkpt lat="43.7532" lon="7.01766">
        <ele>936.20001220703</ele>
        <time>2011-12-17T14:17:44.000Z</time>
      </trkpt>
      <trkpt lat="43.75319" lon="7.01766">
        <ele>936.20001220703</ele>
        <time>2011-12-17T14:17:56.000Z</time>
      </trkpt>
      <trkpt lat="43.75318" lon="7.01769">
        <ele>936.79998779297</ele>
        <time>2011-12-17T14:18:10.000Z</time>
      </trkpt>
      <trkpt lat="43.75318" lon="7.0177">
        <ele>937</ele>
        <time>2011-12-17T14:18:20.000Z</time>
      </trkpt>
      <trkpt lat="43.75318" lon="7.01769">
        <ele>936.79998779297</ele>
        <time>2011-12-17T14:18:22.000Z</time>
      </trkpt>
      <trkpt lat="43.75305" lon="7.01756">
        <ele>936.40002441406</ele>
        <time>2011-12-17T14:18:28.000Z</time>
      </trkpt>
      <trkpt lat="43.75285" lon="7.01738">
        <ele>935</ele>
        <time>2011-12-17T14:18:33.000Z</time>
      </trkpt>
      <trkpt lat="43.75252" lon="7.01707">
        <ele>931.40002441406</ele>
        <time>2011-12-17T14:18:40.000Z</time>
      </trkpt>
      <trkpt lat="43.7522" lon="7.01679">
        <ele>932.20001220703</ele>
        <time>2011-12-17T14:18:47.000Z</time>
      </trkpt>
      <trkpt lat="43.75211" lon="7.01671">
        <ele>932.40002441406</ele>
        <time>2011-12-17T14:18:49.000Z</time>
      </trkpt>
      <trkpt lat="43.75181" lon="7.0164">
        <ele>929.40002441406</ele>
        <time>2011-12-17T14:18:56.000Z</time>
      </trkpt>
      <trkpt lat="43.75177" lon="7.01636">
        <ele>928.79998779297</ele>
        <time>2011-12-17T14:18:57.000Z</time>
      </trkpt>
      <trkpt lat="43.75147" lon="7.01617">
        <ele>924.59997558594</ele>
        <time>2011-12-17T14:19:04.000Z</time>
      </trkpt>
      <trkpt lat="43.75116" lon="7.01604">
        <ele>919.79998779297</ele>
        <time>2011-12-17T14:19:11.000Z</time>
      </trkpt>
      <trkpt lat="43.75108" lon="7.01602">
        <ele>919</ele>
        <time>2011-12-17T14:19:13.000Z</time>
      </trkpt>
      <trkpt lat="43.75095" lon="7.01608">
        <ele>921.40002441406</ele>
        <time>2011-12-17T14:19:17.000Z</time>
      </trkpt>
      <trkpt lat="43.75088" lon="7.01619">
        <ele>925.79998779297</ele>
        <time>2011-12-17T14:19:20.000Z</time>
      </trkpt>
      <trkpt lat="43.75075" lon="7.01624">
        <ele>927.40002441406</ele>
        <time>2011-12-17T14:19:26.000Z</time>
      </trkpt>
      <trkpt lat="43.75062" lon="7.01621">
        <ele>925</ele>
        <time>2011-12-17T14:19:31.000Z</time>
      </trkpt>
      <trkpt lat="43.75043" lon="7.01618">
        <ele>921.59997558594</ele>
        <time>2011-12-17T14:19:36.000Z</time>
      </trkpt>
      <trkpt lat="43.75028" lon="7.01614">
        <ele>918.59997558594</ele>
        <time>2011-12-17T14:19:40.000Z</time>
      </trkpt>
      <trkpt lat="43.75011" lon="7.0161">
        <ele>915</ele>
        <time>2011-12-17T14:19:44.000Z</time>
      </trkpt>
      <trkpt lat="43.75004" lon="7.01606">
        <ele>912.59997558594</ele>
        <time>2011-12-17T14:19:48.000Z</time>
      </trkpt>
      <trkpt lat="43.74983" lon="7.01599">
        <ele>908.59997558594</ele>
        <time>2011-12-17T14:19:54.000Z</time>
      </trkpt>
      <trkpt lat="43.74971" lon="7.01598">
        <ele>908.20001220703</ele>
        <time>2011-12-17T14:19:59.000Z</time>
      </trkpt>
      <trkpt lat="43.7497" lon="7.01598">
        <ele>908.20001220703</ele>
        <time>2011-12-17T14:20:01.000Z</time>
      </trkpt>
      <trkpt lat="43.74961" lon="7.01597">
        <ele>907.59997558594</ele>
        <time>2011-12-17T14:20:06.000Z</time>
      </trkpt>
      <trkpt lat="43.74944" lon="7.01589">
        <ele>903.79998779297</ele>
        <time>2011-12-17T14:20:13.000Z</time>
      </trkpt>
      <trkpt lat="43.74933" lon="7.01584">
        <ele>901.40002441406</ele>
        <time>2011-12-17T14:20:18.000Z</time>
      </trkpt>
      <trkpt lat="43.7492" lon="7.01578">
        <ele>898.79998779297</ele>
        <time>2011-12-17T14:20:23.000Z</time>
      </trkpt>
      <trkpt lat="43.74901" lon="7.01571">
        <ele>898.79998779297</ele>
        <time>2011-12-17T14:20:30.000Z</time>
      </trkpt>
      <trkpt lat="43.74888" lon="7.01565">
        <ele>899.40002441406</ele>
        <time>2011-12-17T14:20:34.000Z</time>
      </trkpt>
      <trkpt lat="43.74868" lon="7.01553">
        <ele>899.59997558594</ele>
        <time>2011-12-17T14:20:39.000Z</time>
      </trkpt>
      <trkpt lat="43.74853" lon="7.01537">
        <ele>897.79998779297</ele>
        <time>2011-12-17T14:20:44.000Z</time>
      </trkpt>
      <trkpt lat="43.74831" lon="7.015">
        <ele>891.59997558594</ele>
        <time>2011-12-17T14:20:51.000Z</time>
      </trkpt>
      <trkpt lat="43.74812" lon="7.01475">
        <ele>888.20001220703</ele>
        <time>2011-12-17T14:20:57.000Z</time>
      </trkpt>
      <trkpt lat="43.74799" lon="7.01456">
        <ele>884.79998779297</ele>
        <time>2011-12-17T14:21:03.000Z</time>
      </trkpt>
      <trkpt lat="43.74797" lon="7.01454">
        <ele>884.79998779297</ele>
        <time>2011-12-17T14:21:04.000Z</time>
      </trkpt>
      <trkpt lat="43.7479" lon="7.01449">
        <ele>884.79998779297</ele>
        <time>2011-12-17T14:21:10.000Z</time>
      </trkpt>
      <trkpt lat="43.74778" lon="7.01435">
        <ele>883.20001220703</ele>
        <time>2011-12-17T14:21:15.000Z</time>
      </trkpt>
      <trkpt lat="43.74754" lon="7.01403">
        <ele>878.20001220703</ele>
        <time>2011-12-17T14:21:22.000Z</time>
      </trkpt>
      <trkpt lat="43.74735" lon="7.01391">
        <ele>870.59997558594</ele>
        <time>2011-12-17T14:21:27.000Z</time>
      </trkpt>
      <trkpt lat="43.74728" lon="7.01396">
        <ele>870</ele>
        <time>2011-12-17T14:21:29.000Z</time>
      </trkpt>
      <trkpt lat="43.74715" lon="7.01415">
        <ele>872.20001220703</ele>
        <time>2011-12-17T14:21:35.000Z</time>
      </trkpt>
      <trkpt lat="43.74698" lon="7.01443">
        <ele>876.20001220703</ele>
        <time>2011-12-17T14:21:41.000Z</time>
      </trkpt>
      <trkpt lat="43.74678" lon="7.01473">
        <ele>880</ele>
        <time>2011-12-17T14:21:47.000Z</time>
      </trkpt>
      <trkpt lat="43.74666" lon="7.01494">
        <ele>882.79998779297</ele>
        <time>2011-12-17T14:21:51.000Z</time>
      </trkpt>
      <trkpt lat="43.74657" lon="7.01506">
        <ele>884.59997558594</ele>
        <time>2011-12-17T14:21:54.000Z</time>
      </trkpt>
      <trkpt lat="43.74652" lon="7.01511">
        <ele>885.20001220703</ele>
        <time>2011-12-17T14:21:56.000Z</time>
      </trkpt>
      <trkpt lat="43.74634" lon="7.01519">
        <ele>883.59997558594</ele>
        <time>2011-12-17T14:22:02.000Z</time>
      </trkpt>
      <trkpt lat="43.74633" lon="7.0152">
        <ele>883.79998779297</ele>
        <time>2011-12-17T14:22:06.000Z</time>
      </trkpt>
      <trkpt lat="43.74634" lon="7.01522">
        <ele>884.79998779297</ele>
        <time>2011-12-17T14:22:09.000Z</time>
      </trkpt>
      <trkpt lat="43.74638" lon="7.0153">
        <ele>889.59997558594</ele>
        <time>2011-12-17T14:22:18.000Z</time>
      </trkpt>
      <trkpt lat="43.7464" lon="7.01533">
        <ele>892</ele>
        <time>2011-12-17T14:22:25.000Z</time>
      </trkpt>
      <trkpt lat="43.74633" lon="7.01531">
        <ele>888.79998779297</ele>
        <time>2011-12-17T14:22:44.000Z</time>
      </trkpt>
      <trkpt lat="43.74632" lon="7.01532">
        <ele>889</ele>
        <time>2011-12-17T14:22:51.000Z</time>
      </trkpt>
      <trkpt lat="43.74631" lon="7.01533">
        <ele>889.40002441406</ele>
        <time>2011-12-17T14:23:02.000Z</time>
      </trkpt>
      <trkpt lat="43.7463" lon="7.01528">
        <ele>886.59997558594</ele>
        <time>2011-12-17T14:23:09.000Z</time>
      </trkpt>
      <trkpt lat="43.74633" lon="7.01524">
        <ele>885.79998779297</ele>
        <time>2011-12-17T14:23:12.000Z</time>
      </trkpt>
      <trkpt lat="43.74642" lon="7.01514">
        <ele>883.59997558594</ele>
        <time>2011-12-17T14:23:18.000Z</time>
      </trkpt>
      <trkpt lat="43.74649" lon="7.01503">
        <ele>881</ele>
        <time>2011-12-17T14:23:22.000Z</time>
      </trkpt>
      <trkpt lat="43.74656" lon="7.01493">
        <ele>879.20001220703</ele>
        <time>2011-12-17T14:23:27.000Z</time>
      </trkpt>
      <trkpt lat="43.74661" lon="7.01481">
        <ele>876.59997558594</ele>
        <time>2011-12-17T14:23:31.000Z</time>
      </trkpt>
      <trkpt lat="43.74665" lon="7.01463">
        <ele>872</ele>
        <time>2011-12-17T14:23:35.000Z</time>
      </trkpt>
      <trkpt lat="43.74667" lon="7.01433">
        <ele>862.79998779297</ele>
        <time>2011-12-17T14:23:41.000Z</time>
      </trkpt>
      <trkpt lat="43.74669" lon="7.01413">
        <ele>856.59997558594</ele>
        <time>2011-12-17T14:23:45.000Z</time>
      </trkpt>
      <trkpt lat="43.74673" lon="7.01403">
        <ele>854.40002441406</ele>
        <time>2011-12-17T14:23:48.000Z</time>
      </trkpt>
      <trkpt lat="43.74678" lon="7.01396">
        <ele>853.79998779297</ele>
        <time>2011-12-17T14:23:54.000Z</time>
      </trkpt>
      <trkpt lat="43.74667" lon="7.014">
        <ele>851.59997558594</ele>
        <time>2011-12-17T14:23:59.000Z</time>
      </trkpt>
      <trkpt lat="43.74665" lon="7.01403">
        <ele>852</ele>
        <time>2011-12-17T14:24:00.000Z</time>
      </trkpt>
      <trkpt lat="43.74653" lon="7.01422">
        <ele>854</ele>
        <time>2011-12-17T14:24:05.000Z</time>
      </trkpt>
      <trkpt lat="43.74639" lon="7.01439">
        <ele>854.59997558594</ele>
        <time>2011-12-17T14:24:10.000Z</time>
      </trkpt>
      <trkpt lat="43.74632" lon="7.01446">
        <ele>855</ele>
        <time>2011-12-17T14:24:13.000Z</time>
      </trkpt>
      <trkpt lat="43.74629" lon="7.01443">
        <ele>852.79998779297</ele>
        <time>2011-12-17T14:24:17.000Z</time>
      </trkpt>
      <trkpt lat="43.74629" lon="7.01441">
        <ele>852</ele>
        <time>2011-12-17T14:24:18.000Z</time>
      </trkpt>
      <trkpt lat="43.74635" lon="7.01413">
        <ele>843.79998779297</ele>
        <time>2011-12-17T14:24:24.000Z</time>
      </trkpt>
      <trkpt lat="43.74636" lon="7.01392">
        <ele>837.59997558594</ele>
        <time>2011-12-17T14:24:29.000Z</time>
      </trkpt>
      <trkpt lat="43.74635" lon="7.01391">
        <ele>836.79998779297</ele>
        <time>2011-12-17T14:24:32.000Z</time>
      </trkpt>
      <trkpt lat="43.74624" lon="7.01403">
        <ele>836.59997558594</ele>
        <time>2011-12-17T14:24:38.000Z</time>
      </trkpt>
      <trkpt lat="43.74608" lon="7.0142">
        <ele>836.20001220703</ele>
        <time>2011-12-17T14:24:43.000Z</time>
      </trkpt>
      <trkpt lat="43.74596" lon="7.01425">
        <ele>834.20001220703</ele>
        <time>2011-12-17T14:24:47.000Z</time>
      </trkpt>
      <trkpt lat="43.74579" lon="7.01426">
        <ele>828.40002441406</ele>
        <time>2011-12-17T14:24:51.000Z</time>
      </trkpt>
      <trkpt lat="43.7456" lon="7.01429">
        <ele>823.20001220703</ele>
        <time>2011-12-17T14:24:56.000Z</time>
      </trkpt>
      <trkpt lat="43.74539" lon="7.01442">
        <ele>821.40002441406</ele>
        <time>2011-12-17T14:25:01.000Z</time>
      </trkpt>
      <trkpt lat="43.74527" lon="7.01453">
        <ele>822.20001220703</ele>
        <time>2011-12-17T14:25:05.000Z</time>
      </trkpt>
      <trkpt lat="43.74509" lon="7.01466">
        <ele>821.79998779297</ele>
        <time>2011-12-17T14:25:10.000Z</time>
      </trkpt>
      <trkpt lat="43.74501" lon="7.01471">
        <ele>821.20001220703</ele>
        <time>2011-12-17T14:25:12.000Z</time>
      </trkpt>
      <trkpt lat="43.74479" lon="7.0148">
        <ele>816.40002441406</ele>
        <time>2011-12-17T14:25:17.000Z</time>
      </trkpt>
      <trkpt lat="43.74457" lon="7.01487">
        <ele>810.40002441406</ele>
        <time>2011-12-17T14:25:23.000Z</time>
      </trkpt>
      <trkpt lat="43.74446" lon="7.01497">
        <ele>809.40002441406</ele>
        <time>2011-12-17T14:25:27.000Z</time>
      </trkpt>
      <trkpt lat="43.74439" lon="7.01501">
        <ele>808</ele>
        <time>2011-12-17T14:25:29.000Z</time>
      </trkpt>
      <trkpt lat="43.74421" lon="7.01522">
        <ele>808</ele>
        <time>2011-12-17T14:25:35.000Z</time>
      </trkpt>
      <trkpt lat="43.74408" lon="7.01534">
        <ele>807.79998779297</ele>
        <time>2011-12-17T14:25:40.000Z</time>
      </trkpt>
      <trkpt lat="43.74392" lon="7.01541">
        <ele>805.79998779297</ele>
        <time>2011-12-17T14:25:45.000Z</time>
      </trkpt>
      <trkpt lat="43.74386" lon="7.01546">
        <ele>805.59997558594</ele>
        <time>2011-12-17T14:25:50.000Z</time>
      </trkpt>
      <trkpt lat="43.74379" lon="7.01552">
        <ele>805.59997558594</ele>
        <time>2011-12-17T14:25:54.000Z</time>
      </trkpt>
      <trkpt lat="43.74372" lon="7.0156">
        <ele>805.59997558594</ele>
        <time>2011-12-17T14:25:58.000Z</time>
      </trkpt>
      <trkpt lat="43.74357" lon="7.01562">
        <ele>801.40002441406</ele>
        <time>2011-12-17T14:26:02.000Z</time>
      </trkpt>
      <trkpt lat="43.74355" lon="7.01562">
        <ele>800.59997558594</ele>
        <time>2011-12-17T14:26:03.000Z</time>
      </trkpt>
      <trkpt lat="43.74349" lon="7.01556">
        <ele>797</ele>
        <time>2011-12-17T14:26:08.000Z</time>
      </trkpt>
      <trkpt lat="43.74353" lon="7.0155">
        <ele>796.79998779297</ele>
        <time>2011-12-17T14:26:10.000Z</time>
      </trkpt>
      <trkpt lat="43.74363" lon="7.01534">
        <ele>795</ele>
        <time>2011-12-17T14:26:15.000Z</time>
      </trkpt>
      <trkpt lat="43.74376" lon="7.01524">
        <ele>795.79998779297</ele>
        <time>2011-12-17T14:26:20.000Z</time>
      </trkpt>
      <trkpt lat="43.74378" lon="7.01523">
        <ele>796.20001220703</ele>
        <time>2011-12-17T14:26:21.000Z</time>
      </trkpt>
      <trkpt lat="43.74375" lon="7.01518">
        <ele>793.79998779297</ele>
        <time>2011-12-17T14:26:25.000Z</time>
      </trkpt>
      <trkpt lat="43.74362" lon="7.01518">
        <ele>790.20001220703</ele>
        <time>2011-12-17T14:26:30.000Z</time>
      </trkpt>
      <trkpt lat="43.74352" lon="7.01519">
        <ele>787.79998779297</ele>
        <time>2011-12-17T14:26:33.000Z</time>
      </trkpt>
      <trkpt lat="43.74351" lon="7.0151">
        <ele>784.79998779297</ele>
        <time>2011-12-17T14:26:37.000Z</time>
      </trkpt>
      <trkpt lat="43.74355" lon="7.01497">
        <ele>782.20001220703</ele>
        <time>2011-12-17T14:26:41.000Z</time>
      </trkpt>
      <trkpt lat="43.74347" lon="7.01491">
        <ele>778.40002441406</ele>
        <time>2011-12-17T14:26:44.000Z</time>
      </trkpt>
      <trkpt lat="43.74336" lon="7.01495">
        <ele>777.20001220703</ele>
        <time>2011-12-17T14:26:48.000Z</time>
      </trkpt>
      <trkpt lat="43.74322" lon="7.01482">
        <ele>771.20001220703</ele>
        <time>2011-12-17T14:26:52.000Z</time>
      </trkpt>
      <trkpt lat="43.74311" lon="7.01481">
        <ele>769.79998779297</ele>
        <time>2011-12-17T14:26:55.000Z</time>
      </trkpt>
      <trkpt lat="43.74306" lon="7.01481">
        <ele>769</ele>
        <time>2011-12-17T14:26:56.000Z</time>
      </trkpt>
      <trkpt lat="43.74296" lon="7.01481">
        <ele>768</ele>
        <time>2011-12-17T14:26:58.000Z</time>
      </trkpt>
      <trkpt lat="43.74266" lon="7.0148">
        <ele>764.20001220703</ele>
        <time>2011-12-17T14:27:04.000Z</time>
      </trkpt>
      <trkpt lat="43.7424" lon="7.01481">
        <ele>762.20001220703</ele>
        <time>2011-12-17T14:27:10.000Z</time>
      </trkpt>
      <trkpt lat="43.74222" lon="7.01467">
        <ele>757.40002441406</ele>
        <time>2011-12-17T14:27:14.000Z</time>
      </trkpt>
      <trkpt lat="43.74194" lon="7.01462">
        <ele>755</ele>
        <time>2011-12-17T14:27:19.000Z</time>
      </trkpt>
      <trkpt lat="43.74178" lon="7.01458">
        <ele>753.40002441406</ele>
        <time>2011-12-17T14:27:22.000Z</time>
      </trkpt>
      <trkpt lat="43.74167" lon="7.01456">
        <ele>752.40002441406</ele>
        <time>2011-12-17T14:27:24.000Z</time>
      </trkpt>
      <trkpt lat="43.74147" lon="7.01456">
        <ele>753.40002441406</ele>
        <time>2011-12-17T14:27:28.000Z</time>
      </trkpt>
      <trkpt lat="43.74126" lon="7.01448">
        <ele>752.40002441406</ele>
        <time>2011-12-17T14:27:32.000Z</time>
      </trkpt>
      <trkpt lat="43.74098" lon="7.01423">
        <ele>748.20001220703</ele>
        <time>2011-12-17T14:27:37.000Z</time>
      </trkpt>
      <trkpt lat="43.74087" lon="7.01411">
        <ele>746.40002441406</ele>
        <time>2011-12-17T14:27:39.000Z</time>
      </trkpt>
      <trkpt lat="43.74069" lon="7.01382">
        <ele>740</ele>
        <time>2011-12-17T14:27:44.000Z</time>
      </trkpt>
      <trkpt lat="43.74066" lon="7.01376">
        <ele>738.79998779297</ele>
        <time>2011-12-17T14:27:45.000Z</time>
      </trkpt>
      <trkpt lat="43.74055" lon="7.01352">
        <ele>733.40002441406</ele>
        <time>2011-12-17T14:27:50.000Z</time>
      </trkpt>
      <trkpt lat="43.7405" lon="7.01329">
        <ele>728.20001220703</ele>
        <time>2011-12-17T14:27:57.000Z</time>
      </trkpt>
      <trkpt lat="43.7404" lon="7.01314">
        <ele>725.79998779297</ele>
        <time>2011-12-17T14:28:02.000Z</time>
      </trkpt>
      <trkpt lat="43.74025" lon="7.01303">
        <ele>724.20001220703</ele>
        <time>2011-12-17T14:28:07.000Z</time>
      </trkpt>
      <trkpt lat="43.74011" lon="7.01298">
        <ele>723.79998779297</ele>
        <time>2011-12-17T14:28:11.000Z</time>
      </trkpt>
      <trkpt lat="43.73993" lon="7.0129">
        <ele>723</ele>
        <time>2011-12-17T14:28:16.000Z</time>
      </trkpt>
      <trkpt lat="43.73991" lon="7.01288">
        <ele>722.59997558594</ele>
        <time>2011-12-17T14:28:19.000Z</time>
      </trkpt>
      <trkpt lat="43.73989" lon="7.01286">
        <ele>722.20001220703</ele>
        <time>2011-12-17T14:28:27.000Z</time>
      </trkpt>
      <trkpt lat="43.73986" lon="7.01283">
        <ele>721.79998779297</ele>
        <time>2011-12-17T14:28:31.000Z</time>
      </trkpt>
      <trkpt lat="43.73985" lon="7.01286">
        <ele>722.40002441406</ele>
        <time>2011-12-17T14:28:33.000Z</time>
      </trkpt>
      <trkpt lat="43.73991" lon="7.01294">
        <ele>723.59997558594</ele>
        <time>2011-12-17T14:28:47.000Z</time>
      </trkpt>
      <trkpt lat="43.73991" lon="7.01294">
        <ele>723.79998779297</ele>
        <time>2011-12-17T14:28:59.000Z</time>
      </trkpt>
      <trkpt lat="43.73984" lon="7.0129">
        <ele>723.20001220703</ele>
        <time>2011-12-17T14:29:12.000Z</time>
      </trkpt>
      <trkpt lat="43.73973" lon="7.01288">
        <ele>723.20001220703</ele>
        <time>2011-12-17T14:29:19.000Z</time>
      </trkpt>
      <trkpt lat="43.7397" lon="7.01287">
        <ele>723</ele>
        <time>2011-12-17T14:29:21.000Z</time>
      </trkpt>
      <trkpt lat="43.73961" lon="7.0129">
        <ele>723.79998779297</ele>
        <time>2011-12-17T14:29:28.000Z</time>
      </trkpt>
      <trkpt lat="43.73957" lon="7.01289">
        <ele>723.79998779297</ele>
        <time>2011-12-17T14:29:30.000Z</time>
      </trkpt>
      <trkpt lat="43.7395" lon="7.01291">
        <ele>724.40002441406</ele>
        <time>2011-12-17T14:29:34.000Z</time>
      </trkpt>
      <trkpt lat="43.73942" lon="7.01298">
        <ele>726</ele>
        <time>2011-12-17T14:29:40.000Z</time>
      </trkpt>
      <trkpt lat="43.7393" lon="7.01299">
        <ele>726.59997558594</ele>
        <time>2011-12-17T14:29:46.000Z</time>
      </trkpt>
      <trkpt lat="43.73919" lon="7.01299">
        <ele>727.20001220703</ele>
        <time>2011-12-17T14:29:52.000Z</time>
      </trkpt>
      <trkpt lat="43.73906" lon="7.01302">
        <ele>729</ele>
        <time>2011-12-17T14:29:59.000Z</time>
      </trkpt>
      <trkpt lat="43.73895" lon="7.01301">
        <ele>730</ele>
        <time>2011-12-17T14:30:06.000Z</time>
      </trkpt>
      <trkpt lat="43.73888" lon="7.01299">
        <ele>730.40002441406</ele>
        <time>2011-12-17T14:30:11.000Z</time>
      </trkpt>
      <trkpt lat="43.73877" lon="7.01299">
        <ele>731.59997558594</ele>
        <time>2011-12-17T14:30:17.000Z</time>
      </trkpt>
      <trkpt lat="43.7388" lon="7.01309">
        <ele>732.79998779297</ele>
        <time>2011-12-17T14:30:29.000Z</time>
      </trkpt>
      <trkpt lat="43.73884" lon="7.01319">
        <ele>734.40002441406</ele>
        <time>2011-12-17T14:30:42.000Z</time>
      </trkpt>
      <trkpt lat="43.73884" lon="7.0132">
        <ele>734.40002441406</ele>
        <time>2011-12-17T14:30:49.000Z</time>
      </trkpt>
      <trkpt lat="43.73883" lon="7.01314">
        <ele>733.59997558594</ele>
        <time>2011-12-17T14:31:11.000Z</time>
      </trkpt>
      <trkpt lat="43.73876" lon="7.01311">
        <ele>733.59997558594</ele>
        <time>2011-12-17T14:31:29.000Z</time>
      </trkpt>
      <trkpt lat="43.73872" lon="7.013">
        <ele>732.20001220703</ele>
        <time>2011-12-17T14:31:42.000Z</time>
      </trkpt>
      <trkpt lat="43.73866" lon="7.01297">
        <ele>732.40002441406</ele>
        <time>2011-12-17T14:32:17.000Z</time>
      </trkpt>
      <trkpt lat="43.7387" lon="7.01303">
        <ele>733</ele>
        <time>2011-12-17T14:32:28.000Z</time>
      </trkpt>
      <trkpt lat="43.73874" lon="7.01318">
        <ele>735</ele>
        <time>2011-12-17T14:32:38.000Z</time>
      </trkpt>
      <trkpt lat="43.73874" lon="7.01319">
        <ele>735.20001220703</ele>
        <time>2011-12-17T14:32:45.000Z</time>
      </trkpt>
      <trkpt lat="43.73873" lon="7.01319">
        <ele>735.40002441406</ele>
        <time>2011-12-17T14:32:49.000Z</time>
      </trkpt>
      <trkpt lat="43.7387" lon="7.01319">
        <ele>735.40002441406</ele>
        <time>2011-12-17T14:32:51.000Z</time>
      </trkpt>
      <trkpt lat="43.73858" lon="7.0131">
        <ele>735.20001220703</ele>
        <time>2011-12-17T14:32:57.000Z</time>
      </trkpt>
      <trkpt lat="43.73853" lon="7.01306">
        <ele>735</ele>
        <time>2011-12-17T14:32:59.000Z</time>
      </trkpt>
      <trkpt lat="43.73832" lon="7.01308">
        <ele>737.59997558594</ele>
        <time>2011-12-17T14:33:06.000Z</time>
      </trkpt>
      <trkpt lat="43.73817" lon="7.01324">
        <ele>742.59997558594</ele>
        <time>2011-12-17T14:33:11.000Z</time>
      </trkpt>
      <trkpt lat="43.73811" lon="7.01343">
        <ele>745.79998779297</ele>
        <time>2011-12-17T14:33:15.000Z</time>
      </trkpt>
      <trkpt lat="43.73808" lon="7.01362">
        <ele>749</ele>
        <time>2011-12-17T14:33:20.000Z</time>
      </trkpt>
      <trkpt lat="43.73805" lon="7.01363">
        <ele>749.59997558594</ele>
        <time>2011-12-17T14:33:22.000Z</time>
      </trkpt>
      <trkpt lat="43.73802" lon="7.0137">
        <ele>750.79998779297</ele>
        <time>2011-12-17T14:33:27.000Z</time>
      </trkpt>
      <trkpt lat="43.73801" lon="7.01377">
        <ele>751.79998779297</ele>
        <time>2011-12-17T14:33:33.000Z</time>
      </trkpt>
      <trkpt lat="43.73802" lon="7.01386">
        <ele>753</ele>
        <time>2011-12-17T14:33:39.000Z</time>
      </trkpt>
      <trkpt lat="43.73798" lon="7.01393">
        <ele>754.20001220703</ele>
        <time>2011-12-17T14:33:46.000Z</time>
      </trkpt>
      <trkpt lat="43.73789" lon="7.014">
        <ele>756</ele>
        <time>2011-12-17T14:34:00.000Z</time>
      </trkpt>
      <trkpt lat="43.73786" lon="7.014">
        <ele>756.20001220703</ele>
        <time>2011-12-17T14:34:06.000Z</time>
      </trkpt>
      <trkpt lat="43.7378" lon="7.01398">
        <ele>756.59997558594</ele>
        <time>2011-12-17T14:34:11.000Z</time>
      </trkpt>
      <trkpt lat="43.73776" lon="7.01397">
        <ele>757</ele>
        <time>2011-12-17T14:34:19.000Z</time>
      </trkpt>
      <trkpt lat="43.73773" lon="7.01396">
        <ele>757.40002441406</ele>
        <time>2011-12-17T14:34:25.000Z</time>
      </trkpt>
      <trkpt lat="43.73768" lon="7.01394">
        <ele>757.79998779297</ele>
        <time>2011-12-17T14:34:31.000Z</time>
      </trkpt>
      <trkpt lat="43.73764" lon="7.01393">
        <ele>758.20001220703</ele>
        <time>2011-12-17T14:34:40.000Z</time>
      </trkpt>
      <trkpt lat="43.73759" lon="7.01392">
        <ele>758.79998779297</ele>
        <time>2011-12-17T14:34:46.000Z</time>
      </trkpt>
      <trkpt lat="43.73757" lon="7.01396">
        <ele>759.20001220703</ele>
        <time>2011-12-17T14:34:55.000Z</time>
      </trkpt>
      <trkpt lat="43.73753" lon="7.014">
        <ele>760</ele>
        <time>2011-12-17T14:35:01.000Z</time>
      </trkpt>
      <trkpt lat="43.73748" lon="7.01402">
        <ele>760.59997558594</ele>
        <time>2011-12-17T14:35:06.000Z</time>
      </trkpt>
      <trkpt lat="43.73743" lon="7.01405">
        <ele>761.59997558594</ele>
        <time>2011-12-17T14:35:13.000Z</time>
      </trkpt>
      <trkpt lat="43.73738" lon="7.01403">
        <ele>762.40002441406</ele>
        <time>2011-12-17T14:35:19.000Z</time>
      </trkpt>
      <trkpt lat="43.73733" lon="7.01397">
        <ele>763.20001220703</ele>
        <time>2011-12-17T14:35:27.000Z</time>
      </trkpt>
      <trkpt lat="43.73729" lon="7.01397">
        <ele>763.79998779297</ele>
        <time>2011-12-17T14:35:33.000Z</time>
      </trkpt>
      <trkpt lat="43.73721" lon="7.0141">
        <ele>766</ele>
        <time>2011-12-17T14:35:46.000Z</time>
      </trkpt>
      <trkpt lat="43.73718" lon="7.01413">
        <ele>766.59997558594</ele>
        <time>2011-12-17T14:35:51.000Z</time>
      </trkpt>
      <trkpt lat="43.73716" lon="7.01416">
        <ele>767</ele>
        <time>2011-12-17T14:35:56.000Z</time>
      </trkpt>
      <trkpt lat="43.73712" lon="7.0142">
        <ele>768.20001220703</ele>
        <time>2011-12-17T14:36:02.000Z</time>
      </trkpt>
      <trkpt lat="43.73708" lon="7.0142">
        <ele>769</ele>
        <time>2011-12-17T14:36:07.000Z</time>
      </trkpt>
      <trkpt lat="43.737" lon="7.01422">
        <ele>770.59997558594</ele>
        <time>2011-12-17T14:36:15.000Z</time>
      </trkpt>
      <trkpt lat="43.73696" lon="7.01423">
        <ele>771.40002441406</ele>
        <time>2011-12-17T14:36:23.000Z</time>
      </trkpt>
      <trkpt lat="43.73693" lon="7.01428">
        <ele>772.20001220703</ele>
        <time>2011-12-17T14:36:29.000Z</time>
      </trkpt>
      <trkpt lat="43.73692" lon="7.01431">
        <ele>772.79998779297</ele>
        <time>2011-12-17T14:36:35.000Z</time>
      </trkpt>
      <trkpt lat="43.73688" lon="7.01432">
        <ele>773.59997558594</ele>
        <time>2011-12-17T14:36:43.000Z</time>
      </trkpt>
      <trkpt lat="43.73685" lon="7.01426">
        <ele>773.40002441406</ele>
        <time>2011-12-17T14:36:48.000Z</time>
      </trkpt>
      <trkpt lat="43.73684" lon="7.0142">
        <ele>773.20001220703</ele>
        <time>2011-12-17T14:36:51.000Z</time>
      </trkpt>
      <trkpt lat="43.73681" lon="7.01413">
        <ele>773.20001220703</ele>
        <time>2011-12-17T14:36:55.000Z</time>
      </trkpt>
      <trkpt lat="43.73676" lon="7.01405">
        <ele>774</ele>
        <time>2011-12-17T14:37:07.000Z</time>
      </trkpt>
      <trkpt lat="43.7367" lon="7.01403">
        <ele>775</ele>
        <time>2011-12-17T14:37:17.000Z</time>
      </trkpt>
      <trkpt lat="43.73667" lon="7.01401">
        <ele>775.40002441406</ele>
        <time>2011-12-17T14:37:29.000Z</time>
      </trkpt>
      <trkpt lat="43.73677" lon="7.01406">
        <ele>773.79998779297</ele>
        <time>2011-12-17T14:37:50.000Z</time>
      </trkpt>
      <trkpt lat="43.73673" lon="7.01402">
        <ele>774.20001220703</ele>
        <time>2011-12-17T14:37:56.000Z</time>
      </trkpt>
      <trkpt lat="43.73671" lon="7.01401">
        <ele>774.59997558594</ele>
        <time>2011-12-17T14:38:02.000Z</time>
      </trkpt>
      <trkpt lat="43.73667" lon="7.01397">
        <ele>775.20001220703</ele>
        <time>2011-12-17T14:38:05.000Z</time>
      </trkpt>
      <trkpt lat="43.73663" lon="7.0139">
        <ele>775.79998779297</ele>
        <time>2011-12-17T14:38:11.000Z</time>
      </trkpt>
      <trkpt lat="43.7366" lon="7.01387">
        <ele>776</ele>
        <time>2011-12-17T14:38:16.000Z</time>
      </trkpt>
      <trkpt lat="43.73654" lon="7.01381">
        <ele>776.79998779297</ele>
        <time>2011-12-17T14:38:23.000Z</time>
      </trkpt>
      <trkpt lat="43.73652" lon="7.01377">
        <ele>777</ele>
        <time>2011-12-17T14:38:27.000Z</time>
      </trkpt>
      <trkpt lat="43.73646" lon="7.01379">
        <ele>778.20001220703</ele>
        <time>2011-12-17T14:38:34.000Z</time>
      </trkpt>
      <trkpt lat="43.73641" lon="7.01376">
        <ele>779</ele>
        <time>2011-12-17T14:38:39.000Z</time>
      </trkpt>
      <trkpt lat="43.73636" lon="7.01372">
        <ele>779.79998779297</ele>
        <time>2011-12-17T14:38:58.000Z</time>
      </trkpt>
      <trkpt lat="43.73643" lon="7.01375">
        <ele>778.59997558594</ele>
        <time>2011-12-17T14:39:36.000Z</time>
      </trkpt>
      <trkpt lat="43.73638" lon="7.01373">
        <ele>779.40002441406</ele>
        <time>2011-12-17T14:39:50.000Z</time>
      </trkpt>
      <trkpt lat="43.73635" lon="7.01376">
        <ele>780</ele>
        <time>2011-12-17T14:40:00.000Z</time>
      </trkpt>
      <trkpt lat="43.73634" lon="7.01376">
        <ele>780.20001220703</ele>
        <time>2011-12-17T14:40:12.000Z</time>
      </trkpt>
      <trkpt lat="43.73626" lon="7.01374">
        <ele>781.59997558594</ele>
        <time>2011-12-17T14:40:18.000Z</time>
      </trkpt>
      <trkpt lat="43.73623" lon="7.01373">
        <ele>782</ele>
        <time>2011-12-17T14:40:22.000Z</time>
      </trkpt>
      <trkpt lat="43.73621" lon="7.01368">
        <ele>782.59997558594</ele>
        <time>2011-12-17T14:40:27.000Z</time>
      </trkpt>
      <trkpt lat="43.73618" lon="7.01361">
        <ele>783</ele>
        <time>2011-12-17T14:40:33.000Z</time>
      </trkpt>
      <trkpt lat="43.73615" lon="7.01352">
        <ele>783.79998779297</ele>
        <time>2011-12-17T14:40:38.000Z</time>
      </trkpt>
      <trkpt lat="43.73613" lon="7.01346">
        <ele>784.40002441406</ele>
        <time>2011-12-17T14:40:41.000Z</time>
      </trkpt>
      <trkpt lat="43.73608" lon="7.01335">
        <ele>785.59997558594</ele>
        <time>2011-12-17T14:40:48.000Z</time>
      </trkpt>
      <trkpt lat="43.73606" lon="7.01328">
        <ele>786</ele>
        <time>2011-12-17T14:40:52.000Z</time>
      </trkpt>
      <trkpt lat="43.73603" lon="7.0132">
        <ele>786.20001220703</ele>
        <time>2011-12-17T14:40:58.000Z</time>
      </trkpt>
      <trkpt lat="43.73603" lon="7.01317">
        <ele>786.20001220703</ele>
        <time>2011-12-17T14:41:01.000Z</time>
      </trkpt>
      <trkpt lat="43.736" lon="7.01321">
        <ele>787</ele>
        <time>2011-12-17T14:41:09.000Z</time>
      </trkpt>
      <trkpt lat="43.73595" lon="7.01321">
        <ele>788</ele>
        <time>2011-12-17T14:41:16.000Z</time>
      </trkpt>
      <trkpt lat="43.73591" lon="7.01324">
        <ele>789</ele>
        <time>2011-12-17T14:41:23.000Z</time>
      </trkpt>
      <trkpt lat="43.73588" lon="7.01328">
        <ele>789.79998779297</ele>
        <time>2011-12-17T14:41:31.000Z</time>
      </trkpt>
      <trkpt lat="43.73584" lon="7.0133">
        <ele>790.79998779297</ele>
        <time>2011-12-17T14:41:37.000Z</time>
      </trkpt>
      <trkpt lat="43.73577" lon="7.01332">
        <ele>792</ele>
        <time>2011-12-17T14:41:44.000Z</time>
      </trkpt>
      <trkpt lat="43.73571" lon="7.01335">
        <ele>793</ele>
        <time>2011-12-17T14:41:52.000Z</time>
      </trkpt>
      <trkpt lat="43.73567" lon="7.0134">
        <ele>793.40002441406</ele>
        <time>2011-12-17T14:41:59.000Z</time>
      </trkpt>
      <trkpt lat="43.73562" lon="7.01337">
        <ele>794.40002441406</ele>
        <time>2011-12-17T14:42:03.000Z</time>
      </trkpt>
      <trkpt lat="43.73555" lon="7.01325">
        <ele>795.59997558594</ele>
        <time>2011-12-17T14:42:13.000Z</time>
      </trkpt>
      <trkpt lat="43.73551" lon="7.01317">
        <ele>796.20001220703</ele>
        <time>2011-12-17T14:42:21.000Z</time>
      </trkpt>
      <trkpt lat="43.73548" lon="7.0131">
        <ele>796.79998779297</ele>
        <time>2011-12-17T14:42:27.000Z</time>
      </trkpt>
      <trkpt lat="43.73547" lon="7.01304">
        <ele>796.79998779297</ele>
        <time>2011-12-17T14:42:33.000Z</time>
      </trkpt>
      <trkpt lat="43.73545" lon="7.01299">
        <ele>797.20001220703</ele>
        <time>2011-12-17T14:42:40.000Z</time>
      </trkpt>
      <trkpt lat="43.73543" lon="7.01299">
        <ele>797.40002441406</ele>
        <time>2011-12-17T14:42:49.000Z</time>
      </trkpt>
      <trkpt lat="43.73545" lon="7.01298">
        <ele>797</ele>
        <time>2011-12-17T14:43:00.000Z</time>
      </trkpt>
      <trkpt lat="43.73546" lon="7.01295">
        <ele>796.79998779297</ele>
        <time>2011-12-17T14:43:16.000Z</time>
      </trkpt>
      <trkpt lat="43.73548" lon="7.01296">
        <ele>796.59997558594</ele>
        <time>2011-12-17T14:43:28.000Z</time>
      </trkpt>
      <trkpt lat="43.73544" lon="7.01293">
        <ele>797.20001220703</ele>
        <time>2011-12-17T14:44:15.000Z</time>
      </trkpt>
      <trkpt lat="43.73531" lon="7.01288">
        <ele>800</ele>
        <time>2011-12-17T14:44:22.000Z</time>
      </trkpt>
      <trkpt lat="43.73522" lon="7.01283">
        <ele>801.59997558594</ele>
        <time>2011-12-17T14:44:26.000Z</time>
      </trkpt>
      <trkpt lat="43.73513" lon="7.01275">
        <ele>803.59997558594</ele>
        <time>2011-12-17T14:44:30.000Z</time>
      </trkpt>
      <trkpt lat="43.73506" lon="7.01272">
        <ele>805.20001220703</ele>
        <time>2011-12-17T14:44:33.000Z</time>
      </trkpt>
      <trkpt lat="43.73498" lon="7.01269">
        <ele>806.79998779297</ele>
        <time>2011-12-17T14:44:38.000Z</time>
      </trkpt>
      <trkpt lat="43.73491" lon="7.01267">
        <ele>808</ele>
        <time>2011-12-17T14:44:43.000Z</time>
      </trkpt>
      <trkpt lat="43.73486" lon="7.01266">
        <ele>809</ele>
        <time>2011-12-17T14:44:47.000Z</time>
      </trkpt>
      <trkpt lat="43.73481" lon="7.01263">
        <ele>809.79998779297</ele>
        <time>2011-12-17T14:44:53.000Z</time>
      </trkpt>
      <trkpt lat="43.73476" lon="7.01264">
        <ele>810.59997558594</ele>
        <time>2011-12-17T14:44:58.000Z</time>
      </trkpt>
      <trkpt lat="43.73476" lon="7.01265">
        <ele>810.59997558594</ele>
        <time>2011-12-17T14:45:38.000Z</time>
      </trkpt>
      <trkpt lat="43.73475" lon="7.01264">
        <ele>810.79998779297</ele>
        <time>2011-12-17T14:45:49.000Z</time>
      </trkpt>
      <trkpt lat="43.73472" lon="7.01266">
        <ele>811.40002441406</ele>
        <time>2011-12-17T14:46:01.000Z</time>
      </trkpt>
      <trkpt lat="43.7347" lon="7.01269">
        <ele>811.59997558594</ele>
        <time>2011-12-17T14:46:07.000Z</time>
      </trkpt>
      <trkpt lat="43.73465" lon="7.01271">
        <ele>812.40002441406</ele>
        <time>2011-12-17T14:46:13.000Z</time>
      </trkpt>
      <trkpt lat="43.73461" lon="7.0127">
        <ele>813</ele>
        <time>2011-12-17T14:46:18.000Z</time>
      </trkpt>
      <trkpt lat="43.73458" lon="7.01265">
        <ele>813.79998779297</ele>
        <time>2011-12-17T14:46:22.000Z</time>
      </trkpt>
      <trkpt lat="43.73453" lon="7.01258">
        <ele>814.79998779297</ele>
        <time>2011-12-17T14:46:26.000Z</time>
      </trkpt>
      <trkpt lat="43.73445" lon="7.0125">
        <ele>816.20001220703</ele>
        <time>2011-12-17T14:46:31.000Z</time>
      </trkpt>
      <trkpt lat="43.73438" lon="7.01243">
        <ele>817.20001220703</ele>
        <time>2011-12-17T14:46:35.000Z</time>
      </trkpt>
      <trkpt lat="43.73429" lon="7.01227">
        <ele>817.79998779297</ele>
        <time>2011-12-17T14:46:42.000Z</time>
      </trkpt>
      <trkpt lat="43.73428" lon="7.01224">
        <ele>817.79998779297</ele>
        <time>2011-12-17T14:46:43.000Z</time>
      </trkpt>
      <trkpt lat="43.7342" lon="7.01213">
        <ele>818.59997558594</ele>
        <time>2011-12-17T14:46:49.000Z</time>
      </trkpt>
      <trkpt lat="43.73409" lon="7.01199">
        <ele>819.59997558594</ele>
        <time>2011-12-17T14:46:56.000Z</time>
      </trkpt>
      <trkpt lat="43.73397" lon="7.01191">
        <ele>820.79998779297</ele>
        <time>2011-12-17T14:47:00.000Z</time>
      </trkpt>
      <trkpt lat="43.73388" lon="7.01168">
        <ele>821.59997558594</ele>
        <time>2011-12-17T14:47:07.000Z</time>
      </trkpt>
      <trkpt lat="43.73387" lon="7.01162">
        <ele>821.40002441406</ele>
        <time>2011-12-17T14:47:10.000Z</time>
      </trkpt>
      <trkpt lat="43.73386" lon="7.01161">
        <ele>821.79998779297</ele>
        <time>2011-12-17T14:47:19.000Z</time>
      </trkpt>
      <trkpt lat="43.73384" lon="7.0116">
        <ele>822</ele>
        <time>2011-12-17T14:47:33.000Z</time>
      </trkpt>
      <trkpt lat="43.73383" lon="7.01156">
        <ele>822.20001220703</ele>
        <time>2011-12-17T14:47:38.000Z</time>
      </trkpt>
      <trkpt lat="43.73379" lon="7.01156">
        <ele>822.79998779297</ele>
        <time>2011-12-17T14:47:42.000Z</time>
      </trkpt>
      <trkpt lat="43.73375" lon="7.01161">
        <ele>823.59997558594</ele>
        <time>2011-12-17T14:47:46.000Z</time>
      </trkpt>
      <trkpt lat="43.7337" lon="7.01152">
        <ele>824.59997558594</ele>
        <time>2011-12-17T14:47:51.000Z</time>
      </trkpt>
      <trkpt lat="43.73362" lon="7.01142">
        <ele>826.40002441406</ele>
        <time>2011-12-17T14:47:57.000Z</time>
      </trkpt>
      <trkpt lat="43.7336" lon="7.01139">
        <ele>826.79998779297</ele>
        <time>2011-12-17T14:47:59.000Z</time>
      </trkpt>
      <trkpt lat="43.73356" lon="7.01132">
        <ele>828</ele>
        <time>2011-12-17T14:48:04.000Z</time>
      </trkpt>
      <trkpt lat="43.73356" lon="7.0113">
        <ele>828.20001220703</ele>
        <time>2011-12-17T14:48:06.000Z</time>
      </trkpt>
      <trkpt lat="43.73352" lon="7.01122">
        <ele>829.59997558594</ele>
        <time>2011-12-17T14:48:12.000Z</time>
      </trkpt>
      <trkpt lat="43.7335" lon="7.01111">
        <ele>830.79998779297</ele>
        <time>2011-12-17T14:48:18.000Z</time>
      </trkpt>
      <trkpt lat="43.73349" lon="7.01102">
        <ele>831.59997558594</ele>
        <time>2011-12-17T14:48:23.000Z</time>
      </trkpt>
      <trkpt lat="43.73349" lon="7.01091">
        <ele>832.20001220703</ele>
        <time>2011-12-17T14:48:30.000Z</time>
      </trkpt>
      <trkpt lat="43.73348" lon="7.01082">
        <ele>833</ele>
        <time>2011-12-17T14:48:35.000Z</time>
      </trkpt>
      <trkpt lat="43.73346" lon="7.0107">
        <ele>833.59997558594</ele>
        <time>2011-12-17T14:48:43.000Z</time>
      </trkpt>
      <trkpt lat="43.73346" lon="7.01062">
        <ele>833.59997558594</ele>
        <time>2011-12-17T14:48:49.000Z</time>
      </trkpt>
      <trkpt lat="43.73345" lon="7.01054">
        <ele>833.79998779297</ele>
        <time>2011-12-17T14:48:53.000Z</time>
      </trkpt>
      <trkpt lat="43.73342" lon="7.01039">
        <ele>834.59997558594</ele>
        <time>2011-12-17T14:49:02.000Z</time>
      </trkpt>
      <trkpt lat="43.73342" lon="7.01035">
        <ele>834.40002441406</ele>
        <time>2011-12-17T14:49:04.000Z</time>
      </trkpt>
      <trkpt lat="43.73341" lon="7.0103">
        <ele>834.79998779297</ele>
        <time>2011-12-17T14:49:08.000Z</time>
      </trkpt>
      <trkpt lat="43.73337" lon="7.01025">
        <ele>835.79998779297</ele>
        <time>2011-12-17T14:49:13.000Z</time>
      </trkpt>
      <trkpt lat="43.73333" lon="7.01018">
        <ele>837.20001220703</ele>
        <time>2011-12-17T14:49:18.000Z</time>
      </trkpt>
      <trkpt lat="43.73329" lon="7.01009">
        <ele>838</ele>
        <time>2011-12-17T14:49:25.000Z</time>
      </trkpt>
      <trkpt lat="43.73327" lon="7.01005">
        <ele>838.20001220703</ele>
        <time>2011-12-17T14:49:29.000Z</time>
      </trkpt>
      <trkpt lat="43.73322" lon="7.01002">
        <ele>839.20001220703</ele>
        <time>2011-12-17T14:49:33.000Z</time>
      </trkpt>
      <trkpt lat="43.73313" lon="7.00996">
        <ele>840.79998779297</ele>
        <time>2011-12-17T14:49:42.000Z</time>
      </trkpt>
      <trkpt lat="43.73306" lon="7.00992">
        <ele>842</ele>
        <time>2011-12-17T14:49:48.000Z</time>
      </trkpt>
      <trkpt lat="43.73298" lon="7.00988">
        <ele>843.40002441406</ele>
        <time>2011-12-17T14:49:54.000Z</time>
      </trkpt>
      <trkpt lat="43.73289" lon="7.00983">
        <ele>844.79998779297</ele>
        <time>2011-12-17T14:50:02.000Z</time>
      </trkpt>
      <trkpt lat="43.73283" lon="7.00979">
        <ele>845.79998779297</ele>
        <time>2011-12-17T14:50:08.000Z</time>
      </trkpt>
      <trkpt lat="43.73281" lon="7.00978">
        <ele>846</ele>
        <time>2011-12-17T14:50:10.000Z</time>
      </trkpt>
      <trkpt lat="43.73277" lon="7.00975">
        <ele>846.59997558594</ele>
        <time>2011-12-17T14:50:15.000Z</time>
      </trkpt>
      <trkpt lat="43.73264" lon="7.0097">
        <ele>848.40002441406</ele>
        <time>2011-12-17T14:50:21.000Z</time>
      </trkpt>
      <trkpt lat="43.73256" lon="7.00968">
        <ele>849.59997558594</ele>
        <time>2011-12-17T14:50:25.000Z</time>
      </trkpt>
      <trkpt lat="43.73251" lon="7.00964">
        <ele>850.20001220703</ele>
        <time>2011-12-17T14:50:29.000Z</time>
      </trkpt>
      <trkpt lat="43.73249" lon="7.00961">
        <ele>850.40002441406</ele>
        <time>2011-12-17T14:50:31.000Z</time>
      </trkpt>
      <trkpt lat="43.73237" lon="7.00957">
        <ele>851.20001220703</ele>
        <time>2011-12-17T14:50:38.000Z</time>
      </trkpt>
      <trkpt lat="43.73235" lon="7.00957">
        <ele>851.40002441406</ele>
        <time>2011-12-17T14:50:39.000Z</time>
      </trkpt>
      <trkpt lat="43.73227" lon="7.00955">
        <ele>852</ele>
        <time>2011-12-17T14:50:44.000Z</time>
      </trkpt>
      <trkpt lat="43.73219" lon="7.00955">
        <ele>852.79998779297</ele>
        <time>2011-12-17T14:50:50.000Z</time>
      </trkpt>
      <trkpt lat="43.73212" lon="7.00955">
        <ele>853.40002441406</ele>
        <time>2011-12-17T14:50:55.000Z</time>
      </trkpt>
      <trkpt lat="43.73209" lon="7.00953">
        <ele>853.59997558594</ele>
        <time>2011-12-17T14:50:59.000Z</time>
      </trkpt>
      <trkpt lat="43.73196" lon="7.00951">
        <ele>854.79998779297</ele>
        <time>2011-12-17T14:51:07.000Z</time>
      </trkpt>
      <trkpt lat="43.73189" lon="7.0095">
        <ele>855.40002441406</ele>
        <time>2011-12-17T14:51:12.000Z</time>
      </trkpt>
      <trkpt lat="43.7318" lon="7.0095">
        <ele>856.20001220703</ele>
        <time>2011-12-17T14:51:18.000Z</time>
      </trkpt>
      <trkpt lat="43.73171" lon="7.00952">
        <ele>857.20001220703</ele>
        <time>2011-12-17T14:51:25.000Z</time>
      </trkpt>
      <trkpt lat="43.73161" lon="7.00952">
        <ele>858.20001220703</ele>
        <time>2011-12-17T14:51:31.000Z</time>
      </trkpt>
      <trkpt lat="43.73153" lon="7.00951">
        <ele>859</ele>
        <time>2011-12-17T14:51:36.000Z</time>
      </trkpt>
      <trkpt lat="43.73145" lon="7.0095">
        <ele>859.79998779297</ele>
        <time>2011-12-17T14:51:41.000Z</time>
      </trkpt>
      <trkpt lat="43.73136" lon="7.00949">
        <ele>860.59997558594</ele>
        <time>2011-12-17T14:51:48.000Z</time>
      </trkpt>
      <trkpt lat="43.73127" lon="7.00949">
        <ele>861.59997558594</ele>
        <time>2011-12-17T14:51:54.000Z</time>
      </trkpt>
      <trkpt lat="43.73117" lon="7.00949">
        <ele>862.59997558594</ele>
        <time>2011-12-17T14:52:01.000Z</time>
      </trkpt>
      <trkpt lat="43.73108" lon="7.00949">
        <ele>863.40002441406</ele>
        <time>2011-12-17T14:52:07.000Z</time>
      </trkpt>
      <trkpt lat="43.731" lon="7.0095">
        <ele>864.20001220703</ele>
        <time>2011-12-17T14:52:12.000Z</time>
      </trkpt>
      <trkpt lat="43.73093" lon="7.00949">
        <ele>865</ele>
        <time>2011-12-17T14:52:18.000Z</time>
      </trkpt>
      <trkpt lat="43.7309" lon="7.00948">
        <ele>865.20001220703</ele>
        <time>2011-12-17T14:52:23.000Z</time>
      </trkpt>
      <trkpt lat="43.73084" lon="7.00946">
        <ele>866</ele>
        <time>2011-12-17T14:52:29.000Z</time>
      </trkpt>
      <trkpt lat="43.73081" lon="7.00944">
        <ele>866.20001220703</ele>
        <time>2011-12-17T14:52:31.000Z</time>
      </trkpt>
      <trkpt lat="43.73076" lon="7.00944">
        <ele>866.79998779297</ele>
        <time>2011-12-17T14:52:35.000Z</time>
      </trkpt>
      <trkpt lat="43.73068" lon="7.00946">
        <ele>867.59997558594</ele>
        <time>2011-12-17T14:52:42.000Z</time>
      </trkpt>
      <trkpt lat="43.73062" lon="7.00951">
        <ele>868.40002441406</ele>
        <time>2011-12-17T14:52:48.000Z</time>
      </trkpt>
      <trkpt lat="43.73055" lon="7.00952">
        <ele>869.20001220703</ele>
        <time>2011-12-17T14:52:54.000Z</time>
      </trkpt>
      <trkpt lat="43.7305" lon="7.00953">
        <ele>869.59997558594</ele>
        <time>2011-12-17T14:52:58.000Z</time>
      </trkpt>
      <trkpt lat="43.73038" lon="7.00954">
        <ele>871</ele>
        <time>2011-12-17T14:53:05.000Z</time>
      </trkpt>
      <trkpt lat="43.73034" lon="7.00956">
        <ele>871.40002441406</ele>
        <time>2011-12-17T14:53:08.000Z</time>
      </trkpt>
      <trkpt lat="43.73025" lon="7.00956">
        <ele>872.40002441406</ele>
        <time>2011-12-17T14:53:14.000Z</time>
      </trkpt>
      <trkpt lat="43.73012" lon="7.00959">
        <ele>873.79998779297</ele>
        <time>2011-12-17T14:53:23.000Z</time>
      </trkpt>
      <trkpt lat="43.73002" lon="7.00959">
        <ele>874.79998779297</ele>
        <time>2011-12-17T14:53:29.000Z</time>
      </trkpt>
      <trkpt lat="43.73" lon="7.00959">
        <ele>875</ele>
        <time>2011-12-17T14:53:31.000Z</time>
      </trkpt>
      <trkpt lat="43.72992" lon="7.00952">
        <ele>875.59997558594</ele>
        <time>2011-12-17T14:53:37.000Z</time>
      </trkpt>
      <trkpt lat="43.72984" lon="7.00947">
        <ele>875.79998779297</ele>
        <time>2011-12-17T14:53:43.000Z</time>
      </trkpt>
      <trkpt lat="43.72973" lon="7.00943">
        <ele>876.20001220703</ele>
        <time>2011-12-17T14:53:51.000Z</time>
      </trkpt>
      <trkpt lat="43.72968" lon="7.00944">
        <ele>876.40002441406</ele>
        <time>2011-12-17T14:53:56.000Z</time>
      </trkpt>
      <trkpt lat="43.72967" lon="7.00945">
        <ele>876.59997558594</ele>
        <time>2011-12-17T14:54:04.000Z</time>
      </trkpt>
      <trkpt lat="43.72964" lon="7.00945">
        <ele>876.59997558594</ele>
        <time>2011-12-17T14:55:01.000Z</time>
      </trkpt>
      <trkpt lat="43.72965" lon="7.00945">
        <ele>876.59997558594</ele>
        <time>2011-12-17T14:55:08.000Z</time>
      </trkpt>
      <trkpt lat="43.72971" lon="7.00944">
        <ele>876.40002441406</ele>
        <time>2011-12-17T14:55:44.000Z</time>
      </trkpt>
      <trkpt lat="43.72972" lon="7.00945">
        <ele>876.40002441406</ele>
        <time>2011-12-17T14:55:58.000Z</time>
      </trkpt>
      <trkpt lat="43.72968" lon="7.0095">
        <ele>876.59997558594</ele>
        <time>2011-12-17T14:56:56.000Z</time>
      </trkpt>
      <trkpt lat="43.72967" lon="7.00955">
        <ele>876.79998779297</ele>
        <time>2011-12-17T14:56:59.000Z</time>
      </trkpt>
      <trkpt lat="43.72957" lon="7.00978">
        <ele>878</ele>
        <time>2011-12-17T14:57:09.000Z</time>
      </trkpt>
      <trkpt lat="43.72946" lon="7.00999">
        <ele>879.79998779297</ele>
        <time>2011-12-17T14:57:19.000Z</time>
      </trkpt>
      <trkpt lat="43.72933" lon="7.01021">
        <ele>881.79998779297</ele>
        <time>2011-12-17T14:57:29.000Z</time>
      </trkpt>
      <trkpt lat="43.72924" lon="7.01038">
        <ele>883.79998779297</ele>
        <time>2011-12-17T14:57:37.000Z</time>
      </trkpt>
      <trkpt lat="43.72916" lon="7.01053">
        <ele>885.59997558594</ele>
        <time>2011-12-17T14:57:44.000Z</time>
      </trkpt>
      <trkpt lat="43.72907" lon="7.01071">
        <ele>888</ele>
        <time>2011-12-17T14:57:53.000Z</time>
      </trkpt>
      <trkpt lat="43.72901" lon="7.01093">
        <ele>889.59997558594</ele>
        <time>2011-12-17T14:58:02.000Z</time>
      </trkpt>
      <trkpt lat="43.72899" lon="7.01098">
        <ele>889.79998779297</ele>
        <time>2011-12-17T14:58:04.000Z</time>
      </trkpt>
      <trkpt lat="43.72896" lon="7.01108">
        <ele>890.20001220703</ele>
        <time>2011-12-17T14:58:08.000Z</time>
      </trkpt>
      <trkpt lat="43.72885" lon="7.01128">
        <ele>891.79998779297</ele>
        <time>2011-12-17T14:58:16.000Z</time>
      </trkpt>
      <trkpt lat="43.7287" lon="7.0115">
        <ele>894.79998779297</ele>
        <time>2011-12-17T14:58:26.000Z</time>
      </trkpt>
      <trkpt lat="43.72861" lon="7.01163">
        <ele>896.59997558594</ele>
        <time>2011-12-17T14:58:33.000Z</time>
      </trkpt>
      <trkpt lat="43.72852" lon="7.01175">
        <ele>899</ele>
        <time>2011-12-17T14:58:40.000Z</time>
      </trkpt>
      <trkpt lat="43.72846" lon="7.01191">
        <ele>901.20001220703</ele>
        <time>2011-12-17T14:58:47.000Z</time>
      </trkpt>
      <trkpt lat="43.72842" lon="7.0121">
        <ele>903.20001220703</ele>
        <time>2011-12-17T14:58:55.000Z</time>
      </trkpt>
      <trkpt lat="43.7284" lon="7.01221">
        <ele>904</ele>
        <time>2011-12-17T14:59:01.000Z</time>
      </trkpt>
      <trkpt lat="43.72842" lon="7.01235">
        <ele>904.20001220703</ele>
        <time>2011-12-17T14:59:08.000Z</time>
      </trkpt>
      <trkpt lat="43.72848" lon="7.01249">
        <ele>903.40002441406</ele>
        <time>2011-12-17T14:59:15.000Z</time>
      </trkpt>
      <trkpt lat="43.7285" lon="7.01263">
        <ele>904.20001220703</ele>
        <time>2011-12-17T14:59:21.000Z</time>
      </trkpt>
      <trkpt lat="43.72852" lon="7.01282">
        <ele>905.40002441406</ele>
        <time>2011-12-17T14:59:29.000Z</time>
      </trkpt>
      <trkpt lat="43.72852" lon="7.01296">
        <ele>906.79998779297</ele>
        <time>2011-12-17T14:59:35.000Z</time>
      </trkpt>
      <trkpt lat="43.72852" lon="7.01303">
        <ele>907.40002441406</ele>
        <time>2011-12-17T14:59:38.000Z</time>
      </trkpt>
      <trkpt lat="43.7285" lon="7.01312">
        <ele>909</ele>
        <time>2011-12-17T14:59:42.000Z</time>
      </trkpt>
      <trkpt lat="43.72849" lon="7.01318">
        <ele>909.59997558594</ele>
        <time>2011-12-17T14:59:44.000Z</time>
      </trkpt>
      <trkpt lat="43.72846" lon="7.0133">
        <ele>911.59997558594</ele>
        <time>2011-12-17T14:59:49.000Z</time>
      </trkpt>
      <trkpt lat="43.72843" lon="7.01346">
        <ele>914</ele>
        <time>2011-12-17T14:59:57.000Z</time>
      </trkpt>
      <trkpt lat="43.72842" lon="7.01349">
        <ele>914.79998779297</ele>
        <time>2011-12-17T14:59:59.000Z</time>
      </trkpt>
      <trkpt lat="43.72843" lon="7.01367">
        <ele>916.79998779297</ele>
        <time>2011-12-17T15:00:07.000Z</time>
      </trkpt>
      <trkpt lat="43.72843" lon="7.01369">
        <ele>917.20001220703</ele>
        <time>2011-12-17T15:00:08.000Z</time>
      </trkpt>
      <trkpt lat="43.72841" lon="7.01374">
        <ele>918.20001220703</ele>
        <time>2011-12-17T15:00:12.000Z</time>
      </trkpt>
      <trkpt lat="43.72838" lon="7.01375">
        <ele>919</ele>
        <time>2011-12-17T15:00:16.000Z</time>
      </trkpt>
      <trkpt lat="43.72829" lon="7.01372">
        <ele>921.20001220703</ele>
        <time>2011-12-17T15:00:25.000Z</time>
      </trkpt>
      <trkpt lat="43.72826" lon="7.01369">
        <ele>921.79998779297</ele>
        <time>2011-12-17T15:00:28.000Z</time>
      </trkpt>
      <trkpt lat="43.72816" lon="7.01363">
        <ele>924.20001220703</ele>
        <time>2011-12-17T15:00:37.000Z</time>
      </trkpt>
      <trkpt lat="43.72815" lon="7.01362">
        <ele>924.40002441406</ele>
        <time>2011-12-17T15:00:38.000Z</time>
      </trkpt>
      <trkpt lat="43.72806" lon="7.01359">
        <ele>926.59997558594</ele>
        <time>2011-12-17T15:00:46.000Z</time>
      </trkpt>
      <trkpt lat="43.72797" lon="7.01355">
        <ele>928.40002441406</ele>
        <time>2011-12-17T15:00:53.000Z</time>
      </trkpt>
      <trkpt lat="43.72792" lon="7.01349">
        <ele>929.20001220703</ele>
        <time>2011-12-17T15:00:59.000Z</time>
      </trkpt>
      <trkpt lat="43.72784" lon="7.01343">
        <ele>930.59997558594</ele>
        <time>2011-12-17T15:01:06.000Z</time>
      </trkpt>
      <trkpt lat="43.72775" lon="7.01339">
        <ele>932.40002441406</ele>
        <time>2011-12-17T15:01:13.000Z</time>
      </trkpt>
      <trkpt lat="43.72771" lon="7.01328">
        <ele>932.40002441406</ele>
        <time>2011-12-17T15:01:21.000Z</time>
      </trkpt>
      <trkpt lat="43.72768" lon="7.01316">
        <ele>932.40002441406</ele>
        <time>2011-12-17T15:01:29.000Z</time>
      </trkpt>
      <trkpt lat="43.72764" lon="7.0131">
        <ele>933</ele>
        <time>2011-12-17T15:01:34.000Z</time>
      </trkpt>
      <trkpt lat="43.72759" lon="7.01294">
        <ele>933.20001220703</ele>
        <time>2011-12-17T15:01:43.000Z</time>
      </trkpt>
      <trkpt lat="43.72752" lon="7.01279">
        <ele>933.79998779297</ele>
        <time>2011-12-17T15:01:51.000Z</time>
      </trkpt>
      <trkpt lat="43.72739" lon="7.01268">
        <ele>935.40002441406</ele>
        <time>2011-12-17T15:01:59.000Z</time>
      </trkpt>
      <trkpt lat="43.72731" lon="7.01259">
        <ele>936</ele>
        <time>2011-12-17T15:02:06.000Z</time>
      </trkpt>
      <trkpt lat="43.72722" lon="7.01247">
        <ele>935.79998779297</ele>
        <time>2011-12-17T15:02:14.000Z</time>
      </trkpt>
      <trkpt lat="43.72711" lon="7.01232">
        <ele>933.79998779297</ele>
        <time>2011-12-17T15:02:23.000Z</time>
      </trkpt>
      <trkpt lat="43.72698" lon="7.01219">
        <ele>932</ele>
        <time>2011-12-17T15:02:33.000Z</time>
      </trkpt>
      <trkpt lat="43.72685" lon="7.01201">
        <ele>928.40002441406</ele>
        <time>2011-12-17T15:02:43.000Z</time>
      </trkpt>
      <trkpt lat="43.72681" lon="7.01198">
        <ele>928</ele>
        <time>2011-12-17T15:02:47.000Z</time>
      </trkpt>
      <trkpt lat="43.72681" lon="7.01198">
        <ele>927.79998779297</ele>
        <time>2011-12-17T15:02:53.000Z</time>
      </trkpt>
      <trkpt lat="43.7268" lon="7.012">
        <ele>928.59997558594</ele>
        <time>2011-12-17T15:03:07.000Z</time>
      </trkpt>
      <trkpt lat="43.72667" lon="7.01201">
        <ele>929.59997558594</ele>
        <time>2011-12-17T15:03:15.000Z</time>
      </trkpt>
      <trkpt lat="43.72665" lon="7.01199">
        <ele>928.79998779297</ele>
        <time>2011-12-17T15:03:22.000Z</time>
      </trkpt>
      <trkpt lat="43.72663" lon="7.01198">
        <ele>928.20001220703</ele>
        <time>2011-12-17T15:04:00.000Z</time>
      </trkpt>
      <trkpt lat="43.72663" lon="7.012">
        <ele>928.79998779297</ele>
        <time>2011-12-17T15:04:28.000Z</time>
      </trkpt>
      <trkpt lat="43.72661" lon="7.012">
        <ele>928.40002441406</ele>
        <time>2011-12-17T15:04:41.000Z</time>
      </trkpt>
      <trkpt lat="43.72662" lon="7.01196">
        <ele>927.59997558594</ele>
        <time>2011-12-17T15:05:17.000Z</time>
      </trkpt>
      <trkpt lat="43.72656" lon="7.01195">
        <ele>926.20001220703</ele>
        <time>2011-12-17T15:05:26.000Z</time>
      </trkpt>
      <trkpt lat="43.72642" lon="7.01201">
        <ele>925.79998779297</ele>
        <time>2011-12-17T15:05:32.000Z</time>
      </trkpt>
      <trkpt lat="43.72623" lon="7.01215">
        <ele>927.59997558594</ele>
        <time>2011-12-17T15:05:37.000Z</time>
      </trkpt>
      <trkpt lat="43.72596" lon="7.01232">
        <ele>929.20001220703</ele>
        <time>2011-12-17T15:05:42.000Z</time>
      </trkpt>
      <trkpt lat="43.72576" lon="7.0124">
        <ele>929</ele>
        <time>2011-12-17T15:05:45.000Z</time>
      </trkpt>
      <trkpt lat="43.72557" lon="7.01253">
        <ele>929</ele>
        <time>2011-12-17T15:05:48.000Z</time>
      </trkpt>
      <trkpt lat="43.7253" lon="7.01286">
        <ele>929.40002441406</ele>
        <time>2011-12-17T15:05:53.000Z</time>
      </trkpt>
      <trkpt lat="43.7249" lon="7.01319">
        <ele>927.40002441406</ele>
        <time>2011-12-17T15:05:59.000Z</time>
      </trkpt>
      <trkpt lat="43.72441" lon="7.0135">
        <ele>924.40002441406</ele>
        <time>2011-12-17T15:06:06.000Z</time>
      </trkpt>
      <trkpt lat="43.72405" lon="7.01374">
        <ele>922.40002441406</ele>
        <time>2011-12-17T15:06:12.000Z</time>
      </trkpt>
      <trkpt lat="43.724" lon="7.01377">
        <ele>922.20001220703</ele>
        <time>2011-12-17T15:06:13.000Z</time>
      </trkpt>
      <trkpt lat="43.72366" lon="7.01391">
        <ele>919.79998779297</ele>
        <time>2011-12-17T15:06:19.000Z</time>
      </trkpt>
      <trkpt lat="43.72359" lon="7.01395">
        <ele>919.40002441406</ele>
        <time>2011-12-17T15:06:20.000Z</time>
      </trkpt>
      <trkpt lat="43.72322" lon="7.01401">
        <ele>915.40002441406</ele>
        <time>2011-12-17T15:06:25.000Z</time>
      </trkpt>
      <trkpt lat="43.72285" lon="7.01405">
        <ele>911.79998779297</ele>
        <time>2011-12-17T15:06:30.000Z</time>
      </trkpt>
      <trkpt lat="43.72248" lon="7.01427">
        <ele>909.20001220703</ele>
        <time>2011-12-17T15:06:36.000Z</time>
      </trkpt>
      <trkpt lat="43.72233" lon="7.01451">
        <ele>907.40002441406</ele>
        <time>2011-12-17T15:06:40.000Z</time>
      </trkpt>
      <trkpt lat="43.72219" lon="7.01465">
        <ele>905</ele>
        <time>2011-12-17T15:06:45.000Z</time>
      </trkpt>
      <trkpt lat="43.72216" lon="7.01445">
        <ele>903.40002441406</ele>
        <time>2011-12-17T15:06:48.000Z</time>
      </trkpt>
      <trkpt lat="43.72215" lon="7.01428">
        <ele>902</ele>
        <time>2011-12-17T15:06:50.000Z</time>
      </trkpt>
      <trkpt lat="43.72212" lon="7.0137">
        <ele>897</ele>
        <time>2011-12-17T15:06:56.000Z</time>
      </trkpt>
      <trkpt lat="43.72216" lon="7.01318">
        <ele>893.20001220703</ele>
        <time>2011-12-17T15:07:02.000Z</time>
      </trkpt>
      <trkpt lat="43.72223" lon="7.01255">
        <ele>887.79998779297</ele>
        <time>2011-12-17T15:07:09.000Z</time>
      </trkpt>
      <trkpt lat="43.72224" lon="7.01237">
        <ele>885.59997558594</ele>
        <time>2011-12-17T15:07:11.000Z</time>
      </trkpt>
      <trkpt lat="43.72221" lon="7.01216">
        <ele>882.79998779297</ele>
        <time>2011-12-17T15:07:15.000Z</time>
      </trkpt>
      <trkpt lat="43.72217" lon="7.01212">
        <ele>882.40002441406</ele>
        <time>2011-12-17T15:07:18.000Z</time>
      </trkpt>
      <trkpt lat="43.72197" lon="7.0121">
        <ele>882.40002441406</ele>
        <time>2011-12-17T15:07:25.000Z</time>
      </trkpt>
      <trkpt lat="43.72185" lon="7.01214">
        <ele>883</ele>
        <time>2011-12-17T15:07:29.000Z</time>
      </trkpt>
      <trkpt lat="43.72168" lon="7.01219">
        <ele>883.79998779297</ele>
        <time>2011-12-17T15:07:35.000Z</time>
      </trkpt>
      <trkpt lat="43.72141" lon="7.01223">
        <ele>881.59997558594</ele>
        <time>2011-12-17T15:07:42.000Z</time>
      </trkpt>
      <trkpt lat="43.72128" lon="7.01217">
        <ele>880.20001220703</ele>
        <time>2011-12-17T15:07:47.000Z</time>
      </trkpt>
      <trkpt lat="43.72123" lon="7.01214">
        <ele>879.59997558594</ele>
        <time>2011-12-17T15:07:50.000Z</time>
      </trkpt>
      <trkpt lat="43.7212" lon="7.01216">
        <ele>879.40002441406</ele>
        <time>2011-12-17T15:08:01.000Z</time>
      </trkpt>
      <trkpt lat="43.72119" lon="7.01217">
        <ele>879.20001220703</ele>
        <time>2011-12-17T15:08:12.000Z</time>
      </trkpt>
      <trkpt lat="43.72119" lon="7.01217">
        <ele>879.20001220703</ele>
        <time>2011-12-17T15:08:27.000Z</time>
      </trkpt>
      <trkpt lat="43.72117" lon="7.01218">
        <ele>879.20001220703</ele>
        <time>2011-12-17T15:08:29.000Z</time>
      </trkpt>
      <trkpt lat="43.72107" lon="7.01208">
        <ele>878</ele>
        <time>2011-12-17T15:08:34.000Z</time>
      </trkpt>
      <trkpt lat="43.72091" lon="7.0119">
        <ele>876.59997558594</ele>
        <time>2011-12-17T15:08:38.000Z</time>
      </trkpt>
      <trkpt lat="43.72069" lon="7.01161">
        <ele>875.40002441406</ele>
        <time>2011-12-17T15:08:43.000Z</time>
      </trkpt>
      <trkpt lat="43.72065" lon="7.01155">
        <ele>875</ele>
        <time>2011-12-17T15:08:44.000Z</time>
      </trkpt>
      <trkpt lat="43.72052" lon="7.0112">
        <ele>872.79998779297</ele>
        <time>2011-12-17T15:08:49.000Z</time>
      </trkpt>
      <trkpt lat="43.72048" lon="7.01094">
        <ele>871.40002441406</ele>
        <time>2011-12-17T15:08:52.000Z</time>
      </trkpt>
      <trkpt lat="43.72037" lon="7.01075">
        <ele>870</ele>
        <time>2011-12-17T15:08:56.000Z</time>
      </trkpt>
      <trkpt lat="43.72025" lon="7.0108">
        <ele>871</ele>
        <time>2011-12-17T15:08:59.000Z</time>
      </trkpt>
      <trkpt lat="43.72016" lon="7.01104">
        <ele>872.59997558594</ele>
        <time>2011-12-17T15:09:03.000Z</time>
      </trkpt>
      <trkpt lat="43.72007" lon="7.01141">
        <ele>874</ele>
        <time>2011-12-17T15:09:08.000Z</time>
      </trkpt>
      <trkpt lat="43.71999" lon="7.01177">
        <ele>874.40002441406</ele>
        <time>2011-12-17T15:09:14.000Z</time>
      </trkpt>
      <trkpt lat="43.71986" lon="7.01227">
        <ele>871.40002441406</ele>
        <time>2011-12-17T15:09:21.000Z</time>
      </trkpt>
      <trkpt lat="43.71973" lon="7.01258">
        <ele>869.40002441406</ele>
        <time>2011-12-17T15:09:26.000Z</time>
      </trkpt>
      <trkpt lat="43.71968" lon="7.01291">
        <ele>868</ele>
        <time>2011-12-17T15:09:31.000Z</time>
      </trkpt>
      <trkpt lat="43.71973" lon="7.01306">
        <ele>867.40002441406</ele>
        <time>2011-12-17T15:09:33.000Z</time>
      </trkpt>
      <trkpt lat="43.71985" lon="7.01356">
        <ele>866.59997558594</ele>
        <time>2011-12-17T15:09:39.000Z</time>
      </trkpt>
      <trkpt lat="43.7199" lon="7.01407">
        <ele>866.79998779297</ele>
        <time>2011-12-17T15:09:45.000Z</time>
      </trkpt>
      <trkpt lat="43.71984" lon="7.01448">
        <ele>866.40002441406</ele>
        <time>2011-12-17T15:09:50.000Z</time>
      </trkpt>
      <trkpt lat="43.71969" lon="7.01496">
        <ele>865.20001220703</ele>
        <time>2011-12-17T15:09:57.000Z</time>
      </trkpt>
      <trkpt lat="43.71967" lon="7.01502">
        <ele>865</ele>
        <time>2011-12-17T15:09:58.000Z</time>
      </trkpt>
      <trkpt lat="43.71949" lon="7.01521">
        <ele>862.79998779297</ele>
        <time>2011-12-17T15:10:03.000Z</time>
      </trkpt>
      <trkpt lat="43.71945" lon="7.01519">
        <ele>862.59997558594</ele>
        <time>2011-12-17T15:10:04.000Z</time>
      </trkpt>
      <trkpt lat="43.71924" lon="7.01527">
        <ele>860.40002441406</ele>
        <time>2011-12-17T15:10:10.000Z</time>
      </trkpt>
      <trkpt lat="43.71923" lon="7.01543">
        <ele>859.20001220703</ele>
        <time>2011-12-17T15:10:13.000Z</time>
      </trkpt>
      <trkpt lat="43.71929" lon="7.01577">
        <ele>857.40002441406</ele>
        <time>2011-12-17T15:10:18.000Z</time>
      </trkpt>
      <trkpt lat="43.71932" lon="7.01595">
        <ele>856.40002441406</ele>
        <time>2011-12-17T15:10:20.000Z</time>
      </trkpt>
      <trkpt lat="43.71934" lon="7.01631">
        <ele>853.59997558594</ele>
        <time>2011-12-17T15:10:24.000Z</time>
      </trkpt>
      <trkpt lat="43.71933" lon="7.01656">
        <ele>851.40002441406</ele>
        <time>2011-12-17T15:10:27.000Z</time>
      </trkpt>
      <trkpt lat="43.71926" lon="7.01676">
        <ele>848.79998779297</ele>
        <time>2011-12-17T15:10:31.000Z</time>
      </trkpt>
      <trkpt lat="43.71918" lon="7.01676">
        <ele>847</ele>
        <time>2011-12-17T15:10:35.000Z</time>
      </trkpt>
      <trkpt lat="43.71909" lon="7.01679">
        <ele>845.40002441406</ele>
        <time>2011-12-17T15:10:39.000Z</time>
      </trkpt>
      <trkpt lat="43.71909" lon="7.01685">
        <ele>845.20001220703</ele>
        <time>2011-12-17T15:10:41.000Z</time>
      </trkpt>
      <trkpt lat="43.71914" lon="7.01714">
        <ele>845</ele>
        <time>2011-12-17T15:10:47.000Z</time>
      </trkpt>
      <trkpt lat="43.71924" lon="7.01744">
        <ele>845.79998779297</ele>
        <time>2011-12-17T15:10:52.000Z</time>
      </trkpt>
      <trkpt lat="43.71924" lon="7.0177">
        <ele>845.40002441406</ele>
        <time>2011-12-17T15:10:56.000Z</time>
      </trkpt>
      <trkpt lat="43.71916" lon="7.01787">
        <ele>843.40002441406</ele>
        <time>2011-12-17T15:10:59.000Z</time>
      </trkpt>
      <trkpt lat="43.71909" lon="7.01806">
        <ele>842.40002441406</ele>
        <time>2011-12-17T15:11:02.000Z</time>
      </trkpt>
      <trkpt lat="43.71894" lon="7.01823">
        <ele>840.59997558594</ele>
        <time>2011-12-17T15:11:06.000Z</time>
      </trkpt>
      <trkpt lat="43.71877" lon="7.01832">
        <ele>838.79998779297</ele>
        <time>2011-12-17T15:11:10.000Z</time>
      </trkpt>
      <trkpt lat="43.71855" lon="7.01857">
        <ele>837</ele>
        <time>2011-12-17T15:11:15.000Z</time>
      </trkpt>
      <trkpt lat="43.71852" lon="7.01865">
        <ele>837</ele>
        <time>2011-12-17T15:11:16.000Z</time>
      </trkpt>
      <trkpt lat="43.71838" lon="7.01913">
        <ele>836.40002441406</ele>
        <time>2011-12-17T15:11:22.000Z</time>
      </trkpt>
      <trkpt lat="43.7183" lon="7.01952">
        <ele>837.20001220703</ele>
        <time>2011-12-17T15:11:28.000Z</time>
      </trkpt>
      <trkpt lat="43.71823" lon="7.0198">
        <ele>837.40002441406</ele>
        <time>2011-12-17T15:11:33.000Z</time>
      </trkpt>
      <trkpt lat="43.71815" lon="7.02006">
        <ele>837.20001220703</ele>
        <time>2011-12-17T15:11:38.000Z</time>
      </trkpt>
      <trkpt lat="43.7181" lon="7.02032">
        <ele>837.79998779297</ele>
        <time>2011-12-17T15:11:44.000Z</time>
      </trkpt>
      <trkpt lat="43.71806" lon="7.0205">
        <ele>838</ele>
        <time>2011-12-17T15:11:49.000Z</time>
      </trkpt>
      <trkpt lat="43.71801" lon="7.02075">
        <ele>838.40002441406</ele>
        <time>2011-12-17T15:11:56.000Z</time>
      </trkpt>
      <trkpt lat="43.718" lon="7.02093">
        <ele>838.79998779297</ele>
        <time>2011-12-17T15:12:01.000Z</time>
      </trkpt>
      <trkpt lat="43.71798" lon="7.02119">
        <ele>839.40002441406</ele>
        <time>2011-12-17T15:12:08.000Z</time>
      </trkpt>
      <trkpt lat="43.718" lon="7.02157">
        <ele>841</ele>
        <time>2011-12-17T15:12:15.000Z</time>
      </trkpt>
      <trkpt lat="43.71802" lon="7.02179">
        <ele>841.79998779297</ele>
        <time>2011-12-17T15:12:20.000Z</time>
      </trkpt>
      <trkpt lat="43.71802" lon="7.02204">
        <ele>842</ele>
        <time>2011-12-17T15:12:26.000Z</time>
      </trkpt>
      <trkpt lat="43.71804" lon="7.02231">
        <ele>842.59997558594</ele>
        <time>2011-12-17T15:12:33.000Z</time>
      </trkpt>
      <trkpt lat="43.71806" lon="7.02262">
        <ele>842.59997558594</ele>
        <time>2011-12-17T15:12:39.000Z</time>
      </trkpt>
      <trkpt lat="43.71805" lon="7.02289">
        <ele>841.59997558594</ele>
        <time>2011-12-17T15:12:45.000Z</time>
      </trkpt>
      <trkpt lat="43.71805" lon="7.02294">
        <ele>841.40002441406</ele>
        <time>2011-12-17T15:12:47.000Z</time>
      </trkpt>
      <trkpt lat="43.71806" lon="7.02295">
        <ele>841.40002441406</ele>
        <time>2011-12-17T15:12:55.000Z</time>
      </trkpt>
      <trkpt lat="43.71807" lon="7.02296">
        <ele>841.40002441406</ele>
        <time>2011-12-17T15:13:07.000Z</time>
      </trkpt>
      <trkpt lat="43.71808" lon="7.02298">
        <ele>841.59997558594</ele>
        <time>2011-12-17T15:13:13.000Z</time>
      </trkpt>
      <trkpt lat="43.71809" lon="7.02321">
        <ele>841</ele>
        <time>2011-12-17T15:13:19.000Z</time>
      </trkpt>
      <trkpt lat="43.71812" lon="7.02362">
        <ele>840.59997558594</ele>
        <time>2011-12-17T15:13:27.000Z</time>
      </trkpt>
      <trkpt lat="43.71816" lon="7.02399">
        <ele>840.59997558594</ele>
        <time>2011-12-17T15:13:34.000Z</time>
      </trkpt>
      <trkpt lat="43.71817" lon="7.02442">
        <ele>841.40002441406</ele>
        <time>2011-12-17T15:13:42.000Z</time>
      </trkpt>
      <trkpt lat="43.71814" lon="7.02479">
        <ele>842</ele>
        <time>2011-12-17T15:13:49.000Z</time>
      </trkpt>
      <trkpt lat="43.71805" lon="7.02517">
        <ele>842.59997558594</ele>
        <time>2011-12-17T15:13:56.000Z</time>
      </trkpt>
      <trkpt lat="43.71793" lon="7.02564">
        <ele>843.59997558594</ele>
        <time>2011-12-17T15:14:04.000Z</time>
      </trkpt>
      <trkpt lat="43.71792" lon="7.02569">
        <ele>843.79998779297</ele>
        <time>2011-12-17T15:14:05.000Z</time>
      </trkpt>
      <trkpt lat="43.71783" lon="7.02592">
        <ele>844.20001220703</ele>
        <time>2011-12-17T15:14:10.000Z</time>
      </trkpt>
      <trkpt lat="43.71771" lon="7.02606">
        <ele>844.20001220703</ele>
        <time>2011-12-17T15:14:14.000Z</time>
      </trkpt>
      <trkpt lat="43.71742" lon="7.02625">
        <ele>843.79998779297</ele>
        <time>2011-12-17T15:14:23.000Z</time>
      </trkpt>
      <trkpt lat="43.71716" lon="7.02632">
        <ele>844.20001220703</ele>
        <time>2011-12-17T15:14:30.000Z</time>
      </trkpt>
      <trkpt lat="43.71694" lon="7.02643">
        <ele>844.79998779297</ele>
        <time>2011-12-17T15:14:37.000Z</time>
      </trkpt>
      <trkpt lat="43.71682" lon="7.02655">
        <ele>845.40002441406</ele>
        <time>2011-12-17T15:14:43.000Z</time>
      </trkpt>
      <trkpt lat="43.71675" lon="7.02662">
        <ele>845.79998779297</ele>
        <time>2011-12-17T15:14:49.000Z</time>
      </trkpt>
      <trkpt lat="43.71675" lon="7.02665">
        <ele>846</ele>
        <time>2011-12-17T15:14:56.000Z</time>
      </trkpt>
      <trkpt lat="43.71676" lon="7.02667">
        <ele>846.20001220703</ele>
        <time>2011-12-17T15:15:04.000Z</time>
      </trkpt>
      <trkpt lat="43.71675" lon="7.02666">
        <ele>846.20001220703</ele>
        <time>2011-12-17T15:15:27.000Z</time>
      </trkpt>
      <trkpt lat="43.71674" lon="7.02665">
        <ele>846</ele>
        <time>2011-12-17T15:15:38.000Z</time>
      </trkpt>
      <trkpt lat="43.71671" lon="7.02663">
        <ele>845.79998779297</ele>
        <time>2011-12-17T15:15:45.000Z</time>
      </trkpt>
      <trkpt lat="43.71671" lon="7.02666">
        <ele>846</ele>
        <time>2011-12-17T15:15:51.000Z</time>
      </trkpt>
      <trkpt lat="43.7167" lon="7.02667">
        <ele>846</ele>
        <time>2011-12-17T15:16:05.000Z</time>
      </trkpt>
      <trkpt lat="43.71672" lon="7.02666">
        <ele>846</ele>
        <time>2011-12-17T15:16:18.000Z</time>
      </trkpt>
      <trkpt lat="43.71672" lon="7.02663">
        <ele>845.79998779297</ele>
        <time>2011-12-17T15:16:32.000Z</time>
      </trkpt>
      <trkpt lat="43.71672" lon="7.02663">
        <ele>845.79998779297</ele>
        <time>2011-12-17T15:16:45.000Z</time>
      </trkpt>
      <trkpt lat="43.7167" lon="7.02663">
        <ele>845.79998779297</ele>
        <time>2011-12-17T15:16:57.000Z</time>
      </trkpt>
      <trkpt lat="43.71669" lon="7.02663">
        <ele>845.79998779297</ele>
        <time>2011-12-17T15:17:12.000Z</time>
      </trkpt>
      <trkpt lat="43.71668" lon="7.02663">
        <ele>845.79998779297</ele>
        <time>2011-12-17T15:17:21.000Z</time>
      </trkpt>
      <trkpt lat="43.71666" lon="7.02662">
        <ele>845.59997558594</ele>
        <time>2011-12-17T15:17:25.000Z</time>
      </trkpt>
      <trkpt lat="43.71661" lon="7.02661">
        <ele>845.20001220703</ele>
        <time>2011-12-17T15:17:30.000Z</time>
      </trkpt>
      <trkpt lat="43.71659" lon="7.02665">
        <ele>845.20001220703</ele>
        <time>2011-12-17T15:17:32.000Z</time>
      </trkpt>
      <trkpt lat="43.71657" lon="7.02669">
        <ele>845</ele>
        <time>2011-12-17T15:17:34.000Z</time>
      </trkpt>
      <trkpt lat="43.7165" lon="7.0267">
        <ele>844.40002441406</ele>
        <time>2011-12-17T15:17:38.000Z</time>
      </trkpt>
      <trkpt lat="43.7163" lon="7.0267">
        <ele>842.79998779297</ele>
        <time>2011-12-17T15:17:43.000Z</time>
      </trkpt>
      <trkpt lat="43.71612" lon="7.02662">
        <ele>841</ele>
        <time>2011-12-17T15:17:48.000Z</time>
      </trkpt>
      <trkpt lat="43.71598" lon="7.02663">
        <ele>840</ele>
        <time>2011-12-17T15:17:53.000Z</time>
      </trkpt>
      <trkpt lat="43.7158" lon="7.02663">
        <ele>837.79998779297</ele>
        <time>2011-12-17T15:17:59.000Z</time>
      </trkpt>
      <trkpt lat="43.71571" lon="7.02661">
        <ele>834.40002441406</ele>
        <time>2011-12-17T15:18:04.000Z</time>
      </trkpt>
      <trkpt lat="43.7157" lon="7.0266">
        <ele>833.79998779297</ele>
        <time>2011-12-17T15:18:05.000Z</time>
      </trkpt>
      <trkpt lat="43.71569" lon="7.02659">
        <ele>833.40002441406</ele>
        <time>2011-12-17T15:18:13.000Z</time>
      </trkpt>
      <trkpt lat="43.71569" lon="7.0266">
        <ele>833.59997558594</ele>
        <time>2011-12-17T15:18:25.000Z</time>
      </trkpt>
      <trkpt lat="43.71571" lon="7.02661">
        <ele>834.20001220703</ele>
        <time>2011-12-17T15:18:35.000Z</time>
      </trkpt>
      <trkpt lat="43.71572" lon="7.02657">
        <ele>834.20001220703</ele>
        <time>2011-12-17T15:18:40.000Z</time>
      </trkpt>
      <trkpt lat="43.71575" lon="7.02658">
        <ele>835.40002441406</ele>
        <time>2011-12-17T15:18:43.000Z</time>
      </trkpt>
      <trkpt lat="43.71587" lon="7.02663">
        <ele>839</ele>
        <time>2011-12-17T15:18:50.000Z</time>
      </trkpt>
      <trkpt lat="43.71596" lon="7.02663">
        <ele>839.79998779297</ele>
        <time>2011-12-17T15:18:56.000Z</time>
      </trkpt>
      <trkpt lat="43.71608" lon="7.02669">
        <ele>841</ele>
        <time>2011-12-17T15:19:02.000Z</time>
      </trkpt>
      <trkpt lat="43.7161" lon="7.02672">
        <ele>841</ele>
        <time>2011-12-17T15:19:03.000Z</time>
      </trkpt>
      <trkpt lat="43.7161" lon="7.02677">
        <ele>840.59997558594</ele>
        <time>2011-12-17T15:19:08.000Z</time>
      </trkpt>
      <trkpt lat="43.71609" lon="7.02678">
        <ele>840.40002441406</ele>
        <time>2011-12-17T15:19:09.000Z</time>
      </trkpt>
      <trkpt lat="43.71593" lon="7.02686">
        <ele>838.20001220703</ele>
        <time>2011-12-17T15:19:15.000Z</time>
      </trkpt>
      <trkpt lat="43.71575" lon="7.02686">
        <ele>834.40002441406</ele>
        <time>2011-12-17T15:19:20.000Z</time>
      </trkpt>
      <trkpt lat="43.71557" lon="7.02682">
        <ele>828.79998779297</ele>
        <time>2011-12-17T15:19:25.000Z</time>
      </trkpt>
      <trkpt lat="43.71544" lon="7.02676">
        <ele>824.79998779297</ele>
        <time>2011-12-17T15:19:29.000Z</time>
      </trkpt>
      <trkpt lat="43.71541" lon="7.02683">
        <ele>823.20001220703</ele>
        <time>2011-12-17T15:19:33.000Z</time>
      </trkpt>
      <trkpt lat="43.71547" lon="7.02694">
        <ele>824.59997558594</ele>
        <time>2011-12-17T15:19:36.000Z</time>
      </trkpt>
      <trkpt lat="43.71566" lon="7.0272">
        <ele>828.79998779297</ele>
        <time>2011-12-17T15:19:43.000Z</time>
      </trkpt>
      <trkpt lat="43.71569" lon="7.02726">
        <ele>829</ele>
        <time>2011-12-17T15:19:45.000Z</time>
      </trkpt>
      <trkpt lat="43.71563" lon="7.0273">
        <ele>827</ele>
        <time>2011-12-17T15:19:49.000Z</time>
      </trkpt>
      <trkpt lat="43.71555" lon="7.02729">
        <ele>824.79998779297</ele>
        <time>2011-12-17T15:19:51.000Z</time>
      </trkpt>
      <trkpt lat="43.71526" lon="7.02725">
        <ele>816.40002441406</ele>
        <time>2011-12-17T15:19:58.000Z</time>
      </trkpt>
      <trkpt lat="43.71508" lon="7.02718">
        <ele>811.40002441406</ele>
        <time>2011-12-17T15:20:03.000Z</time>
      </trkpt>
      <trkpt lat="43.71504" lon="7.02712">
        <ele>810.20001220703</ele>
        <time>2011-12-17T15:20:07.000Z</time>
      </trkpt>
      <trkpt lat="43.71503" lon="7.02714">
        <ele>809.79998779297</ele>
        <time>2011-12-17T15:20:18.000Z</time>
      </trkpt>
      <trkpt lat="43.71502" lon="7.02714">
        <ele>809.59997558594</ele>
        <time>2011-12-17T15:20:24.000Z</time>
      </trkpt>
      <trkpt lat="43.71501" lon="7.02718">
        <ele>809</ele>
        <time>2011-12-17T15:20:30.000Z</time>
      </trkpt>
      <trkpt lat="43.71501" lon="7.02721">
        <ele>809</ele>
        <time>2011-12-17T15:20:32.000Z</time>
      </trkpt>
      <trkpt lat="43.71496" lon="7.0275">
        <ele>805.79998779297</ele>
        <time>2011-12-17T15:20:39.000Z</time>
      </trkpt>
      <trkpt lat="43.71492" lon="7.02768">
        <ele>802.59997558594</ele>
        <time>2011-12-17T15:20:44.000Z</time>
      </trkpt>
      <trkpt lat="43.71489" lon="7.02788">
        <ele>799.79998779297</ele>
        <time>2011-12-17T15:20:48.000Z</time>
      </trkpt>
      <trkpt lat="43.71487" lon="7.02807">
        <ele>798.20001220703</ele>
        <time>2011-12-17T15:20:52.000Z</time>
      </trkpt>
      <trkpt lat="43.71485" lon="7.02828">
        <ele>796.40002441406</ele>
        <time>2011-12-17T15:20:58.000Z</time>
      </trkpt>
      <trkpt lat="43.71483" lon="7.02852">
        <ele>793</ele>
        <time>2011-12-17T15:21:05.000Z</time>
      </trkpt>
      <trkpt lat="43.71476" lon="7.02861">
        <ele>789.59997558594</ele>
        <time>2011-12-17T15:21:10.000Z</time>
      </trkpt>
      <trkpt lat="43.71475" lon="7.02865">
        <ele>788.79998779297</ele>
        <time>2011-12-17T15:21:14.000Z</time>
      </trkpt>
      <trkpt lat="43.71467" lon="7.02875">
        <ele>785.40002441406</ele>
        <time>2011-12-17T15:21:20.000Z</time>
      </trkpt>
      <trkpt lat="43.71459" lon="7.0289">
        <ele>782</ele>
        <time>2011-12-17T15:21:26.000Z</time>
      </trkpt>
      <trkpt lat="43.71452" lon="7.029">
        <ele>779.59997558594</ele>
        <time>2011-12-17T15:21:31.000Z</time>
      </trkpt>
      <trkpt lat="43.71442" lon="7.02904">
        <ele>776.79998779297</ele>
        <time>2011-12-17T15:21:36.000Z</time>
      </trkpt>
      <trkpt lat="43.7144" lon="7.02904">
        <ele>776.40002441406</ele>
        <time>2011-12-17T15:21:37.000Z</time>
      </trkpt>
      <trkpt lat="43.71432" lon="7.02904">
        <ele>774.59997558594</ele>
        <time>2011-12-17T15:21:42.000Z</time>
      </trkpt>
      <trkpt lat="43.71431" lon="7.02904">
        <ele>774.20001220703</ele>
        <time>2011-12-17T15:21:43.000Z</time>
      </trkpt>
      <trkpt lat="43.71424" lon="7.02913">
        <ele>772.59997558594</ele>
        <time>2011-12-17T15:21:48.000Z</time>
      </trkpt>
      <trkpt lat="43.71413" lon="7.02921">
        <ele>768.20001220703</ele>
        <time>2011-12-17T15:21:54.000Z</time>
      </trkpt>
      <trkpt lat="43.71405" lon="7.0293">
        <ele>763</ele>
        <time>2011-12-17T15:22:00.000Z</time>
      </trkpt>
      <trkpt lat="43.71402" lon="7.02937">
        <ele>760.40002441406</ele>
        <time>2011-12-17T15:22:04.000Z</time>
      </trkpt>
      <trkpt lat="43.7139" lon="7.02943">
        <ele>753.79998779297</ele>
        <time>2011-12-17T15:22:11.000Z</time>
      </trkpt>
      <trkpt lat="43.71382" lon="7.02952">
        <ele>748.79998779297</ele>
        <time>2011-12-17T15:22:16.000Z</time>
      </trkpt>
      <trkpt lat="43.71385" lon="7.02973">
        <ele>748.79998779297</ele>
        <time>2011-12-17T15:22:22.000Z</time>
      </trkpt>
      <trkpt lat="43.71389" lon="7.02987">
        <ele>749.40002441406</ele>
        <time>2011-12-17T15:22:27.000Z</time>
      </trkpt>
      <trkpt lat="43.71394" lon="7.02997">
        <ele>750.59997558594</ele>
        <time>2011-12-17T15:22:32.000Z</time>
      </trkpt>
      <trkpt lat="43.71398" lon="7.03005">
        <ele>750</ele>
        <time>2011-12-17T15:22:36.000Z</time>
      </trkpt>
      <trkpt lat="43.71399" lon="7.0301">
        <ele>749</ele>
        <time>2011-12-17T15:22:42.000Z</time>
      </trkpt>
      <trkpt lat="43.71397" lon="7.03012">
        <ele>747.40002441406</ele>
        <time>2011-12-17T15:22:48.000Z</time>
      </trkpt>
      <trkpt lat="43.71394" lon="7.03021">
        <ele>743</ele>
        <time>2011-12-17T15:22:53.000Z</time>
      </trkpt>
      <trkpt lat="43.71402" lon="7.03037">
        <ele>740.79998779297</ele>
        <time>2011-12-17T15:23:01.000Z</time>
      </trkpt>
      <trkpt lat="43.71405" lon="7.03041">
        <ele>740.20001220703</ele>
        <time>2011-12-17T15:23:04.000Z</time>
      </trkpt>
      <trkpt lat="43.71411" lon="7.03054">
        <ele>738</ele>
        <time>2011-12-17T15:23:10.000Z</time>
      </trkpt>
      <trkpt lat="43.71419" lon="7.03065">
        <ele>736.20001220703</ele>
        <time>2011-12-17T15:23:15.000Z</time>
      </trkpt>
      <trkpt lat="43.71427" lon="7.0307">
        <ele>734.79998779297</ele>
        <time>2011-12-17T15:23:19.000Z</time>
      </trkpt>
      <trkpt lat="43.71435" lon="7.03069">
        <ele>734.79998779297</ele>
        <time>2011-12-17T15:23:21.000Z</time>
      </trkpt>
      <trkpt lat="43.71457" lon="7.03071">
        <ele>734.40002441406</ele>
        <time>2011-12-17T15:23:27.000Z</time>
      </trkpt>
      <trkpt lat="43.71472" lon="7.0308">
        <ele>731.20001220703</ele>
        <time>2011-12-17T15:23:33.000Z</time>
      </trkpt>
      <trkpt lat="43.71489" lon="7.03087">
        <ele>728.59997558594</ele>
        <time>2011-12-17T15:23:39.000Z</time>
      </trkpt>
      <trkpt lat="43.71503" lon="7.0309">
        <ele>727.79998779297</ele>
        <time>2011-12-17T15:23:44.000Z</time>
      </trkpt>
      <trkpt lat="43.71518" lon="7.03095">
        <ele>727.59997558594</ele>
        <time>2011-12-17T15:23:48.000Z</time>
      </trkpt>
      <trkpt lat="43.7153" lon="7.03109">
        <ele>723.79998779297</ele>
        <time>2011-12-17T15:23:52.000Z</time>
      </trkpt>
      <trkpt lat="43.71544" lon="7.03122">
        <ele>721.20001220703</ele>
        <time>2011-12-17T15:23:56.000Z</time>
      </trkpt>
      <trkpt lat="43.71569" lon="7.03136">
        <ele>720.40002441406</ele>
        <time>2011-12-17T15:24:01.000Z</time>
      </trkpt>
      <trkpt lat="43.71581" lon="7.03138">
        <ele>721.79998779297</ele>
        <time>2011-12-17T15:24:03.000Z</time>
      </trkpt>
      <trkpt lat="43.71588" lon="7.03141">
        <ele>722.79998779297</ele>
        <time>2011-12-17T15:24:05.000Z</time>
      </trkpt>
      <trkpt lat="43.71593" lon="7.03154">
        <ele>720.59997558594</ele>
        <time>2011-12-17T15:24:09.000Z</time>
      </trkpt>
      <trkpt lat="43.71591" lon="7.03183">
        <ele>711.40002441406</ele>
        <time>2011-12-17T15:24:15.000Z</time>
      </trkpt>
      <trkpt lat="43.7159" lon="7.03209">
        <ele>704</ele>
        <time>2011-12-17T15:24:21.000Z</time>
      </trkpt>
      <trkpt lat="43.71591" lon="7.03232">
        <ele>698.40002441406</ele>
        <time>2011-12-17T15:24:26.000Z</time>
      </trkpt>
      <trkpt lat="43.71592" lon="7.03257">
        <ele>693</ele>
        <time>2011-12-17T15:24:31.000Z</time>
      </trkpt>
      <trkpt lat="43.71593" lon="7.03292">
        <ele>687.79998779297</ele>
        <time>2011-12-17T15:24:36.000Z</time>
      </trkpt>
      <trkpt lat="43.71594" lon="7.03307">
        <ele>685.79998779297</ele>
        <time>2011-12-17T15:24:39.000Z</time>
      </trkpt>
      <trkpt lat="43.71596" lon="7.03316">
        <ele>685</ele>
        <time>2011-12-17T15:24:41.000Z</time>
      </trkpt>
      <trkpt lat="43.71597" lon="7.0333">
        <ele>682.79998779297</ele>
        <time>2011-12-17T15:24:47.000Z</time>
      </trkpt>
      <trkpt lat="43.71592" lon="7.03328">
        <ele>681.79998779297</ele>
        <time>2011-12-17T15:24:50.000Z</time>
      </trkpt>
      <trkpt lat="43.71578" lon="7.03311">
        <ele>680.40002441406</ele>
        <time>2011-12-17T15:24:56.000Z</time>
      </trkpt>
      <trkpt lat="43.71568" lon="7.03291">
        <ele>680</ele>
        <time>2011-12-17T15:25:00.000Z</time>
      </trkpt>
      <trkpt lat="43.71558" lon="7.03275">
        <ele>679.59997558594</ele>
        <time>2011-12-17T15:25:04.000Z</time>
      </trkpt>
      <trkpt lat="43.71545" lon="7.03257">
        <ele>679</ele>
        <time>2011-12-17T15:25:09.000Z</time>
      </trkpt>
      <trkpt lat="43.71541" lon="7.0325">
        <ele>679.59997558594</ele>
        <time>2011-12-17T15:25:12.000Z</time>
      </trkpt>
      <trkpt lat="43.71539" lon="7.03252">
        <ele>678.40002441406</ele>
        <time>2011-12-17T15:25:17.000Z</time>
      </trkpt>
      <trkpt lat="43.7154" lon="7.03249">
        <ele>679.40002441406</ele>
        <time>2011-12-17T15:25:23.000Z</time>
      </trkpt>
      <trkpt lat="43.7154" lon="7.03249">
        <ele>679.40002441406</ele>
        <time>2011-12-17T15:25:26.000Z</time>
      </trkpt>
      <trkpt lat="43.71539" lon="7.03261">
        <ele>676.40002441406</ele>
        <time>2011-12-17T15:25:32.000Z</time>
      </trkpt>
      <trkpt lat="43.71537" lon="7.03282">
        <ele>671.59997558594</ele>
        <time>2011-12-17T15:25:36.000Z</time>
      </trkpt>
      <trkpt lat="43.71538" lon="7.03295">
        <ele>669</ele>
        <time>2011-12-17T15:25:40.000Z</time>
      </trkpt>
      <trkpt lat="43.71536" lon="7.03295">
        <ele>668.20001220703</ele>
        <time>2011-12-17T15:25:44.000Z</time>
      </trkpt>
      <trkpt lat="43.71521" lon="7.03274">
        <ele>668.20001220703</ele>
        <time>2011-12-17T15:25:51.000Z</time>
      </trkpt>
      <trkpt lat="43.71515" lon="7.03267">
        <ele>667.79998779297</ele>
        <time>2011-12-17T15:25:54.000Z</time>
      </trkpt>
      <trkpt lat="43.71512" lon="7.03267">
        <ele>667.20001220703</ele>
        <time>2011-12-17T15:25:58.000Z</time>
      </trkpt>
      <trkpt lat="43.71507" lon="7.03268">
        <ele>665.40002441406</ele>
        <time>2011-12-17T15:26:02.000Z</time>
      </trkpt>
      <trkpt lat="43.71508" lon="7.03274">
        <ele>664</ele>
        <time>2011-12-17T15:26:06.000Z</time>
      </trkpt>
      <trkpt lat="43.71507" lon="7.0329">
        <ele>659.59997558594</ele>
        <time>2011-12-17T15:26:12.000Z</time>
      </trkpt>
      <trkpt lat="43.71504" lon="7.03299">
        <ele>656.59997558594</ele>
        <time>2011-12-17T15:26:16.000Z</time>
      </trkpt>
      <trkpt lat="43.71503" lon="7.03299">
        <ele>656</ele>
        <time>2011-12-17T15:26:19.000Z</time>
      </trkpt>
      <trkpt lat="43.71501" lon="7.03295">
        <ele>656.20001220703</ele>
        <time>2011-12-17T15:26:21.000Z</time>
      </trkpt>
      <trkpt lat="43.71499" lon="7.03294">
        <ele>656.40002441406</ele>
        <time>2011-12-17T15:26:24.000Z</time>
      </trkpt>
      <trkpt lat="43.71497" lon="7.03302">
        <ele>654</ele>
        <time>2011-12-17T15:26:29.000Z</time>
      </trkpt>
      <trkpt lat="43.71497" lon="7.03302">
        <ele>654.20001220703</ele>
        <time>2011-12-17T15:26:38.000Z</time>
      </trkpt>
      <trkpt lat="43.71499" lon="7.03297">
        <ele>655.40002441406</ele>
        <time>2011-12-17T15:26:50.000Z</time>
      </trkpt>
      <trkpt lat="43.71497" lon="7.03304">
        <ele>653.59997558594</ele>
        <time>2011-12-17T15:27:06.000Z</time>
      </trkpt>
      <trkpt lat="43.715" lon="7.03315">
        <ele>650.79998779297</ele>
        <time>2011-12-17T15:27:10.000Z</time>
      </trkpt>
      <trkpt lat="43.71501" lon="7.03338">
        <ele>645.40002441406</ele>
        <time>2011-12-17T15:27:15.000Z</time>
      </trkpt>
      <trkpt lat="43.71501" lon="7.03358">
        <ele>641.79998779297</ele>
        <time>2011-12-17T15:27:20.000Z</time>
      </trkpt>
      <trkpt lat="43.71502" lon="7.03368">
        <ele>640.59997558594</ele>
        <time>2011-12-17T15:27:23.000Z</time>
      </trkpt>
      <trkpt lat="43.71499" lon="7.03391">
        <ele>635.40002441406</ele>
        <time>2011-12-17T15:27:29.000Z</time>
      </trkpt>
      <trkpt lat="43.71499" lon="7.034">
        <ele>633.59997558594</ele>
        <time>2011-12-17T15:27:32.000Z</time>
      </trkpt>
      <trkpt lat="43.71493" lon="7.0342">
        <ele>628.59997558594</ele>
        <time>2011-12-17T15:27:39.000Z</time>
      </trkpt>
      <trkpt lat="43.71486" lon="7.03441">
        <ele>623.40002441406</ele>
        <time>2011-12-17T15:27:46.000Z</time>
      </trkpt>
      <trkpt lat="43.71481" lon="7.03454">
        <ele>620.20001220703</ele>
        <time>2011-12-17T15:27:51.000Z</time>
      </trkpt>
      <trkpt lat="43.71476" lon="7.03471">
        <ele>615.79998779297</ele>
        <time>2011-12-17T15:27:56.000Z</time>
      </trkpt>
      <trkpt lat="43.71469" lon="7.03488">
        <ele>610.59997558594</ele>
        <time>2011-12-17T15:28:02.000Z</time>
      </trkpt>
      <trkpt lat="43.71462" lon="7.03504">
        <ele>606</ele>
        <time>2011-12-17T15:28:06.000Z</time>
      </trkpt>
      <trkpt lat="43.71457" lon="7.03536">
        <ele>602.20001220703</ele>
        <time>2011-12-17T15:28:11.000Z</time>
      </trkpt>
      <trkpt lat="43.71456" lon="7.03542">
        <ele>601.59997558594</ele>
        <time>2011-12-17T15:28:12.000Z</time>
      </trkpt>
      <trkpt lat="43.7145" lon="7.03568">
        <ele>598.79998779297</ele>
        <time>2011-12-17T15:28:16.000Z</time>
      </trkpt>
      <trkpt lat="43.71446" lon="7.0358">
        <ele>597.40002441406</ele>
        <time>2011-12-17T15:28:18.000Z</time>
      </trkpt>
      <trkpt lat="43.71434" lon="7.03604">
        <ele>593.79998779297</ele>
        <time>2011-12-17T15:28:23.000Z</time>
      </trkpt>
      <trkpt lat="43.71427" lon="7.03618">
        <ele>592.40002441406</ele>
        <time>2011-12-17T15:28:29.000Z</time>
      </trkpt>
      <trkpt lat="43.71423" lon="7.03627">
        <ele>591.79998779297</ele>
        <time>2011-12-17T15:28:34.000Z</time>
      </trkpt>
      <trkpt lat="43.7142" lon="7.03635">
        <ele>591.59997558594</ele>
        <time>2011-12-17T15:28:36.000Z</time>
      </trkpt>
      <trkpt lat="43.71409" lon="7.03658">
        <ele>590</ele>
        <time>2011-12-17T15:28:43.000Z</time>
      </trkpt>
      <trkpt lat="43.71402" lon="7.03672">
        <ele>588</ele>
        <time>2011-12-17T15:28:48.000Z</time>
      </trkpt>
      <trkpt lat="43.71392" lon="7.03687">
        <ele>584.40002441406</ele>
        <time>2011-12-17T15:28:53.000Z</time>
      </trkpt>
      <trkpt lat="43.71379" lon="7.037">
        <ele>581.59997558594</ele>
        <time>2011-12-17T15:28:59.000Z</time>
      </trkpt>
      <trkpt lat="43.7137" lon="7.03713">
        <ele>579.59997558594</ele>
        <time>2011-12-17T15:29:04.000Z</time>
      </trkpt>
      <trkpt lat="43.71355" lon="7.03731">
        <ele>578</ele>
        <time>2011-12-17T15:29:10.000Z</time>
      </trkpt>
      <trkpt lat="43.71343" lon="7.03747">
        <ele>577.40002441406</ele>
        <time>2011-12-17T15:29:15.000Z</time>
      </trkpt>
      <trkpt lat="43.71334" lon="7.03759">
        <ele>575.79998779297</ele>
        <time>2011-12-17T15:29:20.000Z</time>
      </trkpt>
      <trkpt lat="43.71332" lon="7.03761">
        <ele>574.79998779297</ele>
        <time>2011-12-17T15:29:22.000Z</time>
      </trkpt>
      <trkpt lat="43.71333" lon="7.03765">
        <ele>574.20001220703</ele>
        <time>2011-12-17T15:29:28.000Z</time>
      </trkpt>
      <trkpt lat="43.71337" lon="7.03765">
        <ele>574</ele>
        <time>2011-12-17T15:29:34.000Z</time>
      </trkpt>
      <trkpt lat="43.71352" lon="7.03765">
        <ele>573.20001220703</ele>
        <time>2011-12-17T15:29:40.000Z</time>
      </trkpt>
      <trkpt lat="43.71367" lon="7.03764">
        <ele>572.59997558594</ele>
        <time>2011-12-17T15:29:46.000Z</time>
      </trkpt>
      <trkpt lat="43.71373" lon="7.03765">
        <ele>572.20001220703</ele>
        <time>2011-12-17T15:29:49.000Z</time>
      </trkpt>
      <trkpt lat="43.71369" lon="7.03772">
        <ele>571</ele>
        <time>2011-12-17T15:29:54.000Z</time>
      </trkpt>
      <trkpt lat="43.71361" lon="7.03786">
        <ele>568.59997558594</ele>
        <time>2011-12-17T15:30:00.000Z</time>
      </trkpt>
      <trkpt lat="43.71359" lon="7.0379">
        <ele>567.79998779297</ele>
        <time>2011-12-17T15:30:05.000Z</time>
      </trkpt>
      <trkpt lat="43.71359" lon="7.03791">
        <ele>567.79998779297</ele>
        <time>2011-12-17T15:30:10.000Z</time>
      </trkpt>
      <trkpt lat="43.71372" lon="7.03788">
        <ele>568.20001220703</ele>
        <time>2011-12-17T15:30:15.000Z</time>
      </trkpt>
      <trkpt lat="43.71391" lon="7.03784">
        <ele>568.40002441406</ele>
        <time>2011-12-17T15:30:20.000Z</time>
      </trkpt>
      <trkpt lat="43.71409" lon="7.03785">
        <ele>568.20001220703</ele>
        <time>2011-12-17T15:30:25.000Z</time>
      </trkpt>
      <trkpt lat="43.71417" lon="7.0379">
        <ele>567.79998779297</ele>
        <time>2011-12-17T15:30:28.000Z</time>
      </trkpt>
      <trkpt lat="43.7142" lon="7.03797">
        <ele>567.59997558594</ele>
        <time>2011-12-17T15:30:32.000Z</time>
      </trkpt>
      <trkpt lat="43.7142" lon="7.03797">
        <ele>567.59997558594</ele>
        <time>2011-12-17T15:30:38.000Z</time>
      </trkpt>
      <trkpt lat="43.7142" lon="7.03803">
        <ele>567.20001220703</ele>
        <time>2011-12-17T15:30:55.000Z</time>
      </trkpt>
      <trkpt lat="43.71408" lon="7.03819">
        <ele>564.79998779297</ele>
        <time>2011-12-17T15:31:00.000Z</time>
      </trkpt>
      <trkpt lat="43.71398" lon="7.03836">
        <ele>562.59997558594</ele>
        <time>2011-12-17T15:31:05.000Z</time>
      </trkpt>
      <trkpt lat="43.71392" lon="7.03849">
        <ele>562.59997558594</ele>
        <time>2011-12-17T15:31:09.000Z</time>
      </trkpt>
      <trkpt lat="43.71388" lon="7.03856">
        <ele>562.20001220703</ele>
        <time>2011-12-17T15:31:13.000Z</time>
      </trkpt>
      <trkpt lat="43.71378" lon="7.03883">
        <ele>560.20001220703</ele>
        <time>2011-12-17T15:31:19.000Z</time>
      </trkpt>
      <trkpt lat="43.71375" lon="7.03895">
        <ele>559</ele>
        <time>2011-12-17T15:31:22.000Z</time>
      </trkpt>
      <trkpt lat="43.71364" lon="7.03908">
        <ele>554.79998779297</ele>
        <time>2011-12-17T15:31:27.000Z</time>
      </trkpt>
      <trkpt lat="43.71356" lon="7.03929">
        <ele>551</ele>
        <time>2011-12-17T15:31:31.000Z</time>
      </trkpt>
      <trkpt lat="43.71346" lon="7.03976">
        <ele>545</ele>
        <time>2011-12-17T15:31:39.000Z</time>
      </trkpt>
      <trkpt lat="43.71343" lon="7.03989">
        <ele>543.20001220703</ele>
        <time>2011-12-17T15:31:41.000Z</time>
      </trkpt>
      <trkpt lat="43.71331" lon="7.04013">
        <ele>536.20001220703</ele>
        <time>2011-12-17T15:31:46.000Z</time>
      </trkpt>
      <trkpt lat="43.71323" lon="7.04028">
        <ele>532</ele>
        <time>2011-12-17T15:31:49.000Z</time>
      </trkpt>
      <trkpt lat="43.71312" lon="7.04051">
        <ele>526.59997558594</ele>
        <time>2011-12-17T15:31:53.000Z</time>
      </trkpt>
      <trkpt lat="43.7131" lon="7.04064">
        <ele>525.20001220703</ele>
        <time>2011-12-17T15:31:55.000Z</time>
      </trkpt>
      <trkpt lat="43.71307" lon="7.04089">
        <ele>524.40002441406</ele>
        <time>2011-12-17T15:32:00.000Z</time>
      </trkpt>
      <trkpt lat="43.71301" lon="7.04109">
        <ele>521.79998779297</ele>
        <time>2011-12-17T15:32:05.000Z</time>
      </trkpt>
      <trkpt lat="43.71298" lon="7.04123">
        <ele>521</ele>
        <time>2011-12-17T15:32:09.000Z</time>
      </trkpt>
      <trkpt lat="43.71295" lon="7.04137">
        <ele>520.59997558594</ele>
        <time>2011-12-17T15:32:13.000Z</time>
      </trkpt>
      <trkpt lat="43.71294" lon="7.04149">
        <ele>521</ele>
        <time>2011-12-17T15:32:17.000Z</time>
      </trkpt>
      <trkpt lat="43.71289" lon="7.04168">
        <ele>520</ele>
        <time>2011-12-17T15:32:22.000Z</time>
      </trkpt>
      <trkpt lat="43.71284" lon="7.0419">
        <ele>520.40002441406</ele>
        <time>2011-12-17T15:32:27.000Z</time>
      </trkpt>
      <trkpt lat="43.71277" lon="7.04206">
        <ele>519.59997558594</ele>
        <time>2011-12-17T15:32:31.000Z</time>
      </trkpt>
      <trkpt lat="43.71266" lon="7.04233">
        <ele>519.40002441406</ele>
        <time>2011-12-17T15:32:36.000Z</time>
      </trkpt>
      <trkpt lat="43.71262" lon="7.04245">
        <ele>520.20001220703</ele>
        <time>2011-12-17T15:32:38.000Z</time>
      </trkpt>
      <trkpt lat="43.71259" lon="7.04275">
        <ele>522.59997558594</ele>
        <time>2011-12-17T15:32:43.000Z</time>
      </trkpt>
      <trkpt lat="43.71258" lon="7.04281">
        <ele>523</ele>
        <time>2011-12-17T15:32:44.000Z</time>
      </trkpt>
      <trkpt lat="43.71257" lon="7.043">
        <ele>525</ele>
        <time>2011-12-17T15:32:48.000Z</time>
      </trkpt>
      <trkpt lat="43.7126" lon="7.04329">
        <ele>528.79998779297</ele>
        <time>2011-12-17T15:32:55.000Z</time>
      </trkpt>
      <trkpt lat="43.71258" lon="7.04353">
        <ele>528.20001220703</ele>
        <time>2011-12-17T15:33:01.000Z</time>
      </trkpt>
      <trkpt lat="43.71261" lon="7.04381">
        <ele>528.20001220703</ele>
        <time>2011-12-17T15:33:06.000Z</time>
      </trkpt>
      <trkpt lat="43.71262" lon="7.04405">
        <ele>527.59997558594</ele>
        <time>2011-12-17T15:33:11.000Z</time>
      </trkpt>
      <trkpt lat="43.71264" lon="7.04425">
        <ele>526.79998779297</ele>
        <time>2011-12-17T15:33:16.000Z</time>
      </trkpt>
      <trkpt lat="43.71269" lon="7.04444">
        <ele>525.59997558594</ele>
        <time>2011-12-17T15:33:21.000Z</time>
      </trkpt>
      <trkpt lat="43.71274" lon="7.04451">
        <ele>525.79998779297</ele>
        <time>2011-12-17T15:33:25.000Z</time>
      </trkpt>
      <trkpt lat="43.7128" lon="7.0446">
        <ele>526</ele>
        <time>2011-12-17T15:33:30.000Z</time>
      </trkpt>
      <trkpt lat="43.71288" lon="7.04481">
        <ele>525.20001220703</ele>
        <time>2011-12-17T15:33:35.000Z</time>
      </trkpt>
      <trkpt lat="43.71297" lon="7.04517">
        <ele>522.40002441406</ele>
        <time>2011-12-17T15:33:40.000Z</time>
      </trkpt>
      <trkpt lat="43.71308" lon="7.04552">
        <ele>520.20001220703</ele>
        <time>2011-12-17T15:33:45.000Z</time>
      </trkpt>
      <trkpt lat="43.71317" lon="7.04573">
        <ele>520</ele>
        <time>2011-12-17T15:33:49.000Z</time>
      </trkpt>
      <trkpt lat="43.71326" lon="7.046">
        <ele>520.20001220703</ele>
        <time>2011-12-17T15:33:54.000Z</time>
      </trkpt>
      <trkpt lat="43.71333" lon="7.04644">
        <ele>518.79998779297</ele>
        <time>2011-12-17T15:34:01.000Z</time>
      </trkpt>
      <trkpt lat="43.71329" lon="7.0467">
        <ele>514.79998779297</ele>
        <time>2011-12-17T15:34:05.000Z</time>
      </trkpt>
      <trkpt lat="43.71331" lon="7.04696">
        <ele>512.79998779297</ele>
        <time>2011-12-17T15:34:09.000Z</time>
      </trkpt>
      <trkpt lat="43.71334" lon="7.04702">
        <ele>512.79998779297</ele>
        <time>2011-12-17T15:34:10.000Z</time>
      </trkpt>
      <trkpt lat="43.71339" lon="7.04713">
        <ele>512.40002441406</ele>
        <time>2011-12-17T15:34:12.000Z</time>
      </trkpt>
      <trkpt lat="43.71341" lon="7.04731">
        <ele>510.60000610352</ele>
        <time>2011-12-17T15:34:16.000Z</time>
      </trkpt>
      <trkpt lat="43.71335" lon="7.04758">
        <ele>506.39999389648</ele>
        <time>2011-12-17T15:34:22.000Z</time>
      </trkpt>
      <trkpt lat="43.71334" lon="7.04763">
        <ele>505.60000610352</ele>
        <time>2011-12-17T15:34:23.000Z</time>
      </trkpt>
      <trkpt lat="43.71334" lon="7.04775">
        <ele>504</ele>
        <time>2011-12-17T15:34:25.000Z</time>
      </trkpt>
      <trkpt lat="43.71342" lon="7.04805">
        <ele>501.60000610352</ele>
        <time>2011-12-17T15:34:30.000Z</time>
      </trkpt>
      <trkpt lat="43.71343" lon="7.0482">
        <ele>499.79998779297</ele>
        <time>2011-12-17T15:34:32.000Z</time>
      </trkpt>
      <trkpt lat="43.71353" lon="7.04848">
        <ele>497.39999389648</ele>
        <time>2011-12-17T15:34:36.000Z</time>
      </trkpt>
      <trkpt lat="43.7136" lon="7.04862">
        <ele>496.39999389648</ele>
        <time>2011-12-17T15:34:38.000Z</time>
      </trkpt>
      <trkpt lat="43.71378" lon="7.0489">
        <ele>494.79998779297</ele>
        <time>2011-12-17T15:34:42.000Z</time>
      </trkpt>
      <trkpt lat="43.71414" lon="7.04927">
        <ele>494.20001220703</ele>
        <time>2011-12-17T15:34:47.000Z</time>
      </trkpt>
      <trkpt lat="43.71439" lon="7.04962">
        <ele>491.20001220703</ele>
        <time>2011-12-17T15:34:51.000Z</time>
      </trkpt>
      <trkpt lat="43.71458" lon="7.05004">
        <ele>486.39999389648</ele>
        <time>2011-12-17T15:34:55.000Z</time>
      </trkpt>
      <trkpt lat="43.71462" lon="7.05042">
        <ele>481</ele>
        <time>2011-12-17T15:34:59.000Z</time>
      </trkpt>
      <trkpt lat="43.71463" lon="7.05075">
        <ele>476</ele>
        <time>2011-12-17T15:35:03.000Z</time>
      </trkpt>
      <trkpt lat="43.71489" lon="7.05109">
        <ele>472</ele>
        <time>2011-12-17T15:35:08.000Z</time>
      </trkpt>
      <trkpt lat="43.7151" lon="7.05135">
        <ele>470.20001220703</ele>
        <time>2011-12-17T15:35:12.000Z</time>
      </trkpt>
      <trkpt lat="43.71514" lon="7.0516">
        <ele>466.60000610352</ele>
        <time>2011-12-17T15:35:16.000Z</time>
      </trkpt>
      <trkpt lat="43.7152" lon="7.05209">
        <ele>458.20001220703</ele>
        <time>2011-12-17T15:35:22.000Z</time>
      </trkpt>
      <trkpt lat="43.71535" lon="7.05234">
        <ele>455</ele>
        <time>2011-12-17T15:35:26.000Z</time>
      </trkpt>
      <trkpt lat="43.71559" lon="7.05264">
        <ele>452.20001220703</ele>
        <time>2011-12-17T15:35:32.000Z</time>
      </trkpt>
      <trkpt lat="43.71568" lon="7.05279">
        <ele>450.39999389648</ele>
        <time>2011-12-17T15:35:34.000Z</time>
      </trkpt>
      <trkpt lat="43.716" lon="7.05312">
        <ele>446.60000610352</ele>
        <time>2011-12-17T15:35:39.000Z</time>
      </trkpt>
      <trkpt lat="43.71606" lon="7.05316">
        <ele>446</ele>
        <time>2011-12-17T15:35:40.000Z</time>
      </trkpt>
      <trkpt lat="43.7161" lon="7.05329">
        <ele>443.39999389648</ele>
        <time>2011-12-17T15:35:43.000Z</time>
      </trkpt>
      <trkpt lat="43.71602" lon="7.05334">
        <ele>442.39999389648</ele>
        <time>2011-12-17T15:35:45.000Z</time>
      </trkpt>
      <trkpt lat="43.71591" lon="7.05347">
        <ele>439.60000610352</ele>
        <time>2011-12-17T15:35:51.000Z</time>
      </trkpt>
      <trkpt lat="43.71592" lon="7.05349">
        <ele>439.20001220703</ele>
        <time>2011-12-17T15:35:52.000Z</time>
      </trkpt>
      <trkpt lat="43.71594" lon="7.05351">
        <ele>438.79998779297</ele>
        <time>2011-12-17T15:35:57.000Z</time>
      </trkpt>
      <trkpt lat="43.71598" lon="7.05347">
        <ele>439.79998779297</ele>
        <time>2011-12-17T15:36:11.000Z</time>
      </trkpt>
      <trkpt lat="43.71597" lon="7.05347">
        <ele>439.79998779297</ele>
        <time>2011-12-17T15:36:28.000Z</time>
      </trkpt>
      <trkpt lat="43.71597" lon="7.05347">
        <ele>439.60000610352</ele>
        <time>2011-12-17T15:36:36.000Z</time>
      </trkpt>
      <trkpt lat="43.71597" lon="7.0535">
        <ele>439.20001220703</ele>
        <time>2011-12-17T15:36:40.000Z</time>
      </trkpt>
      <trkpt lat="43.71608" lon="7.05353">
        <ele>438.79998779297</ele>
        <time>2011-12-17T15:36:44.000Z</time>
      </trkpt>
      <trkpt lat="43.71632" lon="7.05365">
        <ele>436.39999389648</ele>
        <time>2011-12-17T15:36:49.000Z</time>
      </trkpt>
      <trkpt lat="43.71675" lon="7.05379">
        <ele>433.20001220703</ele>
        <time>2011-12-17T15:36:56.000Z</time>
      </trkpt>
      <trkpt lat="43.7168" lon="7.05381">
        <ele>432.79998779297</ele>
        <time>2011-12-17T15:36:57.000Z</time>
      </trkpt>
      <trkpt lat="43.71707" lon="7.05387">
        <ele>431.79998779297</ele>
        <time>2011-12-17T15:37:03.000Z</time>
      </trkpt>
      <trkpt lat="43.71726" lon="7.05389">
        <ele>431.20001220703</ele>
        <time>2011-12-17T15:37:08.000Z</time>
      </trkpt>
      <trkpt lat="43.71757" lon="7.05394">
        <ele>430.60000610352</ele>
        <time>2011-12-17T15:37:15.000Z</time>
      </trkpt>
      <trkpt lat="43.71793" lon="7.05402">
        <ele>430.20001220703</ele>
        <time>2011-12-17T15:37:22.000Z</time>
      </trkpt>
      <trkpt lat="43.71799" lon="7.05404">
        <ele>430</ele>
        <time>2011-12-17T15:37:23.000Z</time>
      </trkpt>
      <trkpt lat="43.71825" lon="7.0541">
        <ele>430</ele>
        <time>2011-12-17T15:37:27.000Z</time>
      </trkpt>
      <trkpt lat="43.7184" lon="7.05425">
        <ele>429.39999389648</ele>
        <time>2011-12-17T15:37:31.000Z</time>
      </trkpt>
      <trkpt lat="43.71834" lon="7.05442">
        <ele>427</ele>
        <time>2011-12-17T15:37:34.000Z</time>
      </trkpt>
      <trkpt lat="43.71813" lon="7.05466">
        <ele>422</ele>
        <time>2011-12-17T15:37:38.000Z</time>
      </trkpt>
      <trkpt lat="43.71798" lon="7.05491">
        <ele>416.39999389648</ele>
        <time>2011-12-17T15:37:41.000Z</time>
      </trkpt>
      <trkpt lat="43.71784" lon="7.05553">
        <ele>413.79998779297</ele>
        <time>2011-12-17T15:37:49.000Z</time>
      </trkpt>
      <trkpt lat="43.71781" lon="7.05567">
        <ele>413.79998779297</ele>
        <time>2011-12-17T15:37:51.000Z</time>
      </trkpt>
      <trkpt lat="43.71769" lon="7.056">
        <ele>412.79998779297</ele>
        <time>2011-12-17T15:37:57.000Z</time>
      </trkpt>
      <trkpt lat="43.71759" lon="7.05621">
        <ele>412.39999389648</ele>
        <time>2011-12-17T15:38:01.000Z</time>
      </trkpt>
      <trkpt lat="43.71745" lon="7.05662">
        <ele>413</ele>
        <time>2011-12-17T15:38:08.000Z</time>
      </trkpt>
      <trkpt lat="43.71743" lon="7.05668">
        <ele>413.20001220703</ele>
        <time>2011-12-17T15:38:09.000Z</time>
      </trkpt>
      <trkpt lat="43.71741" lon="7.05698">
        <ele>414</ele>
        <time>2011-12-17T15:38:14.000Z</time>
      </trkpt>
      <trkpt lat="43.71734" lon="7.05723">
        <ele>413.79998779297</ele>
        <time>2011-12-17T15:38:19.000Z</time>
      </trkpt>
      <trkpt lat="43.71728" lon="7.05735">
        <ele>413.20001220703</ele>
        <time>2011-12-17T15:38:21.000Z</time>
      </trkpt>
      <trkpt lat="43.71716" lon="7.05754">
        <ele>412.60000610352</ele>
        <time>2011-12-17T15:38:24.000Z</time>
      </trkpt>
      <trkpt lat="43.71696" lon="7.05797">
        <ele>412.60000610352</ele>
        <time>2011-12-17T15:38:30.000Z</time>
      </trkpt>
      <trkpt lat="43.7169" lon="7.05808">
        <ele>412.60000610352</ele>
        <time>2011-12-17T15:38:33.000Z</time>
      </trkpt>
      <trkpt lat="43.71687" lon="7.05812">
        <ele>412.39999389648</ele>
        <time>2011-12-17T15:38:38.000Z</time>
      </trkpt>
      <trkpt lat="43.71686" lon="7.05822">
        <ele>413.20001220703</ele>
        <time>2011-12-17T15:38:42.000Z</time>
      </trkpt>
      <trkpt lat="43.71688" lon="7.05844">
        <ele>414</ele>
        <time>2011-12-17T15:38:47.000Z</time>
      </trkpt>
      <trkpt lat="43.71692" lon="7.0588">
        <ele>413.60000610352</ele>
        <time>2011-12-17T15:38:54.000Z</time>
      </trkpt>
      <trkpt lat="43.71698" lon="7.05923">
        <ele>412.79998779297</ele>
        <time>2011-12-17T15:39:00.000Z</time>
      </trkpt>
      <trkpt lat="43.71717" lon="7.05983">
        <ele>409</ele>
        <time>2011-12-17T15:39:09.000Z</time>
      </trkpt>
      <trkpt lat="43.71727" lon="7.06021">
        <ele>407.60000610352</ele>
        <time>2011-12-17T15:39:15.000Z</time>
      </trkpt>
      <trkpt lat="43.71748" lon="7.06069">
        <ele>407.79998779297</ele>
        <time>2011-12-17T15:39:23.000Z</time>
      </trkpt>
      <trkpt lat="43.71768" lon="7.06118">
        <ele>406.39999389648</ele>
        <time>2011-12-17T15:39:31.000Z</time>
      </trkpt>
      <trkpt lat="43.71792" lon="7.06175">
        <ele>405.20001220703</ele>
        <time>2011-12-17T15:39:40.000Z</time>
      </trkpt>
      <trkpt lat="43.71816" lon="7.06228">
        <ele>405.39999389648</ele>
        <time>2011-12-17T15:39:49.000Z</time>
      </trkpt>
      <trkpt lat="43.71832" lon="7.06263">
        <ele>404.20001220703</ele>
        <time>2011-12-17T15:39:56.000Z</time>
      </trkpt>
      <trkpt lat="43.71834" lon="7.06268">
        <ele>404.20001220703</ele>
        <time>2011-12-17T15:39:57.000Z</time>
      </trkpt>
      <trkpt lat="43.71834" lon="7.06296">
        <ele>402.79998779297</ele>
        <time>2011-12-17T15:40:02.000Z</time>
      </trkpt>
      <trkpt lat="43.71828" lon="7.06308">
        <ele>402</ele>
        <time>2011-12-17T15:40:05.000Z</time>
      </trkpt>
      <trkpt lat="43.71828" lon="7.06327">
        <ele>401.20001220703</ele>
        <time>2011-12-17T15:40:10.000Z</time>
      </trkpt>
      <trkpt lat="43.71833" lon="7.06342">
        <ele>401.39999389648</ele>
        <time>2011-12-17T15:40:15.000Z</time>
      </trkpt>
      <trkpt lat="43.71829" lon="7.0635">
        <ele>401.79998779297</ele>
        <time>2011-12-17T15:40:17.000Z</time>
      </trkpt>
      <trkpt lat="43.71822" lon="7.0637">
        <ele>402.39999389648</ele>
        <time>2011-12-17T15:40:22.000Z</time>
      </trkpt>
      <trkpt lat="43.71826" lon="7.06381">
        <ele>403</ele>
        <time>2011-12-17T15:40:26.000Z</time>
      </trkpt>
      <trkpt lat="43.71825" lon="7.06383">
        <ele>403.20001220703</ele>
        <time>2011-12-17T15:40:35.000Z</time>
      </trkpt>
      <trkpt lat="43.71824" lon="7.06382">
        <ele>403.20001220703</ele>
        <time>2011-12-17T15:40:42.000Z</time>
      </trkpt>
      <trkpt lat="43.71825" lon="7.06381">
        <ele>403</ele>
        <time>2011-12-17T15:41:00.000Z</time>
      </trkpt>
      <trkpt lat="43.71826" lon="7.06382">
        <ele>403.20001220703</ele>
        <time>2011-12-17T15:41:08.000Z</time>
      </trkpt>
    </trkseg>
  </trk>
</gpx>